# Wetter Temperatur Luftdruck Luftfeuchtigkeit Sichtweite Windgeschwindigkeit Windrichtung Zeit
1 Clouds 27 1017 83 10000 2.1 220 05:20 11.07.2020
2 Clouds 27 1017 88 10000 2.6 190 04:54 11.07.2020
3 Clouds 27 1017 88 10000 2.6 190 04:31 11.07.2020
4 Clouds 27 1017 88 10000 3.1 210 02:58 11.07.2020
5 Clouds 27 1017 88 10000 3.1 210 02:36 11.07.2020
6 Clouds 26 1017 88 10000 1.5 50 01:27 11.07.2020
7 Rain 25 1017 94 10000 2.6 330 00:59 11.07.2020
8 Rain 25 1017 94 10000 2.6 330 00:38 11.07.2020
9 Rain 25 1017 94 10000 2.6 330 00:19 11.07.2020
10 Clouds 26 1017 88 10000 1 0 23:56 10.07.2020
11 Clouds 26 1017 88 10000 1 0 23:38 10.07.2020
12 Thunderstorm 28 1017 83 1600 4.6 220 23:18 10.07.2020
13 Thunderstorm 28 1017 83 1600 4.6 220 22:42 10.07.2020
14 Thunderstorm 28 1017 83 1600 4.6 220 22:19 10.07.2020
15 Clouds 31 1016 62 10000 3.6 130 21:40 10.07.2020
16 Clouds 31 1016 62 10000 3.6 130 21:21 10.07.2020
17 Rain 34 1017 59 10000 3.6 340 20:58 10.07.2020
18 Rain 34 1017 59 10000 3.6 340 20:40 10.07.2020
19 Rain 34 1017 59 10000 3.6 340 20:20 10.07.2020
20 Clouds 33 1017 59 10000 3.1 330 19:57 10.07.2020
21 Clouds 33 1017 59 10000 3.1 330 19:38 10.07.2020
22 Clouds 33 1017 59 10000 3.1 330 19:19 10.07.2020
23 Clouds 31 1017 66 10000 3.1 280 18:41 10.07.2020
24 Clouds 31 1017 66 10000 3.1 280 18:19 10.07.2020
25 Clouds 32 1017 66 10000 2.6 250 17:56 10.07.2020
26 Clouds 32 1017 66 10000 2.6 250 17:38 10.07.2020
27 Clouds 32 1017 66 10000 2.6 250 17:20 10.07.2020
28 Clouds 32 1017 66 10000 2.6 260 16:42 10.07.2020
29 Clouds 32 1017 66 10000 2.6 260 16:20 10.07.2020
30 Clouds 31 1016 70 10000 2.6 250 15:45 10.07.2020
31 Clouds 31 1016 70 10000 2.6 250 15:45 10.07.2020
32 Clouds 31 1016 70 10000 2.6 250 15:23 10.07.2020
33 Clouds 29 1016 83 10000 1.5 260 14:55 10.07.2020
34 Clouds 29 1016 83 10000 1.5 260 14:37 10.07.2020
35 Clouds 29 1016 83 10000 1.5 260 14:19 10.07.2020
36 Clouds 27 1016 88 10000 1.5 260 13:56 10.07.2020
37 Clouds 27 1016 88 10000 1.5 260 13:37 10.07.2020
38 Clouds 27 1016 88 10000 1.5 260 13:37 10.07.2020
39 Clouds 27 1016 88 10000 1.5 260 13:37 10.07.2020
40 Clouds 27 1016 88 10000 1.5 260 13:19 10.07.2020
41 Clouds 26 1016 94 10000 1.5 250 12:44 10.07.2020
42 Clouds 26 1016 94 10000 1.5 250 12:24 10.07.2020
43 Clouds 27 1015 88 10000 1 0 11:59 10.07.2020
44 Clouds 27 1015 88 10000 1 0 11:38 10.07.2020
45 Clouds 27 1015 88 10000 1 0 11:19 10.07.2020
46 Clouds 27 1015 88 10000 1.5 230 10:55 10.07.2020
47 Clouds 27 1015 88 10000 1.5 230 10:36 10.07.2020
48 Thunderstorm 27 1016 88 10000 2.1 240 10:18 10.07.2020
49 Thunderstorm 27 1016 88 10000 2.1 240 09:38 10.07.2020
50 Thunderstorm 27 1016 88 10000 2.1 240 09:19 10.07.2020
51 Thunderstorm 27 1016 88 10000 2.1 200 08:57 10.07.2020
52 Thunderstorm 27 1016 88 10000 2.1 200 08:38 10.07.2020
53 Thunderstorm 27 1016 88 10000 2.1 200 08:20 10.07.2020
54 Clouds 27 1017 88 10000 1 0 07:42 10.07.2020
55 Clouds 27 1017 88 10000 1 0 07:22 10.07.2020
56 Clouds 27 1017 88 10000 1 0 06:49 10.07.2020
57 Clouds 28 1017 78 10000 1.5 220 05:58 10.07.2020
58 Clouds 28 1016 83 10000 0.5 0 04:39 10.07.2020
59 Clouds 30 1015 66 10000 0.5 0 03:37 10.07.2020
60 Clouds 30 1015 66 10000 1 0 02:52 10.07.2020
61 Rain 31 1015 58 10000 2.1 20 01:49 10.07.2020
62 Rain 31 1015 62 10000 2.6 330 00:48 10.07.2020
63 Rain 31 1015 62 10000 2.6 330 00:20 10.07.2020
64 Clouds 32 1015 59 10000 2.6 10 23:46 09.07.2020
65 Clouds 32 1015 59 10000 2.6 10 23:22 09.07.2020
66 Clouds 32 1015 59 10000 2.6 210 22:58 09.07.2020
67 Clouds 32 1015 59 10000 2.6 210 22:40 09.07.2020
68 Clouds 32 1015 59 10000 2.6 210 22:21 09.07.2020
69 Rain 31 1015 58 10000 2.1 220 21:56 09.07.2020
70 Rain 31 1015 58 10000 2.1 220 21:38 09.07.2020
71 Rain 31 1015 58 10000 2.1 220 21:19 09.07.2020
72 Clouds 32 1016 59 10000 3.1 240 20:44 09.07.2020
73 Clouds 32 1016 59 10000 3.1 240 20:25 09.07.2020
74 Clouds 31 1016 70 10000 3.6 230 19:58 09.07.2020
75 Clouds 31 1016 70 10000 3.6 230 19:40 09.07.2020
76 Clouds 31 1016 70 10000 3.6 230 19:20 09.07.2020
77 Clouds 32 1015 66 10000 3.1 300 18:42 09.07.2020
78 Clouds 32 1015 66 10000 3.1 300 18:21 09.07.2020
79 Clouds 31 1015 70 10000 2.1 300 17:55 09.07.2020
80 Clouds 31 1015 70 10000 2.1 300 17:37 09.07.2020
81 Clouds 31 1015 70 10000 2.1 300 17:18 09.07.2020
82 Clouds 32 1015 62 10000 2.1 240 16:55 09.07.2020
83 Clouds 32 1015 62 10000 2.1 240 16:36 09.07.2020
84 Clouds 32 1015 62 10000 2.1 240 16:18 09.07.2020
85 Clouds 30 1016 74 10000 2.18 189 15:45 09.07.2020
86 Clouds 30 1016 74 10000 2.2 192 15:27 09.07.2020
87 Clouds 27 1015 88 10000 2.2 192 14:59 09.07.2020
88 Clouds 27 1015 88 10000 2.2 192 14:41 09.07.2020
89 Clouds 27 1015 88 10000 2.09 196 14:22 09.07.2020
90 Clouds 26 1015 88 10000 1 340 13:58 09.07.2020
91 Clouds 26 1015 88 10000 1 340 13:40 09.07.2020
92 Clouds 26 1015 88 10000 1 340 13:20 09.07.2020
93 Clouds 26 1014 88 10000 2.62 193 12:57 09.07.2020
94 Clouds 26 1014 88 10000 2.6 193 12:38 09.07.2020
95 Clouds 26 1014 88 10000 2.6 194 12:19 09.07.2020
96 Clouds 26 1014 88 10000 0.5 0 11:43 09.07.2020
97 Clouds 26 1014 88 10000 0.5 0 11:24 09.07.2020
98 Clouds 25 1015 88 10000 1 180 10:58 09.07.2020
99 Clouds 25 1015 88 10000 1 180 10:40 09.07.2020
100 Clouds 25 1015 88 10000 1 180 10:40 09.07.2020
101 Clouds 25 1015 88 10000 1 180 10:22 09.07.2020
102 Clouds 26 1015 88 10000 0.5 30 09:55 09.07.2020
103 Clouds 26 1015 88 10000 0.5 30 09:37 09.07.2020
104 Clouds 26 1015 88 10000 0.5 30 09:18 09.07.2020
105 Clouds 26 1015 88 10000 0.5 0 08:43 09.07.2020
106 Clouds 26 1015 88 10000 0.5 0 08:24 09.07.2020
107 Clouds 26 1016 88 10000 4.21 153 07:45 09.07.2020
108 Clouds 26 1016 88 10000 4.53 146 07:22 09.07.2020
109 Clouds 27 1016 83 10000 4.53 146 06:41 09.07.2020
110 Clouds 27 1016 83 10000 4.19 140 06:19 09.07.2020
111 Clouds 28 1015 78 10000 2.1 160 04:29 09.07.2020
112 Clouds 28 1015 78 10000 1.5 150 03:25 09.07.2020
113 Clouds 29 1014 74 10000 3.1 150 02:18 09.07.2020
114 Clouds 30 1015 66 10000 2.6 160 01:23 09.07.2020
115 Clouds 30 1015 70 10000 3.1 160 00:43 09.07.2020
116 Clouds 30 1015 70 10000 3.1 160 00:23 09.07.2020
117 Clouds 30 1015 66 10000 3.6 170 23:44 08.07.2020
118 Clouds 30 1015 66 10000 3.6 170 23:26 08.07.2020
119 Clouds 31 1015 66 10000 3.6 160 22:57 08.07.2020
120 Clouds 31 1015 66 10000 3.6 160 22:38 08.07.2020
121 Clouds 31 1015 66 10000 3.6 160 22:38 08.07.2020
122 Clouds 31 1015 66 10000 3.6 160 22:20 08.07.2020
123 Clouds 28 1016 83 10000 0.5 0 21:57 08.07.2020
124 Clouds 28 1016 83 10000 0.5 0 21:38 08.07.2020
125 Clouds 28 1016 83 10000 0.5 0 21:20 08.07.2020
126 Thunderstorm 26 1017 94 10000 5.7 340 20:42 08.07.2020
127 Thunderstorm 26 1017 94 10000 5.7 340 20:24 08.07.2020
128 Rain 31 1017 70 10000 4.1 80 19:57 08.07.2020
129 Rain 31 1017 70 10000 4.1 80 19:38 08.07.2020
130 Rain 31 1017 70 10000 4.1 80 19:20 08.07.2020
131 Rain 31 1017 62 10000 2.1 160 18:42 08.07.2020
132 Rain 31 1017 62 10000 2.1 160 18:21 08.07.2020
133 Clouds 32 1017 62 10000 3.6 130 17:58 08.07.2020
134 Clouds 32 1017 62 10000 3.6 130 17:39 08.07.2020
135 Clouds 32 1017 62 10000 3.6 130 17:20 08.07.2020
136 Clouds 31 1017 58 10000 3.6 130 16:58 08.07.2020
137 Clouds 31 1017 58 10000 3.6 130 16:38 08.07.2020
138 Clouds 31 1017 58 10000 3.6 130 16:19 08.07.2020
139 Clouds 30 1017 66 10000 4.1 170 15:58 08.07.2020
140 Clouds 30 1017 66 10000 4.1 170 15:38 08.07.2020
141 Clouds 30 1017 66 10000 4.1 170 15:38 08.07.2020
142 Clouds 30 1017 66 10000 4.1 170 15:19 08.07.2020
143 Clouds 30 1017 66 10000 4.1 170 15:19 08.07.2020
144 Clouds 29 1017 74 10000 3.6 110 14:42 08.07.2020
145 Clouds 29 1017 74 10000 3.6 110 14:42 08.07.2020
146 Clouds 29 1017 74 10000 3.6 110 14:21 08.07.2020
147 Clouds 28 1017 78 10000 1.5 100 13:56 08.07.2020
148 Clouds 28 1017 78 10000 1.5 100 13:37 08.07.2020
149 Clouds 28 1017 78 10000 1.5 100 13:18 08.07.2020
150 Clouds 27 1017 83 10000 1 0 12:40 08.07.2020
151 Clouds 27 1017 83 10000 1 0 12:20 08.07.2020
152 Clouds 28 1016 83 10000 3.1 120 11:40 08.07.2020
153 Clouds 28 1016 83 10000 3.1 120 11:21 08.07.2020
154 Clouds 28 1016 83 10000 3.1 120 10:59 08.07.2020
155 Clouds 28 1016 83 10000 3.1 120 10:41 08.07.2020
156 Clouds 28 1016 83 10000 3.1 120 10:23 08.07.2020
157 Rain 29 1015 73 0 5.63 131 09:45 08.07.2020
158 Rain 29 1016 76 0 5.41 130 09:25 08.07.2020
159 Rain 29 1016 76 0 5.41 130 08:44 08.07.2020
160 Clouds 27 1018 83 10000 2.6 100 08:25 08.07.2020
161 Clouds 27 1018 83 10000 2.6 100 07:50 08.07.2020
162 Clouds 27 1018 83 10000 2.6 100 07:25 08.07.2020
163 Rain 25 1019 88 10000 1 0 06:58 08.07.2020
164 Rain 25 1019 88 10000 1 0 06:39 08.07.2020
165 Rain 25 1019 88 10000 1 0 06:20 08.07.2020
166 Thunderstorm 25 1019 83 10000 2.6 160 05:38 08.07.2020
167 Thunderstorm 28 1019 83 10000 1.5 60 04:38 08.07.2020
168 Clouds 29 1017 79 10000 2.6 70 02:55 08.07.2020
169 Clouds 29 1017 83 10000 3.1 70 01:57 08.07.2020
170 Clouds 29 1017 83 10000 3.1 70 01:37 08.07.2020
171 Clouds 30 1017 74 10000 3.6 90 00:37 08.07.2020
172 Clouds 30 1017 74 10000 3.6 90 00:18 08.07.2020
173 Clouds 30 1017 79 10000 4.1 50 23:41 07.07.2020
174 Clouds 30 1017 79 10000 4.1 50 23:20 07.07.2020
175 Rain 30 1018 79 10000 1 0 22:45 07.07.2020
176 Rain 30 1018 79 10000 1 0 22:24 07.07.2020
177 Rain 28 1018 83 10000 3.6 150 21:59 07.07.2020
178 Rain 28 1018 83 10000 3.6 150 21:40 07.07.2020
179 Rain 28 1018 83 10000 3.6 150 21:21 07.07.2020
180 Clouds 29 1019 74 10000 2.6 10 20:57 07.07.2020
181 Clouds 29 1019 74 10000 2.6 10 20:39 07.07.2020
182 Clouds 29 1019 74 10000 2.6 10 20:21 07.07.2020
183 Thunderstorm 28 1020 83 10000 2.6 330 19:42 07.07.2020
184 Thunderstorm 28 1020 83 10000 2.6 330 19:21 07.07.2020
185 Thunderstorm 29 1020 66 10000 1 0 18:58 07.07.2020
186 Thunderstorm 29 1020 66 10000 1 0 18:40 07.07.2020
187 Thunderstorm 29 1020 66 10000 1 0 18:21 07.07.2020
188 Thunderstorm 29 1020 79 10000 4.1 80 17:58 07.07.2020
189 Thunderstorm 29 1020 79 10000 4.1 80 17:38 07.07.2020
190 Rain 32 1019 59 10000 4.6 140 17:20 07.07.2020
191 Clouds 30 1019 74 10000 4.1 120 16:43 07.07.2020
192 Clouds 30 1019 74 10000 4.1 120 16:24 07.07.2020
193 Rain 29 1019 74 10000 4.1 130 15:58 07.07.2020
194 Rain 29 1019 74 10000 4.1 130 15:39 07.07.2020
195 Rain 29 1019 74 10000 4.1 130 15:20 07.07.2020
196 Clouds 30 1019 74 10000 3.1 100 14:47 07.07.2020
197 Clouds 30 1019 74 10000 3.1 100 14:26 07.07.2020
198 Clouds 28 1018 78 10000 2.6 90 13:57 07.07.2020
199 Clouds 28 1018 78 10000 2.6 90 13:38 07.07.2020
200 Clouds 28 1018 78 10000 2.6 90 13:18 07.07.2020
201 Clouds 28 1018 83 10000 2.1 80 12:40 07.07.2020
202 Clouds 28 1018 83 10000 2.1 80 12:22 07.07.2020
203 Clouds 28 1018 83 10000 2.1 80 12:22 07.07.2020
204 Clouds 28 1018 78 10000 1.5 90 11:50 07.07.2020
205 Clouds 28 1018 78 10000 1.5 90 11:26 07.07.2020
206 Clouds 28 1018 83 10000 3.1 100 10:59 07.07.2020
207 Clouds 28 1018 83 10000 3.1 100 10:41 07.07.2020
208 Clouds 28 1018 83 10000 3.1 100 10:21 07.07.2020
209 Clouds 28 1018 83 10000 1.5 80 09:55 07.07.2020
210 Clouds 28 1018 83 10000 1.5 80 09:37 07.07.2020
211 Clouds 28 1018 83 10000 1.5 80 09:37 07.07.2020
212 Clouds 28 1018 83 10000 1.5 80 09:18 07.07.2020
213 Clouds 28 1019 83 10000 2.1 80 08:40 07.07.2020
214 Clouds 28 1019 83 10000 2.1 80 08:22 07.07.2020
215 Clouds 28 1019 83 10000 1.5 90 07:41 07.07.2020
216 Clouds 28 1019 83 10000 1.5 90 07:21 07.07.2020
217 Clouds 29 1019 79 10000 2.1 90 06:49 07.07.2020
218 Clouds 29 1019 79 10000 2.1 90 06:28 07.07.2020
219 Clouds 28 1020 78 10000 1.5 80 05:51 07.07.2020
220 Clouds 28 1020 78 10000 1.5 80 05:20 07.07.2020
221 Clouds 29 1019 74 10000 2.6 100 04:36 07.07.2020
222 Clouds 29 1019 74 10000 2.1 110 03:35 07.07.2020
223 Clouds 29 1018 74 10000 3.1 110 02:18 07.07.2020
224 Clouds 31 1018 66 10000 3.1 140 01:21 07.07.2020
225 Clouds 31 1018 62 10000 3.6 160 00:42 07.07.2020
226 Clouds 31 1018 62 10000 3.6 160 00:22 07.07.2020
227 Clouds 32 1018 59 10000 1.5 0 23:44 06.07.2020
228 Clouds 32 1018 59 10000 1.5 0 23:26 06.07.2020
229 Clouds 31 1018 66 10000 1 0 22:59 06.07.2020
230 Clouds 31 1018 66 10000 1 0 22:39 06.07.2020
231 Clouds 31 1018 66 10000 1 0 22:19 06.07.2020
232 Clouds 30 1018 66 10000 1 0 21:57 06.07.2020
233 Clouds 30 1018 66 10000 1 0 21:37 06.07.2020
234 Clouds 30 1018 66 10000 1 0 21:18 06.07.2020
235 Thunderstorm 29 1019 70 10000 3.6 30 20:41 06.07.2020
236 Thunderstorm 29 1019 70 10000 3.6 30 20:22 06.07.2020
237 Clouds 32 1019 62 10000 4.6 140 19:59 06.07.2020
238 Clouds 32 1019 62 10000 4.6 140 19:41 06.07.2020
239 Clouds 32 1019 62 10000 4.6 140 19:23 06.07.2020
240 Thunderstorm 30 1019 74 10000 1 0 18:58 06.07.2020
241 Thunderstorm 30 1019 74 10000 1 0 18:40 06.07.2020
242 Thunderstorm 30 1019 74 10000 1 0 18:22 06.07.2020
243 Rain 27 1019 88 10000 3.6 240 17:54 06.07.2020
244 Rain 27 1019 88 10000 3.6 240 17:36 06.07.2020
245 Rain 27 1019 88 10000 3.6 240 17:18 06.07.2020
246 Thunderstorm 27 1019 94 10000 2.1 240 16:42 06.07.2020
247 Thunderstorm 27 1019 94 10000 2.1 240 16:23 06.07.2020
248 Clouds 31 1018 74 10000 1 0 15:45 06.07.2020
249 Clouds 31 1018 74 10000 1 0 15:27 06.07.2020
250 Clouds 28 1018 83 10000 2.1 180 14:58 06.07.2020
251 Clouds 28 1018 83 10000 2.1 180 14:38 06.07.2020
252 Clouds 28 1018 83 10000 2.1 180 14:20 06.07.2020
253 Clouds 27 1017 78 10000 2.1 120 13:58 06.07.2020
254 Clouds 27 1017 78 10000 2.1 120 13:39 06.07.2020
255 Clouds 27 1017 78 10000 2.1 120 13:20 06.07.2020
256 Thunderstorm 26 1017 88 10000 4.63 131 12:43 06.07.2020
257 Thunderstorm 26 1017 88 10000 4.22 129 12:19 06.07.2020
258 Clouds 27 1016 83 10000 1.5 70 11:58 06.07.2020
259 Clouds 27 1016 83 10000 1.5 70 11:39 06.07.2020
260 Clouds 27 1016 83 10000 1.5 70 11:20 06.07.2020
261 Clouds 26 1017 88 10000 0.5 0 10:56 06.07.2020
262 Clouds 26 1017 88 10000 0.5 0 10:38 06.07.2020
263 Clouds 26 1017 88 10000 0.5 0 10:18 06.07.2020
264 Clouds 25 1017 94 10000 0.5 0 09:42 06.07.2020
265 Clouds 25 1017 94 10000 0.5 0 09:22 06.07.2020
266 Clouds 26 1018 88 10000 1 0 08:56 06.07.2020
267 Clouds 26 1018 88 10000 1 0 08:38 06.07.2020
268 Clouds 26 1018 88 10000 1 0 08:19 06.07.2020
269 Clouds 26 1018 88 10000 0.5 0 07:46 06.07.2020
270 Clouds 26 1018 88 10000 0.5 0 07:24 06.07.2020
271 Thunderstorm 26 1018 94 10000 1 0 06:42 06.07.2020
272 Thunderstorm 26 1018 94 10000 1 0 06:23 06.07.2020
273 Thunderstorm 27 1018 88 10000 1 0 05:41 06.07.2020
274 Thunderstorm 27 1017 88 10000 0.5 0 04:55 06.07.2020
275 Clouds 27 1017 88 10000 1 0 03:42 06.07.2020
276 Clouds 29 1017 79 10000 1 0 02:23 06.07.2020
277 Clouds 30 1016 70 10000 1 0 01:34 06.07.2020
278 Clouds 30 1016 70 10000 1 0 00:38 06.07.2020
279 Clouds 30 1016 70 10000 1 0 00:19 06.07.2020
280 Clouds 29 1017 79 10000 1 0 23:42 05.07.2020
281 Clouds 29 1017 79 10000 1 0 23:23 05.07.2020
282 Clouds 30 1015 65 0 2.94 129 22:59 05.07.2020
283 Clouds 30 1015 65 0 2.95 129 22:40 05.07.2020
284 Clouds 30 1015 66 0 3.38 127 22:20 05.07.2020
285 Rain 29 1017 79 10000 2.6 350 21:57 05.07.2020
286 Rain 29 1017 79 10000 2.6 350 21:38 05.07.2020
287 Thunderstorm 31 1017 66 10000 2.1 240 21:18 05.07.2020
288 Clouds 31 1017 62 10000 2.1 120 20:57 05.07.2020
289 Clouds 31 1017 62 10000 2.1 120 20:38 05.07.2020
290 Clouds 31 1017 62 10000 2.1 120 20:20 05.07.2020
291 Thunderstorm 28 1017 61 10000 3.1 110 19:43 05.07.2020
292 Thunderstorm 28 1017 61 10000 3.1 110 19:43 05.07.2020
293 Thunderstorm 28 1017 61 10000 3.1 110 19:21 05.07.2020
294 Thunderstorm 25 1018 94 2400 6.2 170 18:56 05.07.2020
295 Thunderstorm 25 1018 94 2400 6.2 170 18:37 05.07.2020
296 Thunderstorm 25 1018 94 2400 6.2 170 18:37 05.07.2020
297 Thunderstorm 25 1018 94 2400 6.2 170 18:19 05.07.2020
298 Clouds 29 1016 70 0 3.9 185 17:43 05.07.2020
299 Clouds 30 1017 74 10000 2.6 210 17:20 05.07.2020
300 Clouds 30 1017 74 10000 2.6 210 16:59 05.07.2020
301 Clouds 30 1017 74 10000 2.6 210 16:40 05.07.2020
302 Clouds 30 1017 74 10000 2.6 210 16:21 05.07.2020
303 Clouds 30 1017 74 10000 3.1 230 15:41 05.07.2020
304 Clouds 30 1017 74 10000 3.1 230 15:20 05.07.2020
305 Clouds 29 1016 79 10000 1.5 210 14:56 05.07.2020
306 Clouds 29 1016 79 10000 1.5 210 14:38 05.07.2020
307 Clouds 29 1016 79 10000 1.5 210 14:20 05.07.2020
308 Thunderstorm 27 1016 83 10000 1 220 13:41 05.07.2020
309 Thunderstorm 27 1016 83 10000 1 220 13:23 05.07.2020
310 Thunderstorm 27 1016 83 10000 1 220 13:23 05.07.2020
311 Thunderstorm 26 1015 83 10000 2.1 220 12:46 05.07.2020
312 Thunderstorm 26 1015 83 10000 2.1 220 12:21 05.07.2020
313 Clouds 25 1015 94 10000 1.5 230 11:56 05.07.2020
314 Clouds 25 1015 94 10000 1.5 230 11:38 05.07.2020
315 Clouds 25 1015 94 10000 1.5 230 11:19 05.07.2020
316 Thunderstorm 26 1015 88 10000 4.66 165 10:55 05.07.2020
317 Thunderstorm 26 1015 88 10000 4.66 165 10:36 05.07.2020
318 Thunderstorm 26 1015 88 10000 4.63 164 10:18 05.07.2020
319 Thunderstorm 26 1015 88 10000 4.63 164 09:41 05.07.2020
320 Thunderstorm 26 1015 88 10000 2.8 159 09:20 05.07.2020
321 Thunderstorm 26 1015 88 10000 2.8 159 08:56 05.07.2020
322 Thunderstorm 26 1015 88 10000 2.8 159 08:37 05.07.2020
323 Clear 27 1016 83 10000 2.83 164 07:59 05.07.2020
324 Clear 27 1016 83 10000 2.83 164 07:33 05.07.2020
325 Clear 27 1016 78 10000 1 0 06:58 05.07.2020
326 Clear 27 1016 78 10000 1 0 06:29 05.07.2020
327 Clouds 29 1015 70 10000 1 0 03:57 05.07.2020
328 Clouds 29 1015 70 10000 2.1 220 02:59 05.07.2020
329 Clouds 29 1015 70 10000 2.1 220 02:36 05.07.2020
330 Clouds 30 1014 66 10000 2.1 210 01:43 05.07.2020
331 Clouds 30 1014 66 10000 2.1 210 01:22 05.07.2020
332 Rain 30 1014 70 10000 4.1 230 00:45 05.07.2020
333 Rain 30 1014 70 10000 4.1 230 00:26 05.07.2020
334 Rain 31 1014 62 10000 2.1 210 23:54 04.07.2020
335 Rain 31 1014 62 10000 2.1 210 23:31 04.07.2020
336 Rain 32 1015 62 10000 3.6 240 22:59 04.07.2020
337 Rain 32 1015 62 10000 3.6 240 22:40 04.07.2020
338 Rain 32 1015 62 10000 3.6 240 22:22 04.07.2020
339 Rain 31 1015 66 10000 3.1 270 21:56 04.07.2020
340 Rain 31 1015 66 10000 3.1 270 21:38 04.07.2020
341 Rain 31 1015 66 10000 3.1 270 21:20 04.07.2020
342 Clouds 32 1015 59 10000 3.6 290 20:41 04.07.2020
343 Clouds 32 1015 59 10000 3.6 290 20:20 04.07.2020
344 Clouds 31 1016 66 10000 2.6 240 19:55 04.07.2020
345 Clouds 31 1016 66 10000 2.6 240 19:37 04.07.2020
346 Rain 30 1016 70 10000 3.1 300 19:19 04.07.2020
347 Rain 30 1016 70 10000 3.1 300 18:42 04.07.2020
348 Rain 30 1016 70 10000 3.1 300 18:22 04.07.2020
349 Rain 30 1016 74 10000 3.1 290 17:44 04.07.2020
350 Rain 30 1016 74 10000 3.1 290 17:44 04.07.2020
351 Rain 30 1016 74 10000 3.1 290 17:26 04.07.2020
352 Thunderstorm 30 1016 74 10000 2.1 240 16:58 04.07.2020
353 Thunderstorm 30 1016 74 10000 2.1 240 16:39 04.07.2020
354 Thunderstorm 30 1016 74 10000 2.1 240 16:20 04.07.2020
355 Rain 30 1016 74 10000 2.6 240 15:56 04.07.2020
356 Rain 30 1016 74 10000 2.6 240 15:37 04.07.2020
357 Rain 30 1016 74 10000 2.6 240 15:19 04.07.2020
358 Thunderstorm 29 1016 79 10000 1 0 14:38 04.07.2020
359 Thunderstorm 29 1016 79 10000 1 0 14:19 04.07.2020
360 Clouds 27 1015 83 10000 1.5 210 13:59 04.07.2020
361 Clouds 27 1015 83 10000 1.5 210 13:40 04.07.2020
362 Clouds 27 1015 83 10000 1.5 210 13:18 04.07.2020
363 Clouds 26 1015 88 10000 1 210 12:42 04.07.2020
364 Clouds 26 1015 88 10000 1 210 12:21 04.07.2020
365 Clouds 26 1014 88 10000 1 220 11:56 04.07.2020
366 Clouds 26 1014 88 10000 1 220 11:38 04.07.2020
367 Clouds 26 1014 88 10000 1 220 11:19 04.07.2020
368 Clouds 27 1014 83 10000 1.5 190 10:41 04.07.2020
369 Clouds 27 1014 83 10000 1.5 190 10:22 04.07.2020
370 Clouds 27 1014 83 10000 1 220 09:58 04.07.2020
371 Clouds 27 1014 83 10000 1 220 09:58 04.07.2020
372 Clouds 27 1014 83 10000 1 220 09:37 04.07.2020
373 Clouds 27 1014 83 10000 1 220 09:19 04.07.2020
374 Clouds 26 1015 88 10000 1.5 220 08:46 04.07.2020
375 Clouds 26 1015 88 10000 1.5 220 08:27 04.07.2020
376 Clouds 27 1015 83 10000 0.5 0 07:46 04.07.2020
377 Clouds 27 1015 83 10000 0.5 0 07:28 04.07.2020
378 Clouds 27 1016 83 10000 1 0 06:55 04.07.2020
379 Clouds 27 1016 83 10000 1 0 06:22 04.07.2020
380 Clouds 27 1015 78 10000 0.5 0 05:35 04.07.2020
381 Clouds 28 1015 74 10000 1.5 190 04:43 04.07.2020
382 Clouds 29 1014 70 10000 1.5 210 02:51 04.07.2020
383 Clouds 29 1014 70 10000 1.5 210 02:19 04.07.2020
384 Clouds 30 1014 66 10000 1.5 240 01:26 04.07.2020
385 Clouds 30 1014 70 10000 2.6 230 00:41 04.07.2020
386 Clouds 30 1014 70 10000 2.6 230 00:22 04.07.2020
387 Clouds 30 1015 70 10000 2.6 220 23:40 03.07.2020
388 Clouds 30 1015 70 10000 2.6 220 23:19 03.07.2020
389 Clouds 30 1015 70 10000 2.6 220 23:19 03.07.2020
390 Clouds 30 1015 70 10000 1.5 270 22:55 03.07.2020
391 Clouds 30 1015 70 10000 1.5 270 22:36 03.07.2020
392 Clouds 30 1015 70 10000 1.5 270 22:18 03.07.2020
393 Rain 30 1016 70 10000 4.6 290 21:40 03.07.2020
394 Rain 30 1016 70 10000 4.6 290 21:20 03.07.2020
395 Rain 32 1016 55 10000 1.5 360 20:55 03.07.2020
396 Rain 32 1016 55 10000 1.5 360 20:36 03.07.2020
397 Rain 32 1016 55 10000 1.5 360 20:18 03.07.2020
398 Clouds 29 1015 65 0 2.5 187 19:40 03.07.2020
399 Clouds 32 1017 52 10000 2.1 240 19:19 03.07.2020
400 Clouds 32 1017 52 10000 2.1 240 18:54 03.07.2020
401 Clouds 32 1017 52 10000 2.1 240 18:36 03.07.2020
402 Clouds 31 1017 58 10000 3.1 200 18:18 03.07.2020
403 Clouds 31 1017 58 10000 3.1 200 17:41 03.07.2020
404 Clouds 31 1017 58 10000 3.1 200 17:21 03.07.2020
405 Clouds 30 1016 62 10000 2.6 230 16:41 03.07.2020
406 Clouds 30 1016 62 10000 2.6 230 16:41 03.07.2020
407 Clouds 30 1016 62 10000 2.6 230 16:41 03.07.2020
408 Clouds 30 1016 62 10000 2.6 230 16:23 03.07.2020
409 Clouds 30 1016 70 10000 4.1 240 15:47 03.07.2020
410 Clouds 30 1016 70 10000 4.1 240 15:25 03.07.2020
411 Clouds 28 1015 83 10000 3.1 210 14:58 03.07.2020
412 Clouds 28 1015 83 10000 3.1 210 14:39 03.07.2020
413 Clouds 28 1015 83 10000 3.1 210 14:21 03.07.2020
414 Clouds 27 1015 88 10000 1.5 210 13:47 03.07.2020
415 Clouds 27 1015 88 10000 1.5 210 13:29 03.07.2020
416 Rain 27 1015 88 10000 1.5 170 12:57 03.07.2020
417 Rain 27 1015 88 10000 1.5 170 12:38 03.07.2020
418 Rain 27 1015 88 10000 1.5 170 12:19 03.07.2020
419 Clouds 27 1015 83 10000 1.5 230 11:42 03.07.2020
420 Clouds 27 1015 83 10000 1.5 230 11:23 03.07.2020
421 Clouds 27 1015 83 10000 1 0 10:58 03.07.2020
422 Clouds 27 1015 83 10000 1 0 10:39 03.07.2020
423 Clouds 28 1015 78 10000 2.6 180 10:20 03.07.2020
424 Clouds 28 1015 78 10000 2.6 180 09:54 03.07.2020
425 Clouds 28 1015 78 10000 2.6 180 09:36 03.07.2020
426 Clouds 28 1015 78 10000 2.6 180 09:18 03.07.2020
427 Clouds 28 1016 83 10000 1 0 08:39 03.07.2020
428 Clouds 28 1016 83 10000 1 0 08:18 03.07.2020
429 Clouds 27 1016 83 10000 1 0 07:48 03.07.2020
430 Clouds 27 1016 83 10000 1 0 07:26 03.07.2020
431 Clouds 27 1017 83 10000 1 0 06:49 03.07.2020
432 Clouds 27 1017 83 10000 1 0 06:18 03.07.2020
433 Clouds 28 1017 78 10000 2.1 210 04:48 03.07.2020
434 Clouds 28 1016 78 10000 1 230 03:26 03.07.2020
435 Clouds 29 1016 70 10000 2.1 190 02:45 03.07.2020
436 Clouds 29 1016 70 10000 2.1 190 02:23 03.07.2020
437 Clouds 31 1015 66 10000 2.6 170 01:28 03.07.2020
438 Clouds 32 1015 62 10000 3.6 170 00:44 03.07.2020
439 Clouds 32 1015 62 10000 3.6 170 00:26 03.07.2020
440 Clouds 34 1015 56 10000 3.1 200 23:44 02.07.2020
441 Clouds 34 1015 56 10000 3.1 200 23:20 02.07.2020
442 Clouds 33 1015 59 10000 4.6 160 22:57 02.07.2020
443 Clouds 33 1015 59 10000 4.6 160 22:39 02.07.2020
444 Clouds 33 1015 59 10000 4.6 160 22:20 02.07.2020
445 Clouds 33 1016 59 10000 4.1 160 21:54 02.07.2020
446 Clouds 33 1016 59 10000 4.1 160 21:36 02.07.2020
447 Clouds 33 1016 59 10000 4.1 160 21:18 02.07.2020
448 Clouds 33 1016 59 10000 4.1 170 20:42 02.07.2020
449 Clouds 33 1016 59 10000 4.1 170 20:21 02.07.2020
450 Clouds 32 1017 59 10000 4.1 160 19:59 02.07.2020
451 Clouds 32 1017 59 10000 4.1 160 19:38 02.07.2020
452 Clouds 32 1017 59 10000 4.1 160 19:20 02.07.2020
453 Clouds 32 1017 55 10000 3.6 170 18:57 02.07.2020
454 Clouds 32 1017 55 10000 3.6 170 18:38 02.07.2020
455 Clouds 32 1017 55 10000 3.6 170 18:20 02.07.2020
456 Clouds 32 1017 59 10000 4.1 160 17:40 02.07.2020
457 Clouds 32 1017 59 10000 4.1 160 17:20 02.07.2020
458 Clouds 31 1017 62 10000 4.6 160 16:56 02.07.2020
459 Clouds 31 1017 62 10000 4.6 160 16:38 02.07.2020
460 Clouds 31 1017 62 10000 4.6 160 16:19 02.07.2020
461 Clouds 30 1017 66 10000 4.1 160 15:54 02.07.2020
462 Clouds 30 1017 66 10000 4.1 160 15:36 02.07.2020
463 Clouds 30 1017 66 10000 4.1 160 15:18 02.07.2020
464 Clouds 29 1016 74 10000 3.1 150 14:42 02.07.2020
465 Clouds 29 1016 74 10000 3.1 150 14:19 02.07.2020
466 Clouds 29 1016 74 10000 3.1 150 14:19 02.07.2020
467 Clouds 26 1016 83 10000 1 0 13:54 02.07.2020
468 Clouds 26 1016 83 10000 1 0 13:36 02.07.2020
469 Clouds 26 1016 83 10000 1 0 13:18 02.07.2020
470 Clouds 26 1015 83 10000 1.5 160 12:39 02.07.2020
471 Clouds 26 1015 83 10000 1.5 160 12:21 02.07.2020
472 Clouds 26 1015 78 10000 1 0 11:44 02.07.2020
473 Clouds 26 1015 78 10000 1 0 11:26 02.07.2020
474 Clear 25 1015 83 10000 1 0 10:56 02.07.2020
475 Clear 25 1015 83 10000 1 0 10:37 02.07.2020
476 Clear 26 1016 83 10000 3.6 150 10:19 02.07.2020
477 Clear 26 1016 83 10000 3.6 150 09:42 02.07.2020
478 Clear 26 1016 88 10000 1 0 09:21 02.07.2020
479 Clear 26 1016 88 10000 1 0 08:57 02.07.2020
480 Clear 26 1016 88 10000 1 0 08:38 02.07.2020
481 Clear 26 1016 88 10000 1 0 08:18 02.07.2020
482 Clear 27 1017 83 10000 3.75 135 07:41 02.07.2020
483 Clear 27 1017 83 10000 3.14 135 07:20 02.07.2020
484 Clouds 27 1017 83 10000 1 0 06:41 02.07.2020
485 Clouds 27 1017 83 10000 1 0 06:20 02.07.2020
486 Clouds 27 1018 83 10000 1 0 05:46 02.07.2020
487 Clouds 28 1017 74 10000 0.5 0 04:40 02.07.2020
488 Clouds 28 1016 74 10000 2.6 170 03:33 02.07.2020
489 Clouds 30 1015 62 10000 3.1 130 01:44 02.07.2020
490 Clouds 31 1015 58 10000 4.1 150 00:26 02.07.2020
491 Clouds 31 1015 62 10000 4.1 180 23:51 01.07.2020
492 Clouds 31 1015 62 10000 4.1 180 23:31 01.07.2020
493 Clear 29 1015 66 0 3.83 127 22:57 01.07.2020
494 Clouds 31 1017 58 10000 3.6 180 22:38 01.07.2020
495 Clouds 31 1017 58 10000 3.6 180 22:19 01.07.2020
496 Clouds 31 1017 58 10000 3.6 180 21:59 01.07.2020
497 Clouds 31 1017 58 10000 3.6 180 21:40 01.07.2020
498 Clouds 31 1017 58 10000 3.6 180 21:22 01.07.2020
499 Clouds 32 1017 59 10000 4.6 160 20:58 01.07.2020
500 Clouds 32 1017 59 10000 4.6 160 20:40 01.07.2020
501 Clouds 32 1017 59 10000 4.6 160 20:21 01.07.2020
502 Clouds 32 1017 55 10000 4.6 190 19:55 01.07.2020
503 Clouds 32 1017 55 10000 4.6 190 19:37 01.07.2020
504 Clouds 32 1017 55 10000 4.6 190 19:18 01.07.2020
505 Clouds 32 1018 62 10000 4.1 190 18:42 01.07.2020
506 Clouds 32 1018 62 10000 4.1 190 18:21 01.07.2020
507 Clouds 32 1018 62 10000 4.1 190 18:21 01.07.2020
508 Clouds 31 1017 62 10000 4.6 180 17:58 01.07.2020
509 Clouds 31 1017 62 10000 4.6 180 17:38 01.07.2020
510 Clouds 31 1017 62 10000 4.6 180 17:38 01.07.2020
511 Clouds 31 1017 62 10000 4.6 180 17:19 01.07.2020
512 Clouds 31 1017 62 10000 4.6 180 16:46 01.07.2020
513 Clouds 31 1017 62 10000 4.6 180 16:26 01.07.2020
514 Clouds 31 1017 62 10000 3.6 180 15:55 01.07.2020
515 Clouds 31 1017 62 10000 3.6 180 15:37 01.07.2020
516 Clouds 31 1017 62 10000 3.6 180 15:18 01.07.2020
517 Clouds 29 1017 74 10000 2.1 180 14:42 01.07.2020
518 Clouds 29 1017 74 10000 2.1 180 14:21 01.07.2020
519 Clouds 25 1016 88 10000 2.6 160 13:57 01.07.2020
520 Clouds 25 1016 88 10000 2.6 160 13:38 01.07.2020
521 Clouds 25 1016 88 10000 2.6 160 13:20 01.07.2020
522 Clouds 25 1016 88 10000 4.77 155 12:56 01.07.2020
523 Clouds 25 1016 88 10000 4.77 155 12:38 01.07.2020
524 Clouds 25 1016 88 10000 4.2 155 12:19 01.07.2020
525 Clouds 24 1016 94 10000 1 0 11:40 01.07.2020
526 Clouds 24 1016 94 10000 1 0 11:21 01.07.2020
527 Clear 25 1016 88 10000 0.5 0 10:57 01.07.2020
528 Clear 25 1016 88 10000 0.5 0 10:39 01.07.2020
529 Clear 25 1016 94 10000 0.5 0 10:20 01.07.2020
530 Clear 25 1016 94 10000 0.5 0 09:39 01.07.2020
531 Clear 25 1016 94 10000 0.5 0 09:20 01.07.2020
532 Clear 26 1016 83 10000 0.5 0 08:59 01.07.2020
533 Clear 26 1016 83 10000 0.5 0 08:40 01.07.2020
534 Clear 26 1016 83 10000 0.5 0 08:20 01.07.2020
535 Clear 26 1016 88 10000 0.5 0 07:43 01.07.2020
536 Clear 26 1016 88 10000 0.5 0 07:25 01.07.2020
537 Clear 26 1017 88 10000 3.96 139 06:57 01.07.2020
538 Clear 26 1017 88 10000 3.96 139 06:38 01.07.2020
539 Clear 26 1017 88 10000 3.88 135 06:20 01.07.2020
540 Clouds 28 1017 74 10000 1.5 170 04:30 01.07.2020
541 Clouds 28 1016 78 10000 1.5 170 03:42 01.07.2020
542 Clouds 28 1016 78 10000 1.5 170 03:22 01.07.2020
543 Clouds 29 1016 74 10000 3.1 180 02:19 01.07.2020
544 Clouds 30 1016 70 10000 3.6 150 00:49 01.07.2020
545 Clouds 30 1016 70 10000 3.6 150 00:29 01.07.2020
546 Clouds 32 1016 59 10000 1.5 130 00:00 01.07.2020
547 Clouds 32 1016 59 10000 1.5 130 23:39 30.06.2020
548 Clouds 32 1016 59 10000 1.5 130 23:19 30.06.2020
549 Clouds 31 1017 62 10000 3.1 180 22:42 30.06.2020
550 Clouds 31 1017 62 10000 3.1 180 22:19 30.06.2020
551 Rain 30 1017 70 10000 3.6 20 21:43 30.06.2020
552 Rain 30 1017 70 10000 3.6 20 21:19 30.06.2020
553 Clouds 30 1018 70 10000 3.1 230 20:59 30.06.2020
554 Clouds 30 1018 70 10000 3.1 230 20:40 30.06.2020
555 Clouds 30 1018 70 10000 3.1 230 20:20 30.06.2020
556 Clouds 30 1018 70 10000 3.6 20 19:43 30.06.2020
557 Clouds 30 1018 70 10000 3.6 20 19:20 30.06.2020
558 Clouds 30 1018 70 10000 1.5 20 18:55 30.06.2020
559 Clouds 30 1018 70 10000 1.5 20 18:36 30.06.2020
560 Clouds 30 1018 70 10000 1.5 20 18:18 30.06.2020
561 Clouds 30 1018 70 10000 1.5 30 17:39 30.06.2020
562 Clouds 30 1018 70 10000 1.5 30 17:20 30.06.2020
563 Clouds 30 1018 70 10000 2.1 320 16:56 30.06.2020
564 Clouds 30 1018 70 10000 2.1 320 16:37 30.06.2020
565 Clouds 30 1018 70 10000 2.1 320 16:19 30.06.2020
566 Clouds 30 1018 66 10000 1.5 200 15:42 30.06.2020
567 Clouds 30 1018 66 10000 1.5 200 15:22 30.06.2020
568 Clouds 29 1017 74 10000 0.5 0 14:58 30.06.2020
569 Clouds 29 1017 74 10000 0.5 0 14:40 30.06.2020
570 Clouds 29 1017 74 10000 0.5 0 14:18 30.06.2020
571 Clouds 25 1016 88 10000 2.82 134 13:42 30.06.2020
572 Clouds 25 1016 88 10000 2.82 137 13:21 30.06.2020
573 Clouds 25 1016 94 10000 2.82 137 12:59 30.06.2020
574 Clouds 25 1016 94 10000 2.82 137 12:40 30.06.2020
575 Clouds 25 1016 94 10000 2.58 138 12:21 30.06.2020
576 Clouds 25 1016 94 10000 2.58 138 12:21 30.06.2020
577 Clouds 25 1016 94 10000 2.58 138 12:21 30.06.2020
578 Clouds 25 1016 94 10000 2.58 138 11:58 30.06.2020
579 Clouds 25 1016 94 10000 2.58 138 11:39 30.06.2020
580 Clouds 25 1016 94 10000 3 138 11:19 30.06.2020
581 Clouds 25 1016 88 10000 1 0 10:58 30.06.2020
582 Clouds 25 1016 88 10000 1 0 10:58 30.06.2020
583 Clouds 30 1019 62 10000 3.6 130 16:40 28.06.2020
584 Clouds 30 1019 62 10000 3.6 130 16:22 28.06.2020
585 Clear 28 1018 73 0 4.32 94 15:56 28.06.2020
586 Clouds 29 1018 74 10000 3.1 120 15:38 28.06.2020
587 Clouds 29 1018 74 10000 3.1 120 15:18 28.06.2020
588 Clouds 29 1018 74 10000 3.1 120 14:44 28.06.2020
589 Clouds 29 1018 74 10000 3.1 120 14:25 28.06.2020
590 Clouds 27 1018 83 10000 2.1 70 13:57 28.06.2020
591 Clouds 27 1018 83 10000 2.1 70 13:37 28.06.2020
592 Clouds 27 1018 83 10000 2.1 70 13:18 28.06.2020
593 Clouds 27 1018 83 10000 1.5 70 12:55 28.06.2020
594 Clouds 27 1018 83 10000 1.5 70 12:36 28.06.2020
595 Clouds 27 1018 83 10000 1.5 70 12:18 28.06.2020
596 Clouds 28 1018 78 10000 2.1 90 11:44 28.06.2020
597 Clouds 28 1016 75 0 4.86 96 11:21 28.06.2020
598 Clouds 28 1016 75 0 4.86 96 10:59 28.06.2020
599 Clouds 28 1016 75 0 4.86 96 10:41 28.06.2020
600 Clouds 28 1016 75 0 4.9 100 10:22 28.06.2020
601 Clouds 28 1016 75 0 4.9 100 09:42 28.06.2020
602 Clear 28 1017 77 0 5.33 86 09:23 28.06.2020
603 Clear 28 1017 77 0 5.33 86 09:23 28.06.2020
604 Clear 28 1017 77 0 5.33 86 08:57 28.06.2020
605 Clouds 28 1019 78 10000 3.1 100 08:39 28.06.2020
606 Clouds 28 1019 78 10000 3.1 100 08:20 28.06.2020
607 Clouds 28 1019 78 10000 3.1 100 07:37 28.06.2020
608 Clouds 28 1018 78 0 5.42 81 06:57 28.06.2020
609 Clouds 28 1019 83 10000 3.6 100 06:32 28.06.2020
610 Clouds 28 1019 83 10000 3.6 100 05:50 28.06.2020
611 Clouds 28 1019 83 10000 3.1 80 04:27 28.06.2020
612 Clouds 29 1018 79 10000 4.1 70 02:58 28.06.2020
613 Clouds 29 1018 79 10000 4.1 70 02:21 28.06.2020
614 Clouds 30 1018 70 10000 5.1 70 01:30 28.06.2020
615 Clouds 31 1018 66 10000 5.7 70 00:56 28.06.2020
616 Clouds 31 1018 66 10000 5.7 70 00:30 28.06.2020
617 Clouds 31 1018 70 10000 6.7 60 23:58 27.06.2020
618 Clouds 31 1018 70 10000 6.7 60 23:39 27.06.2020
619 Clouds 31 1018 70 10000 6.7 60 23:19 27.06.2020
620 Clouds 32 1018 62 10000 5.7 70 22:42 27.06.2020
621 Clouds 32 1018 62 10000 5.7 70 22:23 27.06.2020
622 Clouds 32 1018 62 10000 5.7 70 22:23 27.06.2020
623 Clouds 31 1019 66 10000 5.1 80 21:58 27.06.2020
624 Clouds 31 1019 66 10000 5.1 80 21:40 27.06.2020
625 Clouds 31 1019 66 10000 5.1 80 21:20 27.06.2020
626 Clouds 31 1019 66 10000 5.1 80 21:20 27.06.2020
627 Rain 31 1020 70 10000 6.7 80 20:46 27.06.2020
628 Rain 31 1020 70 10000 6.7 80 20:20 27.06.2020
629 Clouds 31 1020 66 10000 5.1 80 20:00 27.06.2020
630 Clouds 31 1020 66 10000 5.1 80 19:37 27.06.2020
631 Clouds 31 1020 66 10000 5.1 80 19:19 27.06.2020
632 Clouds 31 1020 66 10000 5.1 110 18:48 27.06.2020
633 Clouds 31 1020 66 10000 5.1 110 18:28 27.06.2020
634 Clouds 31 1020 62 10000 6.2 110 17:59 27.06.2020
635 Clouds 31 1020 62 10000 6.2 110 17:59 27.06.2020
636 Clouds 31 1020 62 10000 6.2 110 17:40 27.06.2020
637 Clouds 31 1020 62 10000 6.2 110 17:20 27.06.2020
638 Haze 30 1020 70 10000 4.6 90 16:56 27.06.2020
639 Haze 30 1020 70 10000 4.6 90 16:38 27.06.2020
640 Haze 30 1020 70 10000 4.6 90 16:38 27.06.2020
641 Haze 30 1020 70 10000 4.6 90 16:18 27.06.2020
642 Clouds 29 1020 79 10000 5.1 90 15:42 27.06.2020
643 Clouds 28 1020 83 10000 5.1 90 15:22 27.06.2020
644 Clouds 28 1020 83 10000 5.1 90 14:43 27.06.2020
645 Clouds 28 1020 83 10000 5.1 90 14:25 27.06.2020
646 Clouds 28 1020 78 10000 3.6 90 13:59 27.06.2020
647 Clouds 28 1020 78 10000 3.6 90 13:38 27.06.2020
648 Clouds 28 1020 78 10000 3.6 90 13:20 27.06.2020
649 Clouds 28 1020 78 10000 2.1 80 12:58 27.06.2020
650 Clouds 28 1020 78 10000 2.1 80 12:39 27.06.2020
651 Clouds 28 1020 78 10000 2.1 80 12:21 27.06.2020
652 Clouds 28 1020 78 10000 2.6 80 11:55 27.06.2020
653 Clouds 28 1020 78 10000 2.6 80 11:36 27.06.2020
654 Clouds 28 1020 78 10000 2.6 80 11:18 27.06.2020
655 Clouds 28 1020 78 10000 2.6 80 11:18 27.06.2020
656 Clouds 28 1019 83 10000 2.6 90 10:38 27.06.2020
657 Clouds 28 1019 83 10000 2.6 90 10:19 27.06.2020
658 Clouds 28 1020 83 10000 2.1 80 09:41 27.06.2020
659 Clouds 28 1020 83 10000 2.1 80 09:22 27.06.2020
660 Clouds 28 1020 78 10000 2.1 70 08:58 27.06.2020
661 Clouds 28 1020 78 10000 2.1 70 08:39 27.06.2020
662 Clouds 28 1020 78 10000 2.1 70 08:20 27.06.2020
663 Clouds 29 1020 74 10000 3.1 90 07:42 27.06.2020
664 Clouds 29 1020 74 10000 3.1 90 07:42 27.06.2020
665 Clouds 29 1020 74 10000 3.1 90 07:24 27.06.2020
666 Clouds 29 1021 74 10000 3.6 100 06:38 27.06.2020
667 Clouds 29 1021 74 10000 3.6 100 06:20 27.06.2020
668 Clouds 29 1021 79 10000 4.1 90 04:23 27.06.2020
669 Clouds 29 1021 79 10000 4.1 100 03:52 27.06.2020
670 Thunderstorm 29 1021 79 10000 5.1 80 02:49 27.06.2020
671 Thunderstorm 29 1021 79 10000 5.1 80 02:29 27.06.2020
672 Clouds 30 1020 74 10000 5.1 80 01:41 27.06.2020
673 Thunderstorm 30 1020 74 10000 6.2 90 00:56 27.06.2020
674 Thunderstorm 30 1020 74 10000 6.2 90 00:27 27.06.2020
675 Clouds 30 1020 74 10000 7.2 80 23:41 26.06.2020
676 Clouds 30 1020 74 10000 7.2 80 23:22 26.06.2020
677 Clouds 31 1020 70 10000 5.1 100 22:56 26.06.2020
678 Clouds 31 1020 70 10000 5.1 100 22:37 26.06.2020
679 Clouds 31 1020 70 10000 5.1 100 22:18 26.06.2020
680 Clouds 31 1021 70 10000 5.1 90 21:56 26.06.2020
681 Clouds 31 1021 70 10000 5.1 90 21:36 26.06.2020
682 Clouds 31 1021 70 10000 5.1 90 21:18 26.06.2020
683 Clouds 31 1021 70 10000 5.1 90 21:18 26.06.2020
684 Clouds 32 1021 62 10000 5.7 120 20:41 26.06.2020
685 Clouds 32 1021 62 10000 5.7 120 20:19 26.06.2020
686 Clouds 32 1022 62 10000 6.2 140 19:41 26.06.2020
687 Clouds 32 1022 62 10000 6.2 140 19:23 26.06.2020
688 Clouds 31 1022 66 10000 5.7 130 18:45 26.06.2020
689 Clouds 31 1022 66 10000 5.7 130 18:26 26.06.2020
690 Clouds 31 1022 70 10000 5.7 120 17:59 26.06.2020
691 Clouds 31 1022 70 10000 5.7 120 17:40 26.06.2020
692 Clouds 31 1022 70 10000 5.7 120 17:22 26.06.2020
693 Clouds 31 1022 66 10000 6.7 120 16:46 26.06.2020
694 Clouds 31 1022 66 10000 6.7 120 16:23 26.06.2020
695 Clouds 30 1022 74 10000 5.1 120 15:54 26.06.2020
696 Clouds 30 1022 74 10000 5.1 120 15:36 26.06.2020
697 Clouds 30 1022 74 10000 5.1 120 15:18 26.06.2020
698 Clouds 28 1021 83 10000 4.1 110 14:40 26.06.2020
699 Clouds 28 1021 83 10000 4.1 110 14:22 26.06.2020
700 Rain 28 1021 83 10000 2.6 100 13:57 26.06.2020
701 Rain 28 1021 83 10000 2.6 100 13:38 26.06.2020
702 Rain 28 1021 83 10000 2.6 100 13:18 26.06.2020
703 Rain 28 1021 83 10000 3.1 120 12:41 26.06.2020
704 Rain 28 1021 83 10000 3.1 120 12:23 26.06.2020
705 Clouds 28 1021 83 10000 3.1 80 11:57 26.06.2020
706 Clouds 28 1021 83 10000 3.1 80 11:39 26.06.2020
707 Clouds 28 1021 83 10000 3.1 80 11:20 26.06.2020
708 Clouds 28 1021 83 10000 3.1 90 10:57 26.06.2020
709 Clouds 28 1021 83 10000 3.1 90 10:38 26.06.2020
710 Clouds 28 1021 83 10000 3.1 90 10:18 26.06.2020
711 Clouds 28 1021 83 10000 3.6 80 09:43 26.06.2020
712 Clouds 28 1021 83 10000 3.6 80 09:24 26.06.2020
713 Thunderstorm 28 1022 78 10000 3.1 90 08:55 26.06.2020
714 Thunderstorm 28 1022 78 10000 3.1 90 08:28 26.06.2020
715 Thunderstorm 28 1022 78 10000 3.1 90 08:28 26.06.2020
716 Clouds 29 1022 74 10000 3.1 100 07:53 26.06.2020
717 Clouds 29 1022 74 10000 3.1 100 07:24 26.06.2020
718 Clouds 29 1022 74 10000 3.1 90 06:58 26.06.2020
719 Clouds 29 1022 74 10000 3.1 90 06:36 26.06.2020
720 Clouds 29 1021 74 10000 4.1 90 05:59 26.06.2020
721 Clouds 29 1021 74 10000 4.1 90 05:33 26.06.2020
722 Clouds 30 1020 70 10000 4.1 80 02:42 26.06.2020
723 Clouds 30 1020 70 10000 4.1 80 02:22 26.06.2020
724 Clouds 31 1019 62 10000 4.6 100 00:58 26.06.2020
725 Clouds 31 1019 62 10000 4.6 100 00:39 26.06.2020
726 Clouds 31 1019 62 10000 5.1 130 23:48 25.06.2020
727 Clouds 31 1019 62 10000 5.1 130 23:24 25.06.2020
728 Clouds 32 1020 59 10000 5.7 130 22:59 25.06.2020
729 Clouds 32 1020 59 10000 5.7 130 22:40 25.06.2020
730 Clouds 32 1020 59 10000 5.7 130 22:21 25.06.2020
731 Clouds 32 1020 59 10000 5.7 130 22:21 25.06.2020
732 Clouds 32 1020 66 10000 5.7 140 21:58 25.06.2020
733 Clouds 32 1020 66 10000 5.7 140 21:40 25.06.2020
734 Clouds 32 1020 66 10000 5.7 140 21:40 25.06.2020
735 Clouds 32 1020 66 10000 5.7 140 21:21 25.06.2020
736 Clouds 32 1020 66 10000 6.2 130 20:59 25.06.2020
737 Clouds 32 1020 66 10000 6.2 130 20:41 25.06.2020
738 Clouds 32 1020 66 10000 6.2 130 20:22 25.06.2020
739 Clouds 32 1021 62 10000 7.2 140 19:56 25.06.2020
740 Clouds 32 1021 62 10000 7.2 140 19:37 25.06.2020
741 Clouds 32 1021 59 10000 6.2 140 19:18 25.06.2020
742 Clouds 32 1021 59 10000 6.2 140 18:40 25.06.2020
743 Clouds 32 1021 59 10000 6.2 140 18:21 25.06.2020
744 Clouds 31 1021 62 10000 5.7 130 17:46 25.06.2020
745 Clouds 31 1021 62 10000 5.7 130 17:20 25.06.2020
746 Clouds 30 1020 70 10000 5.7 130 16:59 25.06.2020
747 Clouds 30 1020 70 10000 5.7 130 16:40 25.06.2020
748 Clouds 30 1020 70 10000 5.7 130 16:19 25.06.2020
749 Clouds 30 1020 70 10000 5.1 130 15:44 25.06.2020
750 Clouds 30 1020 70 10000 5.1 130 15:26 25.06.2020
751 Clouds 29 1020 74 10000 4.1 110 14:56 25.06.2020
752 Clouds 29 1020 74 10000 4.1 110 14:37 25.06.2020
753 Clouds 29 1020 74 10000 4.1 110 14:19 25.06.2020
754 Clouds 28 1019 78 10000 2.1 100 13:42 25.06.2020
755 Clouds 28 1019 78 10000 2.1 100 13:20 25.06.2020
756 Clouds 28 1018 78 10000 2.6 100 12:59 25.06.2020
757 Clouds 28 1018 78 10000 2.6 100 12:59 25.06.2020
758 Clouds 28 1018 78 10000 2.6 100 12:40 25.06.2020
759 Clouds 28 1018 78 10000 2.6 100 12:20 25.06.2020
760 Clouds 28 1018 78 10000 3.6 120 11:43 25.06.2020
761 Clouds 28 1018 78 10000 3.6 120 11:22 25.06.2020
762 Clouds 28 1018 78 10000 2.6 120 10:44 25.06.2020
763 Clouds 28 1018 78 10000 2.6 120 10:26 25.06.2020
764 Clouds 28 1018 78 10000 3.6 110 09:58 25.06.2020
765 Clouds 28 1018 78 10000 3.6 110 09:40 25.06.2020
766 Clouds 28 1018 78 10000 3.6 110 09:19 25.06.2020
767 Clouds 28 1019 83 10000 3.1 110 08:43 25.06.2020
768 Clouds 28 1019 83 10000 3.1 110 08:19 25.06.2020
769 Clouds 28 1019 83 10000 3.1 100 07:44 25.06.2020
770 Clouds 28 1019 83 10000 3.1 100 07:26 25.06.2020
771 Clouds 29 1019 79 10000 3.1 90 06:45 25.06.2020
772 Clouds 29 1019 79 10000 3.1 90 06:25 25.06.2020
773 Clouds 29 1019 79 10000 2.6 100 05:39 25.06.2020
774 Clouds 29 1017 74 10000 3.1 110 03:51 25.06.2020
775 Clouds 30 1017 70 10000 4.1 110 02:59 25.06.2020
776 Clouds 30 1017 70 10000 4.1 110 02:41 25.06.2020
777 Clouds 30 1017 70 10000 4.1 90 01:43 25.06.2020
778 Clouds 31 1017 66 10000 5.1 70 00:52 25.06.2020
779 Clouds 31 1017 66 10000 5.1 70 00:25 25.06.2020
780 Rain 31 1018 66 10000 2.1 80 23:59 24.06.2020
781 Rain 31 1018 66 10000 2.1 80 23:38 24.06.2020
782 Rain 31 1018 66 10000 2.1 80 23:20 24.06.2020
783 Rain 31 1018 70 10000 3.1 130 22:43 24.06.2020
784 Rain 31 1018 70 10000 3.1 130 22:21 24.06.2020
785 Rain 31 1018 66 10000 2.1 60 21:57 24.06.2020
786 Rain 31 1018 66 10000 2.1 60 21:38 24.06.2020
787 Rain 31 1018 66 10000 2.1 60 21:19 24.06.2020
788 Rain 29 1019 79 10000 2.6 60 20:59 24.06.2020
789 Rain 29 1019 79 10000 2.6 60 20:40 24.06.2020
790 Rain 29 1019 79 10000 2.6 60 20:40 24.06.2020
791 Rain 29 1019 79 10000 2.6 60 20:21 24.06.2020
792 Rain 28 1019 78 10000 3.1 280 19:59 24.06.2020
793 Rain 28 1019 78 10000 3.1 280 19:39 24.06.2020
794 Rain 28 1019 78 10000 3.1 280 19:20 24.06.2020
795 Clouds 30 1019 70 10000 3.1 230 18:58 24.06.2020
796 Clouds 30 1019 70 10000 3.1 230 18:39 24.06.2020
797 Clouds 30 1019 70 10000 3.1 230 18:20 24.06.2020
798 Clouds 31 1019 66 10000 2.6 160 17:55 24.06.2020
799 Clouds 31 1019 66 10000 2.6 160 17:37 24.06.2020
800 Clouds 31 1019 66 10000 2.6 160 17:18 24.06.2020
801 Clouds 31 1019 66 10000 2.6 160 17:18 24.06.2020
802 Clouds 30 1018 74 10000 3.6 170 16:55 24.06.2020
803 Clouds 30 1018 74 10000 3.6 170 16:37 24.06.2020
804 Clouds 30 1018 74 10000 3.6 170 16:37 24.06.2020
805 Clouds 30 1018 74 10000 3.6 170 16:19 24.06.2020
806 Clouds 30 1018 74 10000 3.6 170 16:19 24.06.2020
807 Clouds 30 1018 74 10000 4.1 150 15:55 24.06.2020
808 Clouds 30 1018 74 10000 4.1 150 15:37 24.06.2020
809 Clouds 30 1018 74 10000 4.1 150 15:18 24.06.2020
810 Clouds 29 1018 79 10000 4.1 160 14:40 24.06.2020
811 Clouds 29 1018 79 10000 4.1 160 14:22 24.06.2020
812 Clouds 27 1018 88 10000 2.6 240 13:42 24.06.2020
813 Clouds 27 1018 88 10000 1 0 13:21 24.06.2020
814 Clouds 27 1018 88 10000 1 0 12:46 24.06.2020
815 Clouds 27 1018 88 10000 1 0 12:22 24.06.2020
816 Clouds 27 1018 88 10000 0.5 0 11:58 24.06.2020
817 Clouds 27 1018 88 10000 0.5 0 11:40 24.06.2020
818 Clouds 27 1018 88 10000 0.5 0 11:22 24.06.2020
819 Clouds 27 1017 83 10000 1 160 10:48 24.06.2020
820 Clouds 27 1017 83 10000 1 160 10:20 24.06.2020
821 Clouds 27 1017 88 10000 2.1 120 09:56 24.06.2020
822 Clouds 27 1017 88 10000 2.1 120 09:38 24.06.2020
823 Clouds 27 1017 88 10000 2.1 120 09:19 24.06.2020
824 Clouds 27 1018 88 10000 2.1 150 08:40 24.06.2020
825 Clouds 27 1018 88 10000 2.1 150 08:19 24.06.2020
826 Clouds 28 1018 83 10000 2.1 110 07:48 24.06.2020
827 Clouds 28 1018 83 10000 2.1 110 07:25 24.06.2020
828 Clouds 28 1018 83 10000 1.5 70 06:46 24.06.2020
829 Clouds 28 1018 83 10000 1.5 70 06:24 24.06.2020
830 Clouds 28 1018 83 10000 1.5 70 06:24 24.06.2020
831 Clouds 28 1018 83 10000 2.1 100 05:45 24.06.2020
832 Clouds 29 1017 79 10000 3.1 120 04:39 24.06.2020
833 Clouds 28 1017 83 10000 3.1 130 03:39 24.06.2020
834 Clouds 29 1017 79 10000 3.6 150 02:55 24.06.2020
835 Clouds 29 1017 79 10000 3.6 150 02:23 24.06.2020
836 Clouds 31 1016 70 10000 4.1 150 00:52 24.06.2020
837 Clouds 31 1016 70 10000 4.1 150 00:33 24.06.2020
838 Rain 32 1017 66 10000 4.1 150 23:49 23.06.2020
839 Rain 32 1017 66 10000 4.1 150 23:22 23.06.2020
840 Clouds 31 1017 70 10000 6.2 150 22:59 23.06.2020
841 Clouds 31 1017 70 10000 6.2 150 22:41 23.06.2020
842 Clouds 31 1017 70 10000 6.2 150 22:18 23.06.2020
843 Clouds 31 1017 70 10000 6.2 160 21:54 23.06.2020
844 Clouds 31 1017 70 10000 6.2 160 21:36 23.06.2020
845 Clouds 31 1017 70 10000 6.2 160 21:18 23.06.2020
846 Rain 31 1018 66 10000 5.7 170 20:54 23.06.2020
847 Rain 31 1018 66 10000 5.7 170 20:36 23.06.2020
848 Rain 31 1018 66 10000 5.7 170 20:18 23.06.2020
849 Rain 31 1019 70 10000 4.1 150 19:41 23.06.2020
850 Rain 31 1019 70 10000 4.1 150 19:23 23.06.2020
851 Clouds 32 1019 66 10000 4.6 140 18:38 23.06.2020
852 Clouds 31 1019 66 10000 3.1 140 18:19 23.06.2020
853 Clouds 31 1019 66 10000 3.1 140 17:42 23.06.2020
854 Clouds 31 1019 66 10000 3.1 140 17:24 23.06.2020
855 Clouds 30 1019 70 10000 4.1 130 16:57 23.06.2020
856 Clouds 30 1019 70 10000 4.1 130 16:38 23.06.2020
857 Clouds 30 1019 70 10000 4.1 130 16:38 23.06.2020
858 Clouds 30 1019 70 10000 4.1 130 16:20 23.06.2020
859 Clouds 30 1019 70 10000 4.1 140 15:57 23.06.2020
860 Clouds 30 1019 70 10000 4.1 140 15:39 23.06.2020
861 Clouds 30 1019 70 10000 4.1 140 15:18 23.06.2020
862 Rain 28 1018 83 0 4.18 123 14:43 23.06.2020
863 Clouds 26 1018 94 10000 1.5 90 14:19 23.06.2020
864 Clouds 26 1018 94 10000 1.5 90 13:56 23.06.2020
865 Clouds 26 1018 94 10000 1.5 90 13:38 23.06.2020
866 Clouds 26 1018 94 10000 1.5 90 13:20 23.06.2020
867 Clouds 27 1018 88 10000 1.5 100 12:42 23.06.2020
868 Clouds 27 1018 88 10000 1.5 100 12:22 23.06.2020
869 Clouds 27 1018 88 10000 2.1 120 11:58 23.06.2020
870 Clouds 27 1018 88 10000 2.1 120 11:39 23.06.2020
871 Clouds 27 1018 88 10000 2.1 120 11:19 23.06.2020
872 Clouds 28 1017 84 0 4.64 120 10:55 23.06.2020
873 Clouds 28 1017 84 0 4.64 120 10:37 23.06.2020
874 Clouds 28 1017 84 0 4.58 119 10:19 23.06.2020
875 Clouds 28 1017 84 0 4.58 119 09:41 23.06.2020
876 Clouds 26 1019 88 10000 4.58 112 09:20 23.06.2020
877 Clouds 26 1019 88 10000 4.58 112 08:48 23.06.2020
878 Clouds 26 1019 88 10000 4.58 112 08:29 23.06.2020
879 Clouds 27 1019 83 10000 2.1 110 07:59 23.06.2020
880 Clouds 27 1019 83 10000 2.1 110 07:39 23.06.2020
881 Clouds 27 1019 83 10000 2.1 110 07:21 23.06.2020
882 Clouds 28 1018 83 0 4.17 106 06:47 23.06.2020
883 Clouds 27 1020 83 10000 1.5 100 06:29 23.06.2020
884 Clouds 27 1020 83 10000 1.5 100 05:39 23.06.2020
885 Clouds 27 1019 83 10000 2.1 150 03:29 23.06.2020
886 Clouds 29 1019 74 10000 3.6 140 02:54 23.06.2020
887 Clouds 29 1019 74 10000 3.6 140 02:35 23.06.2020
888 Clouds 29 1019 74 10000 4.1 140 01:47 23.06.2020
889 Clouds 29 1019 74 10000 4.1 140 01:28 23.06.2020
890 Clouds 29 1019 79 10000 3.6 140 00:53 23.06.2020
891 Clouds 29 1019 79 10000 3.6 140 00:22 23.06.2020
892 Clouds 29 1019 79 10000 4.6 140 23:55 22.06.2020
893 Clouds 29 1019 79 10000 4.6 140 23:55 22.06.2020
894 Clouds 29 1019 79 10000 4.6 140 23:55 22.06.2020
895 Clouds 29 1019 79 10000 4.6 140 23:55 22.06.2020
896 Clouds 29 1019 79 10000 4.6 140 23:37 22.06.2020
897 Clouds 29 1019 79 10000 4.6 140 23:18 22.06.2020
898 Clouds 30 1019 74 10000 5.1 150 22:55 22.06.2020
899 Clouds 30 1019 74 10000 5.1 150 22:37 22.06.2020
900 Clouds 30 1019 74 10000 5.1 150 22:18 22.06.2020
901 Rain 27 1020 94 10000 1.5 260 21:54 22.06.2020
902 Rain 27 1020 94 10000 1.5 260 21:36 22.06.2020
903 Rain 27 1020 94 10000 1.5 260 21:36 22.06.2020
904 Rain 27 1020 94 10000 1.5 260 21:18 22.06.2020
905 Thunderstorm 26 1020 94 9000 2.1 280 20:41 22.06.2020
906 Thunderstorm 26 1020 94 9000 2.1 280 20:21 22.06.2020
907 Thunderstorm 26 1021 88 9000 4.1 330 19:44 22.06.2020
908 Thunderstorm 26 1021 88 9000 4.1 330 19:20 22.06.2020
909 Thunderstorm 26 1021 88 9000 4.1 330 18:58 22.06.2020
910 Rain 27 1021 88 9000 3.1 290 18:38 22.06.2020
911 Rain 27 1021 88 9000 3.1 290 18:20 22.06.2020
912 Thunderstorm 29 1021 79 10000 6.2 150 17:56 22.06.2020
913 Rain 29 1021 79 10000 6.2 150 17:37 22.06.2020
914 Thunderstorm 29 1021 79 10000 6.2 150 17:19 22.06.2020
915 Rain 29 1020 83 10000 3.6 120 16:43 22.06.2020
916 Rain 29 1020 83 10000 3.6 120 16:20 22.06.2020
917 Clouds 29 1020 83 10000 3.6 120 15:59 22.06.2020
918 Clouds 29 1020 83 10000 3.6 120 15:39 22.06.2020
919 Clouds 29 1020 83 10000 3.6 120 15:39 22.06.2020
920 Clouds 29 1020 83 10000 3.6 120 15:21 22.06.2020
921 Clouds 29 1020 79 10000 2.6 110 14:39 22.06.2020
922 Clouds 28 1019 83 10000 2.6 140 14:20 22.06.2020
923 Clouds 28 1019 83 10000 2.6 140 13:57 22.06.2020
924 Clouds 28 1019 83 10000 2.6 140 13:38 22.06.2020
925 Clouds 28 1019 83 10000 2.6 140 13:20 22.06.2020
926 Clouds 27 1019 83 10000 2.1 160 12:43 22.06.2020
927 Clouds 27 1019 83 10000 2.1 160 12:23 22.06.2020
928 Clouds 27 1018 88 10000 2.1 160 11:58 22.06.2020
929 Clouds 27 1018 88 10000 2.1 160 11:37 22.06.2020
930 Clouds 27 1018 88 10000 2.1 160 11:18 22.06.2020
931 Clouds 28 1018 83 10000 3.6 140 10:55 22.06.2020
932 Clouds 28 1018 83 10000 3.6 140 10:36 22.06.2020
933 Clouds 28 1018 83 10000 3.6 140 10:36 22.06.2020
934 Clouds 28 1018 83 10000 3.6 140 10:18 22.06.2020
935 Clouds 27 1019 88 10000 3.1 160 09:41 22.06.2020
936 Clouds 27 1019 88 10000 3.1 160 09:20 22.06.2020
937 Clouds 27 1019 88 10000 3.1 150 08:59 22.06.2020
938 Clouds 27 1019 88 10000 3.1 150 08:39 22.06.2020
939 Clouds 27 1019 88 10000 3.1 150 08:39 22.06.2020
940 Clouds 27 1019 88 10000 3.1 150 08:20 22.06.2020
941 Clouds 27 1019 88 10000 2.6 160 07:50 22.06.2020
942 Clouds 27 1019 88 10000 2.6 160 07:31 22.06.2020
943 Clouds 27 1019 88 10000 2.1 160 06:44 22.06.2020
944 Clouds 27 1019 88 10000 2.1 160 06:26 22.06.2020
945 Clouds 28 1019 83 10000 3.1 140 05:53 22.06.2020
946 Clouds 28 1019 83 10000 2.6 100 04:22 22.06.2020
947 Clouds 29 1018 79 10000 3.6 90 02:35 22.06.2020
948 Clouds 29 1018 74 10000 3.1 110 01:21 22.06.2020
949 Clouds 30 1018 70 10000 3.6 120 00:39 22.06.2020
950 Thunderstorm 30 1018 70 10000 4.1 140 23:58 21.06.2020
951 Thunderstorm 30 1018 70 10000 4.1 140 23:39 21.06.2020
952 Thunderstorm 30 1018 70 10000 4.1 140 23:20 21.06.2020
953 Clouds 30 1018 70 10000 5.1 140 22:57 21.06.2020
954 Clouds 30 1018 70 10000 5.1 140 22:37 21.06.2020
955 Clouds 31 1019 66 10000 2.6 120 22:19 21.06.2020
956 Clouds 30 1018 70 10000 5.1 140 22:19 21.06.2020
957 Clouds 31 1019 66 10000 2.6 120 21:56 21.06.2020
958 Clouds 31 1019 66 10000 2.6 120 21:56 21.06.2020
959 Clouds 31 1019 66 10000 2.6 120 21:37 21.06.2020
960 Clouds 31 1019 66 10000 2.6 120 21:19 21.06.2020
961 Clouds 31 1019 66 10000 3.1 140 20:57 21.06.2020
962 Clouds 31 1019 66 10000 3.1 140 20:36 21.06.2020
963 Clouds 31 1019 66 10000 3.1 140 20:18 21.06.2020
964 Clouds 31 1019 66 10000 3.6 150 19:41 21.06.2020
965 Clouds 31 1019 66 10000 3.6 150 19:22 21.06.2020
966 Clouds 31 1020 66 10000 2.6 160 18:57 21.06.2020
967 Clouds 31 1020 66 10000 2.6 160 18:39 21.06.2020
968 Clouds 31 1020 66 10000 2.6 160 18:21 21.06.2020
969 Clouds 31 1019 66 10000 4.1 160 17:56 21.06.2020
970 Clouds 31 1019 66 10000 4.1 160 17:38 21.06.2020
971 Clouds 31 1019 66 10000 4.1 160 17:19 21.06.2020
972 Clouds 31 1019 62 10000 3.1 140 16:40 21.06.2020
973 Clouds 31 1019 62 10000 3.1 140 16:22 21.06.2020
974 Clouds 29 1019 74 10000 3.1 100 15:42 21.06.2020
975 Clouds 29 1019 74 10000 3.1 100 15:24 21.06.2020
976 Clouds 29 1019 79 10000 1.5 130 14:59 21.06.2020
977 Clouds 29 1019 79 10000 1.5 130 14:38 21.06.2020
978 Clouds 29 1019 79 10000 1.5 130 14:20 21.06.2020
979 Clouds 25 1018 94 10000 1 0 13:56 21.06.2020
980 Clouds 25 1018 94 10000 1 0 13:56 21.06.2020
981 Clouds 25 1018 94 10000 1 0 13:38 21.06.2020
982 Clouds 25 1018 94 10000 1 0 13:18 21.06.2020
983 Clouds 25 1017 94 10000 1.5 160 12:43 21.06.2020
984 Clouds 25 1017 94 10000 1.5 160 12:24 21.06.2020
985 Clouds 25 1017 94 10000 4.33 119 11:54 21.06.2020
986 Clouds 25 1017 94 10000 4.06 113 11:36 21.06.2020
987 Clouds 25 1017 94 10000 4.05 113 11:18 21.06.2020
988 Clouds 26 1017 88 10000 2.1 140 10:41 21.06.2020
989 Clouds 26 1017 88 10000 2.1 140 10:23 21.06.2020
990 Clouds 26 1017 88 10000 2.1 80 09:58 21.06.2020
991 Clouds 26 1017 88 10000 2.1 80 09:37 21.06.2020
992 Clouds 26 1017 88 10000 2.1 80 09:18 21.06.2020
993 Clouds 27 1018 83 10000 2.6 110 08:55 21.06.2020
994 Clouds 27 1018 83 10000 2.6 110 08:55 21.06.2020
995 Clouds 27 1018 83 10000 2.6 110 08:37 21.06.2020
996 Clouds 27 1018 83 10000 2.6 110 08:18 21.06.2020
997 Clouds 27 1018 88 10000 2.1 110 07:41 21.06.2020
998 Clouds 27 1018 88 10000 2.1 110 07:21 21.06.2020
999 Clouds 27 1018 88 10000 2.6 110 06:48 21.06.2020
1000 Clouds 27 1018 88 10000 2.6 110 05:59 21.06.2020
1001 Clouds 27 1018 88 10000 2.6 110 05:25 21.06.2020
1002 Clouds 26 1018 88 10000 2.1 60 03:21 21.06.2020
1003 Rain 27 1017 83 10000 1.5 150 02:54 21.06.2020
1004 Rain 28 1017 83 10000 2.6 10 01:49 21.06.2020
1005 Rain 28 1017 83 10000 2.6 10 01:21 21.06.2020
1006 Clouds 29 1017 74 10000 2.1 70 00:55 21.06.2020
1007 Clouds 29 1017 74 10000 2.1 70 00:37 21.06.2020
1008 Clouds 29 1017 74 10000 2.1 70 00:18 21.06.2020
1009 Clouds 29 1017 79 10000 2.1 90 23:43 20.06.2020
1010 Clouds 29 1017 79 10000 2.1 90 23:21 20.06.2020
1011 Clouds 29 1017 74 10000 2.6 140 22:55 20.06.2020
1012 Clouds 29 1017 74 10000 2.6 140 22:37 20.06.2020
1013 Clouds 29 1017 74 10000 2.6 140 22:18 20.06.2020
1014 Thunderstorm 29 1018 74 10000 3.6 150 21:56 20.06.2020
1015 Thunderstorm 29 1018 74 10000 3.6 150 21:37 20.06.2020
1016 Thunderstorm 29 1018 74 10000 3.6 150 21:19 20.06.2020
1017 Clouds 29 1018 74 10000 2.6 130 20:55 20.06.2020
1018 Clouds 29 1018 74 10000 2.6 130 20:37 20.06.2020
1019 Clouds 29 1018 74 10000 2.6 130 20:19 20.06.2020
1020 Thunderstorm 30 1019 70 7000 4.1 150 19:42 20.06.2020
1021 Thunderstorm 30 1019 70 7000 4.1 150 19:22 20.06.2020
1022 Clouds 31 1019 70 10000 4.1 150 18:43 20.06.2020
1023 Clouds 31 1019 70 10000 4.1 150 18:21 20.06.2020
1024 Clouds 30 1019 70 10000 4.6 150 17:59 20.06.2020
1025 Clouds 30 1019 70 10000 4.6 150 17:40 20.06.2020
1026 Clouds 30 1019 70 10000 4.6 150 17:21 20.06.2020
1027 Clouds 30 1019 70 10000 4.6 150 17:21 20.06.2020
1028 Clouds 30 1018 74 10000 5.7 140 16:56 20.06.2020
1029 Clouds 30 1018 74 10000 5.7 140 16:38 20.06.2020
1030 Clouds 30 1018 74 10000 5.7 140 16:18 20.06.2020
1031 Clouds 29 1018 79 10000 3.1 130 15:42 20.06.2020
1032 Clouds 29 1018 79 10000 3.1 130 15:18 20.06.2020
1033 Clouds 28 1018 83 10000 3.6 140 14:43 20.06.2020
1034 Clouds 28 1018 83 10000 3.6 140 14:22 20.06.2020
1035 Clouds 27 1017 83 10000 3.1 150 13:55 20.06.2020
1036 Clouds 27 1017 83 10000 3.1 150 13:37 20.06.2020
1037 Clouds 27 1017 83 10000 3.1 150 13:19 20.06.2020
1038 Clouds 27 1017 83 10000 3.6 150 12:42 20.06.2020
1039 Clouds 27 1017 83 10000 3.6 150 12:21 20.06.2020
1040 Clouds 27 1017 83 10000 3.6 160 11:57 20.06.2020
1041 Clouds 27 1017 83 10000 3.6 160 11:38 20.06.2020
1042 Clouds 27 1017 83 10000 3.6 160 11:20 20.06.2020
1043 Clouds 27 1017 83 10000 3.6 160 11:20 20.06.2020
1044 Clouds 27 1016 83 10000 4.6 120 10:50 20.06.2020
1045 Clouds 27 1016 83 10000 4.6 120 10:22 20.06.2020
1046 Clouds 27 1017 83 10000 4.6 120 09:56 20.06.2020
1047 Clouds 27 1017 83 10000 4.6 120 09:38 20.06.2020
1048 Clouds 27 1017 83 10000 4.6 120 09:38 20.06.2020
1049 Clouds 27 1017 83 10000 4.6 120 09:20 20.06.2020
1050 Clouds 27 1018 88 10000 3.6 110 08:46 20.06.2020
1051 Rain 27 1018 88 10000 3.6 110 08:27 20.06.2020
1052 Clouds 27 1019 88 10000 3.1 90 07:52 20.06.2020
1053 Clouds 27 1019 88 10000 3.1 90 07:28 20.06.2020
1054 Rain 27 1018 82 0 4.13 80 06:58 20.06.2020
1055 Clouds 28 1019 83 10000 3.1 80 06:23 20.06.2020
1056 Clouds 28 1019 83 10000 3.1 80 05:53 20.06.2020
1057 Clouds 28 1019 78 10000 2.1 90 04:58 20.06.2020
1058 Clouds 28 1018 78 10000 3.6 140 02:50 20.06.2020
1059 Clouds 29 1017 74 10000 3.1 130 01:48 20.06.2020
1060 Clouds 30 1016 70 10000 3.6 150 00:57 20.06.2020
1061 Clouds 30 1016 70 10000 3.6 150 00:21 20.06.2020
1062 Clouds 31 1017 66 10000 4.6 180 23:56 19.06.2020
1063 Clouds 31 1017 66 10000 4.6 180 23:56 19.06.2020
1064 Clouds 31 1017 66 10000 4.6 180 23:37 19.06.2020
1065 Clouds 31 1017 66 10000 4.6 180 23:18 19.06.2020
1066 Clouds 32 1017 62 10000 5.1 170 22:41 19.06.2020
1067 Clouds 32 1017 62 10000 5.1 170 22:22 19.06.2020
1068 Clouds 31 1018 66 10000 4.6 170 21:58 19.06.2020
1069 Clouds 31 1018 66 10000 4.6 170 21:38 19.06.2020
1070 Clouds 31 1018 66 10000 4.6 170 21:18 19.06.2020
1071 Clouds 31 1018 62 10000 4.6 170 20:58 19.06.2020
1072 Clouds 31 1018 62 10000 4.6 170 20:40 19.06.2020
1073 Clouds 31 1018 62 10000 4.6 170 20:21 19.06.2020
1074 Clouds 30 1019 66 10000 6.2 170 19:57 19.06.2020
1075 Clouds 30 1019 66 10000 6.2 170 19:38 19.06.2020
1076 Clouds 30 1019 66 10000 6.2 170 19:20 19.06.2020
1077 Clouds 30 1019 70 10000 6.7 160 18:41 19.06.2020
1078 Clouds 30 1019 70 10000 6.7 160 18:21 19.06.2020
1079 Clouds 29 1019 74 10000 6.2 150 17:58 19.06.2020
1080 Clouds 29 1019 74 10000 6.2 150 17:38 19.06.2020
1081 Clouds 29 1019 74 10000 6.2 150 17:20 19.06.2020
1082 Clouds 29 1019 74 10000 5.7 140 16:54 19.06.2020
1083 Clouds 29 1019 74 10000 5.7 140 16:36 19.06.2020
1084 Clouds 29 1019 74 10000 5.7 140 16:18 19.06.2020
1085 Clouds 28 1018 78 10000 5.7 150 15:42 19.06.2020
1086 Clouds 28 1018 78 10000 5.7 150 15:20 19.06.2020
1087 Clouds 28 1018 78 10000 5.7 160 14:56 19.06.2020
1088 Clouds 28 1018 78 10000 5.7 160 14:37 19.06.2020
1089 Clouds 28 1018 78 10000 5.7 160 14:18 19.06.2020
1090 Clouds 27 1017 83 10000 4.1 160 13:42 19.06.2020
1091 Clouds 27 1017 83 10000 4.1 160 13:24 19.06.2020
1092 Clouds 27 1017 83 10000 4.1 150 12:47 19.06.2020
1093 Clouds 27 1017 83 10000 4.1 150 12:22 19.06.2020
1094 Clouds 27 1017 83 10000 3.6 150 11:58 19.06.2020
1095 Clouds 27 1017 83 10000 3.6 150 11:38 19.06.2020
1096 Clouds 27 1017 83 10000 3.6 150 11:18 19.06.2020
1097 Clouds 26 1016 94 10000 3.1 120 10:45 19.06.2020
1098 Clouds 26 1016 94 10000 3.1 120 10:26 19.06.2020
1099 Clouds 26 1017 88 10000 3.1 110 09:58 19.06.2020
1100 Clouds 26 1017 88 10000 3.1 110 09:40 19.06.2020
1101 Clouds 26 1017 88 10000 3.1 110 09:20 19.06.2020
1102 Clouds 25 1018 83 10000 5.7 110 08:43 19.06.2020
1103 Clouds 25 1018 83 10000 5.7 110 08:24 19.06.2020
1104 Clouds 27 1018 88 10000 2.6 70 07:56 19.06.2020
1105 Clouds 27 1018 88 10000 2.6 70 07:36 19.06.2020
1106 Clouds 27 1018 88 10000 2.6 70 07:18 19.06.2020
1107 Clouds 27 1018 88 10000 2.6 70 07:18 19.06.2020
1108 Clouds 27 1019 88 10000 1.5 80 06:23 19.06.2020
1109 Clouds 27 1019 88 10000 1.5 80 06:23 19.06.2020
1110 Rain 27 1019 94 10000 2.1 90 05:43 19.06.2020
1111 Clouds 28 1017 83 10000 3.6 130 04:23 19.06.2020
1112 Clouds 28 1017 83 10000 3.6 130 02:33 19.06.2020
1113 Clouds 29 1016 74 10000 5.1 160 00:48 19.06.2020
1114 Clouds 29 1016 74 10000 5.1 160 00:22 19.06.2020
1115 Clouds 30 1016 70 10000 5.1 150 23:58 18.06.2020
1116 Clouds 30 1016 70 10000 5.1 150 23:40 18.06.2020
1117 Clouds 30 1016 70 10000 5.1 150 23:22 18.06.2020
1118 Clouds 29 1016 79 10000 5.1 160 22:57 18.06.2020
1119 Clouds 29 1016 79 10000 5.1 160 22:36 18.06.2020
1120 Clouds 29 1016 79 10000 5.1 160 22:18 18.06.2020
1121 Clouds 30 1017 74 10000 5.7 170 21:38 18.06.2020
1122 Clouds 30 1017 74 10000 5.7 170 21:19 18.06.2020
1123 Clouds 30 1017 70 10000 5.1 170 20:44 18.06.2020
1124 Clouds 30 1017 70 10000 5.1 170 20:23 18.06.2020
1125 Clouds 30 1017 74 10000 6.2 180 19:59 18.06.2020
1126 Clouds 30 1017 74 10000 6.2 180 19:41 18.06.2020
1127 Clouds 30 1017 74 10000 6.2 180 19:20 18.06.2020
1128 Clouds 30 1017 74 10000 6.7 150 18:44 18.06.2020
1129 Clouds 30 1017 74 10000 6.7 150 18:25 18.06.2020
1130 Clouds 29 1018 79 10000 7.7 140 17:59 18.06.2020
1131 Clouds 29 1018 79 10000 7.7 140 17:41 18.06.2020
1132 Clouds 29 1018 79 10000 7.7 140 17:23 18.06.2020
1133 Clouds 28 1018 83 10000 6.7 140 16:44 18.06.2020
1134 Clouds 28 1018 83 10000 6.7 140 16:25 18.06.2020
1135 Clouds 28 1018 83 10000 5.7 140 15:59 18.06.2020
1136 Clouds 28 1018 83 10000 5.7 140 15:40 18.06.2020
1137 Clouds 28 1018 83 10000 5.7 140 15:20 18.06.2020
1138 Clouds 27 1017 88 10000 3.1 130 14:57 18.06.2020
1139 Clouds 27 1017 88 10000 3.1 130 14:57 18.06.2020
1140 Clouds 27 1017 88 10000 3.1 130 14:39 18.06.2020
1141 Clouds 27 1017 88 10000 3.1 130 14:20 18.06.2020
1142 Clouds 27 1017 88 10000 2.1 140 13:48 18.06.2020
1143 Clouds 27 1017 88 10000 2.1 140 13:29 18.06.2020
1144 Clouds 26 1017 94 10000 2.1 130 12:58 18.06.2020
1145 Clouds 26 1017 94 10000 2.1 130 12:40 18.06.2020
1146 Clouds 26 1017 94 10000 2.1 130 12:40 18.06.2020
1147 Clouds 26 1017 94 10000 2.1 130 12:20 18.06.2020
1148 Clouds 28 1015 78 0 6 119 11:57 18.06.2020
1149 Clouds 28 1015 78 0 6 119 11:57 18.06.2020
1150 Clouds 28 1015 78 0 6 119 11:38 18.06.2020
1151 Clouds 28 1015 78 0 5.92 120 11:19 18.06.2020
1152 Clouds 28 1015 78 0 5.92 120 10:40 18.06.2020
1153 Clouds 28 1015 79 0 5.81 115 10:19 18.06.2020
1154 Clouds 28 1015 79 0 5.81 115 09:46 18.06.2020
1155 Clouds 26 1017 94 10000 2.1 100 09:27 18.06.2020
1156 Clouds 26 1017 94 10000 2.1 100 08:58 18.06.2020
1157 Clouds 26 1017 94 10000 2.1 100 08:38 18.06.2020
1158 Clouds 26 1018 94 10000 2.1 110 08:19 18.06.2020
1159 Clouds 26 1018 94 10000 2.1 110 07:45 18.06.2020
1160 Clouds 26 1018 94 10000 2.1 110 07:25 18.06.2020
1161 Clouds 28 1017 75 0 4.96 100 06:42 18.06.2020
1162 Clouds 26 1019 88 10000 2.6 90 05:31 18.06.2020
1163 Clouds 26 1018 88 10000 1.5 100 04:20 18.06.2020
1164 Clouds 25 1017 94 10000 3.1 80 01:48 18.06.2020
1165 Clouds 25 1017 94 10000 3.1 80 01:27 18.06.2020
1166 Rain 25 1018 88 10000 1.5 70 00:52 18.06.2020
1167 Rain 25 1018 88 10000 1.5 70 00:31 18.06.2020
1168 Rain 24 1019 94 10000 2.1 170 23:56 17.06.2020
1169 Thunderstorm 24 1018 94 2000 7.2 170 23:37 17.06.2020
1170 Thunderstorm 24 1018 94 2000 7.2 170 23:19 17.06.2020
1171 Rain 25 1019 94 10000 5.7 160 22:55 17.06.2020
1172 Rain 25 1019 94 10000 5.7 160 22:37 17.06.2020
1173 Rain 25 1019 94 10000 5.7 160 22:19 17.06.2020
1174 Clouds 27 1018 88 10000 3.6 60 21:40 17.06.2020
1175 Clouds 27 1018 88 10000 3.6 60 21:21 17.06.2020
1176 Rain 27 1019 88 9000 2.6 70 20:56 17.06.2020
1177 Rain 27 1019 88 9000 2.6 70 20:37 17.06.2020
1178 Rain 27 1019 88 9000 2.6 70 20:19 17.06.2020
1179 Rain 28 1019 74 10000 6.7 70 19:43 17.06.2020
1180 Rain 28 1019 74 10000 6.7 70 19:22 17.06.2020
1181 Clouds 29 1019 70 10000 5.7 70 18:56 17.06.2020
1182 Clouds 29 1019 70 10000 5.7 70 18:37 17.06.2020
1183 Clouds 29 1019 70 10000 5.7 70 18:19 17.06.2020
1184 Clouds 28 1019 69 10000 4.6 70 17:42 17.06.2020
1185 Clouds 28 1019 69 10000 4.6 70 17:21 17.06.2020
1186 Clouds 28 1019 74 10000 4.6 60 16:56 17.06.2020
1187 Clouds 28 1019 74 10000 4.6 60 16:38 17.06.2020
1188 Clouds 28 1019 74 10000 4.6 60 16:19 17.06.2020
1189 Clear 27 1018 77 0 5.3 75 15:40 17.06.2020
1190 Clouds 27 1018 78 10000 3.1 80 15:21 17.06.2020
1191 Clouds 27 1018 78 10000 3.1 80 14:59 17.06.2020
1192 Clouds 27 1018 78 10000 3.1 80 14:40 17.06.2020
1193 Clouds 27 1018 78 10000 3.1 80 14:20 17.06.2020
1194 Clouds 26 1018 83 10000 1.5 80 13:58 17.06.2020
1195 Clouds 26 1018 83 10000 1.5 80 13:40 17.06.2020
1196 Clouds 26 1018 83 10000 1.5 80 13:21 17.06.2020
1197 Clouds 25 1017 88 10000 1.5 70 12:55 17.06.2020
1198 Clouds 25 1017 88 10000 1.5 70 12:36 17.06.2020
1199 Clouds 25 1017 88 10000 1.5 70 12:18 17.06.2020
1200 Clouds 24 1017 94 10000 1.5 60 11:43 17.06.2020
1201 Clouds 24 1017 94 10000 1.5 60 11:23 17.06.2020
1202 Clouds 23 1017 100 10000 1 0 10:39 17.06.2020
1203 Clouds 23 1017 100 10000 1 0 10:19 17.06.2020
1204 Clouds 24 1017 94 10000 1.5 130 09:58 17.06.2020
1205 Clouds 24 1017 94 10000 1.5 130 09:58 17.06.2020
1206 Clouds 24 1017 94 10000 1.5 130 09:40 17.06.2020
1207 Clouds 24 1017 94 10000 1.5 130 09:21 17.06.2020
1208 Clouds 24 1018 94 10000 0.5 0 08:46 17.06.2020
1209 Clouds 24 1018 94 10000 0.5 0 08:21 17.06.2020
1210 Clouds 24 1018 94 10000 1 0 07:57 17.06.2020
1211 Clouds 24 1018 94 10000 1 0 07:39 17.06.2020
1212 Clouds 24 1019 94 10000 0.5 0 07:20 17.06.2020
1213 Clouds 24 1019 94 10000 0.5 0 06:55 17.06.2020
1214 Clouds 24 1019 94 10000 0.5 0 06:37 17.06.2020
1215 Clouds 24 1019 94 10000 0.5 0 06:19 17.06.2020
1216 Clouds 26 1018 83 10000 2.1 120 04:53 17.06.2020
1217 Clouds 26 1018 83 10000 1 0 02:49 17.06.2020
1218 Clouds 26 1017 83 10000 1.5 110 01:29 17.06.2020
1219 Clouds 26 1017 83 10000 2.1 110 00:38 17.06.2020
1220 Clouds 26 1017 83 10000 2.1 110 00:19 17.06.2020
1221 Clouds 25 1017 88 10000 1.5 60 23:55 16.06.2020
1222 Clouds 25 1017 88 10000 1.5 60 23:37 16.06.2020
1223 Clouds 25 1017 88 10000 1.5 60 23:18 16.06.2020
1224 Rain 25 1018 88 10000 2.6 80 22:40 16.06.2020
1225 Rain 25 1018 88 9000 2.6 140 22:19 16.06.2020
1226 Rain 25 1018 88 9000 2.6 140 22:19 16.06.2020
1227 Rain 25 1018 88 9000 2.6 140 21:58 16.06.2020
1228 Rain 25 1018 88 9000 2.6 140 21:40 16.06.2020
1229 Rain 25 1018 88 9000 2.6 140 21:22 16.06.2020
1230 Rain 26 1018 88 10000 3.1 90 20:57 16.06.2020
1231 Rain 26 1018 88 10000 3.1 90 20:39 16.06.2020
1232 Rain 26 1018 88 10000 3.1 90 20:18 16.06.2020
1233 Thunderstorm 27 1018 78 10000 4.1 10 19:56 16.06.2020
1234 Thunderstorm 27 1018 78 10000 4.1 10 19:37 16.06.2020
1235 Thunderstorm 27 1018 78 10000 4.1 10 19:18 16.06.2020
1236 Rain 27 1018 78 10000 2.1 290 18:44 16.06.2020
1237 Rain 27 1018 78 10000 2.1 290 18:21 16.06.2020
1238 Thunderstorm 29 1018 74 10000 2.1 300 17:58 16.06.2020
1239 Thunderstorm 29 1018 74 10000 2.1 300 17:38 16.06.2020
1240 Thunderstorm 29 1018 74 10000 2.1 300 17:20 16.06.2020
1241 Clouds 28 1018 78 10000 3.1 300 16:56 16.06.2020
1242 Clouds 28 1018 78 10000 3.1 300 16:38 16.06.2020
1243 Clouds 28 1018 78 10000 3.1 300 16:19 16.06.2020
1244 Clouds 28 1017 83 10000 2.6 280 15:56 16.06.2020
1245 Clouds 28 1017 83 10000 2.6 280 15:38 16.06.2020
1246 Clouds 28 1017 83 10000 2.6 280 15:38 16.06.2020
1247 Clouds 28 1017 83 10000 2.6 280 15:20 16.06.2020
1248 Clouds 26 1017 88 10000 1.5 260 14:43 16.06.2020
1249 Clouds 26 1017 88 10000 1.5 260 14:25 16.06.2020
1250 Clouds 25 1017 94 10000 1.5 250 13:59 16.06.2020
1251 Clouds 27 1016 73 0 2.6 272 13:41 16.06.2020
1252 Thunderstorm 25 1016 88 10000 1 0 13:22 16.06.2020
1253 Thunderstorm 25 1016 88 10000 1 0 12:42 16.06.2020
1254 Thunderstorm 25 1016 88 10000 1 0 12:22 16.06.2020
1255 Thunderstorm 25 1016 94 10000 1.5 240 11:57 16.06.2020
1256 Thunderstorm 25 1016 94 10000 1.5 240 11:39 16.06.2020
1257 Thunderstorm 25 1016 94 10000 1.5 240 11:20 16.06.2020
1258 Thunderstorm 26 1016 83 10000 1.5 250 10:56 16.06.2020
1259 Thunderstorm 26 1016 83 10000 1.5 250 10:37 16.06.2020
1260 Thunderstorm 26 1016 83 10000 1.5 250 10:18 16.06.2020
1261 Clouds 25 1016 88 10000 1 0 09:43 16.06.2020
1262 Clouds 25 1016 88 10000 1 0 09:22 16.06.2020
1263 Clouds 25 1017 88 10000 1.5 230 08:48 16.06.2020
1264 Clouds 25 1017 88 10000 1.5 230 08:30 16.06.2020
1265 Clouds 25 1017 88 10000 1.5 240 07:51 16.06.2020
1266 Clouds 25 1017 88 10000 1.5 240 07:29 16.06.2020
1267 Clouds 25 1017 88 10000 1 0 06:56 16.06.2020
1268 Clouds 25 1017 88 10000 1 0 06:29 16.06.2020
1269 Clouds 25 1018 83 10000 1.5 200 05:47 16.06.2020
1270 Clouds 25 1018 88 10000 1 0 04:42 16.06.2020
1271 Clouds 25 1017 88 10000 2.1 200 03:48 16.06.2020
1272 Clouds 26 1017 78 10000 1.5 290 02:19 16.06.2020
1273 Clouds 27 1017 78 10000 2.6 210 01:31 16.06.2020
1274 Clouds 27 1016 78 10000 2.6 170 00:52 16.06.2020
1275 Clouds 27 1016 78 10000 2.6 170 00:22 16.06.2020
1276 Clouds 26 1016 83 10000 2.6 190 23:43 15.06.2020
1277 Clouds 26 1016 83 10000 2.6 190 23:23 15.06.2020
1278 Rain 25 1017 88 10000 3.6 60 22:57 15.06.2020
1279 Rain 25 1017 88 10000 3.6 60 22:38 15.06.2020
1280 Rain 25 1017 88 10000 3.6 60 22:19 15.06.2020
1281 Thunderstorm 26 1017 74 10000 5.1 90 21:56 15.06.2020
1282 Thunderstorm 26 1017 74 10000 5.1 90 21:37 15.06.2020
1283 Thunderstorm 26 1017 74 10000 5.1 90 21:19 15.06.2020
1284 Rain 29 1017 74 10000 3.6 290 20:56 15.06.2020
1285 Rain 29 1017 74 10000 3.6 290 20:37 15.06.2020
1286 Rain 29 1017 74 10000 3.6 290 20:19 15.06.2020
1287 Rain 30 1017 66 10000 3.1 210 19:55 15.06.2020
1288 Rain 30 1017 66 10000 3.1 210 19:37 15.06.2020
1289 Clouds 29 1017 66 10000 3.1 180 19:18 15.06.2020
1290 Clouds 29 1017 66 10000 3.1 180 18:44 15.06.2020
1291 Clouds 29 1017 66 10000 3.1 180 18:22 15.06.2020
1292 Clouds 29 1018 70 10000 3.1 150 17:59 15.06.2020
1293 Clouds 29 1018 70 10000 3.1 150 17:59 15.06.2020
1294 Clouds 29 1018 70 10000 3.1 150 17:41 15.06.2020
1295 Clouds 29 1018 70 10000 3.1 150 17:20 15.06.2020
1296 Clouds 28 1018 74 10000 5.1 170 16:57 15.06.2020
1297 Clouds 28 1018 74 10000 5.1 170 16:39 15.06.2020
1298 Clouds 28 1018 74 10000 5.1 170 16:18 15.06.2020
1299 Clouds 27 1017 78 10000 4.1 140 15:41 15.06.2020
1300 Clouds 27 1017 78 10000 4.1 140 15:21 15.06.2020
1301 Clouds 24 1017 94 10000 4.22 140 14:59 15.06.2020
1302 Clouds 24 1017 94 10000 4.22 140 14:40 15.06.2020
1303 Clouds 24 1017 94 10000 4.54 142 14:20 15.06.2020
1304 Rain 23 1017 94 10000 3.1 180 13:57 15.06.2020
1305 Rain 23 1017 94 10000 3.1 180 13:38 15.06.2020
1306 Rain 23 1017 94 10000 3.1 180 13:19 15.06.2020
1307 Clouds 24 1017 94 10000 3.1 140 12:43 15.06.2020
1308 Clouds 24 1017 94 10000 3.1 140 12:22 15.06.2020
1309 Rain 23 1016 88 10000 5.7 180 11:58 15.06.2020
1310 Rain 23 1016 88 10000 5.7 180 11:40 15.06.2020
1311 Rain 23 1016 88 10000 5.7 180 11:22 15.06.2020
1312 Clouds 25 1016 94 10000 1.5 170 10:42 15.06.2020
1313 Clouds 25 1016 94 10000 1.5 170 10:22 15.06.2020
1314 Clouds 25 1016 94 10000 1.5 50 09:44 15.06.2020
1315 Clouds 25 1016 94 10000 1.5 50 09:23 15.06.2020
1316 Clouds 27 1015 76 0 5.02 123 08:48 15.06.2020
1317 Clouds 25 1017 83 10000 2.6 160 08:27 15.06.2020
1318 Clouds 25 1017 83 10000 2.6 160 07:57 15.06.2020
1319 Clouds 25 1017 83 10000 2.6 160 07:39 15.06.2020
1320 Clouds 25 1017 83 10000 2.6 160 07:19 15.06.2020
1321 Clouds 26 1017 88 10000 2.6 140 06:29 15.06.2020
1322 Clouds 26 1018 83 10000 3.1 140 05:51 15.06.2020
1323 Clouds 26 1018 83 10000 3.1 140 05:30 15.06.2020
1324 Clouds 26 1018 83 10000 3.6 160 04:22 15.06.2020
1325 Rain 27 1017 77 0 5.53 111 03:49 15.06.2020
1326 Rain 27 1017 74 10000 4.6 140 02:57 15.06.2020
1327 Rain 27 1017 74 10000 4.6 140 02:29 15.06.2020
1328 Rain 28 1016 74 10000 4.6 130 01:47 15.06.2020
1329 Rain 28 1016 74 10000 4.6 130 01:24 15.06.2020
1330 Rain 28 1016 74 10000 5.7 140 00:45 15.06.2020
1331 Rain 28 1016 74 10000 5.7 140 00:23 15.06.2020
1332 Clouds 28 1016 69 10000 6.2 140 23:57 14.06.2020
1333 Clouds 28 1016 69 10000 6.2 140 23:39 14.06.2020
1334 Clouds 28 1016 69 10000 6.2 140 23:21 14.06.2020
1335 Rain 28 1017 69 10000 6.2 140 22:57 14.06.2020
1336 Rain 28 1017 69 10000 6.2 140 22:37 14.06.2020
1337 Rain 28 1017 69 10000 6.2 140 22:18 14.06.2020
1338 Rain 28 1017 69 10000 6.2 140 21:56 14.06.2020
1339 Rain 28 1017 69 10000 6.2 140 21:37 14.06.2020
1340 Rain 28 1017 69 10000 6.2 140 21:18 14.06.2020
1341 Rain 28 1017 69 10000 6.2 140 21:18 14.06.2020
1342 Clouds 29 1017 70 10000 7.2 140 20:55 14.06.2020
1343 Clouds 29 1017 70 10000 7.2 140 20:36 14.06.2020
1344 Clouds 29 1018 70 10000 6.2 150 20:18 14.06.2020
1345 Clouds 29 1018 70 10000 6.2 150 19:55 14.06.2020
1346 Clouds 29 1018 70 10000 6.2 150 19:36 14.06.2020
1347 Clouds 29 1018 70 10000 6.2 150 19:18 14.06.2020
1348 Clouds 29 1017 70 10000 6.2 140 18:55 14.06.2020
1349 Clouds 29 1017 70 10000 6.2 140 18:37 14.06.2020
1350 Clouds 29 1017 70 10000 6.2 140 18:18 14.06.2020
1351 Rain 27 1017 88 10000 2.1 150 17:40 14.06.2020
1352 Rain 27 1017 88 10000 2.1 150 17:40 14.06.2020
1353 Rain 27 1017 88 10000 2.1 150 17:20 14.06.2020
1354 Rain 24 1017 94 9000 4.1 160 16:58 14.06.2020
1355 Rain 24 1017 94 9000 4.1 160 16:39 14.06.2020
1356 Rain 24 1017 94 9000 4.1 160 16:19 14.06.2020
1357 Rain 24 1017 94 4800 8.2 140 15:55 14.06.2020
1358 Rain 26 1017 88 10000 4.1 110 15:36 14.06.2020
1359 Rain 26 1016 83 10000 3.6 130 15:18 14.06.2020
1360 Rain 26 1016 83 10000 3.6 130 14:41 14.06.2020
1361 Rain 26 1016 83 10000 3.6 130 14:22 14.06.2020
1362 Clouds 25 1016 94 10000 3.1 120 13:58 14.06.2020
1363 Clouds 25 1016 94 10000 3.1 120 13:40 14.06.2020
1364 Clouds 25 1016 94 10000 3.1 120 13:21 14.06.2020
1365 Clouds 25 1016 94 10000 3.1 120 13:21 14.06.2020
1366 Clouds 25 1015 94 10000 3.1 100 12:57 14.06.2020
1367 Clouds 25 1015 94 10000 3.1 100 12:38 14.06.2020
1368 Clouds 25 1015 94 10000 3.1 100 12:20 14.06.2020
1369 Clouds 25 1015 94 10000 3.1 100 12:20 14.06.2020
1370 Clouds 24 1015 94 10000 2.1 110 11:56 14.06.2020
1371 Clouds 24 1015 94 10000 2.1 110 11:38 14.06.2020
1372 Clouds 24 1015 94 10000 2.1 110 11:19 14.06.2020
1373 Clouds 24 1015 94 10000 2.1 110 10:42 14.06.2020
1374 Clouds 24 1015 94 10000 3.1 110 10:20 14.06.2020
1375 Clouds 24 1015 94 10000 3.1 110 09:51 14.06.2020
1376 Clouds 24 1015 94 10000 3.1 110 09:26 14.06.2020
1377 Clouds 24 1015 88 10000 3.6 90 08:58 14.06.2020
1378 Clouds 24 1015 88 10000 3.6 90 08:40 14.06.2020
1379 Clouds 24 1015 88 10000 3.6 90 08:18 14.06.2020
1380 Clouds 24 1016 94 10000 3.1 70 07:50 14.06.2020
1381 Clouds 24 1016 94 10000 3.1 70 07:32 14.06.2020
1382 Rain 23 1016 94 10000 2.6 130 06:31 14.06.2020
1383 Thunderstorm 23 1016 94 10000 4.6 160 05:43 14.06.2020
1384 Thunderstorm 23 1016 88 9000 3.1 190 04:55 14.06.2020
1385 Thunderstorm 23 1016 88 9000 3.1 190 04:30 14.06.2020
1386 Thunderstorm 24 1015 94 9000 4.6 90 03:23 14.06.2020
1387 Thunderstorm 22 1015 94 7000 5.1 310 02:27 14.06.2020
1388 Thunderstorm 26 1014 88 10000 1 0 01:42 14.06.2020
1389 Rain 28 1013 74 10000 5.7 120 01:18 14.06.2020
1390 Thunderstorm 28 1013 74 10000 5.7 120 00:37 14.06.2020
1391 Thunderstorm 28 1013 74 10000 4.1 100 00:18 14.06.2020
1392 Thunderstorm 28 1013 74 10000 3.6 110 23:42 13.06.2020
1393 Thunderstorm 28 1013 74 10000 3.6 110 23:23 13.06.2020
1394 Thunderstorm 28 1014 74 10000 6.2 160 22:56 13.06.2020
1395 Thunderstorm 28 1014 74 10000 6.2 160 22:37 13.06.2020
1396 Thunderstorm 28 1014 74 10000 6.2 160 22:18 13.06.2020
1397 Rain 27 1013 77 0 6.28 110 21:43 13.06.2020
1398 Rain 27 1014 77 0 6.42 116 21:25 13.06.2020
1399 Thunderstorm 28 1014 74 10000 6.2 170 21:00 13.06.2020
1400 Thunderstorm 29 1015 70 10000 4.6 140 20:41 13.06.2020
1401 Thunderstorm 29 1015 70 10000 4.6 140 20:19 13.06.2020
1402 Thunderstorm 28 1015 74 10000 5.7 150 19:42 13.06.2020
1403 Thunderstorm 28 1015 74 10000 5.7 150 19:21 13.06.2020
1404 Rain 28 1015 74 10000 7.2 140 18:59 13.06.2020
1405 Rain 28 1015 74 10000 7.2 140 18:41 13.06.2020
1406 Rain 28 1015 74 10000 7.2 140 18:21 13.06.2020
1407 Rain 28 1015 78 10000 4.1 120 17:59 13.06.2020
1408 Rain 28 1015 78 10000 4.1 120 17:40 13.06.2020
1409 Rain 28 1015 78 10000 4.1 120 17:22 13.06.2020
1410 Rain 25 1015 94 10000 3.6 90 16:56 13.06.2020
1411 Rain 25 1015 94 10000 3.6 90 16:37 13.06.2020
1412 Rain 25 1015 94 10000 3.6 90 16:18 13.06.2020
1413 Rain 25 1015 88 10000 6.7 130 15:44 13.06.2020
1414 Rain 25 1015 88 10000 6.7 130 15:26 13.06.2020
1415 Rain 24 1015 88 10000 6.2 120 14:45 13.06.2020
1416 Rain 24 1015 88 10000 6.2 120 14:26 13.06.2020
1417 Clouds 25 1014 94 10000 4.6 90 13:59 13.06.2020
1418 Clouds 25 1014 94 10000 4.6 90 13:40 13.06.2020
1419 Clouds 25 1014 94 10000 4.6 90 13:22 13.06.2020
1420 Rain 25 1014 94 10000 4.6 70 12:44 13.06.2020
1421 Rain 25 1014 94 10000 4.6 70 12:26 13.06.2020
1422 Clouds 25 1014 88 10000 3.6 70 11:57 13.06.2020
1423 Clouds 25 1014 88 10000 3.6 70 11:38 13.06.2020
1424 Clouds 25 1014 88 10000 3.6 70 11:19 13.06.2020
1425 Clouds 25 1014 88 10000 3.6 70 11:19 13.06.2020
1426 Rain 26 1013 80 0 8 97 10:56 13.06.2020
1427 Rain 26 1013 80 0 8 97 10:37 13.06.2020
1428 Rain 26 1013 80 0 7.96 98 10:18 13.06.2020
1429 Rain 26 1013 80 0 7.96 98 09:42 13.06.2020
1430 Clouds 26 1015 78 10000 1.5 100 09:21 13.06.2020
1431 Clouds 26 1015 78 10000 1.5 100 08:48 13.06.2020
1432 Clouds 26 1015 78 10000 1.5 100 08:30 13.06.2020
1433 Clouds 26 1015 78 10000 3.1 110 07:50 13.06.2020
1434 Clouds 26 1015 78 10000 3.1 110 07:27 13.06.2020
1435 Clouds 26 1015 78 10000 2.6 110 06:49 13.06.2020
1436 Clouds 26 1015 78 10000 2.6 110 06:28 13.06.2020
1437 Clear 26 1015 79 0 7.71 90 05:42 13.06.2020
1438 Clouds 25 1016 83 10000 2.1 90 05:23 13.06.2020
1439 Rain 26 1016 83 10000 2.1 60 03:47 13.06.2020
1440 Clouds 26 1015 78 10000 4.1 130 02:53 13.06.2020
1441 Clouds 26 1015 78 10000 4.1 130 02:29 13.06.2020
1442 Clouds 26 1015 78 10000 6.2 120 01:37 13.06.2020
1443 Clouds 26 1015 83 10000 6.2 140 01:18 13.06.2020
1444 Clouds 26 1015 83 10000 6.2 140 00:39 13.06.2020
1445 Clouds 29 1015 70 10000 2.6 60 00:21 13.06.2020
1446 Clouds 29 1015 70 10000 2.6 60 23:41 12.06.2020
1447 Clouds 29 1015 70 10000 2.6 60 23:19 12.06.2020
1448 Rain 28 1015 74 7000 5.1 80 22:56 12.06.2020
1449 Clouds 29 1015 66 10000 5.7 120 22:38 12.06.2020
1450 Clouds 29 1015 66 10000 5.7 120 22:18 12.06.2020
1451 Clouds 28 1016 69 10000 6.7 160 21:44 12.06.2020
1452 Clouds 28 1016 69 10000 6.7 160 21:24 12.06.2020
1453 Rain 28 1017 69 10000 5.7 110 20:57 12.06.2020
1454 Rain 28 1017 69 10000 5.7 110 20:38 12.06.2020
1455 Rain 28 1017 69 10000 5.7 110 20:20 12.06.2020
1456 Clouds 27 1017 74 10000 6.7 90 19:44 12.06.2020
1457 Clouds 27 1017 74 10000 6.7 90 19:22 12.06.2020
1458 Clouds 27 1017 74 10000 6.7 90 19:22 12.06.2020
1459 Rain 27 1017 78 10000 5.1 100 18:59 12.06.2020
1460 Rain 27 1017 78 10000 5.1 100 18:37 12.06.2020
1461 Rain 26 1017 83 10000 1.5 60 18:18 12.06.2020
1462 Rain 26 1017 83 10000 1.5 60 17:44 12.06.2020
1463 Rain 26 1017 83 10000 1.5 60 17:26 12.06.2020
1464 Rain 25 1017 94 10000 5.1 120 16:47 12.06.2020
1465 Rain 25 1017 94 10000 5.1 120 16:24 12.06.2020
1466 Rain 24 1017 94 10000 7.7 140 15:56 12.06.2020
1467 Rain 24 1017 94 10000 7.7 140 15:37 12.06.2020
1468 Rain 24 1017 94 10000 7.7 140 15:18 12.06.2020
1469 Clouds 26 1017 83 10000 4.1 90 14:41 12.06.2020
1470 Clouds 26 1017 83 10000 4.1 90 14:22 12.06.2020
1471 Clouds 25 1016 88 10000 2.6 100 13:56 12.06.2020
1472 Clouds 25 1016 88 10000 2.6 100 13:38 12.06.2020
1473 Clouds 25 1016 88 10000 2.6 100 13:18 12.06.2020
1474 Rain 26 1016 78 10000 3.1 80 12:40 12.06.2020
1475 Rain 26 1016 78 10000 3.1 80 12:19 12.06.2020
1476 Clouds 26 1016 74 10000 2.6 100 11:45 12.06.2020
1477 Clouds 26 1016 74 10000 2.6 100 11:23 12.06.2020
1478 Clouds 26 1016 78 10000 3.1 100 10:56 12.06.2020
1479 Clouds 26 1016 78 10000 3.1 100 10:38 12.06.2020
1480 Clouds 26 1016 78 10000 3.1 100 10:19 12.06.2020
1481 Clouds 26 1016 78 10000 5.1 100 09:44 12.06.2020
1482 Clouds 26 1016 78 10000 5.1 100 09:20 12.06.2020
1483 Clouds 26 1017 74 10000 5.1 90 08:41 12.06.2020
1484 Clouds 26 1017 74 10000 5.1 90 08:23 12.06.2020
1485 Clouds 26 1018 74 10000 6.2 120 07:43 12.06.2020
1486 Clouds 26 1018 74 10000 6.2 120 07:24 12.06.2020
1487 Clouds 26 1018 78 10000 4.1 90 06:43 12.06.2020
1488 Clouds 26 1018 78 10000 4.1 90 06:22 12.06.2020
1489 Rain 27 1017 79 0 9.38 87 05:49 12.06.2020
1490 Clouds 27 1018 74 10000 5.7 90 05:24 12.06.2020
1491 Clouds 27 1018 74 10000 5.7 90 03:55 12.06.2020
1492 Clouds 27 1017 74 10000 5.7 90 02:43 12.06.2020
1493 Clouds 27 1017 74 10000 6.2 100 01:47 12.06.2020
1494 Clouds 27 1017 74 10000 6.2 100 01:20 12.06.2020
1495 Clouds 29 1016 66 10000 6.2 80 00:39 12.06.2020
1496 Clouds 29 1016 66 10000 6.2 80 00:20 12.06.2020
1497 Clouds 28 1017 61 10000 5.7 50 23:57 11.06.2020
1498 Clouds 28 1017 61 10000 5.7 50 23:38 11.06.2020
1499 Clouds 28 1017 61 10000 5.7 50 23:19 11.06.2020
1500 Clouds 29 1017 54 10000 6.2 70 22:54 11.06.2020
1501 Clouds 29 1017 54 10000 6.2 70 22:36 11.06.2020
1502 Clouds 29 1018 54 10000 6.2 90 22:18 11.06.2020
1503 Clouds 29 1018 54 10000 6.2 90 21:42 11.06.2020
1504 Clouds 29 1018 54 10000 6.2 90 21:20 11.06.2020
1505 Clouds 29 1019 62 10000 6.7 90 20:57 11.06.2020
1506 Clouds 29 1019 62 10000 6.7 90 20:38 11.06.2020
1507 Clouds 29 1019 62 10000 6.7 90 20:20 11.06.2020
1508 Clouds 30 1018 55 10000 6.2 80 19:43 11.06.2020
1509 Clouds 30 1018 55 10000 6.2 80 19:22 11.06.2020
1510 Clouds 29 1019 62 10000 6.2 70 18:44 11.06.2020
1511 Clouds 29 1019 62 10000 6.2 70 18:26 11.06.2020
1512 Clouds 29 1018 62 10000 6.2 80 17:59 11.06.2020
1513 Clouds 29 1018 62 10000 6.2 80 17:39 11.06.2020
1514 Clouds 29 1018 62 10000 6.2 80 17:20 11.06.2020
1515 Clouds 28 1018 58 10000 5.7 80 16:58 11.06.2020
1516 Clouds 28 1018 58 10000 5.7 80 16:40 11.06.2020
1517 Clouds 28 1018 58 10000 5.7 80 16:22 11.06.2020
1518 Clouds 28 1019 54 10000 4.6 100 15:56 11.06.2020
1519 Clouds 28 1019 54 10000 4.6 100 15:38 11.06.2020
1520 Clouds 28 1019 54 10000 4.6 100 15:19 11.06.2020
1521 Clouds 27 1018 61 10000 3.6 100 14:42 11.06.2020
1522 Clouds 27 1018 61 10000 3.6 100 14:21 11.06.2020
1523 Clouds 26 1018 65 10000 2.6 80 13:56 11.06.2020
1524 Clouds 26 1018 65 10000 2.6 80 13:37 11.06.2020
1525 Clouds 26 1018 65 10000 2.6 80 13:19 11.06.2020
1526 Clouds 26 1017 69 10000 2.6 100 12:55 11.06.2020
1527 Clouds 26 1017 69 10000 2.6 100 12:37 11.06.2020
1528 Clouds 26 1017 69 10000 2.6 100 12:18 11.06.2020
1529 Clouds 26 1017 65 10000 3.6 90 11:56 11.06.2020
1530 Clouds 26 1017 65 10000 3.6 90 11:37 11.06.2020
1531 Clouds 26 1017 65 10000 3.6 90 11:18 11.06.2020
1532 Clouds 26 1017 69 10000 3.6 90 10:43 11.06.2020
1533 Clouds 26 1017 69 10000 3.6 90 10:20 11.06.2020
1534 Clouds 26 1017 69 10000 3.6 90 09:56 11.06.2020
1535 Clouds 26 1017 69 10000 3.6 90 09:38 11.06.2020
1536 Clouds 26 1017 69 10000 3.6 90 09:38 11.06.2020
1537 Clouds 26 1017 69 10000 3.6 90 09:20 11.06.2020
1538 Clouds 26 1017 74 10000 4.6 90 08:39 11.06.2020
1539 Clouds 26 1017 74 10000 4.6 90 08:19 11.06.2020
1540 Clouds 27 1018 74 10000 4.6 90 07:42 11.06.2020
1541 Clouds 27 1018 74 10000 4.6 90 07:24 11.06.2020
1542 Clouds 27 1018 74 10000 5.1 90 06:37 11.06.2020
1543 Clouds 27 1018 78 10000 4.6 100 05:57 11.06.2020
1544 Clouds 27 1018 78 10000 4.6 90 04:48 11.06.2020
1545 Clouds 27 1017 78 10000 3.6 110 03:25 11.06.2020
1546 Clouds 27 1017 83 10000 4.6 80 02:49 11.06.2020
1547 Thunderstorm 28 1017 74 10000 5.1 100 01:57 11.06.2020
1548 Thunderstorm 28 1017 74 10000 5.1 100 01:35 11.06.2020
1549 Thunderstorm 29 1017 74 10000 3.6 90 00:57 11.06.2020
1550 Thunderstorm 29 1017 74 10000 3.6 90 00:39 11.06.2020
1551 Thunderstorm 29 1017 74 10000 3.6 90 00:19 11.06.2020
1552 Clouds 29 1016 74 10000 4.6 80 23:41 10.06.2020
1553 Clouds 29 1016 74 10000 4.6 80 23:22 10.06.2020
1554 Thunderstorm 29 1017 74 10000 5.1 80 22:54 10.06.2020
1555 Thunderstorm 29 1017 74 10000 5.1 80 22:36 10.06.2020
1556 Thunderstorm 29 1017 74 10000 5.1 80 22:18 10.06.2020
1557 Clouds 29 1017 74 10000 5.1 50 21:55 10.06.2020
1558 Clouds 29 1017 74 10000 5.1 50 21:37 10.06.2020
1559 Clouds 29 1017 74 10000 5.1 50 21:18 10.06.2020
1560 Thunderstorm 29 1017 74 10000 4.6 50 20:54 10.06.2020
1561 Thunderstorm 29 1017 74 10000 4.6 50 20:36 10.06.2020
1562 Thunderstorm 29 1017 74 10000 4.6 50 20:18 10.06.2020
1563 Clouds 28 1017 78 10000 3.6 40 19:38 10.06.2020
1564 Thunderstorm 29 1017 70 10000 4.1 30 19:18 10.06.2020
1565 Thunderstorm 29 1017 70 10000 4.1 30 18:54 10.06.2020
1566 Thunderstorm 29 1017 70 10000 4.1 30 18:36 10.06.2020
1567 Thunderstorm 29 1017 70 10000 4.1 30 18:36 10.06.2020
1568 Clouds 29 1018 70 10000 4.1 60 18:18 10.06.2020
1569 Clouds 29 1018 70 10000 4.1 60 17:42 10.06.2020
1570 Clouds 29 1018 70 10000 4.1 60 17:21 10.06.2020
1571 Clouds 29 1017 70 10000 4.1 50 16:59 10.06.2020
1572 Clouds 29 1017 70 10000 4.1 50 16:59 10.06.2020
1573 Clouds 29 1017 70 10000 4.1 50 16:41 10.06.2020
1574 Clouds 29 1017 70 10000 4.1 50 16:22 10.06.2020
1575 Clouds 28 1017 69 10000 4.6 70 15:57 10.06.2020
1576 Clouds 28 1017 69 10000 4.6 70 15:37 10.06.2020
1577 Clouds 28 1017 69 10000 4.6 70 15:19 10.06.2020
1578 Clouds 28 1017 74 10000 2.6 90 14:41 10.06.2020
1579 Clouds 28 1017 74 10000 2.6 90 14:21 10.06.2020
1580 Clouds 26 1016 88 10000 1.5 80 13:56 10.06.2020
1581 Clouds 26 1016 88 10000 1.5 80 13:38 10.06.2020
1582 Clouds 26 1016 88 10000 1.5 80 13:38 10.06.2020
1583 Clouds 26 1016 88 10000 1.5 80 13:20 10.06.2020
1584 Clouds 27 1016 78 10000 2.1 90 12:41 10.06.2020
1585 Clouds 27 1016 78 10000 2.1 90 12:18 10.06.2020
1586 Clouds 27 1015 78 10000 2.6 80 11:46 10.06.2020
1587 Clouds 27 1015 78 10000 2.6 80 11:20 10.06.2020
1588 Clouds 27 1016 83 10000 2.6 70 10:59 10.06.2020
1589 Clouds 27 1016 83 10000 2.6 70 10:41 10.06.2020
1590 Clouds 27 1016 83 10000 2.1 70 10:22 10.06.2020
1591 Clouds 27 1014 77 0 3.95 80 09:44 10.06.2020
1592 Clouds 27 1015 77 0 4.19 99 09:26 10.06.2020
1593 Clouds 27 1015 77 0 4.19 99 08:59 10.06.2020
1594 Clouds 27 1015 77 0 4.19 99 08:59 10.06.2020
1595 Clouds 27 1015 77 0 4.19 99 08:41 10.06.2020
1596 Clouds 27 1016 88 10000 2.6 80 08:22 10.06.2020
1597 Clouds 27 1016 88 10000 2.6 80 07:42 10.06.2020
1598 Clouds 27 1016 88 10000 2.6 80 07:23 10.06.2020
1599 Clouds 28 1016 77 0 4.2 99 06:52 10.06.2020
1600 Clouds 28 1017 74 10000 2.1 60 06:33 10.06.2020
1601 Clouds 28 1017 74 10000 2.1 60 06:00 10.06.2020
1602 Clouds 28 1017 74 10000 2.1 60 05:31 10.06.2020
1603 Clouds 28 1017 74 10000 2.1 80 04:48 10.06.2020
1604 Clouds 28 1017 74 10000 2.1 80 04:28 10.06.2020
1605 Clouds 29 1016 74 10000 3.6 70 02:24 10.06.2020
1606 Clouds 30 1015 70 10000 4.1 100 01:41 10.06.2020
1607 Rain 29 1015 74 10000 4.1 40 00:43 10.06.2020
1608 Rain 29 1015 74 10000 4.1 40 00:43 10.06.2020
1609 Rain 29 1015 74 10000 4.1 40 00:24 10.06.2020
1610 Clouds 30 1015 70 10000 4.6 40 23:59 09.06.2020
1611 Clouds 30 1015 70 10000 4.6 40 23:41 09.06.2020
1612 Clouds 30 1015 70 10000 4.6 40 23:23 09.06.2020
1613 Clouds 30 1016 70 10000 3.6 40 22:57 09.06.2020
1614 Clouds 30 1016 70 10000 3.6 40 22:38 09.06.2020
1615 Clouds 30 1016 70 10000 3.6 40 22:20 09.06.2020
1616 Clouds 30 1016 62 10000 2.6 140 21:57 09.06.2020
1617 Clouds 30 1016 62 10000 2.6 140 21:38 09.06.2020
1618 Clouds 30 1016 62 10000 2.6 140 21:20 09.06.2020
1619 Clouds 31 1016 58 10000 4.1 130 20:57 09.06.2020
1620 Clouds 31 1016 58 10000 4.1 130 20:38 09.06.2020
1621 Clouds 31 1016 58 10000 4.1 130 20:20 09.06.2020
1622 Clouds 30 1016 62 10000 2.1 150 19:57 09.06.2020
1623 Clouds 30 1016 62 10000 2.1 150 19:38 09.06.2020
1624 Clouds 30 1016 62 10000 2.1 150 19:20 09.06.2020
1625 Clouds 30 1016 62 10000 2.1 150 19:20 09.06.2020
1626 Clouds 30 1016 62 10000 4.1 140 18:46 09.06.2020
1627 Clouds 30 1016 62 10000 4.1 140 18:28 09.06.2020
1628 Clouds 29 1017 70 10000 3.6 140 17:59 09.06.2020
1629 Clouds 29 1017 70 10000 3.6 140 17:41 09.06.2020
1630 Clouds 29 1017 70 10000 3.6 140 17:22 09.06.2020
1631 Clouds 29 1016 70 10000 3.6 130 17:00 09.06.2020
1632 Clouds 29 1016 70 10000 3.6 130 16:40 09.06.2020
1633 Clouds 29 1016 70 10000 3.6 130 16:21 09.06.2020
1634 Clouds 28 1016 74 10000 4.1 130 15:41 09.06.2020
1635 Clouds 28 1016 74 10000 4.1 130 15:23 09.06.2020
1636 Clouds 28 1016 78 10000 2.6 120 14:59 09.06.2020
1637 Clouds 28 1016 78 10000 2.6 120 14:39 09.06.2020
1638 Clouds 28 1016 78 10000 2.6 120 14:19 09.06.2020
1639 Clouds 27 1016 83 10000 2.1 110 13:55 09.06.2020
1640 Clouds 27 1016 83 10000 2.1 110 13:37 09.06.2020
1641 Clouds 26 1015 88 10000 2.6 110 13:19 09.06.2020
1642 Clouds 26 1015 88 10000 2.6 110 12:42 09.06.2020
1643 Clouds 26 1015 88 10000 2.6 110 12:20 09.06.2020
1644 Clouds 26 1015 88 10000 2.6 120 11:58 09.06.2020
1645 Clouds 26 1015 88 10000 2.6 120 11:40 09.06.2020
1646 Clouds 26 1015 88 10000 2.6 120 11:20 09.06.2020
1647 Clouds 27 1015 83 10000 3.1 120 10:55 09.06.2020
1648 Clouds 27 1015 83 10000 3.1 120 10:36 09.06.2020
1649 Clouds 27 1015 83 10000 3.1 120 10:18 09.06.2020
1650 Clouds 27 1015 83 10000 2.6 120 09:40 09.06.2020
1651 Clouds 27 1015 83 10000 2.6 120 09:19 09.06.2020
1652 Clouds 27 1016 83 10000 2.1 110 08:40 09.06.2020
1653 Clouds 27 1016 83 10000 2.1 110 08:21 09.06.2020
1654 Clouds 27 1016 88 10000 2.6 100 07:44 09.06.2020
1655 Clouds 27 1016 88 10000 2.6 100 07:23 09.06.2020
1656 Clouds 28 1017 83 10000 2.6 110 06:56 09.06.2020
1657 Clouds 28 1017 83 10000 2.6 110 06:37 09.06.2020
1658 Clouds 28 1017 83 10000 3.6 110 05:53 09.06.2020
1659 Clouds 29 1017 74 10000 2.1 100 04:22 09.06.2020
1660 Clouds 29 1016 74 10000 3.6 120 02:47 09.06.2020
1661 Clouds 30 1016 70 10000 4.1 130 01:38 09.06.2020
1662 Clouds 30 1016 70 10000 4.1 130 01:19 09.06.2020
1663 Clouds 30 1016 66 10000 3.6 120 00:44 09.06.2020
1664 Clouds 30 1016 66 10000 3.6 120 00:19 09.06.2020
1665 Clouds 30 1016 66 10000 2.6 170 23:42 08.06.2020
1666 Clouds 30 1016 66 10000 2.6 170 23:22 08.06.2020
1667 Clouds 31 1016 62 10000 3.1 170 22:59 08.06.2020
1668 Clouds 31 1016 62 10000 3.1 170 22:38 08.06.2020
1669 Clouds 31 1016 62 10000 3.1 170 22:20 08.06.2020
1670 Clouds 31 1017 66 10000 2.1 210 21:56 08.06.2020
1671 Clouds 31 1017 66 10000 2.1 210 21:37 08.06.2020
1672 Clouds 31 1017 66 10000 2.1 210 21:18 08.06.2020
1673 Clouds 31 1017 62 10000 3.6 200 20:55 08.06.2020
1674 Clouds 31 1017 62 10000 3.6 200 20:36 08.06.2020
1675 Clouds 31 1017 62 10000 3.6 200 20:18 08.06.2020
1676 Clouds 31 1018 62 10000 3.6 170 19:43 08.06.2020
1677 Clouds 31 1018 66 10000 4.1 190 19:21 08.06.2020
1678 Clouds 31 1018 66 10000 4.1 190 18:43 08.06.2020
1679 Clouds 31 1018 66 10000 4.1 190 18:21 08.06.2020
1680 Clouds 30 1018 70 10000 5.7 170 17:58 08.06.2020
1681 Clouds 30 1018 70 10000 5.7 170 17:58 08.06.2020
1682 Clouds 30 1018 70 10000 5.7 170 17:40 08.06.2020
1683 Clouds 30 1018 70 10000 5.7 170 17:21 08.06.2020
1684 Clouds 29 1018 74 10000 5.7 170 16:58 08.06.2020
1685 Clouds 29 1018 74 10000 5.7 170 16:39 08.06.2020
1686 Clouds 29 1018 74 10000 5.7 170 16:39 08.06.2020
1687 Clouds 29 1018 74 10000 5.7 170 16:21 08.06.2020
1688 Clouds 30 1017 74 10000 5.1 160 15:42 08.06.2020
1689 Clouds 30 1017 74 10000 5.1 160 15:21 08.06.2020
1690 Clouds 28 1017 78 10000 5.1 160 14:58 08.06.2020
1691 Clouds 28 1017 78 10000 5.1 160 14:38 08.06.2020
1692 Clouds 27 1016 83 10000 4.1 150 14:18 08.06.2020
1693 Clouds 27 1016 83 10000 4.1 150 13:42 08.06.2020
1694 Clouds 27 1016 83 10000 4.1 150 13:42 08.06.2020
1695 Clouds 27 1016 83 10000 4.1 150 13:23 08.06.2020
1696 Clouds 27 1016 83 10000 3.6 160 12:42 08.06.2020
1697 Clouds 27 1016 83 10000 3.6 160 12:20 08.06.2020
1698 Clouds 27 1015 83 10000 3.6 150 11:59 08.06.2020
1699 Clouds 27 1015 83 10000 3.6 150 11:40 08.06.2020
1700 Clouds 27 1015 83 10000 3.6 150 11:21 08.06.2020
1701 Clouds 26 1015 88 10000 3.6 150 10:57 08.06.2020
1702 Clouds 27 1014 82 0 6.58 154 10:38 08.06.2020
1703 Clouds 27 1014 82 0 6.74 148 10:20 08.06.2020
1704 Clouds 27 1014 82 0 6.74 148 09:48 08.06.2020
1705 Clouds 26 1016 88 10000 2.1 160 09:23 08.06.2020
1706 Clouds 26 1016 88 10000 2.1 160 08:57 08.06.2020
1707 Clouds 26 1016 88 10000 2.1 160 08:39 08.06.2020
1708 Clouds 26 1016 88 10000 2.1 160 08:19 08.06.2020
1709 Clouds 27 1017 83 10000 2.1 160 07:40 08.06.2020
1710 Clouds 27 1017 83 10000 2.1 160 07:21 08.06.2020
1711 Clouds 27 1017 83 10000 3.1 140 06:41 08.06.2020
1712 Clouds 27 1017 83 10000 3.1 140 06:21 08.06.2020
1713 Clouds 28 1017 83 10000 3.1 140 05:42 08.06.2020
1714 Clouds 27 1017 83 10000 2.6 140 03:26 08.06.2020
1715 Clouds 28 1016 78 10000 3.6 160 02:26 08.06.2020
1716 Clouds 29 1016 74 10000 4.1 170 01:43 08.06.2020
1717 Clouds 29 1016 74 10000 5.1 170 00:57 08.06.2020
1718 Clouds 29 1016 74 10000 5.1 170 00:25 08.06.2020
1719 Clouds 30 1016 70 10000 6.2 180 23:39 07.06.2020
1720 Clouds 30 1016 70 10000 6.2 180 23:19 07.06.2020
1721 Clouds 30 1016 66 10000 7.7 180 22:57 07.06.2020
1722 Clouds 30 1016 66 10000 7.7 180 22:37 07.06.2020
1723 Clouds 30 1016 66 10000 7.7 180 22:18 07.06.2020
1724 Clouds 31 1016 66 10000 7.2 190 21:58 07.06.2020
1725 Clouds 31 1016 66 10000 7.2 190 21:36 07.06.2020
1726 Clouds 31 1016 66 10000 7.2 190 21:18 07.06.2020
1727 Clouds 30 1017 70 10000 8.2 190 20:39 07.06.2020
1728 Clouds 30 1017 70 10000 8.2 190 20:20 07.06.2020
1729 Clouds 30 1017 70 10000 7.2 190 19:57 07.06.2020
1730 Clouds 30 1017 70 10000 7.2 190 19:38 07.06.2020
1731 Clouds 30 1018 70 10000 7.7 190 19:20 07.06.2020
1732 Clouds 30 1018 70 10000 7.7 190 18:59 07.06.2020
1733 Clouds 30 1018 70 10000 7.7 190 18:38 07.06.2020
1734 Clouds 30 1018 70 10000 7.7 190 18:19 07.06.2020
1735 Clouds 29 1017 74 10000 7.7 170 17:56 07.06.2020
1736 Clouds 29 1017 74 10000 7.7 170 17:37 07.06.2020
1737 Clouds 29 1017 74 10000 7.7 170 17:19 07.06.2020
1738 Clouds 29 1017 74 10000 6.7 190 16:42 07.06.2020
1739 Clouds 29 1017 74 10000 6.7 190 16:42 07.06.2020
1740 Clouds 29 1017 74 10000 6.7 190 16:21 07.06.2020
1741 Clouds 29 1017 74 10000 6.2 180 15:40 07.06.2020
1742 Clouds 29 1017 74 10000 6.2 180 15:21 07.06.2020
1743 Clouds 28 1017 78 10000 5.7 180 14:41 07.06.2020
1744 Clouds 28 1017 78 10000 5.7 180 14:41 07.06.2020
1745 Clouds 28 1017 78 10000 5.7 180 14:41 07.06.2020
1746 Clouds 28 1017 78 10000 5.7 180 14:41 07.06.2020
1747 Clouds 28 1017 78 10000 5.7 180 14:22 07.06.2020
1748 Clouds 28 1017 78 10000 5.1 160 13:49 07.06.2020
1749 Clouds 28 1017 78 10000 5.1 160 13:22 07.06.2020
1750 Clouds 28 1017 78 10000 5.7 160 12:57 07.06.2020
1751 Clouds 28 1017 78 10000 5.7 160 12:39 07.06.2020
1752 Clouds 27 1015 83 0 7.97 142 12:19 07.06.2020
1753 Clouds 27 1015 83 0 7.97 142 11:55 07.06.2020
1754 Clouds 27 1016 83 10000 6.2 160 11:36 07.06.2020
1755 Clouds 27 1016 83 10000 6.2 160 11:18 07.06.2020
1756 Clouds 27 1016 83 10000 6.2 160 10:44 07.06.2020
1757 Clouds 27 1016 83 10000 6.2 160 10:20 07.06.2020
1758 Clouds 27 1016 88 10000 6.2 150 09:57 07.06.2020
1759 Clouds 27 1015 85 0 7.92 140 09:39 07.06.2020
1760 Clouds 28 1017 83 10000 6.2 150 09:20 07.06.2020
1761 Clouds 28 1017 83 10000 6.2 150 08:48 07.06.2020
1762 Clouds 28 1017 83 10000 6.2 150 08:24 07.06.2020
1763 Clouds 28 1017 83 10000 5.1 150 07:57 07.06.2020
1764 Clouds 28 1017 83 10000 5.1 150 07:32 07.06.2020
1765 Clouds 28 1017 83 10000 5.1 150 06:51 07.06.2020
1766 Clouds 28 1017 83 10000 5.7 150 05:50 07.06.2020
1767 Clouds 28 1017 83 10000 4.6 160 04:21 07.06.2020
1768 Clouds 28 1017 83 10000 4.6 160 02:36 07.06.2020
1769 Clouds 29 1017 79 10000 1.5 180 01:55 07.06.2020
1770 Clouds 29 1017 79 10000 1.5 180 01:25 07.06.2020
1771 Clouds 29 1017 79 10000 6.7 170 00:46 07.06.2020
1772 Clouds 29 1017 79 10000 6.7 170 00:19 07.06.2020
1773 Thunderstorm 30 1017 74 10000 7.2 170 23:57 06.06.2020
1774 Thunderstorm 30 1017 74 10000 7.2 170 23:36 06.06.2020
1775 Thunderstorm 30 1017 74 10000 7.2 170 23:18 06.06.2020
1776 Thunderstorm 30 1017 74 10000 9.3 160 22:56 06.06.2020
1777 Thunderstorm 30 1017 74 10000 9.3 160 22:37 06.06.2020
1778 Thunderstorm 30 1017 74 10000 9.3 160 22:18 06.06.2020
1779 Clouds 30 1018 74 10000 8.2 170 21:44 06.06.2020
1780 Clouds 30 1018 74 10000 8.2 170 21:22 06.06.2020
1781 Clouds 31 1018 70 10000 8.7 170 20:56 06.06.2020
1782 Clouds 31 1018 70 10000 8.7 170 20:37 06.06.2020
1783 Clouds 31 1018 70 10000 8.7 170 20:18 06.06.2020
1784 Clouds 30 1018 74 10000 9.8 160 19:56 06.06.2020
1785 Clouds 30 1018 74 10000 9.8 160 19:37 06.06.2020
1786 Clouds 30 1018 74 10000 9.8 160 19:37 06.06.2020
1787 Clouds 30 1018 74 10000 9.8 160 19:19 06.06.2020
1788 Clouds 30 1018 74 10000 9.8 150 18:42 06.06.2020
1789 Clouds 30 1018 74 10000 9.8 150 18:24 06.06.2020
1790 Clouds 30 1018 74 10000 9.8 150 18:24 06.06.2020
1791 Clouds 31 1018 70 10000 10.3 160 17:57 06.06.2020
1792 Clouds 31 1018 70 10000 10.3 160 17:39 06.06.2020
1793 Clouds 31 1018 70 10000 10.3 160 17:18 06.06.2020
1794 Clouds 30 1017 74 10000 9.8 150 16:40 06.06.2020
1795 Clouds 30 1017 74 10000 9.8 150 16:21 06.06.2020
1796 Clouds 29 1017 79 10000 9.3 150 15:55 06.06.2020
1797 Clouds 29 1017 79 10000 9.3 150 15:36 06.06.2020
1798 Clouds 29 1017 79 10000 9.3 150 15:18 06.06.2020
1799 Clouds 28 1017 83 10000 7.7 150 14:39 06.06.2020
1800 Clouds 28 1017 83 10000 7.7 150 14:20 06.06.2020
1801 Clouds 28 1017 82 0 8.19 135 13:55 06.06.2020
1802 Clouds 27 1017 83 10000 7.2 150 13:37 06.06.2020
1803 Clouds 27 1017 83 10000 7.2 150 13:18 06.06.2020
1804 Clouds 27 1017 83 10000 7.2 150 12:42 06.06.2020
1805 Clouds 27 1017 83 10000 7.2 150 12:22 06.06.2020
1806 Clouds 28 1017 78 10000 7.7 150 11:58 06.06.2020
1807 Clouds 28 1017 78 10000 7.7 150 11:58 06.06.2020
1808 Clouds 28 1017 78 10000 7.7 150 11:38 06.06.2020
1809 Clouds 28 1017 78 10000 7.7 150 11:19 06.06.2020
1810 Clouds 27 1016 83 10000 8.2 140 10:57 06.06.2020
1811 Clouds 27 1016 83 10000 8.2 140 10:39 06.06.2020
1812 Clouds 27 1016 83 10000 8.2 140 10:20 06.06.2020
1813 Clouds 28 1017 78 10000 7.7 140 09:45 06.06.2020
1814 Clouds 28 1017 78 10000 7.7 140 09:27 06.06.2020
1815 Clouds 28 1017 78 10000 7.7 140 08:50 06.06.2020
1816 Clouds 28 1017 78 10000 7.7 140 08:25 06.06.2020
1817 Clouds 28 1018 83 10000 6.7 140 07:59 06.06.2020
1818 Clouds 28 1018 83 10000 6.7 140 07:40 06.06.2020
1819 Clouds 28 1018 83 10000 6.7 140 07:20 06.06.2020
1820 Clouds 28 1018 83 10000 6.7 140 06:46 06.06.2020
1821 Clouds 28 1018 83 10000 6.7 140 06:26 06.06.2020
1822 Clouds 28 1018 83 10000 6.2 140 05:44 06.06.2020
1823 Clouds 28 1018 83 10000 6.2 140 05:24 06.06.2020
1824 Clouds 28 1018 83 10000 5.1 130 04:24 06.06.2020
1825 Clouds 29 1017 79 10000 6.2 140 02:36 06.06.2020
1826 Clouds 29 1017 79 10000 6.2 130 01:24 06.06.2020
1827 Clouds 29 1017 79 10000 6.7 140 00:59 06.06.2020
1828 Clouds 29 1017 79 10000 6.7 140 00:40 06.06.2020
1829 Clouds 29 1017 79 10000 6.7 140 00:22 06.06.2020
1830 Clouds 30 1017 74 10000 7.2 140 23:40 05.06.2020
1831 Clouds 30 1017 74 10000 7.2 140 23:20 05.06.2020
1832 Clouds 30 1017 70 10000 7.2 160 22:57 05.06.2020
1833 Clouds 30 1017 70 10000 7.2 160 22:39 05.06.2020
1834 Clouds 30 1017 70 10000 7.2 160 22:20 05.06.2020
1835 Clouds 30 1018 70 10000 7.7 150 21:54 05.06.2020
1836 Clouds 30 1018 70 10000 7.7 150 21:54 05.06.2020
1837 Clouds 30 1018 70 10000 7.7 150 21:36 05.06.2020
1838 Clouds 30 1018 70 10000 7.7 150 21:18 05.06.2020
1839 Clouds 30 1018 70 10000 7.2 160 20:44 05.06.2020
1840 Clouds 30 1018 70 10000 7.2 160 20:22 05.06.2020
1841 Clouds 30 1019 74 10000 8.2 160 19:44 05.06.2020
1842 Clouds 30 1019 74 10000 8.2 160 19:24 05.06.2020
1843 Clouds 30 1019 70 10000 8.7 150 18:59 05.06.2020
1844 Clouds 30 1019 70 10000 8.7 150 18:39 05.06.2020
1845 Clouds 30 1019 70 10000 8.7 150 18:20 05.06.2020
1846 Clouds 30 1019 70 10000 8.7 150 17:58 05.06.2020
1847 Clouds 30 1019 70 10000 8.7 150 17:58 05.06.2020
1848 Clouds 30 1019 70 10000 8.7 150 17:40 05.06.2020
1849 Clouds 30 1019 70 10000 8.7 150 17:19 05.06.2020
1850 Clouds 29 1018 79 10000 8.2 150 16:41 05.06.2020
1851 Clouds 29 1018 79 10000 8.2 150 16:23 05.06.2020
1852 Clouds 29 1018 79 10000 8.2 150 15:57 05.06.2020
1853 Clouds 29 1018 79 10000 8.2 150 15:37 05.06.2020
1854 Clouds 29 1018 79 10000 8.2 150 15:19 05.06.2020
1855 Clouds 28 1018 83 10000 6.7 140 14:56 05.06.2020
1856 Clouds 28 1018 83 10000 6.7 140 14:38 05.06.2020
1857 Clouds 28 1018 83 10000 6.7 140 14:19 05.06.2020
1858 Clouds 27 1017 83 10000 6.2 150 13:43 05.06.2020
1859 Clouds 27 1017 83 10000 6.2 150 13:24 05.06.2020
1860 Clouds 27 1017 83 10000 6.2 150 12:55 05.06.2020
1861 Clouds 27 1017 83 10000 6.2 150 12:36 05.06.2020
1862 Clouds 27 1017 83 10000 6.2 150 12:18 05.06.2020
1863 Clouds 27 1017 88 10000 5.7 150 11:42 05.06.2020
1864 Clouds 27 1016 88 10000 6.2 140 11:22 05.06.2020
1865 Clouds 27 1016 88 10000 6.2 140 10:55 05.06.2020
1866 Clouds 27 1016 88 10000 6.2 140 10:36 05.06.2020
1867 Clouds 27 1016 88 10000 6.2 140 10:18 05.06.2020
1868 Clouds 27 1016 88 10000 6.2 150 09:55 05.06.2020
1869 Clouds 27 1016 88 10000 6.2 150 09:36 05.06.2020
1870 Clouds 27 1016 88 10000 6.2 150 09:18 05.06.2020
1871 Clouds 27 1016 88 10000 6.2 150 09:18 05.06.2020
1872 Clouds 27 1017 88 10000 7.2 150 08:41 05.06.2020
1873 Clouds 27 1017 88 10000 7.2 150 08:20 05.06.2020
1874 Clouds 27 1017 88 10000 5.1 140 07:58 05.06.2020
1875 Clouds 27 1017 88 10000 5.1 140 07:39 05.06.2020
1876 Clouds 27 1018 88 10000 3.6 120 07:19 05.06.2020
1877 Clouds 27 1018 88 10000 4.1 110 05:50 05.06.2020
1878 Clouds 27 1018 88 10000 4.1 110 05:19 05.06.2020
1879 Clouds 26 1017 88 10000 3.1 80 03:53 05.06.2020
1880 Clouds 26 1017 88 10000 2.6 60 02:45 05.06.2020
1881 Clouds 26 1017 88 10000 2.6 60 02:21 05.06.2020
1882 Clouds 26 1017 88 10000 2.6 60 02:21 05.06.2020
1883 Rain 25 1016 94 10000 3.1 10 01:52 05.06.2020
1884 Thunderstorm 25 1017 94 10000 2.6 20 00:59 05.06.2020
1885 Thunderstorm 25 1017 94 10000 2.6 20 00:39 05.06.2020
1886 Thunderstorm 25 1017 94 10000 2.6 20 00:19 05.06.2020
1887 Rain 23 1016 94 4800 3.6 260 23:46 04.06.2020
1888 Rain 23 1016 94 4800 3.6 260 23:25 04.06.2020
1889 Rain 27 1015 81 0 6.75 127 22:45 04.06.2020
1890 Rain 29 1017 74 10000 5.1 140 22:23 04.06.2020
1891 Rain 29 1017 74 10000 5.1 140 21:59 04.06.2020
1892 Rain 29 1017 74 10000 5.1 140 21:40 04.06.2020
1893 Rain 29 1017 74 10000 5.1 140 21:22 04.06.2020
1894 Rain 29 1017 74 10000 5.1 140 21:22 04.06.2020
1895 Rain 28 1018 78 10000 5.1 140 20:58 04.06.2020
1896 Rain 28 1018 78 10000 5.1 140 20:39 04.06.2020
1897 Rain 28 1018 78 10000 5.1 140 20:20 04.06.2020
1898 Clouds 29 1018 74 10000 7.2 140 19:57 04.06.2020
1899 Clouds 29 1018 74 10000 7.2 140 19:38 04.06.2020
1900 Clouds 29 1018 74 10000 7.2 140 19:19 04.06.2020
1901 Clouds 29 1018 74 10000 8.7 140 18:40 04.06.2020
1902 Clouds 29 1018 74 10000 8.7 140 18:21 04.06.2020
1903 Clouds 29 1017 74 10000 7.7 140 17:59 04.06.2020
1904 Clouds 29 1017 74 10000 7.7 140 17:41 04.06.2020
1905 Clouds 29 1017 74 10000 7.7 140 17:20 04.06.2020
1906 Clouds 29 1017 74 10000 8.2 140 16:41 04.06.2020
1907 Clouds 29 1017 74 10000 8.2 140 16:21 04.06.2020
1908 Clouds 28 1017 78 10000 6.2 130 15:47 04.06.2020
1909 Clouds 28 1017 78 10000 6.2 130 15:27 04.06.2020
1910 Clouds 28 1017 78 10000 5.1 120 14:58 04.06.2020
1911 Clouds 28 1017 78 10000 5.1 120 14:38 04.06.2020
1912 Clouds 28 1017 78 10000 5.1 120 14:19 04.06.2020
1913 Clouds 27 1016 83 10000 3.6 120 13:42 04.06.2020
1914 Clouds 26 1016 83 10000 3.1 110 13:21 04.06.2020
1915 Clouds 26 1016 83 10000 3.1 110 12:59 04.06.2020
1916 Clouds 26 1016 83 10000 3.1 110 12:41 04.06.2020
1917 Clouds 26 1016 83 10000 3.1 110 12:23 04.06.2020
1918 Clouds 27 1016 78 10000 3.6 130 11:56 04.06.2020
1919 Clouds 27 1016 78 10000 3.6 130 11:38 04.06.2020
1920 Clouds 27 1016 78 10000 3.6 130 11:19 04.06.2020
1921 Clouds 26 1016 83 10000 4.6 140 10:43 04.06.2020
1922 Clouds 26 1016 83 10000 4.6 140 10:23 04.06.2020
1923 Clouds 27 1016 78 10000 3.6 120 09:58 04.06.2020
1924 Clouds 27 1016 78 10000 3.6 120 09:40 04.06.2020
1925 Clouds 27 1016 78 10000 3.6 120 09:22 04.06.2020
1926 Clouds 27 1016 78 10000 4.1 120 08:44 04.06.2020
1927 Clouds 27 1016 78 10000 4.1 120 08:44 04.06.2020
1928 Clouds 27 1016 78 10000 4.1 120 08:25 04.06.2020
1929 Clouds 27 1017 83 10000 4.6 120 07:47 04.06.2020
1930 Clouds 27 1017 83 10000 4.6 120 07:23 04.06.2020
1931 Clouds 27 1017 83 10000 4.6 120 06:42 04.06.2020
1932 Clouds 27 1017 83 10000 4.6 120 06:24 04.06.2020
1933 Clouds 27 1017 83 10000 4.6 120 05:34 04.06.2020
1934 Clouds 28 1016 74 10000 3.6 120 03:55 04.06.2020
1935 Clouds 28 1016 74 10000 4.6 120 02:56 04.06.2020
1936 Clouds 28 1016 69 10000 5.1 130 01:48 04.06.2020
1937 Clouds 28 1016 69 10000 5.1 130 01:19 04.06.2020
1938 Clouds 29 1015 66 10000 6.2 140 00:36 04.06.2020
1939 Clouds 30 1015 62 10000 5.7 120 23:41 03.06.2020
1940 Clouds 30 1015 62 10000 5.7 120 23:20 03.06.2020
1941 Clouds 30 1016 62 10000 5.7 140 22:57 03.06.2020
1942 Clouds 30 1016 62 10000 5.7 140 22:38 03.06.2020
1943 Clouds 30 1016 62 10000 5.7 140 22:18 03.06.2020
1944 Clouds 30 1017 58 10000 6.2 140 21:56 03.06.2020
1945 Clouds 30 1017 58 10000 6.2 140 21:56 03.06.2020
1946 Clouds 30 1017 58 10000 6.2 140 21:37 03.06.2020
1947 Clouds 30 1017 58 10000 6.2 140 21:19 03.06.2020
1948 Clouds 29 1017 66 10000 6.7 130 20:43 03.06.2020
1949 Clouds 29 1017 66 10000 6.7 130 20:22 03.06.2020
1950 Clouds 29 1018 66 10000 6.2 120 19:58 03.06.2020
1951 Clouds 29 1018 66 10000 6.2 120 19:40 03.06.2020
1952 Clouds 29 1018 66 10000 5.7 130 19:21 03.06.2020
1953 Clouds 29 1018 66 10000 5.7 130 18:59 03.06.2020
1954 Clouds 29 1018 66 10000 5.7 130 18:41 03.06.2020
1955 Clouds 29 1018 66 10000 5.7 130 18:20 03.06.2020
1956 Clouds 29 1019 70 10000 6.2 140 17:45 03.06.2020
1957 Clouds 29 1019 70 10000 6.2 140 17:24 03.06.2020
1958 Clouds 27 1017 81 0 7.96 104 16:59 03.06.2020
1959 Clouds 27 1017 81 0 7.96 104 16:41 03.06.2020
1960 Clouds 28 1018 74 10000 4.6 140 16:19 03.06.2020
1961 Clouds 28 1018 74 10000 4.6 140 15:55 03.06.2020
1962 Clouds 28 1018 74 10000 4.6 140 15:37 03.06.2020
1963 Clouds 28 1018 74 10000 4.6 140 15:18 03.06.2020
1964 Clouds 26 1018 83 10000 3.6 130 14:42 03.06.2020
1965 Clouds 26 1018 83 10000 3.6 130 14:23 03.06.2020
1966 Clouds 26 1017 88 10000 3.1 120 13:40 03.06.2020
1967 Clouds 26 1017 88 10000 3.1 120 13:40 03.06.2020
1968 Clouds 26 1017 88 10000 3.1 120 13:21 03.06.2020
1969 Clouds 26 1017 88 10000 2.6 110 12:57 03.06.2020
1970 Clouds 26 1017 88 10000 2.6 110 12:38 03.06.2020
1971 Clouds 26 1017 88 10000 2.6 110 12:18 03.06.2020
1972 Clouds 26 1017 83 10000 3.1 120 11:44 03.06.2020
1973 Clouds 26 1017 83 10000 3.1 120 11:24 03.06.2020
1974 Clouds 26 1017 83 10000 3.1 100 10:44 03.06.2020
1975 Clouds 26 1017 83 10000 3.1 100 10:25 03.06.2020
1976 Rain 26 1016 83 0 7.79 93 09:55 03.06.2020
1977 Clouds 26 1018 83 10000 3.6 100 09:36 03.06.2020
1978 Clouds 26 1018 83 10000 3.6 100 09:18 03.06.2020
1979 Clouds 26 1018 83 10000 3.6 100 08:46 03.06.2020
1980 Clouds 26 1018 83 10000 3.6 100 08:21 03.06.2020
1981 Clouds 27 1018 78 10000 4.6 110 07:45 03.06.2020
1982 Clouds 27 1019 78 10000 4.1 110 07:24 03.06.2020
1983 Clouds 27 1019 78 10000 4.1 110 07:24 03.06.2020
1984 Clouds 27 1019 78 10000 4.1 110 06:55 03.06.2020
1985 Clouds 27 1019 78 10000 4.1 110 06:34 03.06.2020
1986 Clouds 27 1019 78 10000 5.1 110 05:49 03.06.2020
1987 Clouds 27 1019 78 10000 5.1 110 05:23 03.06.2020
1988 Clouds 27 1018 78 10000 4.6 110 03:52 03.06.2020
1989 Clouds 27 1018 78 10000 4.6 110 03:24 03.06.2020
1990 Clouds 27 1017 78 10000 5.1 110 02:24 03.06.2020
1991 Rain 27 1017 83 0 9.11 93 00:56 03.06.2020
1992 Rain 27 1017 83 0 9.12 93 00:37 03.06.2020
1993 Clouds 27 1017 83 0 9.23 91 00:18 03.06.2020
1994 Rain 25 1017 94 3500 6.7 90 23:38 02.06.2020
1995 Rain 25 1017 94 3500 6.7 90 23:20 02.06.2020
1996 Rain 26 1018 88 10000 4.6 110 22:39 02.06.2020
1997 Rain 26 1018 88 10000 4.6 110 22:39 02.06.2020
1998 Rain 26 1018 88 10000 4.6 110 22:19 02.06.2020
1999 Rain 25 1019 94 10000 7.7 100 21:57 02.06.2020
2000 Rain 25 1019 94 10000 7.7 100 21:38 02.06.2020
2001 Rain 25 1019 94 10000 7.7 100 21:20 02.06.2020
2002 Rain 28 1019 78 10000 5.7 110 20:58 02.06.2020
2003 Rain 28 1019 78 10000 5.7 110 20:40 02.06.2020
2004 Rain 28 1019 78 10000 5.7 110 20:21 02.06.2020
2005 Clouds 29 1019 70 10000 8.2 120 19:44 02.06.2020
2006 Clouds 29 1019 70 10000 8.2 120 19:26 02.06.2020
2007 Clouds 29 1019 70 10000 8.2 120 19:26 02.06.2020
2008 Clouds 30 1019 62 10000 6.7 120 18:58 02.06.2020
2009 Clouds 30 1019 62 10000 6.7 120 18:58 02.06.2020
2010 Clouds 30 1019 62 10000 6.7 120 18:40 02.06.2020
2011 Clouds 30 1019 62 10000 6.7 120 18:20 02.06.2020
2012 Clouds 29 1020 66 10000 5.7 90 17:55 02.06.2020
2013 Clouds 29 1020 66 10000 5.7 90 17:37 02.06.2020
2014 Clouds 29 1020 66 10000 5.7 90 17:19 02.06.2020
2015 Clouds 28 1020 74 10000 5.7 90 16:54 02.06.2020
2016 Clouds 28 1020 74 10000 5.7 90 16:36 02.06.2020
2017 Clouds 28 1020 74 10000 5.7 90 16:18 02.06.2020
2018 Clouds 28 1019 74 10000 5.1 90 15:40 02.06.2020
2019 Clouds 28 1019 74 10000 5.1 90 15:20 02.06.2020
2020 Clouds 27 1019 74 10000 5.7 90 14:46 02.06.2020
2021 Clouds 27 1019 74 10000 5.7 90 14:27 02.06.2020
2022 Clouds 26 1018 83 10000 3.6 90 13:55 02.06.2020
2023 Clouds 26 1018 83 10000 3.6 90 13:36 02.06.2020
2024 Clouds 26 1018 83 10000 3.6 90 13:18 02.06.2020
2025 Clouds 26 1018 78 10000 3.1 80 12:55 02.06.2020
2026 Clouds 26 1018 78 10000 3.1 80 12:37 02.06.2020
2027 Clouds 26 1018 78 10000 3.1 80 12:18 02.06.2020
2028 Clouds 26 1018 78 10000 2.6 90 11:41 02.06.2020
2029 Clouds 26 1018 78 10000 2.6 90 11:22 02.06.2020
2030 Clouds 26 1018 78 10000 2.6 80 10:55 02.06.2020
2031 Clouds 26 1018 78 10000 2.6 80 10:37 02.06.2020
2032 Clouds 26 1018 78 10000 2.6 80 10:19 02.06.2020
2033 Clouds 26 1018 78 10000 2.1 90 09:42 02.06.2020
2034 Clouds 26 1018 78 10000 2.1 90 09:21 02.06.2020
2035 Clouds 26 1018 83 10000 2.6 80 08:53 02.06.2020
2036 Clouds 26 1018 83 10000 2.6 80 08:28 02.06.2020
2037 Clouds 27 1019 74 10000 2.6 90 07:58 02.06.2020
2038 Clouds 27 1019 74 10000 2.6 90 07:32 02.06.2020
2039 Clouds 27 1019 74 10000 3.1 90 06:58 02.06.2020
2040 Clouds 27 1019 74 10000 3.1 90 06:36 02.06.2020
2041 Clouds 27 1019 74 10000 3.1 90 05:31 02.06.2020
2042 Clouds 27 1018 69 10000 2.6 90 03:54 02.06.2020
2043 Clouds 28 1018 61 10000 3.6 90 02:31 02.06.2020
2044 Clouds 28 1018 65 10000 4.1 70 01:43 02.06.2020
2045 Clouds 27 1017 65 0 4.86 67 00:27 02.06.2020
2046 Clouds 27 1017 65 0 4.86 67 23:59 01.06.2020
2047 Clouds 27 1017 65 0 4.86 67 23:38 01.06.2020
2048 Clouds 27 1017 64 0 4.79 70 23:19 01.06.2020
2049 Clouds 27 1017 64 0 4.79 70 22:56 01.06.2020
2050 Clouds 27 1017 64 0 4.79 70 22:37 01.06.2020
2051 Clouds 27 1017 65 0 4.52 67 22:18 01.06.2020
2052 Clouds 27 1017 65 0 4.52 67 21:41 01.06.2020
2053 Clouds 30 1018 58 10000 4.6 50 21:20 01.06.2020
2054 Clouds 30 1018 58 10000 4.6 50 20:58 01.06.2020
2055 Clouds 30 1018 58 10000 4.6 50 20:40 01.06.2020
2056 Clouds 29 1019 66 10000 5.7 60 20:19 01.06.2020
2057 Clouds 29 1019 66 10000 5.7 60 19:56 01.06.2020
2058 Clouds 29 1019 66 10000 5.7 60 19:38 01.06.2020
2059 Clouds 29 1019 74 10000 5.7 40 19:19 01.06.2020
2060 Clouds 29 1019 74 10000 5.7 40 18:55 01.06.2020
2061 Clouds 29 1019 74 10000 5.7 40 18:37 01.06.2020
2062 Clouds 29 1019 74 10000 5.7 40 18:18 01.06.2020
2063 Clouds 29 1019 74 10000 3.1 90 17:40 01.06.2020
2064 Clouds 29 1019 74 10000 3.1 90 17:19 01.06.2020
2065 Clouds 28 1019 74 10000 3.1 60 16:42 01.06.2020
2066 Clouds 28 1019 74 10000 3.1 60 16:22 01.06.2020
2067 Clouds 28 1018 74 10000 2.1 100 15:59 01.06.2020
2068 Clouds 28 1018 74 10000 2.1 100 15:39 01.06.2020
2069 Clouds 28 1018 74 10000 2.1 100 15:20 01.06.2020
2070 Clouds 27 1018 83 10000 2.1 70 14:58 01.06.2020
2071 Clouds 27 1018 83 10000 2.1 70 14:58 01.06.2020
2072 Clouds 27 1018 83 10000 2.1 70 14:40 01.06.2020
2073 Clouds 27 1018 83 10000 2.1 70 14:21 01.06.2020
2074 Clouds 25 1018 88 10000 1.5 60 13:54 01.06.2020
2075 Clouds 25 1018 88 10000 1.5 60 13:36 01.06.2020
2076 Clouds 25 1018 88 10000 1.5 60 13:18 01.06.2020
2077 Clouds 23 1017 94 10000 1 0 12:54 01.06.2020
2078 Clouds 23 1017 94 10000 1 0 12:36 01.06.2020
2079 Clouds 23 1017 94 10000 1 0 12:18 01.06.2020
2080 Clouds 23 1017 94 10000 0.5 0 11:38 01.06.2020
2081 Clouds 23 1017 94 10000 0.5 0 11:19 01.06.2020
2082 Clouds 23 1016 94 10000 2.64 107 10:57 01.06.2020
2083 Clouds 23 1016 94 10000 2.64 107 10:37 01.06.2020
2084 Clouds 23 1016 94 10000 2.62 115 10:18 01.06.2020
2085 Clouds 23 1017 94 10000 0.5 0 09:46 01.06.2020
2086 Clouds 23 1017 94 10000 0.5 0 09:26 01.06.2020
2087 Thunderstorm 24 1017 88 10000 1.5 210 08:57 01.06.2020
2088 Thunderstorm 24 1017 88 10000 1.5 210 08:37 01.06.2020
2089 Thunderstorm 25 1018 83 10000 1.5 70 08:18 01.06.2020
2090 Thunderstorm 25 1018 83 10000 1.5 70 07:41 01.06.2020
2091 Thunderstorm 25 1018 83 10000 1.5 70 07:22 01.06.2020
2092 Clouds 26 1018 83 10000 1.5 80 06:49 01.06.2020
2093 Clouds 27 1018 74 10000 1.5 80 05:57 01.06.2020
2094 Clouds 27 1018 78 10000 2.1 70 04:56 01.06.2020
2095 Clouds 27 1018 74 10000 3.1 120 03:56 01.06.2020
2096 Clouds 27 1018 74 10000 3.1 120 03:37 01.06.2020
2097 Clouds 27 1017 74 10000 2.1 90 02:42 01.06.2020
2098 Clouds 28 1017 69 10000 4.1 70 01:38 01.06.2020
2099 Clouds 28 1017 69 10000 4.1 70 01:18 01.06.2020
2100 Clouds 29 1016 66 10000 4.1 80 00:40 01.06.2020
2101 Clouds 29 1016 66 10000 4.1 80 00:21 01.06.2020
2102 Clouds 29 1016 66 10000 3.1 120 23:58 31.05.2020
2103 Clouds 29 1016 66 10000 3.1 120 23:40 31.05.2020
2104 Clouds 29 1016 66 10000 3.1 120 23:22 31.05.2020
2105 Clouds 29 1016 66 10000 3.1 60 22:57 31.05.2020
2106 Clouds 29 1016 66 10000 3.1 60 22:38 31.05.2020
2107 Clouds 29 1016 66 10000 3.1 60 22:20 31.05.2020
2108 Clouds 30 1017 62 10000 4.6 60 21:42 31.05.2020
2109 Clouds 30 1017 62 10000 4.6 60 21:24 31.05.2020
2110 Clouds 29 1018 62 10000 5.1 60 20:59 31.05.2020
2111 Clouds 29 1018 62 10000 5.1 60 20:58 31.05.2020
2112 Clouds 29 1018 62 10000 5.1 60 20:40 31.05.2020
2113 Clouds 29 1018 62 10000 5.1 60 20:21 31.05.2020
2114 Clouds 29 1018 62 10000 2.6 90 19:56 31.05.2020
2115 Clouds 29 1018 62 10000 2.6 90 19:37 31.05.2020
2116 Clouds 29 1018 62 10000 2.6 90 19:19 31.05.2020
2117 Clouds 30 1018 62 10000 3.6 160 18:44 31.05.2020
2118 Clouds 30 1018 62 10000 3.6 160 18:25 31.05.2020
2119 Clouds 29 1018 70 10000 3.6 70 17:54 31.05.2020
2120 Clouds 29 1018 70 10000 3.6 70 17:36 31.05.2020
2121 Clouds 29 1018 70 10000 3.6 70 17:18 31.05.2020
2122 Clouds 29 1018 66 10000 2.1 110 16:40 31.05.2020
2123 Clouds 29 1018 66 10000 2.1 110 16:21 31.05.2020
2124 Clouds 28 1018 69 10000 3.1 100 15:40 31.05.2020
2125 Clouds 28 1018 69 10000 3.1 100 15:40 31.05.2020
2126 Clouds 28 1018 69 10000 3.1 100 15:21 31.05.2020
2127 Clouds 28 1018 69 10000 3.1 100 15:21 31.05.2020
2128 Clouds 27 1017 74 10000 2.1 100 14:47 31.05.2020
2129 Clouds 27 1017 74 10000 2.1 100 14:23 31.05.2020
2130 Clouds 26 1017 78 10000 1.5 110 13:57 31.05.2020
2131 Clouds 26 1017 78 10000 1.5 110 13:38 31.05.2020
2132 Clouds 26 1017 78 10000 1.5 110 13:20 31.05.2020
2133 Clouds 25 1016 83 10000 2.1 120 12:58 31.05.2020
2134 Clouds 25 1016 83 10000 2.1 120 12:39 31.05.2020
2135 Clouds 25 1016 83 10000 2.1 120 12:21 31.05.2020
2136 Clouds 26 1016 78 10000 2.6 120 11:49 31.05.2020
2137 Clouds 25 1016 83 10000 2.1 140 11:24 31.05.2020
2138 Clouds 25 1016 83 10000 2.1 140 10:57 31.05.2020
2139 Clouds 25 1016 83 10000 2.1 140 10:39 31.05.2020
2140 Clouds 25 1016 83 10000 2.1 140 10:21 31.05.2020
2141 Clouds 26 1016 78 10000 1.5 110 09:45 31.05.2020
2142 Clouds 26 1016 78 10000 1.5 110 09:23 31.05.2020
2143 Clouds 26 1017 78 10000 2.6 120 08:59 31.05.2020
2144 Clouds 26 1017 78 10000 2.6 120 08:40 31.05.2020
2145 Clouds 26 1017 78 10000 2.6 120 08:21 31.05.2020
2146 Clouds 26 1017 78 10000 2.1 90 07:46 31.05.2020
2147 Clouds 26 1017 78 10000 2.1 90 07:21 31.05.2020
2148 Clouds 27 1017 74 10000 2.1 100 06:54 31.05.2020
2149 Clouds 27 1017 74 10000 2.1 100 06:32 31.05.2020
2150 Clouds 27 1017 74 10000 2.1 100 06:32 31.05.2020
2151 Clouds 27 1017 74 10000 3.1 110 05:44 31.05.2020
2152 Clouds 27 1018 74 10000 3.1 100 04:31 31.05.2020
2153 Clouds 27 1017 78 10000 4.6 110 03:49 31.05.2020
2154 Clouds 28 1017 69 10000 4.6 100 02:59 31.05.2020
2155 Clouds 29 1016 62 10000 5.7 110 01:50 31.05.2020
2156 Clouds 29 1016 62 10000 5.7 110 01:27 31.05.2020
2157 Clouds 29 1015 62 10000 5.1 110 00:31 31.05.2020
2158 Clouds 29 1015 66 10000 5.7 110 23:57 30.05.2020
2159 Clouds 29 1015 66 10000 5.7 110 23:39 30.05.2020
2160 Clouds 29 1015 66 10000 5.7 110 23:19 30.05.2020
2161 Clouds 31 1016 55 10000 5.7 130 22:41 30.05.2020
2162 Clouds 31 1016 55 10000 5.7 130 22:41 30.05.2020
2163 Clouds 31 1016 55 10000 5.7 130 22:23 30.05.2020
2164 Clouds 30 1016 58 10000 5.7 120 21:56 30.05.2020
2165 Clouds 30 1016 58 10000 5.7 120 21:37 30.05.2020
2166 Clouds 30 1016 58 10000 5.7 120 21:19 30.05.2020
2167 Clouds 30 1017 58 10000 6.2 140 20:56 30.05.2020
2168 Clouds 30 1017 58 10000 6.2 140 20:38 30.05.2020
2169 Clouds 30 1017 58 10000 6.2 140 20:20 30.05.2020
2170 Clouds 30 1017 62 10000 6.7 140 19:42 30.05.2020
2171 Clouds 30 1017 62 10000 6.7 140 19:22 30.05.2020
2172 Clouds 30 1017 58 10000 5.1 130 18:46 30.05.2020
2173 Clouds 30 1017 58 10000 5.1 130 18:24 30.05.2020
2174 Clouds 30 1017 58 10000 5.1 130 18:24 30.05.2020
2175 Clouds 29 1018 66 10000 5.1 130 17:55 30.05.2020
2176 Clouds 29 1018 66 10000 5.1 130 17:37 30.05.2020
2177 Clouds 29 1018 66 10000 5.1 130 17:18 30.05.2020
2178 Clouds 29 1017 66 10000 5.7 120 16:41 30.05.2020
2179 Clouds 29 1017 66 10000 5.7 120 16:22 30.05.2020
2180 Clouds 28 1018 69 10000 4.6 120 15:48 30.05.2020
2181 Clouds 28 1018 69 10000 4.6 120 15:29 30.05.2020
2182 Clouds 27 1018 74 10000 3.6 100 14:48 30.05.2020
2183 Clouds 27 1018 74 10000 3.6 100 14:30 30.05.2020
2184 Clouds 26 1017 78 10000 3.6 120 13:47 30.05.2020
2185 Clouds 26 1017 78 10000 3.6 120 13:27 30.05.2020
2186 Clouds 26 1017 78 10000 3.6 120 12:57 30.05.2020
2187 Clouds 26 1017 78 10000 3.6 120 12:39 30.05.2020
2188 Clouds 26 1017 78 10000 3.6 120 12:19 30.05.2020
2189 Clouds 26 1017 78 10000 3.6 120 11:41 30.05.2020
2190 Clouds 26 1017 78 10000 3.6 120 11:23 30.05.2020
2191 Clouds 26 1017 78 10000 3.1 120 10:56 30.05.2020
2192 Clouds 26 1017 78 10000 3.1 120 10:56 30.05.2020
2193 Clouds 26 1017 78 10000 3.1 120 10:38 30.05.2020
2194 Clouds 26 1017 78 10000 3.1 120 10:20 30.05.2020
2195 Clouds 26 1018 83 10000 4.1 120 09:43 30.05.2020
2196 Clouds 26 1018 83 10000 4.1 120 09:25 30.05.2020
2197 Clouds 26 1018 83 10000 3.6 120 08:44 30.05.2020
2198 Clouds 26 1018 83 10000 3.6 120 08:26 30.05.2020
2199 Clouds 27 1018 78 10000 4.6 120 07:40 30.05.2020
2200 Clouds 27 1018 78 10000 4.6 120 07:19 30.05.2020
2201 Clouds 27 1019 78 10000 4.6 110 06:29 30.05.2020
2202 Clouds 27 1019 78 10000 5.1 120 05:51 30.05.2020
2203 Clouds 27 1018 74 10000 6.2 120 04:47 30.05.2020
2204 Clouds 28 1017 69 10000 5.1 110 02:41 30.05.2020
2205 Clouds 28 1017 69 10000 5.1 110 02:19 30.05.2020
2206 Clouds 29 1017 66 10000 7.2 120 00:45 30.05.2020
2207 Clouds 29 1017 66 10000 7.2 120 00:24 30.05.2020
2208 Clouds 29 1017 66 10000 6.2 120 23:59 29.05.2020
2209 Clouds 29 1017 66 10000 6.2 120 23:38 29.05.2020
2210 Clouds 29 1017 66 10000 6.2 120 23:19 29.05.2020
2211 Rain 29 1017 66 10000 6.7 120 22:54 29.05.2020
2212 Rain 29 1017 66 10000 6.7 120 22:36 29.05.2020
2213 Rain 30 1017 58 10000 6.7 130 22:18 29.05.2020
2214 Rain 30 1017 58 10000 6.7 130 21:39 29.05.2020
2215 Rain 30 1017 58 10000 6.7 130 21:39 29.05.2020
2216 Rain 30 1017 58 10000 6.7 130 21:21 29.05.2020
2217 Clouds 30 1018 62 10000 7.2 120 20:56 29.05.2020
2218 Clouds 30 1018 62 10000 7.2 120 20:37 29.05.2020
2219 Clouds 30 1018 62 10000 7.2 120 20:37 29.05.2020
2220 Clouds 30 1018 62 10000 7.2 120 20:18 29.05.2020
2221 Clouds 30 1018 62 10000 7.2 130 19:42 29.05.2020
2222 Clouds 30 1018 62 10000 7.2 130 19:24 29.05.2020
2223 Clouds 29 1018 70 10000 6.2 120 18:48 29.05.2020
2224 Clouds 29 1018 70 10000 6.2 120 18:22 29.05.2020
2225 Clouds 29 1018 66 10000 7.2 130 17:58 29.05.2020
2226 Clouds 29 1018 66 10000 7.2 130 17:38 29.05.2020
2227 Clouds 29 1018 66 10000 7.2 130 17:20 29.05.2020
2228 Clouds 29 1018 70 10000 6.7 120 16:46 29.05.2020
2229 Clouds 29 1018 70 10000 6.7 120 16:28 29.05.2020
2230 -273 0 0 0 0 0 15:58 29.05.2020
2231 Clouds 28 1019 74 10000 6.2 130 15:40 29.05.2020
2232 Clouds 28 1019 74 10000 6.2 130 15:20 29.05.2020
2233 Rain 28 1019 78 10000 4.6 120 14:51 29.05.2020
2234 Clouds 25 1018 88 10000 2.6 160 14:24 29.05.2020
2235 Clouds 25 1018 88 10000 2.6 160 13:58 29.05.2020
2236 Clouds 25 1018 88 10000 2.6 160 13:40 29.05.2020
2237 Clouds 25 1018 88 10000 2.6 160 13:21 29.05.2020
2238 Clouds 25 1018 88 10000 1.5 110 12:44 29.05.2020
2239 Clouds 25 1018 88 10000 1.5 110 12:25 29.05.2020
2240 Clouds 27 1016 80 0 7.66 107 11:46 29.05.2020
2241 Clouds 27 1016 79 0 7.5 107 11:27 29.05.2020
2242 Clouds 27 1016 79 0 7.5 107 10:59 29.05.2020
2243 Clouds 27 1016 79 0 7.5 107 10:40 29.05.2020
2244 Clouds 27 1018 78 10000 3.1 110 10:21 29.05.2020
2245 Clouds 27 1018 78 10000 3.1 110 09:45 29.05.2020
2246 Clouds 27 1018 78 10000 3.1 110 09:21 29.05.2020
2247 Clouds 27 1018 78 10000 3.1 110 08:57 29.05.2020
2248 Clouds 27 1018 78 10000 3.1 110 08:39 29.05.2020
2249 Clouds 27 1018 78 10000 3.1 110 08:20 29.05.2020
2250 Clouds 27 1018 74 10000 2.6 100 07:44 29.05.2020
2251 Clouds 27 1018 74 10000 2.6 100 07:26 29.05.2020
2252 Clouds 27 1019 78 10000 3.6 110 06:49 29.05.2020
2253 Clouds 27 1019 78 10000 3.6 110 06:28 29.05.2020
2254 Clouds 27 1019 74 10000 3.6 110 05:53 29.05.2020
2255 Clouds 27 1018 78 10000 4.1 90 03:44 29.05.2020
2256 Clouds 28 1017 74 10000 5.1 80 01:46 29.05.2020
2257 Clouds 28 1017 74 10000 5.1 80 01:23 29.05.2020
2258 Clouds 29 1017 70 10000 6.2 80 00:47 29.05.2020
2259 Clouds 29 1017 70 10000 6.2 80 00:22 29.05.2020
2260 Clouds 29 1017 70 10000 5.7 100 23:40 28.05.2020
2261 Clouds 29 1017 70 10000 5.7 100 23:19 28.05.2020
2262 Clouds 29 1018 70 10000 5.7 90 22:44 28.05.2020
2263 Clouds 29 1018 70 10000 5.7 90 22:26 28.05.2020
2264 Clouds 30 1018 70 10000 6.2 90 21:58 28.05.2020
2265 Clouds 30 1018 70 10000 6.2 90 21:40 28.05.2020
2266 Clouds 30 1018 70 10000 6.2 90 21:20 28.05.2020
2267 Clouds 30 1019 70 10000 5.7 80 20:57 28.05.2020
2268 Clouds 30 1019 70 10000 5.7 80 20:39 28.05.2020
2269 Clouds 30 1019 70 10000 5.7 80 20:18 28.05.2020
2270 Clouds 30 1019 70 10000 4.1 100 19:56 28.05.2020
2271 Clouds 30 1019 70 10000 4.1 100 19:37 28.05.2020
2272 Clouds 30 1019 70 10000 4.1 100 19:19 28.05.2020
2273 Clouds 31 1019 66 10000 5.1 130 18:42 28.05.2020
2274 Clouds 31 1019 66 10000 5.1 130 18:23 28.05.2020
2275 Clouds 30 1019 66 10000 4.1 120 17:43 28.05.2020
2276 Clouds 30 1019 66 10000 4.1 120 17:23 28.05.2020
2277 -273 0 0 0 0 0 16:59 28.05.2020
2278 Clouds 29 1019 74 10000 4.1 130 16:39 28.05.2020
2279 Clouds 29 1019 74 10000 4.1 130 16:20 28.05.2020
2280 Clouds 28 1019 78 10000 4.6 130 15:46 28.05.2020
2281 Clouds 28 1019 78 10000 4.6 130 15:25 28.05.2020
2282 Clouds 28 1019 78 10000 3.6 130 14:57 28.05.2020
2283 Clouds 28 1019 78 10000 3.6 130 14:39 28.05.2020
2284 Clouds 28 1019 78 10000 3.6 130 14:21 28.05.2020
2285 Clouds 26 1018 88 10000 4.1 140 13:43 28.05.2020
2286 Clouds 26 1018 88 10000 4.1 140 13:25 28.05.2020
2287 Clouds 26 1018 88 10000 4.1 130 12:43 28.05.2020
2288 Clouds 26 1018 88 10000 4.1 130 12:19 28.05.2020
2289 Clouds 26 1018 88 10000 3.1 140 11:45 28.05.2020
2290 Clouds 26 1018 88 10000 3.1 140 11:26 28.05.2020
2291 Clouds 27 1017 83 10000 3.6 120 10:58 28.05.2020
2292 Clouds 27 1017 83 10000 3.6 120 10:40 28.05.2020
2293 Clouds 27 1017 83 10000 3.6 120 10:22 28.05.2020
2294 Clouds 27 1016 85 0 4.85 118 09:40 28.05.2020
2295 Clouds 27 1018 83 10000 3.6 130 09:22 28.05.2020
2296 Clouds 27 1018 83 10000 3.6 130 08:51 28.05.2020
2297 Clouds 27 1018 83 10000 3.6 130 08:31 28.05.2020
2298 Clouds 27 1018 88 10000 4.1 120 07:54 28.05.2020
2299 Clouds 27 1018 88 10000 4.1 120 07:36 28.05.2020
2300 Clouds 27 1018 88 10000 4.1 120 07:18 28.05.2020
2301 Clouds 27 1018 88 10000 4.1 120 06:39 28.05.2020
2302 Clouds 27 1018 88 10000 4.1 120 06:20 28.05.2020
2303 Clouds 27 1018 88 10000 3.6 110 05:36 28.05.2020
2304 Clouds 27 1018 88 10000 3.1 100 04:33 28.05.2020
2305 Clouds 28 1018 83 10000 3.1 110 03:48 28.05.2020
2306 Clouds 28 1017 78 10000 4.1 130 02:45 28.05.2020
2307 Clouds 28 1017 78 10000 4.1 130 02:45 28.05.2020
2308 Clouds 28 1017 83 10000 5.1 140 01:53 28.05.2020
2309 Clouds 28 1016 83 10000 6.2 140 00:55 28.05.2020
2310 Clouds 28 1016 83 10000 6.2 140 00:37 28.05.2020
2311 Clouds 28 1016 83 10000 6.2 140 00:18 28.05.2020
2312 Clouds 29 1016 74 10000 6.2 140 23:39 27.05.2020
2313 Clouds 29 1016 74 10000 6.2 140 23:21 27.05.2020
2314 Clouds 29 1016 74 10000 6.7 150 22:58 27.05.2020
2315 Clouds 29 1016 74 10000 6.7 150 22:40 27.05.2020
2316 Clouds 29 1016 74 10000 6.7 150 22:21 27.05.2020
2317 Clouds 29 1016 74 10000 6.2 140 21:42 27.05.2020
2318 Clouds 29 1016 74 10000 6.2 140 21:24 27.05.2020
2319 Clouds 30 1017 74 10000 5.7 140 20:59 27.05.2020
2320 Clouds 30 1017 74 10000 5.7 140 20:41 27.05.2020
2321 Clouds 30 1017 74 10000 5.7 140 20:21 27.05.2020
2322 Clouds 30 1017 74 10000 5.7 140 19:57 27.05.2020
2323 Clouds 30 1017 74 10000 5.7 140 19:39 27.05.2020
2324 Clouds 30 1017 74 10000 5.7 140 19:39 27.05.2020
2325 Clouds 30 1017 74 10000 5.7 140 19:18 27.05.2020
2326 Clouds 30 1017 74 10000 6.2 150 18:40 27.05.2020
2327 Clouds 30 1017 74 10000 6.2 150 18:19 27.05.2020
2328 Clouds 30 1017 74 10000 6.2 150 18:19 27.05.2020
2329 Clouds 30 1017 74 10000 6.2 150 17:46 27.05.2020
2330 Clouds 30 1017 74 10000 6.2 150 17:46 27.05.2020
2331 Clouds 30 1017 74 10000 6.2 150 17:28 27.05.2020
2332 Clouds 29 1016 79 10000 7.2 150 16:58 27.05.2020
2333 Clouds 29 1016 79 10000 7.2 150 16:39 27.05.2020
2334 Clouds 29 1016 79 10000 7.2 150 16:20 27.05.2020
2335 Clouds 29 1016 79 10000 6.2 150 15:59 27.05.2020
2336 Clouds 29 1016 79 10000 6.2 150 15:39 27.05.2020
2337 Clouds 29 1016 79 10000 6.2 150 15:21 27.05.2020
2338 Clouds 28 1016 83 10000 5.1 150 14:42 27.05.2020
2339 Clouds 28 1016 83 10000 5.1 150 14:21 27.05.2020
2340 Clouds 27 1016 88 10000 4.6 140 13:44 27.05.2020
2341 Clouds 27 1016 88 10000 4.6 140 13:26 27.05.2020
2342 Clouds 26 1015 94 10000 3.1 130 12:57 27.05.2020
2343 Clouds 26 1015 94 10000 3.1 130 12:57 27.05.2020
2344 Clouds 26 1015 94 10000 3.1 130 12:39 27.05.2020
2345 Clouds 26 1015 94 10000 3.1 130 12:21 27.05.2020
2346 Clouds 26 1015 94 10000 3.6 140 11:39 27.05.2020
2347 Clouds 26 1015 94 10000 3.6 140 11:21 27.05.2020
2348 Clouds 26 1015 94 10000 3.1 130 10:56 27.05.2020
2349 Clouds 26 1015 94 10000 3.1 130 10:38 27.05.2020
2350 Clouds 26 1015 94 10000 3.1 130 10:19 27.05.2020
2351 Clouds 26 1015 94 10000 4.1 130 09:40 27.05.2020
2352 Clouds 26 1015 94 10000 4.1 130 09:21 27.05.2020
2353 Clouds 27 1015 88 10000 3.1 130 08:55 27.05.2020
2354 Clouds 27 1015 88 10000 3.1 130 08:36 27.05.2020
2355 Clouds 27 1015 88 10000 3.1 130 08:18 27.05.2020
2356 Clouds 27 1016 88 10000 3.1 120 07:41 27.05.2020
2357 Clouds 27 1016 88 10000 3.1 120 07:23 27.05.2020
2358 Clouds 27 1014 87 0 6.32 140 06:45 27.05.2020
2359 Clouds 27 1016 88 10000 3.6 140 06:20 27.05.2020
2360 Clouds 27 1016 88 10000 3.6 140 05:48 27.05.2020
2361 Clouds 27 1016 94 10000 4.1 140 04:24 27.05.2020
2362 Clouds 27 1015 88 10000 5.1 150 02:32 27.05.2020
2363 Clouds 28 1014 83 10000 5.1 150 01:53 27.05.2020
2364 Clouds 28 1014 83 10000 5.1 150 01:25 27.05.2020
2365 Clouds 28 1014 83 10000 7.2 150 00:45 27.05.2020
2366 Clouds 28 1014 83 10000 7.2 150 00:20 27.05.2020
2367 Clouds 28 1014 83 10000 7.2 160 23:44 26.05.2020
2368 Clouds 28 1014 83 10000 7.2 160 23:26 26.05.2020
2369 Clouds 29 1014 79 10000 7.2 160 23:00 26.05.2020
2370 Clouds 29 1014 79 10000 7.2 160 22:39 26.05.2020
2371 Clouds 29 1014 79 10000 7.2 160 22:21 26.05.2020
2372 Clouds 29 1014 79 10000 6.2 180 21:57 26.05.2020
2373 Clouds 29 1014 79 10000 6.2 180 21:39 26.05.2020
2374 Clouds 29 1014 79 10000 6.2 180 21:20 26.05.2020
2375 Clouds 29 1015 83 10000 7.2 170 20:43 26.05.2020
2376 Clouds 29 1015 83 10000 7.2 170 20:43 26.05.2020
2377 Clouds 29 1015 83 10000 7.2 170 20:21 26.05.2020
2378 Clouds 29 1015 83 10000 7.7 170 19:57 26.05.2020
2379 Clouds 29 1015 83 10000 7.7 170 19:37 26.05.2020
2380 Clouds 29 1015 83 10000 7.7 170 19:19 26.05.2020
2381 Clouds 29 1015 83 10000 8.2 170 18:43 26.05.2020
2382 Clouds 29 1015 83 10000 8.2 170 18:23 26.05.2020
2383 Clouds 29 1016 83 10000 6.7 160 17:57 26.05.2020
2384 Clouds 29 1016 83 10000 6.7 160 17:38 26.05.2020
2385 Clouds 29 1016 83 10000 6.7 160 17:20 26.05.2020
2386 Clouds 28 1016 88 10000 5.7 170 16:42 26.05.2020
2387 Clouds 28 1016 88 10000 5.7 170 16:19 26.05.2020
2388 Clouds 28 1016 88 10000 5.7 170 16:19 26.05.2020
2389 Clouds 27 1016 94 10000 3.1 160 15:44 26.05.2020
2390 Clouds 27 1016 94 10000 3.1 160 15:21 26.05.2020
2391 Clouds 27 1015 94 10000 2.6 150 14:59 26.05.2020
2392 Rain 27 1014 86 0 6.25 149 14:41 26.05.2020
2393 Clouds 27 1014 88 10000 3.6 170 14:22 26.05.2020
2394 Clouds 27 1014 88 10000 3.6 170 13:42 26.05.2020
2395 Clouds 27 1014 88 10000 3.6 170 13:42 26.05.2020
2396 Clouds 27 1014 88 10000 3.6 170 13:24 26.05.2020
2397 Clouds 27 1014 88 10000 5.1 170 12:59 26.05.2020
2398 Clouds 27 1014 88 10000 5.1 170 12:39 26.05.2020
2399 Clouds 27 1014 88 10000 5.1 170 12:19 26.05.2020
2400 Clouds 27 1013 88 10000 6.2 160 11:41 26.05.2020
2401 Clouds 27 1013 88 10000 7.7 160 11:21 26.05.2020
2402 Clouds 27 1013 88 10000 7.7 160 10:59 26.05.2020
2403 Clouds 27 1013 88 10000 7.7 160 10:39 26.05.2020
2404 Clouds 27 1013 88 10000 7.7 160 10:18 26.05.2020
2405 Clouds 27 1013 88 10000 7.2 160 09:39 26.05.2020
2406 Clouds 27 1013 88 10000 7.2 160 09:19 26.05.2020
2407 Clouds 27 1013 88 10000 7.7 160 08:42 26.05.2020
2408 Clouds 27 1013 88 10000 7.7 160 08:22 26.05.2020
2409 Clouds 27 1014 88 10000 7.7 150 07:44 26.05.2020
2410 Clouds 27 1014 88 10000 7.7 150 07:24 26.05.2020
2411 Clouds 27 1014 88 10000 7.2 150 06:54 26.05.2020
2412 Clouds 27 1014 88 10000 7.2 150 06:36 26.05.2020
2413 Clouds 27 1014 88 10000 7.7 140 05:53 26.05.2020
2414 Clouds 27 1015 84 0 9.16 116 05:29 26.05.2020
2415 Clouds 27 1014 83 0 9.21 112 04:50 26.05.2020
2416 Clouds 27 1014 83 0 9.21 112 04:31 26.05.2020
2417 Clouds 26 1014 83 0 8.99 110 03:52 26.05.2020
2418 Clouds 26 1014 81 0 8.8 107 02:40 26.05.2020
2419 Rain 27 1013 88 10000 7.2 140 01:48 26.05.2020
2420 Clouds 26 1013 83 10000 4.1 130 00:56 26.05.2020
2421 Rain 25 1013 88 10000 4.6 140 00:36 26.05.2020
2422 Rain 25 1013 88 10000 4.6 140 00:36 26.05.2020
2423 Rain 25 1013 88 10000 4.6 140 00:18 26.05.2020
2424 Clouds 27 1013 77 0 6.38 105 23:40 25.05.2020
2425 Rain 26 1013 78 0 5.79 121 23:20 25.05.2020
2426 Rain 26 1013 78 0 5.79 121 22:56 25.05.2020
2427 Rain 26 1013 78 0 5.79 121 22:56 25.05.2020
2428 Rain 26 1014 94 9000 5.7 170 22:38 25.05.2020
2429 Rain 26 1014 94 9000 5.7 170 22:20 25.05.2020
2430 Rain 27 1013 78 0 5.14 131 21:59 25.05.2020
2431 Rain 27 1013 78 0 5.14 131 21:59 25.05.2020
2432 Rain 27 1013 78 0 5.14 131 21:39 25.05.2020
2433 Rain 27 1014 80 0 5.49 110 21:20 25.05.2020
2434 Rain 27 1014 80 0 5.49 110 21:20 25.05.2020
2435 Rain 27 1014 80 0 5.49 110 20:59 25.05.2020
2436 Rain 27 1014 80 0 5.49 110 20:41 25.05.2020
2437 Rain 27 1015 79 0 4.13 122 20:21 25.05.2020
2438 Rain 27 1015 79 0 4.11 122 19:58 25.05.2020
2439 Rain 27 1015 79 0 4.13 122 19:39 25.05.2020
2440 Rain 27 1015 79 0 5.35 162 19:18 25.05.2020
2441 Rain 27 1015 79 0 5.35 162 18:45 25.05.2020
2442 Clouds 27 1015 83 10000 6.7 140 18:22 25.05.2020
2443 Clouds 27 1015 83 10000 6.7 140 17:57 25.05.2020
2444 Clouds 27 1015 83 10000 6.7 140 17:38 25.05.2020
2445 Clouds 27 1015 83 10000 6.7 140 17:20 25.05.2020
2446 Clouds 27 1015 83 10000 6.7 150 16:55 25.05.2020
2447 Clouds 27 1015 83 10000 6.7 150 16:36 25.05.2020
2448 Clouds 27 1015 83 10000 6.7 150 16:18 25.05.2020
2449 Clouds 27 1015 83 10000 5.7 150 15:42 25.05.2020
2450 Clouds 27 1015 83 10000 5.7 150 15:18 25.05.2020
2451 Clouds 27 1015 83 10000 5.7 150 15:18 25.05.2020
2452 Clouds 26 1014 88 10000 6.2 140 14:43 25.05.2020
2453 Clouds 26 1014 88 10000 6.2 140 14:24 25.05.2020
2454 Clouds 26 1014 88 10000 6.2 140 13:57 25.05.2020
2455 Clouds 26 1014 88 10000 6.2 140 13:38 25.05.2020
2456 Clouds 26 1014 88 10000 6.2 140 13:19 25.05.2020
2457 Clouds 26 1013 83 10000 6.7 150 12:54 25.05.2020
2458 Clouds 26 1013 83 10000 6.7 150 12:36 25.05.2020
2459 Clouds 26 1013 83 10000 6.7 150 12:18 25.05.2020
2460 Clouds 26 1013 83 10000 5.7 130 11:38 25.05.2020
2461 Clouds 26 1013 83 10000 5.7 130 11:38 25.05.2020
2462 Clouds 26 1013 83 10000 5.7 130 11:19 25.05.2020
2463 Clouds 26 1013 83 10000 5.7 130 10:44 25.05.2020
2464 Clouds 26 1013 83 10000 5.7 130 10:21 25.05.2020
2465 Clouds 26 1013 83 10000 5.1 130 09:57 25.05.2020
2466 Clouds 26 1013 83 10000 5.1 130 09:39 25.05.2020
2467 Clouds 26 1013 83 10000 5.1 130 09:19 25.05.2020
2468 Clouds 25 1013 86 0 8.59 114 08:57 25.05.2020
2469 Clouds 25 1015 88 10000 5.7 120 08:36 25.05.2020
2470 Clouds 25 1015 88 10000 5.7 120 08:18 25.05.2020
2471 Clouds 25 1015 88 10000 5.7 120 07:43 25.05.2020
2472 Clouds 25 1015 88 10000 5.7 120 07:21 25.05.2020
2473 Clouds 25 1015 88 10000 6.7 120 06:49 25.05.2020
2474 Clouds 25 1015 88 10000 6.7 120 06:31 25.05.2020
2475 Clouds 25 1015 88 10000 7.2 110 03:48 25.05.2020
2476 Clouds 25 1015 88 10000 7.2 110 03:22 25.05.2020
2477 Rain 24 1015 94 6000 7.2 110 02:45 25.05.2020
2478 Rain 23 1015 100 4000 5.7 80 01:46 25.05.2020
2479 Rain 23 1015 100 4000 5.7 80 01:28 25.05.2020
2480 Clouds 24 1014 94 10000 5.7 40 00:36 25.05.2020
2481 Clouds 24 1014 94 10000 5.7 40 00:18 25.05.2020
2482 Rain 23 1015 100 4000 4.1 30 23:43 24.05.2020
2483 Rain 23 1015 100 4000 4.1 30 23:23 24.05.2020
2484 Rain 24 1015 88 10000 2.1 120 22:58 24.05.2020
2485 Rain 23 1016 94 6000 3.1 180 22:40 24.05.2020
2486 Rain 23 1016 94 6000 3.1 180 22:19 24.05.2020
2487 Rain 27 1016 88 10000 2.1 110 21:55 24.05.2020
2488 Rain 27 1016 88 10000 2.1 110 21:37 24.05.2020
2489 Rain 27 1016 88 10000 2.1 110 21:19 24.05.2020
2490 Rain 26 1016 88 10000 4.6 140 20:43 24.05.2020
2491 Rain 26 1016 88 10000 4.6 140 20:43 24.05.2020
2492 Rain 26 1016 88 10000 4.6 140 20:22 24.05.2020
2493 Rain 26 1017 88 10000 6.7 140 19:59 24.05.2020
2494 Rain 26 1017 88 10000 6.7 140 19:59 24.05.2020
2495 Rain 26 1017 88 10000 6.7 140 19:40 24.05.2020
2496 Rain 26 1017 88 10000 6.7 140 19:19 24.05.2020
2497 Rain 26 1017 94 10000 2.1 30 18:54 24.05.2020
2498 Rain 26 1017 94 10000 2.1 30 18:36 24.05.2020
2499 Rain 26 1017 94 10000 2.1 30 18:18 24.05.2020
2500 Rain 25 1017 94 10000 1 0 17:40 24.05.2020
2501 Rain 25 1017 94 10000 1 0 17:21 24.05.2020
2502 Rain 24 1017 94 10000 2.6 250 16:57 24.05.2020
2503 Rain 24 1017 94 10000 2.6 250 16:38 24.05.2020
2504 Rain 24 1017 94 10000 2.6 250 16:20 24.05.2020
2505 Rain 25 1017 88 10000 4.1 130 15:56 24.05.2020
2506 Rain 25 1017 88 10000 4.1 130 15:38 24.05.2020
2507 Rain 25 1017 88 10000 4.1 130 15:18 24.05.2020
2508 Rain 25 1016 88 10000 4.6 110 14:44 24.05.2020
2509 Rain 25 1016 88 10000 4.6 110 14:24 24.05.2020
2510 Rain 25 1016 88 10000 4.6 110 14:24 24.05.2020
2511 Rain 24 1016 94 10000 4.6 110 13:58 24.05.2020
2512 Rain 24 1016 94 10000 4.6 110 13:39 24.05.2020
2513 Rain 24 1016 94 10000 4.6 110 13:21 24.05.2020
2514 Rain 25 1015 88 10000 4.6 110 12:58 24.05.2020
2515 Rain 25 1015 88 10000 4.6 110 12:58 24.05.2020
2516 Rain 25 1015 88 10000 4.6 110 12:40 24.05.2020
2517 Rain 25 1015 88 10000 4.6 110 12:22 24.05.2020
2518 Clouds 25 1015 88 10000 5.1 110 11:56 24.05.2020
2519 Clouds 25 1015 88 10000 5.1 110 11:38 24.05.2020
2520 Clouds 25 1015 88 10000 5.1 110 11:20 24.05.2020
2521 Clouds 25 1015 88 10000 4.6 120 10:55 24.05.2020
2522 Clouds 25 1015 88 10000 4.6 120 10:36 24.05.2020
2523 Clouds 25 1015 88 10000 4.6 120 10:18 24.05.2020
2524 Clouds 25 1016 88 10000 3.1 110 09:41 24.05.2020
2525 Clouds 25 1016 88 10000 3.1 110 09:18 24.05.2020
2526 Rain 24 1017 94 10000 7.2 150 08:54 24.05.2020
2527 Rain 24 1017 94 10000 7.2 150 08:36 24.05.2020
2528 Rain 24 1017 94 10000 7.2 150 08:18 24.05.2020
2529 Clouds 25 1017 88 10000 5.1 110 07:41 24.05.2020
2530 Clouds 25 1017 88 10000 5.1 110 07:22 24.05.2020
2531 Rain 25 1018 88 10000 5.1 110 06:45 24.05.2020
2532 Rain 24 1018 94 4800 5.1 120 05:50 24.05.2020
2533 Rain 25 1017 94 10000 2.6 70 03:59 24.05.2020
2534 Rain 25 1017 94 10000 2.6 70 03:40 24.05.2020
2535 Clouds 25 1017 88 10000 4.6 90 02:30 24.05.2020
2536 Rain 25 1016 94 10000 4.1 120 01:32 24.05.2020
2537 Clouds 27 1016 78 10000 5.1 90 00:38 24.05.2020
2538 Clouds 27 1016 78 10000 5.1 90 00:20 24.05.2020
2539 Rain 28 1017 74 10000 4.1 80 23:40 23.05.2020
2540 Rain 28 1017 74 10000 4.1 80 23:21 23.05.2020
2541 Clouds 28 1017 74 10000 5.7 90 22:57 23.05.2020
2542 Clouds 28 1017 74 10000 5.7 90 22:37 23.05.2020
2543 Clouds 28 1017 74 10000 5.7 90 22:19 23.05.2020
2544 Clouds 29 1017 70 10000 7.2 110 21:57 23.05.2020
2545 Clouds 29 1017 70 10000 7.2 110 21:37 23.05.2020
2546 Clouds 29 1017 70 10000 7.2 110 21:19 23.05.2020
2547 Clouds 29 1017 70 10000 7.2 110 21:19 23.05.2020
2548 Rain 29 1017 70 10000 6.7 100 20:55 23.05.2020
2549 Rain 29 1017 70 10000 6.7 100 20:36 23.05.2020
2550 Rain 29 1017 70 10000 6.7 100 20:18 23.05.2020
2551 Rain 29 1018 70 10000 6.7 110 19:41 23.05.2020
2552 Rain 29 1018 70 10000 6.7 110 19:19 23.05.2020
2553 Rain 28 1018 74 10000 7.7 120 18:56 23.05.2020
2554 Rain 28 1018 74 10000 7.7 120 18:37 23.05.2020
2555 Rain 28 1018 74 10000 7.7 120 18:19 23.05.2020
2556 Rain 28 1019 69 10000 7.2 120 17:54 23.05.2020
2557 Rain 28 1019 69 10000 7.2 120 17:36 23.05.2020
2558 Rain 28 1019 69 10000 7.2 120 17:18 23.05.2020
2559 Clouds 28 1018 69 10000 6.2 110 16:41 23.05.2020
2560 Clouds 28 1018 69 10000 6.2 110 16:21 23.05.2020
2561 Clouds 28 1018 69 10000 6.2 110 16:21 23.05.2020
2562 Clouds 28 1018 74 10000 4.1 90 15:59 23.05.2020
2563 Clouds 28 1018 74 10000 4.1 90 15:40 23.05.2020
2564 Clouds 28 1018 74 10000 4.1 90 15:22 23.05.2020
2565 Clouds 27 1018 78 10000 4.1 110 14:43 23.05.2020
2566 Clouds 27 1018 78 10000 4.1 110 14:24 23.05.2020
2567 Clouds 26 1018 78 10000 3.6 110 13:56 23.05.2020
2568 Clouds 26 1018 78 10000 3.6 110 13:37 23.05.2020
2569 Clouds 26 1018 78 10000 3.6 110 13:18 23.05.2020
2570 Clouds 26 1017 83 10000 2.1 80 12:41 23.05.2020
2571 Clouds 26 1017 83 10000 2.1 80 12:20 23.05.2020
2572 Clouds 26 1017 83 10000 3.1 90 11:57 23.05.2020
2573 Clouds 26 1017 83 10000 3.1 90 11:38 23.05.2020
2574 Clouds 26 1017 83 10000 3.1 90 11:19 23.05.2020
2575 Rain 26 1016 80 0 6.91 87 10:55 23.05.2020
2576 Rain 26 1016 80 0 6.91 87 10:36 23.05.2020
2577 Rain 26 1016 80 0 6.55 91 10:18 23.05.2020
2578 Rain 26 1016 80 0 6.55 91 09:42 23.05.2020
2579 Clouds 26 1018 78 10000 4.6 110 09:24 23.05.2020
2580 Clouds 26 1018 78 10000 4.6 110 08:57 23.05.2020
2581 Clouds 26 1018 78 10000 4.6 110 08:37 23.05.2020
2582 Clouds 26 1018 78 10000 4.6 110 08:18 23.05.2020
2583 Clouds 26 1018 78 10000 4.6 110 08:18 23.05.2020
2584 Clouds 26 1018 78 10000 5.1 110 07:43 23.05.2020
2585 Clouds 26 1018 78 10000 5.1 110 07:22 23.05.2020
2586 Clouds 27 1019 74 10000 4.6 120 06:42 23.05.2020
2587 Clouds 27 1019 74 10000 5.7 110 05:51 23.05.2020
2588 Clouds 27 1018 78 10000 5.1 100 03:52 23.05.2020
2589 Clouds 27 1018 78 10000 5.1 100 03:23 23.05.2020
2590 Clouds 27 1018 78 10000 5.7 100 02:31 23.05.2020
2591 Clouds 27 1017 74 10000 6.2 80 01:28 23.05.2020
2592 Clouds 29 1017 66 10000 5.7 90 00:53 23.05.2020
2593 Clouds 29 1017 66 10000 5.7 90 00:34 23.05.2020
2594 Clouds 29 1017 66 10000 5.7 90 23:59 22.05.2020
2595 Clouds 29 1017 66 10000 5.7 90 23:40 22.05.2020
2596 Clouds 29 1017 66 10000 5.7 90 23:40 22.05.2020
2597 Clouds 29 1017 66 10000 5.7 90 23:20 22.05.2020
2598 Clouds 29 1017 66 10000 6.2 110 22:57 22.05.2020
2599 Clouds 29 1018 66 10000 6.2 110 22:38 22.05.2020
2600 Clouds 29 1018 66 10000 6.2 110 22:18 22.05.2020
2601 Clouds 29 1018 66 10000 6.2 110 21:44 22.05.2020
2602 Clouds 29 1018 66 10000 6.2 110 21:21 22.05.2020
2603 Clouds 30 1019 58 10000 5.7 110 20:54 22.05.2020
2604 Clouds 30 1019 58 10000 5.7 110 20:36 22.05.2020
2605 Clouds 30 1019 58 10000 5.7 110 20:18 22.05.2020
2606 Clouds 30 1019 62 10000 6.7 120 19:41 22.05.2020
2607 Clouds 30 1019 62 10000 6.7 120 19:41 22.05.2020
2608 Clouds 30 1019 62 10000 6.7 120 19:41 22.05.2020
2609 Clouds 30 1019 62 10000 6.7 120 19:23 22.05.2020
2610 Clouds 30 1019 58 10000 7.2 100 18:40 22.05.2020
2611 Clouds 30 1019 58 10000 7.2 100 18:21 22.05.2020
2612 Clouds 29 1019 62 10000 7.2 80 17:59 22.05.2020
2613 Clouds 29 1019 62 10000 7.2 80 17:38 22.05.2020
2614 Clouds 29 1019 62 10000 7.2 80 17:18 22.05.2020
2615 Clouds 28 1019 69 10000 6.2 110 16:45 22.05.2020
2616 Clouds 28 1019 69 10000 6.2 110 16:21 22.05.2020
2617 Clouds 28 1018 69 10000 4.6 110 15:59 22.05.2020
2618 Clouds 28 1018 69 10000 4.6 110 15:41 22.05.2020
2619 Clouds 28 1018 69 10000 4.6 110 15:20 22.05.2020
2620 Clouds 27 1018 74 10000 4.1 110 14:44 22.05.2020
2621 Clouds 27 1018 74 10000 4.1 110 14:24 22.05.2020
2622 Clouds 26 1018 78 10000 2.1 80 13:49 22.05.2020
2623 Clouds 26 1018 78 10000 2.1 80 13:21 22.05.2020
2624 Clouds 26 1018 78 10000 2.1 80 12:56 22.05.2020
2625 Clouds 26 1018 78 10000 2.1 80 12:37 22.05.2020
2626 Clouds 26 1018 78 10000 2.1 80 12:19 22.05.2020
2627 Clouds 26 1017 78 10000 2.6 100 11:44 22.05.2020
2628 Clouds 26 1017 78 10000 2.6 100 11:21 22.05.2020
2629 Clouds 26 1017 78 10000 2.6 100 11:21 22.05.2020
2630 Clouds 26 1017 83 10000 2.1 80 10:55 22.05.2020
2631 Clouds 26 1017 83 10000 2.1 80 10:37 22.05.2020
2632 Clouds 26 1017 83 10000 2.1 80 10:18 22.05.2020
2633 Clouds 26 1018 83 10000 3.1 100 09:42 22.05.2020
2634 Clouds 26 1018 83 10000 3.1 100 09:19 22.05.2020
2635 Clouds 26 1018 83 10000 3.6 110 08:44 22.05.2020
2636 Clouds 26 1018 83 10000 3.6 110 08:44 22.05.2020
2637 Clouds 26 1018 83 10000 3.6 110 08:22 22.05.2020
2638 Clouds 26 1018 83 10000 3.6 110 08:22 22.05.2020
2639 Clouds 27 1019 78 10000 4.1 110 07:57 22.05.2020
2640 Clouds 27 1019 78 10000 4.1 110 07:27 22.05.2020
2641 Clouds 27 1019 78 10000 4.1 110 06:58 22.05.2020
2642 Clouds 27 1019 78 10000 4.1 110 06:40 22.05.2020
2643 Clouds 27 1019 83 10000 3.6 110 05:40 22.05.2020
2644 Clouds 27 1018 83 10000 3.6 120 04:51 22.05.2020
2645 Clouds 27 1018 83 10000 3.6 120 04:32 22.05.2020
2646 Clouds 27 1018 83 10000 4.6 120 03:48 22.05.2020
2647 Clouds 28 1018 78 10000 5.1 130 02:59 22.05.2020
2648 Clouds 29 1017 70 10000 5.7 130 01:57 22.05.2020
2649 Clouds 29 1017 70 10000 5.7 130 01:28 22.05.2020
2650 Clouds 29 1016 70 10000 4.6 130 00:49 22.05.2020
2651 Clouds 29 1016 70 10000 4.6 130 00:28 22.05.2020
2652 Clouds 30 1017 66 10000 4.6 120 23:45 21.05.2020
2653 Clouds 30 1017 66 10000 4.6 120 23:25 21.05.2020
2654 Clouds 29 1017 70 10000 4.6 130 22:58 21.05.2020
2655 Clouds 29 1017 70 10000 4.6 130 22:58 21.05.2020
2656 Clouds 29 1017 70 10000 4.6 130 22:58 21.05.2020
2657 Clouds 29 1017 70 10000 4.6 130 22:40 21.05.2020
2658 Clouds 29 1017 70 10000 4.6 130 22:21 21.05.2020
2659 Clouds 29 1017 70 10000 5.7 110 21:58 21.05.2020
2660 Clouds 29 1017 70 10000 5.7 110 21:39 21.05.2020
2661 Clouds 29 1017 70 10000 5.7 110 21:19 21.05.2020
2662 Rain 28 1018 83 10000 5.1 80 20:43 21.05.2020
2663 Rain 28 1018 83 10000 5.1 80 20:22 21.05.2020
2664 Rain 28 1018 83 10000 5.1 80 20:22 21.05.2020
2665 Thunderstorm 29 1018 74 10000 5.7 70 19:41 21.05.2020
2666 Thunderstorm 29 1018 74 10000 5.7 70 19:21 21.05.2020
2667 Clouds 27 1018 76 0 4.04 101 18:59 21.05.2020
2668 Clouds 30 1018 70 10000 4.6 130 18:39 21.05.2020
2669 Clouds 30 1018 70 10000 4.6 130 18:19 21.05.2020
2670 Clouds 30 1018 70 10000 4.6 130 17:56 21.05.2020
2671 Clouds 30 1018 70 10000 4.6 130 17:38 21.05.2020
2672 Clouds 30 1018 70 10000 4.6 130 17:38 21.05.2020
2673 Clouds 30 1018 70 10000 4.6 130 17:19 21.05.2020
2674 Clouds 29 1017 74 10000 4.1 130 16:44 21.05.2020
2675 Clouds 29 1017 74 10000 4.1 130 16:22 21.05.2020
2676 Clouds 29 1017 79 10000 3.1 130 15:44 21.05.2020
2677 Clouds 29 1017 79 10000 3.1 130 15:24 21.05.2020
2678 Clouds 27 1017 88 10000 2.1 80 14:43 21.05.2020
2679 Clouds 27 1017 88 10000 2.1 80 14:25 21.05.2020
2680 Clouds 25 1016 94 10000 1 0 14:00 21.05.2020
2681 Clouds 25 1016 94 10000 1 0 13:39 21.05.2020
2682 Clouds 25 1016 94 10000 1 0 13:20 21.05.2020
2683 Clouds 25 1016 94 10000 1 0 12:40 21.05.2020
2684 Clouds 25 1016 94 10000 1 0 12:22 21.05.2020
2685 Clouds 25 1016 94 10000 3.8 121 11:59 21.05.2020
2686 Clouds 25 1016 94 10000 3.8 121 11:39 21.05.2020
2687 Clouds 25 1016 94 10000 3.91 119 11:21 21.05.2020
2688 Clouds 24 1015 94 10000 1 0 10:54 21.05.2020
2689 Clouds 24 1015 94 10000 1 0 10:36 21.05.2020
2690 Clouds 24 1015 94 10000 1 0 10:18 21.05.2020
2691 Clouds 25 1016 88 10000 3.62 124 09:42 21.05.2020
2692 Clouds 25 1016 88 10000 3.73 117 09:24 21.05.2020
2693 Clouds 25 1016 88 10000 1.5 170 08:57 21.05.2020
2694 Clouds 25 1016 88 10000 1.5 170 08:38 21.05.2020
2695 Clouds 25 1016 88 10000 1.5 170 08:20 21.05.2020
2696 Clouds 25 1016 88 10000 2.6 160 07:42 21.05.2020
2697 Clouds 25 1016 88 10000 2.6 160 07:22 21.05.2020
2698 Clouds 26 1017 83 10000 2.09 115 06:37 21.05.2020
2699 Clouds 26 1017 83 10000 1.5 180 05:50 21.05.2020
2700 Clouds 27 1016 83 10000 3.1 140 04:25 21.05.2020
2701 Rain 28 1016 74 10000 3.1 120 03:21 21.05.2020
2702 Rain 28 1016 74 10000 3.1 120 03:21 21.05.2020
2703 Rain 28 1016 74 10000 3.1 120 03:21 21.05.2020
2704 Rain 28 1016 74 10000 3.1 120 03:21 21.05.2020
2705 Clouds 27 1016 78 10000 1.5 170 02:31 21.05.2020
2706 Rain 27 1015 78 10000 3.1 170 01:51 21.05.2020
2707 Rain 27 1015 78 10000 3.1 170 01:24 21.05.2020
2708 Rain 28 1015 69 10000 2.1 160 00:55 21.05.2020
2709 Rain 28 1015 69 10000 2.1 160 00:27 21.05.2020
2710 Thunderstorm 28 1015 69 10000 2.6 170 23:59 20.05.2020
2711 Thunderstorm 28 1015 69 10000 2.6 170 23:59 20.05.2020
2712 Thunderstorm 28 1015 69 10000 2.6 170 23:38 20.05.2020
2713 Thunderstorm 28 1015 69 10000 2.6 170 23:18 20.05.2020
2714 Rain 28 1015 69 10000 3.6 180 22:43 20.05.2020
2715 Rain 28 1015 69 10000 3.6 180 22:25 20.05.2020
2716 Rain 31 1016 52 10000 3.1 220 21:58 20.05.2020
2717 Rain 31 1016 52 10000 3.1 220 21:38 20.05.2020
2718 Rain 31 1016 52 10000 3.1 220 21:19 20.05.2020
2719 Clouds 28 1015 71 0 2.29 134 20:44 20.05.2020
2720 Clouds 31 1016 55 10000 2.6 240 20:23 20.05.2020
2721 Clouds 31 1016 55 10000 2.6 240 19:44 20.05.2020
2722 Clouds 31 1016 55 10000 2.6 240 19:25 20.05.2020
2723 Clouds 30 1016 62 10000 2.1 270 18:59 20.05.2020
2724 Clouds 30 1016 62 10000 2.1 270 18:40 20.05.2020
2725 Clouds 30 1016 62 10000 2.1 270 18:20 20.05.2020
2726 Clouds 30 1016 62 10000 2.1 270 18:20 20.05.2020
2727 Clouds 30 1016 62 10000 4.1 230 17:40 20.05.2020
2728 Clouds 30 1016 62 10000 4.1 230 17:21 20.05.2020
2729 Clouds 30 1016 62 10000 3.6 230 16:55 20.05.2020
2730 Clouds 30 1016 62 10000 3.6 230 16:36 20.05.2020
2731 Clouds 30 1016 62 10000 3.6 230 16:18 20.05.2020
2732 Clouds 28 1015 69 10000 3.1 220 15:42 20.05.2020
2733 Clouds 28 1015 69 10000 3.1 220 15:23 20.05.2020
2734 Clouds 26 1015 83 10000 2.65 192 14:43 20.05.2020
2735 Clouds 26 1015 83 10000 2.31 189 14:21 20.05.2020
2736 Clouds 24 1015 88 10000 1.5 30 13:42 20.05.2020
2737 Clouds 24 1015 88 10000 1.5 30 13:20 20.05.2020
2738 Clouds 24 1014 83 10000 1 0 12:59 20.05.2020
2739 Clouds 24 1014 83 10000 1 0 12:39 20.05.2020
2740 Clouds 24 1014 83 10000 1 0 12:20 20.05.2020
2741 Clouds 25 1014 83 10000 1 0 11:36 20.05.2020
2742 Clouds 25 1014 83 10000 1 0 11:18 20.05.2020
2743 Clouds 25 1014 78 10000 1 0 10:43 20.05.2020
2744 Clouds 25 1014 78 10000 1 0 10:20 20.05.2020
2745 Clouds 26 1014 74 10000 4.1 220 09:46 20.05.2020
2746 Clouds 26 1014 74 10000 4.1 220 09:22 20.05.2020
2747 Clouds 26 1014 78 10000 3.6 210 08:58 20.05.2020
2748 Clouds 26 1014 78 10000 3.6 210 08:40 20.05.2020
2749 Clouds 26 1014 78 10000 3.6 210 08:18 20.05.2020
2750 Clouds 26 1015 78 10000 6.2 210 07:47 20.05.2020
2751 Clouds 26 1015 78 10000 6.2 210 07:21 20.05.2020
2752 Clouds 26 1015 78 10000 6.2 210 07:21 20.05.2020
2753 Clouds 26 1015 78 10000 7.7 210 06:42 20.05.2020
2754 Thunderstorm 27 1015 78 10000 6.2 210 05:24 20.05.2020
2755 Thunderstorm 27 1015 83 10000 2.6 190 04:33 20.05.2020
2756 Thunderstorm 27 1015 83 10000 3.1 200 03:51 20.05.2020
2757 Clouds 27 1015 83 10000 3.6 190 02:30 20.05.2020
2758 Clouds 28 1014 78 10000 3.6 190 01:29 20.05.2020
2759 Clouds 29 1013 74 10000 4.6 170 00:44 20.05.2020
2760 Clouds 29 1013 74 10000 4.6 170 00:23 20.05.2020
2761 Clouds 29 1013 74 10000 4.6 160 23:42 19.05.2020
2762 Clouds 29 1013 74 10000 4.6 160 23:19 19.05.2020
2763 Clouds 29 1013 74 10000 4.6 160 23:19 19.05.2020
2764 Clouds 30 1014 66 10000 4.6 170 22:56 19.05.2020
2765 Clouds 30 1014 66 10000 4.6 170 22:38 19.05.2020
2766 Clouds 30 1014 66 10000 4.6 170 22:19 19.05.2020
2767 Clouds 30 1014 62 10000 4.1 200 21:57 19.05.2020
2768 Clouds 30 1014 62 10000 4.1 200 21:37 19.05.2020
2769 Clouds 30 1014 62 10000 4.1 200 21:19 19.05.2020
2770 Clouds 29 1015 66 10000 4.1 200 20:57 19.05.2020
2771 Clouds 29 1015 66 10000 4.1 200 20:38 19.05.2020
2772 Clouds 29 1015 66 10000 4.1 200 20:19 19.05.2020
2773 Clouds 30 1015 55 10000 5.1 200 19:39 19.05.2020
2774 Clouds 30 1015 55 10000 5.1 200 19:21 19.05.2020
2775 Clouds 29 1015 66 10000 4.1 190 18:57 19.05.2020
2776 Clouds 29 1015 66 10000 4.1 190 18:38 19.05.2020
2777 Clouds 29 1015 66 10000 4.1 190 18:20 19.05.2020
2778 Clouds 29 1015 66 10000 4.6 170 17:41 19.05.2020
2779 Clouds 29 1015 66 10000 4.6 170 17:21 19.05.2020
2780 Clouds 28 1015 69 10000 5.1 160 16:58 19.05.2020
2781 Clouds 28 1015 69 10000 5.1 160 16:38 19.05.2020
2782 Clouds 28 1015 69 10000 5.1 160 16:19 19.05.2020
2783 Clouds 27 1016 78 10000 3.6 160 15:44 19.05.2020
2784 Clouds 27 1016 78 10000 3.6 160 15:21 19.05.2020
2785 Clouds 24 1016 88 10000 3.6 140 14:56 19.05.2020
2786 Clouds 24 1016 88 10000 3.6 140 14:38 19.05.2020
2787 Clouds 24 1016 88 10000 3.6 140 14:20 19.05.2020
2788 Clouds 23 1016 88 10000 3.6 120 13:56 19.05.2020
2789 Clouds 23 1016 88 10000 3.6 120 13:37 19.05.2020
2790 Clouds 23 1016 88 10000 3.6 120 13:19 19.05.2020
2791 Clouds 23 1015 94 10000 3.1 80 12:56 19.05.2020
2792 Clouds 23 1015 94 10000 3.1 80 12:36 19.05.2020
2793 Clouds 23 1015 94 10000 3.1 80 12:36 19.05.2020
2794 Clouds 23 1015 94 10000 3.1 80 12:18 19.05.2020
2795 Rain 22 1015 100 10000 3.6 20 11:42 19.05.2020
2796 Rain 22 1015 100 10000 3.6 20 11:22 19.05.2020
2797 Thunderstorm 22 1015 100 2700 9.8 290 10:56 19.05.2020
2798 Thunderstorm 22 1015 100 2700 9.8 290 10:38 19.05.2020
2799 Thunderstorm 22 1015 100 2700 9.8 290 10:38 19.05.2020
2800 Thunderstorm 22 1015 100 2700 9.8 290 10:18 19.05.2020
2801 Thunderstorm 22 1015 100 2700 9.8 290 10:18 19.05.2020
2802 Clouds 26 1015 88 10000 1.5 190 09:43 19.05.2020
2803 Clouds 26 1015 94 10000 2.6 160 09:25 19.05.2020
2804 Clouds 26 1015 88 10000 1.5 190 09:25 19.05.2020
2805 Clouds 26 1015 94 10000 2.6 160 08:47 19.05.2020
2806 Clouds 26 1015 94 10000 2.6 160 08:25 19.05.2020
2807 Clouds 26 1016 94 10000 2.6 170 07:48 19.05.2020
2808 Clouds 26 1016 94 10000 2.6 170 07:28 19.05.2020
2809 Clouds 26 1017 94 10000 3.1 160 06:55 19.05.2020
2810 Clouds 26 1017 94 10000 3.1 160 06:31 19.05.2020
2811 Clouds 26 1016 88 10000 2.6 160 05:43 19.05.2020
2812 Clouds 26 1016 88 10000 2.6 160 05:19 19.05.2020
2813 Clouds 26 1016 88 10000 2.1 170 04:35 19.05.2020
2814 Clouds 26 1016 88 10000 2.6 180 02:23 19.05.2020
2815 Clouds 28 1014 69 10000 4.6 160 00:48 19.05.2020
2816 Clouds 28 1014 69 10000 4.6 160 00:29 19.05.2020
2817 Clouds 28 1015 69 10000 3.6 140 23:59 18.05.2020
2818 Clouds 28 1015 69 10000 3.6 140 23:40 18.05.2020
2819 Clouds 28 1015 69 10000 3.6 140 23:20 18.05.2020
2820 Clouds 27 1016 74 10000 4.1 130 22:41 18.05.2020
2821 Clouds 27 1016 74 10000 4.1 130 22:22 18.05.2020
2822 Rain 23 1017 88 10000 7.2 310 21:58 18.05.2020
2823 Rain 23 1017 88 10000 7.2 310 21:40 18.05.2020
2824 Rain 23 1017 88 10000 7.2 310 21:20 18.05.2020
2825 Thunderstorm 23 1018 88 10000 8.2 310 20:56 18.05.2020
2826 Thunderstorm 23 1018 88 10000 8.2 310 20:36 18.05.2020
2827 Clouds 28 1017 78 10000 3.1 180 20:18 18.05.2020
2828 Clouds 28 1017 78 10000 3.1 180 19:41 18.05.2020
2829 Clouds 28 1017 78 10000 3.1 180 19:19 18.05.2020
2830 Clouds 29 1017 74 10000 4.6 170 18:46 18.05.2020
2831 Clouds 29 1017 74 10000 4.6 170 18:25 18.05.2020
2832 Clouds 29 1017 79 10000 4.6 170 17:55 18.05.2020
2833 Clouds 29 1017 79 10000 4.6 170 17:37 18.05.2020
2834 Clouds 29 1017 79 10000 4.6 170 17:18 18.05.2020
2835 Clouds 29 1017 79 10000 4.6 190 16:43 18.05.2020
2836 Clouds 29 1017 79 10000 4.6 190 16:21 18.05.2020
2837 Clouds 28 1016 83 10000 4.1 150 15:58 18.05.2020
2838 Clouds 28 1016 83 10000 4.1 150 15:39 18.05.2020
2839 Clouds 27 1017 88 10000 3.1 170 15:21 18.05.2020
2840 Clouds 27 1017 88 10000 3.1 170 14:56 18.05.2020
2841 Clouds 27 1017 88 10000 3.1 170 14:38 18.05.2020
2842 Clouds 27 1017 88 10000 3.1 170 14:19 18.05.2020
2843 Clouds 26 1016 94 10000 2.1 170 13:41 18.05.2020
2844 Clouds 26 1016 94 10000 2.1 170 13:20 18.05.2020
2845 Clouds 26 1016 94 10000 2.6 180 12:58 18.05.2020
2846 Clouds 26 1016 94 10000 2.6 180 12:39 18.05.2020
2847 Clouds 26 1016 94 10000 2.6 180 12:19 18.05.2020
2848 Clouds 26 1015 94 10000 2.1 170 11:47 18.05.2020
2849 Clouds 26 1015 94 10000 2.1 170 11:47 18.05.2020
2850 Clouds 26 1015 94 10000 2.1 170 11:27 18.05.2020
2851 Rain 27 1014 81 0 4.23 162 10:59 18.05.2020
2852 Rain 27 1014 81 0 4.23 162 10:41 18.05.2020
2853 Clouds 25 1015 100 10000 3.1 150 10:22 18.05.2020
2854 Clouds 25 1015 100 10000 3.1 150 09:44 18.05.2020
2855 Clouds 25 1015 100 10000 3.1 150 09:25 18.05.2020
2856 Clouds 26 1016 94 10000 2.6 150 08:46 18.05.2020
2857 Clouds 26 1016 94 10000 2.6 150 08:27 18.05.2020
2858 Clouds 26 1016 94 10000 2.6 170 07:58 18.05.2020
2859 Clear 27 1015 82 0 4.35 160 07:39 18.05.2020
2860 Clouds 26 1017 94 10000 3.6 170 07:20 18.05.2020
2861 Clouds 26 1017 94 10000 3.6 170 06:45 18.05.2020
2862 Clouds 26 1017 94 10000 3.6 170 05:50 18.05.2020
2863 Clouds 26 1017 94 10000 3.6 170 05:26 18.05.2020
2864 Clouds 26 1016 94 10000 3.1 170 03:37 18.05.2020
2865 Clouds 27 1015 83 10000 3.1 180 02:30 18.05.2020
2866 Clouds 27 1015 83 10000 4.6 180 01:23 18.05.2020
2867 Clouds 27 1015 83 10000 4.1 160 00:27 18.05.2020
2868 Clouds 27 1014 83 10000 5.1 170 23:58 17.05.2020
2869 Clouds 27 1014 83 10000 5.1 170 23:58 17.05.2020
2870 Clouds 27 1014 83 10000 5.1 170 23:39 17.05.2020
2871 Clouds 27 1014 83 10000 5.1 170 23:20 17.05.2020
2872 Clouds 29 1014 70 10000 5.7 170 22:56 17.05.2020
2873 Clouds 29 1014 70 10000 5.7 170 22:37 17.05.2020
2874 Clouds 29 1014 70 10000 5.7 170 22:37 17.05.2020
2875 Clouds 29 1014 70 10000 5.7 170 22:19 17.05.2020
2876 Clouds 30 1015 62 10000 5.7 200 21:55 17.05.2020
2877 Clouds 30 1015 62 10000 5.7 200 21:37 17.05.2020
2878 Clouds 30 1015 62 10000 5.7 200 21:18 17.05.2020
2879 Clouds 30 1016 58 10000 5.1 220 20:42 17.05.2020
2880 Clouds 30 1016 58 10000 5.1 220 20:21 17.05.2020
2881 Clouds 29 1016 74 10000 4.6 190 19:57 17.05.2020
2882 Clouds 29 1016 74 10000 4.6 190 19:38 17.05.2020
2883 Clouds 29 1016 74 10000 4.6 190 19:19 17.05.2020
2884 Clouds 27 1016 78 10000 3.1 230 18:42 17.05.2020
2885 Clouds 27 1016 78 10000 3.1 230 18:23 17.05.2020
2886 Clouds 26 1016 83 10000 4.1 200 17:59 17.05.2020
2887 Clouds 26 1016 83 10000 4.1 200 17:39 17.05.2020
2888 Clouds 26 1016 83 10000 4.1 200 17:19 17.05.2020
2889 Clouds 26 1016 83 10000 4.1 200 17:19 17.05.2020
2890 Clouds 25 1016 88 10000 2.6 220 16:40 17.05.2020
2891 Clouds 24 1016 94 10000 3.6 230 16:20 17.05.2020
2892 Clouds 24 1016 94 10000 3.6 230 15:58 17.05.2020
2893 Clouds 24 1016 94 10000 3.6 230 15:39 17.05.2020
2894 Clouds 24 1016 94 10000 3.6 230 15:20 17.05.2020
2895 Rain 23 1015 88 10000 4.6 220 14:43 17.05.2020
2896 Rain 23 1015 88 10000 4.6 220 14:24 17.05.2020
2897 Thunderstorm 24 1016 88 10000 2.6 180 13:58 17.05.2020
2898 Thunderstorm 24 1016 88 10000 2.6 180 13:40 17.05.2020
2899 Thunderstorm 24 1016 88 10000 2.6 180 13:19 17.05.2020
2900 Clouds 26 1014 88 10000 2.1 210 04:41 17.05.2020
2901 Clouds 28 1013 78 10000 3.1 230 02:39 17.05.2020
2902 Clouds 28 1013 78 10000 3.1 230 02:19 17.05.2020
2903 Clouds 29 1013 70 10000 5.1 210 01:44 17.05.2020
2904 Clouds 30 1012 66 10000 4.1 210 00:40 17.05.2020
2905 Clouds 30 1012 66 10000 4.1 210 00:19 17.05.2020
2906 Clouds 30 1013 66 10000 5.7 220 23:39 16.05.2020
2907 Clouds 30 1013 66 10000 5.7 220 23:20 16.05.2020
2908 Clouds 30 1013 66 10000 6.2 250 22:58 16.05.2020
2909 Clouds 30 1013 66 10000 6.2 250 22:40 16.05.2020
2910 Clouds 30 1013 66 10000 6.2 250 22:20 16.05.2020
2911 Thunderstorm 30 1013 66 10000 5.7 230 21:45 16.05.2020
2912 Thunderstorm 30 1013 66 10000 5.7 230 21:27 16.05.2020
2913 Thunderstorm 29 1013 74 10000 7.2 210 20:58 16.05.2020
2914 Thunderstorm 29 1013 74 10000 7.2 210 20:39 16.05.2020
2915 Thunderstorm 29 1013 74 10000 7.2 210 20:21 16.05.2020
2916 Thunderstorm 30 1014 70 10000 7.2 210 19:57 16.05.2020
2917 Thunderstorm 30 1014 70 10000 7.2 210 19:39 16.05.2020
2918 Thunderstorm 30 1014 70 10000 7.2 210 19:21 16.05.2020
2919 Thunderstorm 30 1014 70 10000 7.2 210 19:21 16.05.2020
2920 Clouds 28 1014 83 10000 7.7 200 18:42 16.05.2020
2921 Clouds 28 1014 83 10000 7.7 200 18:22 16.05.2020
2922 Rain 27 1014 81 0 6.2 201 17:55 16.05.2020
2923 Clouds 28 1014 83 10000 6.7 210 17:37 16.05.2020
2924 Clouds 28 1014 83 10000 6.7 210 17:18 16.05.2020
2925 Clouds 28 1014 83 10000 6.7 210 16:39 16.05.2020
2926 Clouds 28 1014 83 10000 6.7 210 16:20 16.05.2020
2927 Clouds 27 1013 83 10000 7.2 210 15:55 16.05.2020
2928 Clouds 27 1013 83 10000 7.2 210 15:37 16.05.2020
2929 Clouds 27 1013 83 10000 7.2 210 15:18 16.05.2020
2930 Clouds 27 1012 83 10000 7.2 210 14:42 16.05.2020
2931 Clouds 27 1012 83 10000 7.2 210 14:20 16.05.2020
2932 Clouds 26 1012 83 10000 5.7 200 13:56 16.05.2020
2933 Clouds 26 1012 83 10000 5.7 200 13:36 16.05.2020
2934 Clouds 26 1012 83 10000 5.7 200 13:18 16.05.2020
2935 Clouds 26 1012 88 10000 5.7 210 12:43 16.05.2020
2936 Clouds 26 1012 88 10000 5.7 210 12:20 16.05.2020
2937 Clouds 26 1012 88 10000 5.1 190 11:44 16.05.2020
2938 Clouds 26 1012 88 10000 5.1 190 11:24 16.05.2020
2939 Thunderstorm 25 1011 88 10000 4.1 190 10:59 16.05.2020
2940 Thunderstorm 25 1011 88 10000 4.1 190 10:40 16.05.2020
2941 Thunderstorm 25 1011 88 10000 4.1 190 10:22 16.05.2020
2942 Thunderstorm 26 1012 78 10000 4.6 200 09:58 16.05.2020
2943 Thunderstorm 26 1012 78 10000 4.6 200 09:38 16.05.2020
2944 Thunderstorm 26 1012 78 10000 4.6 200 09:18 16.05.2020
2945 Thunderstorm 26 1012 78 10000 4.6 200 09:18 16.05.2020
2946 Thunderstorm 26 1013 88 10000 3.6 190 08:42 16.05.2020
2947 Thunderstorm 26 1013 88 10000 3.6 190 08:21 16.05.2020
2948 Thunderstorm 26 1012 94 10000 4.6 170 07:43 16.05.2020
2949 Thunderstorm 26 1012 94 10000 4.6 170 07:24 16.05.2020
2950 Thunderstorm 25 1013 94 10000 3.1 160 06:49 16.05.2020
2951 Thunderstorm 25 1013 94 10000 3.1 160 06:24 16.05.2020
2952 Thunderstorm 25 1013 94 10000 3.6 150 05:56 16.05.2020
2953 Thunderstorm 25 1013 94 10000 3.6 150 05:29 16.05.2020
2954 Thunderstorm 25 1013 88 10000 4.1 160 03:34 16.05.2020
2955 Thunderstorm 25 1013 94 10000 4.6 150 02:52 16.05.2020
2956 Thunderstorm 25 1013 94 10000 4.6 150 02:20 16.05.2020
2957 Clouds 26 1012 83 10000 5.7 160 01:43 16.05.2020
2958 Rain 27 1012 74 10000 5.1 160 00:59 16.05.2020
2959 Rain 27 1012 74 10000 5.1 160 00:41 16.05.2020
2960 Rain 27 1012 74 10000 5.1 160 00:20 16.05.2020
2961 Clouds 26 1011 77 0 4.53 128 23:40 15.05.2020
2962 Rain 25 1013 94 10000 4.1 150 23:20 15.05.2020
2963 Rain 25 1013 94 10000 4.1 150 22:42 15.05.2020
2964 Rain 25 1013 94 10000 4.1 150 22:24 15.05.2020
2965 Thunderstorm 25 1014 94 10000 3.6 150 21:59 15.05.2020
2966 Thunderstorm 25 1014 94 10000 3.6 150 21:39 15.05.2020
2967 Thunderstorm 25 1014 94 10000 3.6 150 21:21 15.05.2020
2968 Clouds 26 1014 83 10000 6.7 150 20:57 15.05.2020
2969 Clouds 26 1014 83 10000 6.7 150 20:39 15.05.2020
2970 Clouds 26 1014 83 10000 6.7 150 20:21 15.05.2020
2971 Clouds 27 1015 78 10000 5.7 170 19:44 15.05.2020
2972 Clouds 27 1015 78 10000 5.7 170 19:44 15.05.2020
2973 Clouds 27 1015 78 10000 5.7 170 19:24 15.05.2020
2974 Clouds 26 1015 78 10000 6.2 160 18:58 15.05.2020
2975 Clouds 26 1015 78 10000 6.2 160 18:39 15.05.2020
2976 Clouds 26 1015 78 10000 6.2 160 18:18 15.05.2020
2977 Clouds 27 1015 78 10000 5.7 130 17:39 15.05.2020
2978 Clouds 27 1015 78 10000 5.7 130 17:19 15.05.2020
2979 Rain 25 1015 88 10000 5.7 120 16:56 15.05.2020
2980 Rain 25 1015 88 10000 5.7 120 16:38 15.05.2020
2981 Rain 25 1015 88 10000 5.7 120 16:18 15.05.2020
2982 Clouds 24 1015 88 10000 4.6 120 15:41 15.05.2020
2983 Clouds 24 1015 88 10000 4.6 120 15:21 15.05.2020
2984 Clouds 23 1015 94 10000 4.6 110 14:58 15.05.2020
2985 Clouds 23 1015 94 10000 4.6 110 14:58 15.05.2020
2986 Clouds 23 1015 94 10000 4.6 110 14:40 15.05.2020
2987 Clouds 23 1015 94 10000 4.6 110 14:22 15.05.2020
2988 Clouds 23 1015 94 10000 3.1 110 13:42 15.05.2020
2989 Clouds 23 1015 94 10000 3.1 110 13:22 15.05.2020
2990 Rain 22 1015 100 3600 5.1 150 12:59 15.05.2020
2991 Rain 22 1015 100 3600 5.1 150 12:39 15.05.2020
2992 Rain 23 1015 94 10000 3.6 100 12:18 15.05.2020
2993 Rain 23 1015 94 10000 3.6 100 11:56 15.05.2020
2994 Rain 23 1015 94 10000 3.6 100 11:37 15.05.2020
2995 Rain 23 1015 94 10000 3.6 100 11:19 15.05.2020
2996 Rain 23 1015 94 10000 4.1 110 10:56 15.05.2020
2997 Rain 23 1015 94 10000 4.1 110 10:37 15.05.2020
2998 Rain 23 1015 94 10000 4.1 110 10:19 15.05.2020
2999 Clouds 24 1015 94 10000 4.6 100 09:40 15.05.2020
3000 Clouds 24 1015 94 10000 4.6 100 09:20 15.05.2020
3001 Clouds 24 1016 88 10000 6.2 100 08:58 15.05.2020
3002 Clouds 24 1016 88 10000 6.2 100 08:38 15.05.2020
3003 Clouds 24 1016 88 10000 6.2 100 08:19 15.05.2020
3004 Clouds 24 1017 88 10000 5.1 100 07:44 15.05.2020
3005 Clouds 24 1017 88 10000 5.1 100 07:25 15.05.2020
3006 Clouds 24 1017 88 10000 5.1 100 06:56 15.05.2020
3007 Rain 23 1018 94 10000 4.6 110 05:53 15.05.2020
3008 Rain 24 1018 88 10000 5.1 110 04:28 15.05.2020
3009 Rain 23 1017 94 10000 4.1 100 03:48 15.05.2020
3010 Rain 23 1017 94 10000 3.6 100 02:35 15.05.2020
3011 Rain 23 1017 94 10000 5.1 100 01:24 15.05.2020
3012 Rain 24 1017 88 10000 5.7 90 00:50 15.05.2020
3013 Rain 24 1017 88 10000 5.7 90 00:30 15.05.2020
3014 Rain 23 1017 94 10000 5.7 100 23:45 14.05.2020
3015 Rain 23 1017 94 10000 5.7 100 23:25 14.05.2020
3016 Rain 23 1018 94 10000 4.6 120 23:00 14.05.2020
3017 Rain 23 1018 94 10000 4.6 120 22:40 14.05.2020
3018 Rain 23 1018 94 10000 4.6 120 22:19 14.05.2020
3019 Rain 22 1018 94 4800 8.2 120 21:58 14.05.2020
3020 Rain 22 1018 94 4800 8.2 120 21:39 14.05.2020
3021 Rain 22 1018 94 4800 8.2 120 21:19 14.05.2020
3022 Rain 26 1018 74 10000 7.7 100 20:55 14.05.2020
3023 Rain 26 1018 74 10000 7.7 100 20:55 14.05.2020
3024 Rain 26 1018 74 10000 7.7 100 20:36 14.05.2020
3025 Rain 26 1018 74 10000 7.7 100 20:18 14.05.2020
3026 Rain 26 1019 78 10000 7.2 90 19:41 14.05.2020
3027 Rain 26 1019 78 10000 7.2 90 19:21 14.05.2020
3028 Rain 26 1019 74 10000 8.2 90 18:58 14.05.2020
3029 Rain 26 1019 74 10000 8.2 90 18:38 14.05.2020
3030 Rain 26 1019 74 10000 8.2 90 18:20 14.05.2020
3031 Rain 25 1019 80 0 12.73 78 17:59 14.05.2020
3032 Rain 25 1019 80 0 12.73 78 17:59 14.05.2020
3033 Rain 26 1019 74 10000 8.2 90 17:37 14.05.2020
3034 Rain 26 1019 74 10000 8.2 90 17:19 14.05.2020
3035 Rain 26 1019 74 10000 8.2 90 16:57 14.05.2020
3036 Rain 26 1019 74 10000 8.2 90 16:38 14.05.2020
3037 Rain 26 1019 74 10000 8.2 90 16:19 14.05.2020
3038 Rain 25 1019 78 10000 7.7 90 15:56 14.05.2020
3039 Rain 25 1019 78 10000 7.7 90 15:37 14.05.2020
3040 Rain 25 1019 78 10000 7.7 90 15:18 14.05.2020
3041 Clouds 25 1019 78 10000 7.2 90 14:40 14.05.2020
3042 Clouds 25 1019 78 10000 7.2 90 14:21 14.05.2020
3043 Clouds 25 1019 73 10000 7.7 90 13:59 14.05.2020
3044 Clouds 25 1019 73 10000 7.7 90 13:59 14.05.2020
3045 Clouds 25 1019 73 10000 7.7 90 13:59 14.05.2020
3046 Clouds 25 1019 73 10000 7.7 90 13:41 14.05.2020
3047 Clouds 25 1019 73 10000 7.7 90 13:20 14.05.2020
3048 Clouds 25 1018 73 10000 9.3 90 12:59 14.05.2020
3049 Clouds 25 1018 73 10000 9.3 90 12:39 14.05.2020
3050 Clouds 25 1018 73 10000 9.3 90 12:39 14.05.2020
3051 Clouds 25 1018 73 10000 9.3 90 12:20 14.05.2020
3052 Clouds 25 1019 78 10000 8.2 90 11:58 14.05.2020
3053 Clouds 25 1019 78 10000 8.2 90 11:39 14.05.2020
3054 Clouds 25 1019 78 10000 8.2 90 11:20 14.05.2020
3055 Clouds 25 1017 79 0 12.24 71 10:55 14.05.2020
3056 Clouds 25 1017 79 0 12.24 71 10:36 14.05.2020
3057 Clouds 25 1018 79 0 12 72 10:18 14.05.2020
3058 Clouds 25 1018 79 0 12 72 09:39 14.05.2020
3059 Clouds 25 1018 79 0 11.54 75 09:19 14.05.2020
3060 Clouds 25 1018 79 0 11.54 75 08:41 14.05.2020
3061 Clouds 25 1019 79 0 11.69 77 08:20 14.05.2020
3062 Clouds 25 1019 79 0 11.69 77 07:46 14.05.2020
3063 Clouds 25 1019 79 0 11.82 77 07:25 14.05.2020
3064 Clouds 25 1019 79 0 11.82 77 06:54 14.05.2020
3065 Clouds 25 1019 79 0 11.82 77 06:31 14.05.2020
3066 Clouds 25 1020 79 0 11.72 77 05:55 14.05.2020
3067 Clouds 25 1020 73 10000 7.7 90 05:29 14.05.2020
3068 Clouds 25 1020 73 10000 7.7 90 04:25 14.05.2020
3069 Clouds 25 1020 73 10000 7.7 90 03:23 14.05.2020
3070 Clouds 25 1020 73 10000 7.2 80 02:41 14.05.2020
3071 Clouds 25 1019 73 10000 7.7 90 01:56 14.05.2020
3072 Clouds 25 1019 73 10000 7.7 90 01:19 14.05.2020
3073 Clouds 25 1019 69 10000 8.2 90 00:43 14.05.2020
3074 Clouds 25 1019 69 10000 8.2 90 00:21 14.05.2020
3075 Clouds 25 1019 73 10000 8.2 90 23:40 13.05.2020
3076 Clouds 25 1019 73 10000 8.2 90 23:21 13.05.2020
3077 Clouds 26 1019 69 10000 8.2 90 22:42 13.05.2020
3078 Clouds 26 1019 69 10000 8.2 90 22:23 13.05.2020
3079 Clouds 26 1020 69 10000 9.8 90 21:59 13.05.2020
3080 Clouds 26 1020 69 10000 9.8 90 21:40 13.05.2020
3081 Clouds 26 1020 69 10000 9.8 90 21:20 13.05.2020
3082 Clouds 27 1020 65 10000 9.3 90 20:59 13.05.2020
3083 Clouds 27 1020 65 10000 9.3 90 20:40 13.05.2020
3084 Clouds 27 1020 65 10000 9.3 90 20:21 13.05.2020
3085 Clouds 27 1020 61 10000 9.8 90 19:43 13.05.2020
3086 Clouds 27 1020 61 10000 9.8 90 19:24 13.05.2020
3087 Clouds 26 1021 69 10000 8.2 90 18:55 13.05.2020
3088 Clouds 26 1021 69 10000 8.2 90 18:36 13.05.2020
3089 Clouds 26 1021 69 10000 8.2 90 18:18 13.05.2020
3090 Clouds 26 1021 69 10000 8.7 90 17:38 13.05.2020
3091 Clouds 26 1021 69 10000 8.7 90 17:19 13.05.2020
3092 Clouds 26 1021 65 10000 7.7 80 16:41 13.05.2020
3093 Clouds 26 1021 65 10000 7.7 80 16:20 13.05.2020
3094 Clouds 25 1020 69 10000 7.7 80 15:59 13.05.2020
3095 Clouds 25 1020 69 10000 7.7 80 15:41 13.05.2020
3096 Clouds 25 1020 69 10000 7.7 80 15:18 13.05.2020
3097 Clouds 25 1020 69 10000 6.2 80 14:55 13.05.2020
3098 Clouds 25 1020 69 10000 6.2 80 14:37 13.05.2020
3099 Clouds 25 1020 69 10000 6.2 80 14:19 13.05.2020
3100 Clouds 24 1020 69 10000 5.1 80 13:54 13.05.2020
3101 Clouds 24 1020 69 10000 5.1 80 13:36 13.05.2020
3102 Clouds 24 1020 69 10000 5.1 80 13:18 13.05.2020
3103 Clouds 24 1019 69 10000 5.1 80 12:42 13.05.2020
3104 Clouds 24 1019 69 10000 5.1 80 12:21 13.05.2020
3105 Clouds 24 1019 69 10000 5.7 80 11:56 13.05.2020
3106 Clouds 24 1019 69 10000 5.7 80 11:38 13.05.2020
3107 Clouds 24 1019 69 10000 5.7 80 11:20 13.05.2020
3108 Clouds 24 1019 69 10000 5.7 80 10:58 13.05.2020
3109 Clouds 24 1019 69 10000 5.7 80 10:38 13.05.2020
3110 Clouds 24 1019 69 10000 5.7 80 10:19 13.05.2020
3111 Clouds 24 1018 78 0 10.23 66 09:46 13.05.2020
3112 Clouds 24 1020 73 10000 4.6 90 09:24 13.05.2020
3113 Clouds 24 1020 73 10000 4.6 90 08:58 13.05.2020
3114 Clouds 24 1020 73 10000 4.6 90 08:39 13.05.2020
3115 Clouds 24 1020 73 10000 4.6 90 08:20 13.05.2020
3116 Clouds 24 1020 73 10000 5.7 90 07:51 13.05.2020
3117 Clouds 24 1021 73 10000 4.6 100 07:31 13.05.2020
3118 Clouds 24 1021 73 10000 4.6 100 06:52 13.05.2020
3119 Clouds 24 1021 73 10000 4.6 100 06:33 13.05.2020
3120 Clouds 25 1020 77 0 10.32 72 05:34 13.05.2020
3121 Clouds 25 1019 65 10000 5.7 90 03:37 13.05.2020
3122 Clouds 25 1019 65 10000 5.7 90 02:34 13.05.2020
3123 Clouds 26 1019 57 10000 6.7 80 01:45 13.05.2020
3124 Clouds 26 1019 57 10000 7.2 80 00:55 13.05.2020
3125 Clouds 26 1019 57 10000 7.2 80 00:22 13.05.2020
3126 Clouds 27 1019 57 10000 7.7 70 23:55 12.05.2020
3127 Clouds 27 1019 57 10000 7.7 70 23:36 12.05.2020
3128 Clouds 27 1019 57 10000 7.7 70 23:18 12.05.2020
3129 Clouds 27 1019 57 10000 8.7 80 22:42 12.05.2020
3130 Clouds 27 1019 57 10000 8.7 80 22:22 12.05.2020
3131 Clouds 27 1020 57 10000 9.3 70 21:56 12.05.2020
3132 Clouds 27 1020 57 10000 9.3 70 21:38 12.05.2020
3133 Clouds 27 1020 57 10000 9.3 70 21:19 12.05.2020
3134 Clouds 26 1020 65 10000 8.7 60 20:57 12.05.2020
3135 Clouds 26 1020 65 10000 8.7 60 20:39 12.05.2020
3136 Clouds 26 1020 65 10000 8.7 60 20:20 12.05.2020
3137 Clouds 27 1020 65 10000 9.3 60 19:56 12.05.2020
3138 Clouds 27 1020 65 10000 9.3 60 19:56 12.05.2020
3139 Clouds 27 1020 65 10000 9.3 60 19:56 12.05.2020
3140 Clouds 27 1020 65 10000 9.3 60 19:38 12.05.2020
3141 Clouds 27 1020 65 10000 9.3 60 19:20 12.05.2020
3142 Clouds 26 1020 65 10000 8.2 50 18:43 12.05.2020
3143 Clouds 26 1020 65 10000 8.2 50 18:24 12.05.2020
3144 Clouds 26 1020 69 10000 9.3 60 17:59 12.05.2020
3145 Clouds 26 1020 69 10000 9.3 60 17:41 12.05.2020
3146 Clouds 26 1020 69 10000 9.3 60 17:22 12.05.2020
3147 Clouds 25 1019 73 10000 7.7 60 16:47 12.05.2020
3148 Clouds 25 1019 73 10000 7.7 60 16:24 12.05.2020
3149 Clouds 25 1019 73 10000 6.7 50 15:56 12.05.2020
3150 Clouds 25 1019 73 10000 6.7 50 15:37 12.05.2020
3151 Clouds 25 1019 73 10000 6.7 50 15:18 12.05.2020
3152 Clouds 25 1019 73 10000 6.7 50 15:18 12.05.2020
3153 Clouds 24 1018 78 10000 6.7 60 14:55 12.05.2020
3154 Clouds 24 1018 78 10000 6.7 60 14:36 12.05.2020
3155 Clouds 24 1018 78 10000 6.7 60 14:18 12.05.2020
3156 Clouds 24 1017 73 10000 5.7 70 13:55 12.05.2020
3157 Clouds 24 1017 73 10000 5.7 70 13:37 12.05.2020
3158 Clouds 24 1017 73 10000 5.7 70 13:18 12.05.2020
3159 Clouds 24 1017 73 10000 5.1 70 12:57 12.05.2020
3160 Clouds 24 1017 73 10000 5.1 70 12:38 12.05.2020
3161 Clouds 24 1017 73 10000 5.1 70 12:20 12.05.2020
3162 Clouds 24 1017 73 10000 6.2 60 11:57 12.05.2020
3163 Clouds 24 1017 73 10000 6.2 60 11:37 12.05.2020
3164 Clouds 24 1017 73 10000 6.2 60 11:19 12.05.2020
3165 Clouds 24 1017 73 10000 5.7 60 10:55 12.05.2020
3166 Clouds 24 1017 73 10000 5.7 60 10:37 12.05.2020
3167 Clouds 24 1017 73 10000 5.7 60 10:18 12.05.2020
3168 Clouds 24 1017 73 10000 5.7 60 09:55 12.05.2020
3169 Clouds 24 1017 73 10000 5.7 60 09:37 12.05.2020
3170 Clouds 24 1017 73 10000 5.7 60 09:19 12.05.2020
3171 Clouds 24 1018 69 10000 5.7 60 08:39 12.05.2020
3172 Clouds 24 1018 69 10000 5.7 60 08:20 12.05.2020
3173 Clouds 24 1018 73 10000 6.7 50 07:44 12.05.2020
3174 Clouds 24 1018 73 10000 6.7 50 07:26 12.05.2020
3175 Clouds 25 1018 73 10000 6.7 60 06:55 12.05.2020
3176 Clouds 25 1018 73 10000 6.7 60 06:36 12.05.2020
3177 Clouds 25 1018 73 10000 6.7 60 06:18 12.05.2020
3178 Clouds 25 1018 78 10000 7.2 50 05:44 12.05.2020
3179 Clouds 25 1017 78 10000 5.1 40 03:48 12.05.2020
3180 Clouds 24 1016 83 10000 5.1 50 02:53 12.05.2020
3181 Clouds 24 1016 83 10000 5.1 50 02:26 12.05.2020
3182 Clouds 24 1016 88 10000 2.6 50 01:29 12.05.2020
3183 Clouds 24 1016 88 10000 3.6 20 00:37 12.05.2020
3184 Clouds 24 1016 88 10000 3.6 20 00:18 12.05.2020
3185 Clouds 24 1016 88 10000 2.6 250 23:42 11.05.2020
3186 Clouds 24 1016 88 10000 2.6 250 23:22 11.05.2020
3187 Rain 24 1016 94 10000 2.6 230 22:59 11.05.2020
3188 Rain 24 1016 94 10000 2.6 230 22:41 11.05.2020
3189 Rain 24 1016 94 10000 2.6 230 22:21 11.05.2020
3190 Rain 23 1017 94 10000 1 0 21:59 11.05.2020
3191 Rain 23 1017 94 10000 1 0 21:40 11.05.2020
3192 Rain 23 1017 94 10000 1 0 21:19 11.05.2020
3193 Rain 23 1017 94 6000 6.7 320 20:59 11.05.2020
3194 Rain 23 1017 94 6000 6.7 320 20:59 11.05.2020
3195 Rain 23 1017 94 6000 6.7 320 20:40 11.05.2020
3196 Rain 23 1017 94 6000 6.7 320 20:21 11.05.2020
3197 Rain 25 1016 94 5000 3.1 270 19:56 11.05.2020
3198 Rain 25 1016 94 5000 3.1 270 19:38 11.05.2020
3199 Rain 25 1016 94 5000 3.1 270 19:19 11.05.2020
3200 Clouds 27 1017 78 10000 3.6 150 18:55 11.05.2020
3201 Clouds 27 1017 78 10000 3.6 150 18:37 11.05.2020
3202 Clouds 27 1017 78 10000 3.6 150 18:18 11.05.2020
3203 Rain 26 1017 83 10000 2.6 140 17:55 11.05.2020
3204 Rain 26 1017 83 10000 2.6 140 17:36 11.05.2020
3205 Rain 26 1017 83 10000 2.6 140 17:36 11.05.2020
3206 Rain 26 1017 83 10000 2.6 140 17:18 11.05.2020
3207 Clouds 25 1016 88 10000 1.5 40 16:41 11.05.2020
3208 Clouds 25 1016 88 10000 1.5 40 16:22 11.05.2020
3209 Clouds 24 1016 94 10000 2.1 160 15:58 11.05.2020
3210 Clouds 24 1016 94 10000 2.1 160 15:39 11.05.2020
3211 Clouds 24 1016 94 10000 2.1 160 15:19 11.05.2020
3212 Clouds 24 1016 94 10000 2.1 160 15:19 11.05.2020
3213 Rain 24 1017 94 10000 7.06 204 14:54 11.05.2020
3214 Rain 24 1017 94 10000 7.06 204 14:36 11.05.2020
3215 Rain 24 1017 94 10000 7.06 204 14:36 11.05.2020
3216 Rain 24 1017 94 10000 8.49 195 14:18 11.05.2020
3217 Rain 23 1016 94 10000 1 0 13:41 11.05.2020
3218 Rain 23 1016 94 10000 1 0 13:19 11.05.2020
3219 Rain 23 1016 94 10000 2.6 150 12:58 11.05.2020
3220 Rain 23 1016 94 10000 2.6 150 12:40 11.05.2020
3221 Rain 23 1016 94 10000 2.6 150 12:21 11.05.2020
3222 Rain 23 1016 94 10000 3.17 132 11:56 11.05.2020
3223 Rain 23 1016 94 10000 3.17 132 11:37 11.05.2020
3224 Rain 23 1016 94 10000 2.66 109 11:19 11.05.2020
3225 Rain 23 1015 94 9000 2.1 240 10:55 11.05.2020
3226 Rain 23 1015 94 9000 2.1 240 10:36 11.05.2020
3227 Rain 23 1015 94 9000 2.1 240 10:36 11.05.2020
3228 Rain 23 1015 94 9000 2.1 240 10:18 11.05.2020
3229 Clouds 25 1015 83 10000 4.6 170 09:42 11.05.2020
3230 Clouds 25 1015 83 10000 4.6 170 09:22 11.05.2020
3231 Rain 24 1016 88 10000 2.1 120 08:58 11.05.2020
3232 Rain 24 1016 88 10000 2.1 120 08:58 11.05.2020
3233 Rain 24 1016 88 10000 2.1 120 08:38 11.05.2020
3234 Rain 24 1016 88 10000 2.1 120 08:18 11.05.2020
3235 Clouds 24 1016 88 10000 3.6 120 07:50 11.05.2020
3236 Clouds 24 1016 88 10000 3.6 120 07:31 11.05.2020
3237 Clouds 24 1016 88 10000 3.1 120 06:52 11.05.2020
3238 Clouds 24 1016 88 10000 3.1 120 06:18 11.05.2020
3239 Clouds 24 1017 88 10000 5.7 120 05:28 11.05.2020
3240 Clouds 24 1017 88 10000 5.1 110 04:35 11.05.2020
3241 Rain 23 1017 88 10000 5.1 110 03:33 11.05.2020
3242 Rain 23 1017 88 10000 5.7 90 02:33 11.05.2020
3243 Rain 23 1017 94 10000 5.7 80 01:46 11.05.2020
3244 Rain 23 1018 94 10000 6.2 60 00:53 11.05.2020
3245 Rain 23 1018 94 10000 6.2 60 00:21 11.05.2020
3246 Rain 23 1018 94 10000 6.7 50 23:44 10.05.2020
3247 Rain 23 1018 94 10000 6.7 50 23:26 10.05.2020
3248 Rain 23 1018 88 10000 5.1 50 22:57 10.05.2020
3249 Rain 23 1018 88 10000 5.1 50 22:38 10.05.2020
3250 Rain 23 1018 88 10000 5.1 50 22:20 10.05.2020
3251 Rain 23 1018 88 10000 6.2 50 21:44 10.05.2020
3252 Rain 23 1018 88 10000 6.2 50 21:44 10.05.2020
3253 Rain 23 1018 88 10000 6.2 50 21:20 10.05.2020
3254 Rain 23 1019 94 10000 5.7 60 20:55 10.05.2020
3255 Rain 23 1019 94 10000 5.7 60 20:37 10.05.2020
3256 Rain 23 1019 94 10000 5.7 60 20:19 10.05.2020
3257 Rain 23 1019 94 9000 6.2 60 19:40 10.05.2020
3258 Rain 23 1019 94 9000 6.2 60 19:22 10.05.2020
3259 Rain 23 1019 94 9000 5.1 70 18:57 10.05.2020
3260 Rain 23 1019 94 9000 5.1 70 18:57 10.05.2020
3261 Rain 23 1019 94 9000 5.1 70 18:37 10.05.2020
3262 Rain 23 1019 94 9000 5.1 70 18:19 10.05.2020
3263 Rain 23 1019 90 0 9.9 56 17:59 10.05.2020
3264 Rain 23 1019 90 0 9.9 56 17:40 10.05.2020
3265 Rain 23 1019 89 0 10.14 60 17:21 10.05.2020
3266 Rain 22 1019 94 10000 4.6 90 16:57 10.05.2020
3267 Rain 22 1019 94 10000 4.6 90 16:38 10.05.2020
3268 Rain 22 1019 94 10000 4.6 90 16:19 10.05.2020
3269 Rain 23 1019 94 2400 7.2 120 15:44 10.05.2020
3270 Rain 23 1019 94 2400 7.2 120 15:25 10.05.2020
3271 Clouds 25 1018 69 10000 6.2 110 14:58 10.05.2020
3272 Clouds 25 1018 69 10000 6.2 110 14:38 10.05.2020
3273 Clouds 25 1018 69 10000 6.2 110 14:20 10.05.2020
3274 Clouds 26 1018 61 10000 3.6 100 13:59 10.05.2020
3275 Clouds 26 1018 61 10000 3.6 100 13:38 10.05.2020
3276 Clouds 26 1018 61 10000 3.6 100 13:20 10.05.2020
3277 Clouds 25 1017 69 10000 5.7 120 12:57 10.05.2020
3278 Clouds 25 1017 69 10000 5.7 120 12:38 10.05.2020
3279 Clouds 25 1017 69 10000 5.7 120 12:20 10.05.2020
3280 Clouds 25 1017 73 10000 6.2 110 11:56 10.05.2020
3281 Clouds 25 1017 73 10000 6.2 110 11:38 10.05.2020
3282 Clouds 25 1017 73 10000 6.2 110 11:19 10.05.2020
3283 Clouds 26 1018 74 10000 4.1 100 10:46 10.05.2020
3284 Clouds 26 1018 74 10000 4.1 100 10:27 10.05.2020
3285 Clouds 25 1018 78 10000 4.6 100 09:57 10.05.2020
3286 Clouds 25 1018 78 10000 4.6 100 09:39 10.05.2020
3287 Clouds 25 1018 78 10000 4.6 100 09:20 10.05.2020
3288 Clouds 25 1018 83 10000 4.1 110 08:47 10.05.2020
3289 Clouds 25 1018 83 10000 4.1 110 08:23 10.05.2020
3290 Clouds 26 1019 83 10000 4.6 110 07:44 10.05.2020
3291 Clouds 26 1019 83 10000 4.6 110 07:20 10.05.2020
3292 Clouds 26 1019 78 10000 4.1 80 06:52 10.05.2020
3293 Clouds 26 1019 78 10000 4.1 80 06:30 10.05.2020
3294 Clouds 26 1019 74 10000 4.6 70 05:48 10.05.2020
3295 Rain 27 1019 65 10000 3.6 60 04:49 10.05.2020
3296 Rain 27 1019 65 10000 3.6 60 04:29 10.05.2020
3297 Rain 27 1018 65 10000 3.1 70 03:52 10.05.2020
3298 Rain 27 1018 65 10000 3.1 70 03:30 10.05.2020
3299 Clouds 27 1017 65 10000 3.1 80 02:25 10.05.2020
3300 Clouds 27 1017 69 10000 4.1 50 01:59 10.05.2020
3301 Clouds 27 1017 69 10000 4.1 50 01:59 10.05.2020
3302 Clouds 27 1017 69 10000 4.1 50 01:40 10.05.2020
3303 Clouds 27 1017 69 10000 4.1 50 01:19 10.05.2020
3304 Clouds 28 1016 69 10000 4.6 60 00:53 10.05.2020
3305 Clouds 28 1016 69 10000 4.6 60 00:22 10.05.2020
3306 Rain 27 1017 74 10000 3.6 60 23:40 09.05.2020
3307 Rain 27 1017 74 10000 3.6 60 23:22 09.05.2020
3308 Clouds 26 1017 83 10000 4.1 70 22:59 09.05.2020
3309 Clouds 26 1017 83 10000 4.1 70 22:41 09.05.2020
3310 Clouds 26 1017 83 10000 4.1 70 22:22 09.05.2020
3311 Rain 27 1018 83 10000 4.6 60 21:57 09.05.2020
3312 Rain 27 1018 83 10000 4.6 60 21:39 09.05.2020
3313 Rain 27 1018 83 10000 4.6 60 21:20 09.05.2020
3314 Rain 28 1018 69 10000 5.1 50 20:56 09.05.2020
3315 Rain 28 1018 69 10000 5.1 50 20:38 09.05.2020
3316 Rain 28 1018 69 10000 5.1 50 20:19 09.05.2020
3317 Rain 28 1018 69 10000 3.6 50 19:40 09.05.2020
3318 Rain 28 1018 69 10000 3.6 50 19:21 09.05.2020
3319 Rain 28 1018 69 10000 3.6 20 18:58 09.05.2020
3320 Rain 28 1018 69 10000 3.6 20 18:40 09.05.2020
3321 Rain 28 1018 69 10000 3.6 20 18:21 09.05.2020
3322 Clouds 26 1018 75 0 3.77 111 17:44 09.05.2020
3323 Rain 27 1018 74 10000 3.1 170 17:23 09.05.2020
3324 Rain 27 1018 74 10000 3.1 170 16:55 09.05.2020
3325 Rain 27 1018 74 10000 3.1 170 16:37 09.05.2020
3326 Rain 27 1018 74 10000 3.1 170 16:18 09.05.2020
3327 Clouds 27 1018 74 10000 3.6 120 15:41 09.05.2020
3328 Clouds 27 1018 74 10000 3.6 120 15:21 09.05.2020
3329 Clouds 26 1018 78 10000 2.6 130 14:43 09.05.2020
3330 Clouds 26 1018 78 10000 2.6 130 14:20 09.05.2020
3331 Clouds 22 1017 94 10000 1 0 13:59 09.05.2020
3332 Clouds 22 1017 94 10000 1 0 13:41 09.05.2020
3333 Clouds 22 1017 94 10000 1 0 13:21 09.05.2020
3334 Clouds 25 1017 83 10000 1.5 120 12:57 09.05.2020
3335 Clouds 25 1017 83 10000 1.5 120 12:57 09.05.2020
3336 Clouds 25 1017 83 10000 1.5 120 12:39 09.05.2020
3337 Clouds 25 1017 83 10000 1.5 120 12:21 09.05.2020
3338 Clouds 24 1016 88 10000 2.1 100 11:43 09.05.2020
3339 Clouds 24 1016 88 10000 2.1 100 11:20 09.05.2020
3340 Clouds 26 1016 69 0 3.43 79 10:48 09.05.2020
3341 Clouds 26 1016 70 0 3.53 76 10:27 09.05.2020
3342 Clouds 26 1016 70 0 3.53 76 09:59 09.05.2020
3343 Clouds 26 1016 70 0 3.53 76 09:40 09.05.2020
3344 Clouds 24 1018 83 10000 1 0 09:19 09.05.2020
3345 Clouds 24 1018 83 10000 1 0 08:52 09.05.2020
3346 Clouds 24 1018 83 10000 1 0 08:33 09.05.2020
3347 Clouds 24 1018 83 10000 1 0 08:33 09.05.2020
3348 Clouds 24 1018 83 10000 1 0 07:55 09.05.2020
3349 Clouds 24 1018 78 10000 1.5 70 07:36 09.05.2020
3350 Clouds 24 1018 78 10000 1.5 70 07:18 09.05.2020
3351 Clouds 25 1018 73 10000 2.6 140 06:26 09.05.2020
3352 Clouds 25 1018 73 10000 2.6 140 05:49 09.05.2020
3353 Clouds 25 1018 73 10000 2.6 140 04:53 09.05.2020
3354 Clouds 25 1017 69 10000 2.6 160 03:39 09.05.2020
3355 Clouds 25 1017 69 10000 4.1 140 02:50 09.05.2020
3356 Clouds 26 1016 61 10000 4.6 140 01:54 09.05.2020
3357 Clouds 26 1016 61 10000 4.6 140 01:26 09.05.2020
3358 Clouds 27 1016 57 10000 5.1 150 00:59 09.05.2020
3359 Clouds 27 1016 57 10000 5.1 150 00:38 09.05.2020
3360 Clouds 27 1016 57 10000 5.7 150 23:57 08.05.2020
3361 Clouds 27 1016 57 10000 5.7 150 23:39 08.05.2020
3362 Clouds 27 1016 57 10000 5.7 150 23:19 08.05.2020
3363 Clouds 28 1017 51 10000 5.7 150 22:54 08.05.2020
3364 Clouds 28 1017 51 10000 5.7 150 22:36 08.05.2020
3365 Clouds 28 1017 51 10000 5.7 150 22:18 08.05.2020
3366 Clouds 28 1017 48 10000 5.1 170 21:42 08.05.2020
3367 Clouds 28 1017 48 10000 5.1 170 21:19 08.05.2020
3368 Clouds 28 1017 48 10000 5.1 170 21:19 08.05.2020
3369 -273 0 0 0 0 0 20:59 08.05.2020
3370 Clouds 28 1018 48 10000 5.7 140 20:41 08.05.2020
3371 Clouds 28 1018 48 10000 5.7 140 20:23 08.05.2020
3372 Clouds 27 1018 47 10000 6.2 140 19:46 08.05.2020
3373 Clouds 27 1018 47 10000 6.2 140 19:24 08.05.2020
3374 Clear 27 1019 47 10000 6.2 140 18:58 08.05.2020
3375 Clear 27 1019 47 10000 6.2 140 18:58 08.05.2020
3376 Clear 27 1019 47 10000 6.2 140 18:40 08.05.2020
3377 Clear 27 1019 47 10000 6.2 140 18:22 08.05.2020
3378 Clear 26 1019 50 10000 4.6 120 17:42 08.05.2020
3379 Clear 26 1019 50 10000 4.6 120 17:19 08.05.2020
3380 Clouds 25 1019 50 10000 5.1 80 16:48 08.05.2020
3381 Clouds 25 1019 50 10000 5.1 80 16:27 08.05.2020
3382 Clouds 25 1019 50 10000 4.6 110 15:59 08.05.2020
3383 Clouds 25 1019 50 10000 4.6 110 15:41 08.05.2020
3384 Clouds 25 1019 50 10000 4.6 110 15:18 08.05.2020
3385 Clouds 24 1019 57 10000 5.1 90 14:54 08.05.2020
3386 Clouds 24 1019 57 10000 5.1 90 14:36 08.05.2020
3387 Clouds 24 1019 57 10000 5.1 90 14:18 08.05.2020
3388 Clouds 23 1018 56 10000 2.6 80 13:41 08.05.2020
3389 Clouds 23 1018 56 10000 2.6 80 13:20 08.05.2020
3390 Clouds 23 1018 60 10000 2.6 70 12:54 08.05.2020
3391 Clouds 23 1018 60 10000 2.6 70 12:36 08.05.2020
3392 Clouds 23 1018 60 10000 2.6 70 12:36 08.05.2020
3393 Clouds 23 1018 60 10000 2.6 70 12:18 08.05.2020
3394 Clouds 23 1018 53 10000 3.1 70 11:43 08.05.2020
3395 Clouds 23 1018 53 10000 3.1 70 11:22 08.05.2020
3396 Clouds 23 1018 60 10000 4.6 40 10:58 08.05.2020
3397 Clouds 23 1018 60 10000 4.6 40 10:39 08.05.2020
3398 Clouds 23 1018 60 10000 3.6 40 10:18 08.05.2020
3399 Clouds 23 1018 60 10000 3.6 40 09:42 08.05.2020
3400 Clouds 23 1018 60 10000 3.6 40 09:20 08.05.2020
3401 Clouds 24 1018 57 10000 4.6 40 08:58 08.05.2020
3402 Clouds 24 1018 57 10000 4.6 40 08:39 08.05.2020
3403 Clouds 24 1018 57 10000 4.6 40 08:20 08.05.2020
3404 Clouds 24 1019 57 10000 4.1 40 07:39 08.05.2020
3405 Clouds 24 1019 57 10000 4.1 40 07:19 08.05.2020
3406 Clouds 25 1019 57 10000 4.1 30 06:42 08.05.2020
3407 Clouds 25 1019 57 10000 4.1 30 06:20 08.05.2020
3408 Clouds 25 1019 61 10000 5.7 20 05:32 08.05.2020
3409 Clouds 25 1017 65 10000 4.6 30 03:23 08.05.2020
3410 Clouds 26 1016 69 10000 5.7 10 02:29 08.05.2020
3411 Clouds 26 1016 69 10000 5.7 10 01:40 08.05.2020
3412 Clouds 26 1016 69 10000 5.7 10 01:20 08.05.2020
3413 Clouds 28 1015 61 10000 6.2 20 00:47 08.05.2020
3414 Clouds 28 1015 61 10000 6.2 20 00:27 08.05.2020
3415 Clouds 28 1015 58 10000 5.1 20 23:56 07.05.2020
3416 Clouds 28 1015 58 10000 5.1 20 23:37 07.05.2020
3417 Clouds 28 1015 58 10000 5.1 20 23:19 07.05.2020
3418 Clouds 28 1015 58 10000 6.7 360 22:41 07.05.2020
3419 Clouds 28 1015 58 10000 6.7 360 22:20 07.05.2020
3420 Clouds 29 1015 54 10000 5.7 360 21:57 07.05.2020
3421 Clouds 29 1015 54 10000 5.7 360 21:57 07.05.2020
3422 Clouds 29 1015 54 10000 5.7 360 21:38 07.05.2020
3423 Clouds 29 1015 54 10000 5.7 360 21:38 07.05.2020
3424 Clouds 29 1015 54 10000 5.7 360 21:20 07.05.2020
3425 Clouds 29 1015 58 10000 6.2 340 20:57 07.05.2020
3426 Clouds 29 1015 58 10000 6.2 340 20:37 07.05.2020
3427 Clouds 29 1015 58 10000 6.2 340 20:19 07.05.2020
3428 Clouds 29 1016 66 10000 6.7 340 19:46 07.05.2020
3429 Clouds 29 1016 66 10000 6.7 340 19:22 07.05.2020
3430 Clouds 29 1016 66 10000 6.2 340 18:55 07.05.2020
3431 Clouds 29 1016 66 10000 6.2 340 18:36 07.05.2020
3432 Clouds 29 1016 66 10000 6.2 340 18:36 07.05.2020
3433 Clouds 29 1016 66 10000 6.2 340 18:18 07.05.2020
3434 Clouds 29 1015 66 10000 6.7 320 17:41 07.05.2020
3435 Clouds 29 1015 66 10000 6.7 320 17:20 07.05.2020
3436 Clouds 28 1015 65 10000 5.7 330 16:42 07.05.2020
3437 Clouds 28 1015 65 10000 5.7 330 16:19 07.05.2020
3438 Clouds 28 1015 65 10000 5.7 330 16:19 07.05.2020
3439 Clouds 28 1015 61 10000 4.6 310 15:57 07.05.2020
3440 Clouds 28 1015 61 10000 4.6 310 15:37 07.05.2020
3441 Clouds 28 1015 61 10000 4.6 310 15:18 07.05.2020
3442 Clouds 28 1015 61 10000 4.6 310 15:18 07.05.2020
3443 Clouds 27 1014 69 10000 6.2 330 14:55 07.05.2020
3444 Clouds 27 1014 69 10000 6.2 330 14:37 07.05.2020
3445 Clouds 27 1014 69 10000 6.2 330 14:18 07.05.2020
3446 Rain 26 1014 69 10000 5.1 310 13:40 07.05.2020
3447 Rain 26 1014 69 10000 5.1 310 13:21 07.05.2020
3448 Clouds 26 1013 74 10000 6.2 300 12:41 07.05.2020
3449 Clouds 26 1013 74 10000 6.2 300 12:20 07.05.2020
3450 Clouds 25 1013 88 10000 2.6 250 11:39 07.05.2020
3451 Clouds 25 1013 88 10000 2.6 250 11:21 07.05.2020
3452 Thunderstorm 25 1013 88 10000 2.6 250 10:57 07.05.2020
3453 Thunderstorm 25 1013 88 10000 2.6 250 10:38 07.05.2020
3454 Thunderstorm 25 1013 88 10000 2.6 250 10:18 07.05.2020
3455 Clouds 25 1013 88 10000 1 0 09:39 07.05.2020
3456 Thunderstorm 25 1014 88 10000 1.5 250 09:19 07.05.2020
3457 Thunderstorm 25 1014 88 10000 1.5 250 08:46 07.05.2020
3458 Thunderstorm 25 1014 88 10000 1.5 250 08:24 07.05.2020
3459 Clouds 25 1015 88 10000 1.5 260 07:59 07.05.2020
3460 Clouds 25 1015 88 10000 1.5 260 07:41 07.05.2020
3461 Clouds 25 1015 88 10000 1.5 260 07:20 07.05.2020
3462 Clouds 25 1015 88 10000 1 0 06:38 07.05.2020
3463 Clouds 25 1015 88 10000 1 0 06:19 07.05.2020
3464 Clouds 27 1014 83 10000 1 0 04:41 07.05.2020
3465 Thunderstorm 26 1014 83 10000 1 0 03:40 07.05.2020
3466 Thunderstorm 26 1014 83 10000 1 0 03:18 07.05.2020
3467 Clouds 27 1013 78 10000 1.5 190 02:35 07.05.2020
3468 Clouds 28 1013 69 10000 0.5 0 01:37 07.05.2020
3469 Clouds 28 1013 69 10000 0.5 0 01:19 07.05.2020
3470 Rain 26 1013 78 10000 2.6 320 00:42 07.05.2020
3471 Rain 26 1013 78 10000 2.6 320 00:21 07.05.2020
3472 Clouds 28 1013 74 10000 5.7 190 23:44 06.05.2020
3473 Clouds 29 1013 70 10000 5.7 190 23:22 06.05.2020
3474 Clouds 29 1013 70 10000 5.7 190 22:55 06.05.2020
3475 Clouds 29 1013 70 10000 5.7 190 22:37 06.05.2020
3476 Clouds 29 1014 66 10000 5.1 190 22:18 06.05.2020
3477 Clouds 29 1014 66 10000 5.1 190 21:43 06.05.2020
3478 Clouds 29 1014 66 10000 5.1 190 21:23 06.05.2020
3479 Clouds 27 1014 74 0 5.2 150 20:58 06.05.2020
3480 Clouds 27 1014 74 0 5.2 150 20:39 06.05.2020
3481 Clouds 30 1015 58 10000 4.6 200 20:21 06.05.2020
3482 Clouds 30 1015 58 10000 4.6 200 19:56 06.05.2020
3483 Clouds 30 1015 58 10000 4.6 200 19:38 06.05.2020
3484 Clouds 30 1015 58 10000 4.6 200 19:18 06.05.2020
3485 Clouds 29 1016 66 10000 4.6 220 18:55 06.05.2020
3486 Clouds 29 1016 66 10000 4.6 220 18:37 06.05.2020
3487 Clouds 29 1016 66 10000 4.6 220 18:18 06.05.2020
3488 Clouds 28 1016 69 10000 4.6 220 17:54 06.05.2020
3489 Clouds 28 1016 69 10000 4.6 220 17:36 06.05.2020
3490 Clouds 28 1016 69 10000 4.6 220 17:18 06.05.2020
3491 Clouds 28 1016 69 10000 5.1 190 16:57 06.05.2020
3492 Clouds 28 1016 69 10000 5.1 190 16:39 06.05.2020
3493 Clouds 28 1016 69 10000 5.1 190 16:39 06.05.2020
3494 Clouds 28 1016 69 10000 5.1 190 16:19 06.05.2020
3495 Clouds 27 1016 74 10000 4.6 200 15:45 06.05.2020
3496 Clouds 27 1016 74 10000 4.6 200 15:22 06.05.2020
3497 Clouds 26 1016 78 10000 2.6 200 14:56 06.05.2020
3498 Clouds 26 1016 78 10000 2.6 200 14:38 06.05.2020
3499 Clouds 26 1016 78 10000 2.6 200 14:19 06.05.2020
3500 Clouds 23 1016 83 10000 1.5 200 13:57 06.05.2020
3501 Clouds 23 1016 83 10000 1.5 200 13:37 06.05.2020
3502 Clouds 23 1016 83 10000 1.5 200 13:18 06.05.2020
3503 Clouds 23 1015 83 10000 1.5 200 12:42 06.05.2020
3504 Clouds 23 1015 83 10000 1.5 200 12:24 06.05.2020
3505 Clouds 23 1015 83 10000 1.5 190 11:41 06.05.2020
3506 Clouds 23 1015 83 10000 1.5 190 11:22 06.05.2020
3507 Clouds 23 1015 83 10000 2.1 160 10:58 06.05.2020
3508 Clouds 23 1015 83 10000 2.1 160 10:39 06.05.2020
3509 Clouds 23 1015 83 10000 2.1 160 10:19 06.05.2020
3510 Clouds 23 1015 83 10000 2.1 160 09:45 06.05.2020
3511 Clouds 23 1015 83 10000 2.1 160 09:26 06.05.2020
3512 Clouds 24 1016 83 10000 2.6 140 08:55 06.05.2020
3513 Clouds 24 1016 83 10000 2.6 140 08:36 06.05.2020
3514 Clouds 24 1016 83 10000 2.6 140 08:18 06.05.2020
3515 Clouds 23 1016 88 10000 2.1 160 07:40 06.05.2020
3516 Clouds 24 1017 83 10000 2.1 150 07:21 06.05.2020
3517 Clouds 24 1017 83 10000 2.1 150 06:58 06.05.2020
3518 Clouds 24 1017 83 10000 2.1 150 06:40 06.05.2020
3519 Clouds 24 1017 83 10000 2.1 150 06:19 06.05.2020
3520 Clouds 24 1017 83 10000 2.1 140 05:37 06.05.2020
3521 Clouds 25 1017 78 10000 2.1 160 04:41 06.05.2020
3522 Clear 26 1016 70 0 4.18 120 03:47 06.05.2020
3523 Clouds 26 1015 69 10000 3.6 160 03:22 06.05.2020
3524 Clouds 26 1015 69 10000 3.6 160 02:31 06.05.2020
3525 Clouds 27 1015 65 10000 3.6 170 01:57 06.05.2020
3526 Clouds 27 1015 65 10000 3.6 170 01:34 06.05.2020
3527 Clouds 27 1015 61 10000 3.6 150 00:55 06.05.2020
3528 Clouds 27 1015 61 10000 3.6 150 00:31 06.05.2020
3529 Clouds 28 1014 58 10000 4.1 150 23:57 05.05.2020
3530 Clouds 28 1014 58 10000 4.1 150 23:39 05.05.2020
3531 Clouds 28 1014 58 10000 4.1 150 23:19 05.05.2020
3532 Clouds 28 1014 58 10000 4.1 150 23:19 05.05.2020
3533 Clouds 28 1015 61 10000 2.6 360 22:42 05.05.2020
3534 Clouds 28 1015 61 10000 2.6 360 22:20 05.05.2020
3535 Clouds 28 1015 61 10000 2.6 360 22:20 05.05.2020
3536 Clouds 28 1016 61 10000 1 0 21:58 05.05.2020
3537 Clouds 28 1016 61 10000 1 0 21:39 05.05.2020
3538 Clouds 28 1016 61 10000 1 0 21:21 05.05.2020
3539 Clouds 29 1017 54 10000 3.1 180 20:58 05.05.2020
3540 Clouds 29 1017 54 10000 3.1 180 20:39 05.05.2020
3541 Clouds 29 1017 54 10000 3.1 180 20:18 05.05.2020
3542 Clouds 28 1017 58 10000 4.1 80 19:54 05.05.2020
3543 Clouds 28 1017 58 10000 4.1 80 19:36 05.05.2020
3544 Clouds 28 1017 58 10000 4.1 80 19:18 05.05.2020
3545 Clouds 28 1018 58 10000 4.6 60 18:42 05.05.2020
3546 Clouds 28 1018 58 10000 4.6 60 18:20 05.05.2020
3547 Clouds 27 1017 61 10000 2.1 110 17:59 05.05.2020
3548 Clouds 27 1017 61 10000 2.1 110 17:41 05.05.2020
3549 Clouds 27 1017 61 10000 2.1 110 17:23 05.05.2020
3550 Clouds 27 1017 61 10000 2.1 100 16:56 05.05.2020
3551 Clouds 27 1017 61 10000 2.1 100 16:36 05.05.2020
3552 Clouds 27 1017 61 10000 2.1 100 16:18 05.05.2020
3553 Clouds 26 1017 65 10000 2.1 130 15:41 05.05.2020
3554 Clouds 26 1017 65 10000 2.1 130 15:22 05.05.2020
3555 Clouds 25 1017 69 10000 1.5 90 14:58 05.05.2020
3556 Clouds 25 1017 69 10000 1.5 90 14:39 05.05.2020
3557 Clouds 25 1017 69 10000 1.5 90 14:20 05.05.2020
3558 Clouds 20 1016 94 10000 0.5 0 13:58 05.05.2020
3559 Clouds 20 1016 94 10000 0.5 0 13:39 05.05.2020
3560 Clouds 20 1016 94 10000 0.5 0 13:20 05.05.2020
3561 Clouds 20 1015 88 10000 1 0 12:58 05.05.2020
3562 Clouds 20 1015 88 10000 1 0 12:38 05.05.2020
3563 Clouds 20 1015 88 10000 1 0 12:38 05.05.2020
3564 Clouds 20 1015 88 10000 1 0 12:19 05.05.2020
3565 Clear 20 1015 88 10000 0.5 0 11:42 05.05.2020
3566 Clear 20 1015 88 10000 0.5 0 11:42 05.05.2020
3567 Clear 20 1015 88 10000 0.5 0 11:20 05.05.2020
3568 Clear 20 1015 88 10000 0.5 0 11:20 05.05.2020
3569 Clouds 21 1015 83 10000 1 120 10:59 05.05.2020
3570 Clouds 21 1015 83 10000 1 120 10:38 05.05.2020
3571 Clouds 21 1015 83 10000 1 120 10:19 05.05.2020
3572 Clear 21 1016 83 10000 1 110 09:55 05.05.2020
3573 Clear 21 1016 83 10000 1 110 09:37 05.05.2020
3574 Clouds 22 1016 83 10000 2.1 90 09:19 05.05.2020
3575 Clouds 22 1016 83 10000 2.1 90 08:41 05.05.2020
3576 Clouds 22 1016 83 10000 2.1 90 08:19 05.05.2020
3577 Clear 22 1017 83 10000 1 0 07:56 05.05.2020
3578 Clear 22 1017 83 10000 1 0 07:38 05.05.2020
3579 Clear 22 1017 83 10000 1 0 07:18 05.05.2020
3580 Clear 23 1017 83 10000 2.1 90 06:40 05.05.2020
3581 Clear 23 1017 83 10000 2.1 90 06:20 05.05.2020
3582 Clear 22 1017 83 10000 1 110 05:30 05.05.2020
3583 Clouds 25 1017 65 10000 2.6 100 03:19 05.05.2020
3584 Clouds 26 1016 61 10000 4.1 80 01:23 05.05.2020
3585 Clouds 26 1016 61 10000 5.1 60 00:49 05.05.2020
3586 Clouds 26 1016 61 10000 5.1 60 00:18 05.05.2020
3587 Clouds 27 1016 61 10000 4.1 80 23:42 04.05.2020
3588 Clouds 27 1016 61 10000 4.1 80 23:21 04.05.2020
3589 Clouds 27 1016 61 10000 3.6 60 22:55 04.05.2020
3590 Clouds 27 1016 61 10000 3.6 60 22:37 04.05.2020
3591 Clouds 27 1017 61 10000 4.1 60 22:18 04.05.2020
3592 Clouds 27 1017 61 10000 4.1 60 21:52 04.05.2020
3593 Clouds 27 1017 61 10000 4.1 60 21:52 04.05.2020
3594 Clouds 27 1017 61 10000 4.1 60 21:52 04.05.2020
3595 Clouds 27 1017 61 10000 4.1 60 21:52 04.05.2020
3596 Clouds 27 1017 61 10000 4.1 60 21:52 04.05.2020
3597 Clouds 27 1017 61 10000 4.1 60 21:26 04.05.2020
3598 Clouds 27 1017 61 10000 4.1 60 21:26 04.05.2020
3599 Clouds 27 1017 61 10000 4.1 60 21:26 04.05.2020
3600 Clouds 27 1017 61 10000 4.1 60 21:26 04.05.2020
3601 Clouds 27 1017 61 10000 4.1 60 21:26 04.05.2020
3602 Clear 25 1017 62 0 3.35 67 20:43 04.05.2020
3603 Clear 25 1017 62 0 3.35 67 20:43 04.05.2020
3604 Clear 25 1017 62 0 3.35 67 20:43 04.05.2020
3605 Rain 26 1018 61 10000 5.7 40 20:21 04.05.2020
3606 Rain 26 1018 61 10000 5.7 40 19:59 04.05.2020
3607 Rain 26 1018 61 10000 5.7 40 19:59 04.05.2020
3608 Rain 26 1018 61 10000 5.7 40 19:40 04.05.2020
3609 Rain 26 1018 61 10000 5.7 40 19:19 04.05.2020
3610 Rain 27 1017 57 10000 2.6 110 18:54 04.05.2020
3611 Rain 27 1017 57 10000 2.6 110 18:36 04.05.2020
3612 Rain 27 1017 57 10000 2.6 110 18:18 04.05.2020
3613 Clouds 26 1018 61 10000 4.1 60 17:41 04.05.2020
3614 Clouds 26 1018 61 10000 4.1 60 17:21 04.05.2020
3615 Rain 26 1018 65 10000 3.6 80 16:59 04.05.2020
3616 Rain 26 1018 65 10000 3.6 80 16:41 04.05.2020
3617 Rain 26 1018 65 10000 3.6 80 16:20 04.05.2020
3618 Clouds 25 1017 65 10000 3.6 100 15:43 04.05.2020
3619 Clouds 25 1017 65 10000 3.6 100 15:24 04.05.2020
3620 Clouds 25 1017 65 10000 2.1 90 14:54 04.05.2020
3621 Clouds 25 1017 65 10000 2.1 90 14:54 04.05.2020
3622 Clouds 25 1017 65 10000 2.1 90 14:54 04.05.2020
3623 Clouds 25 1017 65 10000 2.1 90 14:54 04.05.2020
3624 Clouds 25 1017 65 10000 2.1 90 14:31 04.05.2020
3625 Clouds 25 1017 65 10000 2.1 90 14:31 04.05.2020
3626 Clouds 25 1017 65 10000 2.1 90 14:31 04.05.2020
3627 Clouds 25 1017 65 10000 2.1 90 14:31 04.05.2020
3628 Clouds 25 1017 65 10000 2.1 90 14:31 04.05.2020
3629 Clouds 23 1017 73 10000 2.1 90 13:40 04.05.2020
3630 Clouds 23 1017 73 10000 2.1 90 13:40 04.05.2020
3631 Clouds 23 1017 73 10000 2.1 90 13:40 04.05.2020
3632 Clouds 23 1017 73 10000 2.1 90 13:40 04.05.2020
3633 Clouds 23 1017 73 10000 2.1 90 13:40 04.05.2020
3634 Clouds 23 1016 73 10000 2.1 70 12:44 04.05.2020
3635 Clouds 23 1016 73 10000 2.1 70 12:44 04.05.2020
3636 Clouds 23 1016 73 10000 2.1 70 12:44 04.05.2020
3637 Clouds 23 1016 73 10000 2.1 70 12:44 04.05.2020
3638 Clouds 23 1016 73 10000 2.1 70 12:44 04.05.2020
3639 Clouds 24 1015 64 0 4.01 86 11:29 04.05.2020
3640 Clouds 24 1015 64 0 4.01 86 11:29 04.05.2020
3641 Clouds 24 1015 64 0 4.01 86 11:29 04.05.2020
3642 Clouds 23 1017 69 10000 1.5 90 09:32 04.05.2020
3643 Clouds 23 1018 69 10000 1.5 80 07:58 04.05.2020
3644 Clouds 23 1018 69 10000 1.5 80 07:38 04.05.2020
3645 Clouds 23 1018 73 10000 1.5 80 06:26 04.05.2020
3646 Clouds 24 1018 69 10000 3.1 90 06:26 04.05.2020
3647 Clouds 24 1018 69 10000 3.6 90 04:53 04.05.2020
3648 Clouds 24 1018 69 10000 3.1 90 03:18 04.05.2020
3649 Clouds 24 1018 69 10000 4.6 80 02:29 04.05.2020
3650 Clouds 26 1017 61 10000 5.7 60 00:33 04.05.2020
3651 Clouds 26 1017 61 10000 5.7 60 00:31 04.05.2020
3652 Clouds 26 1017 61 10000 5.7 60 00:31 04.05.2020
3653 Clouds 26 1017 61 10000 5.7 60 00:31 04.05.2020
3654 Clouds 27 1017 61 10000 6.7 60 23:45 03.05.2020
3655 Clouds 27 1017 61 10000 6.7 60 23:24 03.05.2020
3656 Clouds 26 1018 61 10000 6.2 60 22:44 03.05.2020
3657 Clouds 26 1018 61 10000 6.2 60 22:25 03.05.2020
3658 Clouds 26 1018 61 10000 6.2 60 22:25 03.05.2020
3659 Clouds 28 1018 54 10000 4.6 70 21:56 03.05.2020
3660 Clouds 28 1018 54 10000 4.6 70 21:38 03.05.2020
3661 Clouds 28 1018 54 10000 4.6 70 21:20 03.05.2020
3662 Clouds 27 1019 54 10000 4.1 80 20:43 03.05.2020
3663 Clouds 27 1019 54 10000 4.1 80 20:43 03.05.2020
3664 Clouds 27 1019 54 10000 4.1 80 20:21 03.05.2020
3665 Clouds 27 1019 54 10000 6.2 70 19:49 03.05.2020
3666 Clouds 27 1019 54 10000 6.2 70 19:49 03.05.2020
3667 Clouds 27 1019 54 10000 6.2 70 19:49 03.05.2020
3668 Clouds 27 1019 54 10000 6.2 70 19:31 03.05.2020
3669 Clouds 27 1020 54 10000 4.6 100 18:58 03.05.2020
3670 Clouds 27 1020 54 10000 4.6 100 18:38 03.05.2020
3671 Clouds 27 1020 54 10000 4.6 100 18:38 03.05.2020
3672 Clouds 27 1020 54 10000 4.6 100 18:38 03.05.2020
3673 Clouds 27 1020 54 10000 4.6 100 18:38 03.05.2020
3674 Clouds 27 1020 54 10000 4.6 100 18:38 03.05.2020
3675 Clouds 27 1020 47 10000 4.6 80 18:19 03.05.2020
3676 Clouds 27 1020 47 10000 4.6 80 17:41 03.05.2020
3677 Clouds 27 1020 47 10000 4.6 80 17:21 03.05.2020
3678 Clouds 26 1020 50 10000 5.1 80 16:45 03.05.2020
3679 Clouds 26 1020 50 10000 5.1 80 16:21 03.05.2020
3680 Clouds 25 1020 57 10000 5.1 80 15:59 03.05.2020
3681 Clouds 25 1020 57 10000 5.1 80 15:40 03.05.2020
3682 Clouds 25 1020 57 10000 5.1 80 15:20 03.05.2020
3683 Clouds 24 1020 60 10000 3.6 80 14:58 03.05.2020
3684 Clouds 24 1020 60 10000 3.6 80 14:40 03.05.2020
3685 Clouds 24 1020 60 10000 3.6 80 14:21 03.05.2020
3686 Clouds 24 1020 60 10000 3.6 80 14:21 03.05.2020
3687 Clouds 23 1019 64 10000 2.1 100 13:51 03.05.2020
3688 Clouds 23 1019 64 10000 2.1 100 13:51 03.05.2020
3689 Clouds 23 1019 64 10000 2.1 100 13:51 03.05.2020
3690 Clouds 23 1019 64 10000 2.1 100 13:51 03.05.2020
3691 Clouds 23 1019 64 10000 2.1 100 13:51 03.05.2020
3692 Clouds 23 1019 64 10000 2.1 100 13:18 03.05.2020
3693 Clouds 23 1019 64 10000 2.1 100 13:18 03.05.2020
3694 Clouds 22 1019 68 10000 1.5 90 12:43 03.05.2020
3695 Clouds 22 1019 68 10000 1.5 90 12:18 03.05.2020
3696 Clouds 23 1019 64 10000 2.1 100 11:55 03.05.2020
3697 Clouds 23 1019 64 10000 2.1 100 11:55 03.05.2020
3698 Clouds 23 1019 64 10000 2.1 100 11:55 03.05.2020
3699 Clouds 23 1019 64 10000 2.1 100 11:37 03.05.2020
3700 Clouds 23 1019 64 10000 2.1 100 11:18 03.05.2020
3701 Clouds 23 1019 64 10000 1.5 90 10:46 03.05.2020
3702 Clouds 23 1019 64 10000 1.5 90 10:46 03.05.2020
3703 Clouds 23 1019 64 10000 1.5 90 10:46 03.05.2020
3704 Clouds 23 1019 64 10000 1.5 90 10:46 03.05.2020
3705 Clouds 23 1019 64 10000 1.5 90 10:46 03.05.2020
3706 Clouds 23 1019 64 10000 2.6 100 09:57 03.05.2020
3707 Clouds 23 1019 64 10000 2.6 100 09:57 03.05.2020
3708 Clouds 23 1019 64 10000 2.6 100 09:57 03.05.2020
3709 Clouds 23 1019 64 10000 2.6 100 09:57 03.05.2020
3710 Clouds 23 1019 64 10000 2.6 100 09:57 03.05.2020
3711 Clouds 23 1019 64 10000 2.6 100 09:32 03.05.2020
3712 Clouds 23 1019 64 10000 2.6 100 09:32 03.05.2020
3713 Clouds 23 1019 64 10000 2.6 100 09:32 03.05.2020
3714 Clouds 23 1019 64 10000 2.6 100 09:32 03.05.2020
3715 Clouds 24 1020 60 10000 3.6 100 08:55 03.05.2020
3716 Clouds 24 1020 60 10000 3.6 100 08:55 03.05.2020
3717 Clouds 24 1020 60 10000 3.6 100 08:55 03.05.2020
3718 Clouds 24 1020 60 10000 3.6 100 08:55 03.05.2020
3719 Clouds 24 1020 60 10000 3.6 100 08:55 03.05.2020
3720 Clouds 24 1020 60 10000 3.6 100 08:25 03.05.2020
3721 Clouds 24 1020 60 10000 3.1 90 08:25 03.05.2020
3722 Clouds 24 1020 60 10000 3.6 100 08:25 03.05.2020
3723 Clouds 24 1020 60 10000 3.6 100 08:24 03.05.2020
3724 Clouds 24 1020 60 10000 3.1 90 07:39 03.05.2020
3725 Clouds 24 1021 60 10000 3.1 80 06:19 03.05.2020
3726 Clouds 24 1021 60 10000 3.6 60 05:46 03.05.2020
3727 Clouds 24 1021 60 10000 4.1 70 04:31 03.05.2020
3728 Clouds 25 1020 61 10000 3.6 70 03:59 03.05.2020
3729 Clouds 25 1020 61 10000 4.6 70 02:53 03.05.2020
3730 Clouds 25 1020 61 10000 4.6 70 02:22 03.05.2020
3731 Clouds 26 1019 57 10000 4.6 60 01:42 03.05.2020
3732 Clouds 26 1019 57 10000 4.6 60 01:24 03.05.2020
3733 Clouds 26 1019 57 10000 5.1 50 00:41 03.05.2020
3734 Clouds 26 1019 57 10000 5.1 50 00:21 03.05.2020
3735 Clouds 26 1019 57 10000 5.1 50 00:21 03.05.2020
3736 Clouds 26 1019 61 10000 6.2 50 23:56 02.05.2020
3737 Clouds 26 1019 61 10000 6.2 50 23:38 02.05.2020
3738 Clouds 26 1019 61 10000 6.2 50 23:19 02.05.2020
3739 Clouds 26 1019 61 10000 6.2 50 22:42 02.05.2020
3740 Clouds 26 1019 61 10000 6.2 50 22:23 02.05.2020
3741 Clouds 26 1020 61 10000 6.2 60 21:56 02.05.2020
3742 Clouds 26 1020 61 10000 6.2 60 21:37 02.05.2020
3743 Clouds 26 1020 61 10000 6.2 60 21:18 02.05.2020
3744 Clouds 26 1020 61 10000 5.7 50 20:55 02.05.2020
3745 Clouds 26 1020 61 10000 5.7 50 20:37 02.05.2020
3746 Clouds 26 1020 61 10000 5.7 50 20:18 02.05.2020
3747 Clouds 26 1021 61 10000 5.7 40 19:55 02.05.2020
3748 Clouds 26 1021 61 10000 5.7 40 19:36 02.05.2020
3749 Clouds 26 1021 61 10000 5.7 40 19:18 02.05.2020
3750 Clouds 26 1021 61 10000 5.7 40 18:40 02.05.2020
3751 Clouds 26 1021 61 10000 5.7 40 18:21 02.05.2020
3752 Clouds 26 1021 61 10000 5.7 40 17:57 02.05.2020
3753 Clouds 26 1021 61 10000 5.7 40 17:39 02.05.2020
3754 Clouds 26 1021 61 10000 5.7 40 17:20 02.05.2020
3755 Clouds 26 1021 61 10000 6.2 30 16:57 02.05.2020
3756 Clouds 26 1021 61 10000 6.2 30 16:38 02.05.2020
3757 Clouds 26 1021 61 10000 6.2 30 16:20 02.05.2020
3758 Clouds 26 1020 65 10000 6.2 30 15:42 02.05.2020
3759 Clouds 26 1020 65 10000 6.2 30 15:20 02.05.2020
3760 Clouds 25 1020 69 10000 5.1 30 14:45 02.05.2020
3761 Clouds 25 1020 69 10000 5.1 30 14:27 02.05.2020
3762 Clouds 24 1019 73 10000 3.6 40 13:59 02.05.2020
3763 Clouds 24 1019 73 10000 3.6 40 13:39 02.05.2020
3764 Clouds 24 1019 73 10000 3.6 40 13:19 02.05.2020
3765 Clouds 24 1019 73 10000 3.6 40 12:41 02.05.2020
3766 Clouds 24 1019 73 10000 3.6 40 12:22 02.05.2020
3767 Clouds 24 1018 73 10000 3.6 40 11:57 02.05.2020
3768 Clouds 24 1018 73 10000 3.6 40 11:39 02.05.2020
3769 Clouds 24 1018 73 10000 3.6 40 11:20 02.05.2020
3770 Clouds 24 1017 79 0 7.03 24 10:41 02.05.2020
3771 Clouds 25 1018 69 10000 2.6 40 10:41 02.05.2020
3772 Clouds 25 1018 69 10000 2.6 40 10:22 02.05.2020
3773 Clouds 25 1018 69 10000 2.6 40 09:59 02.05.2020
3774 Clouds 25 1018 69 10000 2.6 40 09:41 02.05.2020
3775 Clouds 25 1018 69 10000 2.6 40 09:23 02.05.2020
3776 Clouds 25 1018 73 10000 1.5 30 08:57 02.05.2020
3777 Clouds 25 1018 73 10000 1.5 30 08:38 02.05.2020
3778 Clouds 25 1018 73 10000 1.5 30 08:19 02.05.2020
3779 Clouds 25 1018 73 10000 2.1 30 07:45 02.05.2020
3780 Clouds 25 1018 73 10000 2.1 30 07:27 02.05.2020
3781 Clouds 25 1018 73 10000 2.1 30 07:27 02.05.2020
3782 Clouds 25 1018 73 10000 2.6 360 06:43 02.05.2020
3783 Clouds 25 1018 73 10000 1.5 360 05:28 02.05.2020
3784 Clouds 25 1018 78 10000 2.1 20 04:31 02.05.2020
3785 Clouds 26 1018 74 10000 2.1 20 03:56 02.05.2020
3786 Clouds 26 1017 74 10000 2.6 360 02:42 02.05.2020
3787 Clouds 26 1016 74 10000 3.1 20 01:58 02.05.2020
3788 Clouds 26 1016 74 10000 3.1 20 01:27 02.05.2020
3789 Clouds 27 1016 69 10000 3.6 10 00:43 02.05.2020
3790 Clouds 27 1016 69 10000 3.6 10 00:22 02.05.2020
3791 Clouds 27 1016 74 10000 4.1 20 23:55 01.05.2020
3792 Clouds 27 1016 74 10000 4.1 20 23:37 01.05.2020
3793 Clouds 27 1016 74 10000 4.1 20 23:18 01.05.2020
3794 Clouds 27 1016 69 10000 4.6 10 22:39 01.05.2020
3795 Clouds 27 1016 69 10000 4.6 10 22:19 01.05.2020
3796 Clouds 28 1016 65 10000 5.1 10 21:57 01.05.2020
3797 Clouds 28 1016 65 10000 5.1 10 21:39 01.05.2020
3798 Clouds 28 1016 65 10000 5.1 10 21:20 01.05.2020
3799 Clouds 28 1017 69 10000 5.7 10 20:57 01.05.2020
3800 Clouds 28 1017 69 10000 5.7 10 20:38 01.05.2020
3801 Clouds 28 1017 69 10000 5.7 10 20:19 01.05.2020
3802 Clouds 28 1017 69 10000 5.1 20 19:55 01.05.2020
3803 Clouds 28 1017 69 10000 5.1 20 19:37 01.05.2020
3804 Clouds 28 1017 69 10000 5.1 20 19:19 01.05.2020
3805 Clouds 28 1017 69 10000 5.7 360 18:54 01.05.2020
3806 Clouds 28 1017 69 10000 5.7 360 18:36 01.05.2020
3807 Clouds 28 1017 69 10000 5.7 360 18:18 01.05.2020
3808 Clouds 27 1017 78 10000 4.6 330 17:39 01.05.2020
3809 Clouds 27 1017 78 10000 4.6 330 17:39 01.05.2020
3810 Clouds 27 1017 78 10000 4.6 330 17:21 01.05.2020
3811 Clouds 27 1017 78 10000 3.6 290 16:57 01.05.2020
3812 Clouds 27 1017 78 10000 3.6 290 16:38 01.05.2020
3813 Clouds 27 1017 78 10000 3.6 290 16:20 01.05.2020
3814 Clouds 27 1016 78 10000 3.1 280 15:55 01.05.2020
3815 Clouds 27 1016 78 10000 3.1 280 15:37 01.05.2020
3816 Clouds 27 1016 78 10000 3.1 280 15:18 01.05.2020
3817 Clouds 26 1016 78 10000 3.1 310 14:42 01.05.2020
3818 Clouds 26 1016 78 10000 3.1 310 14:23 01.05.2020
3819 Clouds 25 1015 83 10000 2.1 280 13:42 01.05.2020
3820 Clouds 25 1015 83 10000 2.1 280 13:23 01.05.2020
3821 Clouds 25 1015 83 10000 2.6 300 12:58 01.05.2020
3822 Clouds 25 1015 83 10000 2.6 300 12:40 01.05.2020
3823 Clouds 25 1015 83 10000 2.6 300 12:20 01.05.2020
3824 Thunderstorm 25 1014 88 10000 3.6 300 11:59 01.05.2020
3825 Thunderstorm 25 1014 88 10000 3.6 300 11:40 01.05.2020
3826 Thunderstorm 25 1014 88 10000 3.6 300 11:19 01.05.2020
3827 Thunderstorm 25 1014 88 10000 1.5 260 10:41 01.05.2020
3828 Thunderstorm 25 1014 88 10000 1.5 260 10:20 01.05.2020
3829 Clouds 24 1014 94 10000 2.1 240 09:59 01.05.2020
3830 Clouds 24 1014 94 10000 2.1 240 09:41 01.05.2020
3831 Clouds 24 1014 94 10000 2.1 240 09:18 01.05.2020
3832 Clouds 24 1014 94 10000 2.1 240 09:18 01.05.2020
3833 Clouds 25 1014 88 10000 1 0 08:43 01.05.2020
3834 Clouds 25 1014 88 10000 1 0 08:25 01.05.2020
3835 Rain 27 1014 80 0 6.41 180 07:55 01.05.2020
3836 Clouds 25 1015 78 10000 2.6 230 07:36 01.05.2020
3837 Clouds 25 1015 78 10000 2.6 230 06:58 01.05.2020
3838 Thunderstorm 25 1015 83 10000 3.6 190 05:41 01.05.2020
3839 Thunderstorm 25 1015 83 10000 3.6 190 05:19 01.05.2020
3840 Thunderstorm 26 1015 78 10000 7.13 166 03:41 01.05.2020
3841 Clouds 25 1014 73 10000 1 0 02:49 01.05.2020
3842 Clouds 25 1014 73 10000 1 0 02:30 01.05.2020
3843 Clouds 26 1013 74 10000 3.1 220 01:37 01.05.2020
3844 Clouds 26 1013 74 10000 3.1 220 01:18 01.05.2020
3845 Clouds 27 1013 61 10000 5.1 210 00:38 01.05.2020
3846 Rain 27 1013 83 10000 4.6 210 00:20 01.05.2020
3847 Rain 27 1013 83 10000 4.6 210 23:57 30.04.2020
3848 Rain 27 1013 83 10000 4.6 210 23:38 30.04.2020
3849 Rain 27 1013 83 10000 4.6 210 23:19 30.04.2020
3850 Thunderstorm 27 1014 78 10000 5.1 200 22:41 30.04.2020
3851 Thunderstorm 27 1014 78 10000 5.1 200 22:21 30.04.2020
3852 Rain 27 1014 83 10000 5.1 190 21:57 30.04.2020
3853 Rain 27 1014 83 10000 5.1 190 21:38 30.04.2020
3854 Rain 27 1014 83 10000 5.1 190 21:19 30.04.2020
3855 Rain 29 1015 70 10000 7.2 190 20:54 30.04.2020
3856 Rain 29 1015 70 10000 7.2 190 20:36 30.04.2020
3857 Rain 29 1015 70 10000 7.2 190 20:18 30.04.2020
3858 Rain 29 1016 70 10000 7.7 190 19:42 30.04.2020
3859 Rain 29 1016 70 10000 7.7 190 19:24 30.04.2020
3860 Rain 28 1016 69 10000 8.2 190 18:56 30.04.2020
3861 Rain 28 1016 69 10000 8.2 190 18:37 30.04.2020
3862 Rain 28 1016 69 10000 8.2 190 18:19 30.04.2020
3863 Rain 28 1016 69 10000 7.2 180 17:56 30.04.2020
3864 Rain 28 1016 69 10000 7.2 180 17:37 30.04.2020
3865 Rain 28 1016 69 10000 7.2 180 17:19 30.04.2020
3866 Rain 28 1016 74 10000 6.7 190 16:54 30.04.2020
3867 Rain 28 1016 74 10000 6.7 190 16:36 30.04.2020
3868 Rain 28 1016 74 10000 6.7 190 16:36 30.04.2020
3869 Rain 28 1016 74 10000 6.7 190 16:18 30.04.2020
3870 Rain 27 1016 74 10000 5.7 180 15:43 30.04.2020
3871 Rain 27 1016 74 10000 5.7 180 15:21 30.04.2020
3872 Clouds 26 1016 83 10000 5.1 160 14:42 30.04.2020
3873 Clouds 26 1016 83 10000 5.1 160 14:21 30.04.2020
3874 Rain 24 1016 88 10000 4.1 170 13:58 30.04.2020
3875 Rain 24 1016 88 10000 4.1 170 13:40 30.04.2020
3876 Clouds 26 1015 83 10000 4.1 160 13:21 30.04.2020
3877 Clouds 26 1015 83 10000 4.1 160 12:58 30.04.2020
3878 Clouds 26 1015 83 10000 4.1 160 12:39 30.04.2020
3879 Clouds 26 1015 83 10000 4.1 160 12:18 30.04.2020
3880 Rain 26 1015 83 10000 5.1 160 11:38 30.04.2020
3881 Rain 26 1015 83 10000 5.1 160 11:18 30.04.2020
3882 Clouds 25 1016 88 10000 4.1 150 10:56 30.04.2020
3883 Clouds 25 1016 88 10000 4.1 150 10:38 30.04.2020
3884 Clouds 25 1016 88 10000 4.1 150 10:18 30.04.2020
3885 Clouds 25 1016 83 10000 4.6 140 09:44 30.04.2020
3886 Clouds 25 1016 83 10000 4.6 140 09:23 30.04.2020
3887 Clouds 25 1017 83 10000 3.6 150 08:54 30.04.2020
3888 Clouds 25 1017 83 10000 3.6 150 08:36 30.04.2020
3889 Clouds 25 1017 83 10000 3.6 150 08:18 30.04.2020
3890 Clouds 25 1017 83 10000 4.1 130 07:42 30.04.2020
3891 Clouds 25 1017 83 10000 4.1 130 07:23 30.04.2020
3892 Clouds 25 1017 83 10000 5.1 120 06:40 30.04.2020
3893 Clouds 25 1018 83 10000 5.7 120 05:49 30.04.2020
3894 Clouds 25 1018 83 10000 5.7 120 05:27 30.04.2020
3895 Clouds 26 1017 78 10000 5.7 120 04:30 30.04.2020
3896 Clouds 26 1016 78 10000 6.2 120 02:59 30.04.2020
3897 Clouds 26 1016 78 10000 6.2 120 02:29 30.04.2020
3898 Clouds 26 1016 78 10000 7.7 120 01:56 30.04.2020
3899 Clouds 26 1016 78 10000 7.7 120 01:20 30.04.2020
3900 Clouds 29 1016 66 10000 6.2 130 00:37 30.04.2020
3901 Clouds 29 1016 66 10000 6.2 130 00:18 30.04.2020
3902 Clouds 29 1016 66 10000 6.2 130 23:42 29.04.2020
3903 Clouds 29 1016 66 10000 6.2 130 23:24 29.04.2020
3904 Clouds 28 1016 69 10000 7.7 120 22:59 29.04.2020
3905 Clouds 28 1016 69 10000 7.7 120 22:39 29.04.2020
3906 Clouds 28 1016 69 10000 7.7 120 22:20 29.04.2020
3907 Clouds 28 1017 65 10000 6.7 130 21:39 29.04.2020
3908 Clouds 28 1017 65 10000 6.7 130 21:21 29.04.2020
3909 Rain 29 1018 62 10000 7.2 130 20:59 29.04.2020
3910 -273 0 0 0 0 0 20:59 29.04.2020
3911 Rain 29 1018 62 10000 7.2 130 20:40 29.04.2020
3912 Rain 29 1018 62 10000 7.2 130 20:19 29.04.2020
3913 Clouds 29 1018 62 10000 7.2 110 19:57 29.04.2020
3914 Clouds 29 1018 62 10000 7.2 110 19:39 29.04.2020
3915 Clouds 29 1018 62 10000 7.2 110 19:18 29.04.2020
3916 Clouds 27 1019 69 10000 5.7 110 18:42 29.04.2020
3917 Clouds 27 1019 69 10000 5.7 110 18:21 29.04.2020
3918 Rain 27 1019 65 10000 6.2 120 17:56 29.04.2020
3919 Rain 27 1019 65 10000 6.2 120 17:37 29.04.2020
3920 Rain 27 1019 65 10000 6.2 120 17:19 29.04.2020
3921 Clouds 27 1019 65 10000 5.1 130 16:37 29.04.2020
3922 Clouds 27 1019 65 10000 5.1 130 16:19 29.04.2020
3923 Clouds 26 1019 69 10000 5.7 120 15:57 29.04.2020
3924 Clouds 26 1019 69 10000 5.7 120 15:39 29.04.2020
3925 Clouds 26 1019 69 10000 5.7 120 15:20 29.04.2020
3926 Clouds 25 1019 73 10000 3.6 120 14:46 29.04.2020
3927 Clouds 25 1019 73 10000 3.6 120 14:27 29.04.2020
3928 Clouds 24 1018 73 10000 2.6 100 13:59 29.04.2020
3929 Clouds 24 1018 73 10000 2.6 100 13:59 29.04.2020
3930 Clouds 24 1018 73 10000 2.6 100 13:40 29.04.2020
3931 Clouds 24 1018 73 10000 2.6 100 13:20 29.04.2020
3932 Clouds 24 1018 73 10000 3.1 120 12:56 29.04.2020
3933 Clouds 24 1018 73 10000 3.1 120 12:38 29.04.2020
3934 Clouds 24 1018 73 10000 3.1 120 12:18 29.04.2020
3935 Clouds 24 1018 73 10000 4.6 90 11:39 29.04.2020
3936 Clouds 24 1018 73 10000 4.6 90 11:20 29.04.2020
3937 Clouds 24 1018 73 10000 4.6 90 10:55 29.04.2020
3938 Clouds 24 1017 81 0 8.57 82 10:37 29.04.2020
3939 Clouds 24 1017 80 0 8.56 73 10:18 29.04.2020
3940 Clouds 24 1017 80 0 8.56 73 09:41 29.04.2020
3941 Clouds 24 1019 73 10000 5.1 90 09:22 29.04.2020
3942 Clouds 24 1019 73 10000 5.1 90 08:44 29.04.2020
3943 Clouds 24 1019 73 10000 5.1 90 08:26 29.04.2020
3944 Clouds 24 1019 73 10000 5.1 90 08:26 29.04.2020
3945 Clouds 24 1020 73 10000 4.1 80 07:56 29.04.2020
3946 Clouds 24 1020 73 10000 4.1 80 07:37 29.04.2020
3947 Clouds 24 1020 73 10000 4.1 80 07:18 29.04.2020
3948 Clouds 25 1020 69 10000 4.1 90 06:45 29.04.2020
3949 Clouds 25 1020 69 10000 4.1 90 06:26 29.04.2020
3950 Clouds 25 1020 69 10000 5.7 90 05:20 29.04.2020
3951 Clouds 24 1020 73 10000 5.1 90 04:20 29.04.2020
3952 Clouds 24 1020 73 10000 5.1 90 03:54 29.04.2020
3953 Clouds 25 1020 69 10000 5.1 90 02:30 29.04.2020
3954 Clouds 25 1019 69 10000 6.7 90 01:37 29.04.2020
3955 Clouds 25 1019 69 10000 6.7 90 01:19 29.04.2020
3956 Clouds 26 1019 65 10000 6.7 70 00:38 29.04.2020
3957 Clouds 26 1019 65 10000 6.7 70 00:18 29.04.2020
3958 Clouds 27 1019 61 10000 7.2 70 23:45 28.04.2020
3959 Clouds 27 1019 61 10000 7.2 70 23:21 28.04.2020
3960 Clouds 27 1020 61 10000 5.7 70 22:40 28.04.2020
3961 Clouds 27 1020 61 10000 5.7 70 22:22 28.04.2020
3962 Clouds 27 1020 57 10000 6.2 90 21:59 28.04.2020
3963 Clouds 27 1020 57 10000 6.2 90 21:40 28.04.2020
3964 Clouds 27 1020 57 10000 6.2 90 21:22 28.04.2020
3965 Clouds 27 1020 57 10000 6.7 80 20:59 28.04.2020
3966 Clouds 27 1020 57 10000 6.7 80 20:40 28.04.2020
3967 Clouds 27 1020 57 10000 6.7 80 20:20 28.04.2020
3968 Clouds 27 1020 57 10000 6.7 80 19:56 28.04.2020
3969 Clouds 27 1020 57 10000 6.7 80 19:38 28.04.2020
3970 Clouds 27 1020 57 10000 6.7 80 19:19 28.04.2020
3971 Clouds 27 1020 57 10000 6.7 80 19:19 28.04.2020
3972 Clouds 26 1021 61 10000 6.7 70 18:55 28.04.2020
3973 Clouds 26 1021 61 10000 6.7 70 18:37 28.04.2020
3974 Clouds 26 1021 61 10000 6.7 70 18:37 28.04.2020
3975 Clouds 26 1021 61 10000 6.7 70 18:18 28.04.2020
3976 Clouds 25 1021 61 10000 6.7 80 17:37 28.04.2020
3977 Clouds 25 1021 61 10000 6.7 80 17:19 28.04.2020
3978 Clouds 25 1021 61 10000 6.7 80 17:19 28.04.2020
3979 Clouds 25 1021 57 10000 5.1 70 16:57 28.04.2020
3980 Clouds 25 1021 57 10000 5.1 70 16:38 28.04.2020
3981 Clouds 25 1021 57 10000 5.1 70 16:20 28.04.2020
3982 Clouds 25 1021 57 10000 5.1 70 15:55 28.04.2020
3983 Clouds 25 1021 57 10000 5.1 70 15:37 28.04.2020
3984 Clouds 25 1021 57 10000 5.1 70 15:18 28.04.2020
3985 Clouds 24 1020 64 10000 4.6 60 14:43 28.04.2020
3986 Clouds 24 1020 64 10000 4.6 60 14:43 28.04.2020
3987 Clouds 24 1020 64 10000 4.6 60 14:22 28.04.2020
3988 Clouds 24 1020 64 10000 4.1 60 13:59 28.04.2020
3989 Clouds 24 1020 64 10000 4.1 60 13:40 28.04.2020
3990 Clouds 24 1020 64 10000 4.1 60 13:21 28.04.2020
3991 Clouds 24 1019 64 10000 3.6 50 12:58 28.04.2020
3992 Clouds 24 1019 64 10000 3.6 50 12:58 28.04.2020
3993 Clouds 24 1019 64 10000 3.6 50 12:38 28.04.2020
3994 Clouds 24 1019 64 10000 3.6 50 12:20 28.04.2020
3995 Clouds 24 1019 69 10000 4.6 60 11:42 28.04.2020
3996 Clouds 24 1019 69 10000 4.6 60 11:21 28.04.2020
3997 Clouds 24 1019 69 10000 4.6 50 10:56 28.04.2020
3998 Clouds 24 1019 69 10000 4.6 50 10:37 28.04.2020
3999 Clouds 24 1019 69 10000 4.6 50 10:18 28.04.2020
4000 Clouds 24 1019 73 10000 5.1 40 09:42 28.04.2020
4001 Clouds 24 1019 73 10000 5.1 40 09:42 28.04.2020
4002 Clouds 24 1019 73 10000 5.1 40 09:24 28.04.2020
4003 Clouds 24 1019 78 10000 5.1 40 08:50 28.04.2020
4004 Clouds 24 1019 78 10000 5.1 40 08:30 28.04.2020
4005 Clouds 24 1019 78 10000 5.1 40 08:30 28.04.2020
4006 Clouds 25 1020 73 10000 5.7 60 07:59 28.04.2020
4007 Clouds 25 1020 73 10000 5.7 60 07:40 28.04.2020
4008 Clouds 25 1020 73 10000 5.7 60 07:18 28.04.2020
4009 Clouds 25 1020 73 10000 4.6 50 06:31 28.04.2020
4010 Clouds 26 1020 69 10000 4.1 50 05:47 28.04.2020
4011 Clouds 26 1020 69 10000 4.1 50 05:29 28.04.2020
4012 Clouds 26 1020 69 10000 4.1 30 04:33 28.04.2020
4013 Clouds 26 1019 69 10000 4.6 20 02:37 28.04.2020
4014 Clouds 27 1018 69 10000 5.1 20 01:25 28.04.2020
4015 Clouds 27 1018 69 10000 5.1 20 01:25 28.04.2020
4016 Clouds 27 1018 69 10000 5.1 10 00:59 28.04.2020
4017 Clouds 27 1018 69 10000 5.1 10 00:27 28.04.2020
4018 Clouds 28 1018 69 10000 5.1 10 23:48 27.04.2020
4019 Clouds 28 1018 69 10000 5.1 10 23:25 27.04.2020
4020 Clouds 28 1018 69 10000 5.1 10 22:57 27.04.2020
4021 Clouds 28 1018 69 10000 5.1 10 22:38 27.04.2020
4022 Clouds 28 1018 69 10000 5.1 10 22:20 27.04.2020
4023 Clouds 28 1018 74 10000 4.6 20 21:56 27.04.2020
4024 Clouds 28 1018 74 10000 4.6 20 21:38 27.04.2020
4025 Clouds 28 1018 74 10000 4.6 20 21:18 27.04.2020
4026 Clouds 28 1018 70 10000 4.6 350 20:44 27.04.2020
4027 Clouds 28 1018 70 10000 4.6 350 20:22 27.04.2020
4028 Clouds 28 1018 70 10000 4.6 350 20:22 27.04.2020
4029 Clouds 28 1018 70 10000 4.6 350 20:22 27.04.2020
4030 Clouds 28 1019 62 10000 3.6 320 19:59 27.04.2020
4031 Clouds 28 1019 62 10000 3.6 320 19:39 27.04.2020
4032 Clouds 28 1019 62 10000 3.6 320 19:21 27.04.2020
4033 Clouds 29 1019 58 10000 3.6 330 18:58 27.04.2020
4034 Clouds 29 1019 58 10000 3.6 330 18:58 27.04.2020
4035 Clouds 29 1019 58 10000 3.6 330 18:40 27.04.2020
4036 Clouds 29 1019 58 10000 3.6 330 18:19 27.04.2020
4037 Clouds 29 1019 55 10000 4.1 340 17:44 27.04.2020
4038 Clouds 29 1019 55 10000 4.1 340 17:24 27.04.2020
4039 Clouds 29 1019 62 10000 3.1 350 17:00 27.04.2020
4040 Clouds 29 1019 62 10000 3.1 350 16:40 27.04.2020
4041 Clouds 29 1019 62 10000 3.1 350 16:21 27.04.2020
4042 Clouds 28 1019 69 10000 2.6 350 15:56 27.04.2020
4043 Clouds 28 1019 69 10000 2.6 350 15:38 27.04.2020
4044 Clouds 28 1019 69 10000 2.6 350 15:18 27.04.2020
4045 Clouds 26 1018 88 10000 1.5 350 14:42 27.04.2020
4046 Clouds 26 1018 88 10000 1.5 350 14:23 27.04.2020
4047 Clouds 25 1018 94 10000 2.99 214 13:59 27.04.2020
4048 Clouds 25 1018 94 10000 2.99 214 13:59 27.04.2020
4049 Clouds 24 1018 94 10000 2.99 214 13:41 27.04.2020
4050 Clouds 23 1018 94 10000 2.99 214 13:20 27.04.2020
4051 Rain 23 1017 94 10000 1 0 12:56 27.04.2020
4052 Rain 23 1017 94 10000 1 0 12:38 27.04.2020
4053 Rain 23 1017 94 10000 1 0 12:19 27.04.2020
4054 Rain 23 1017 94 10000 1.5 350 11:41 27.04.2020
4055 Rain 24 1017 94 10000 1.5 350 11:19 27.04.2020
4056 Clouds 25 1016 88 10000 3.52 196 10:56 27.04.2020
4057 Clouds 25 1016 88 10000 3.52 196 10:38 27.04.2020
4058 Clouds 25 1016 88 10000 3.52 196 10:19 27.04.2020
4059 Clouds 25 1016 78 10000 2.1 150 09:43 27.04.2020
4060 Clouds 25 1016 78 10000 2.1 150 09:18 27.04.2020
4061 Clouds 25 1017 78 10000 3.6 150 08:53 27.04.2020
4062 Clouds 26 1017 78 10000 3.6 150 08:34 27.04.2020
4063 Clouds 25 1018 78 10000 2.6 150 07:58 27.04.2020
4064 Clouds 25 1018 78 10000 2.6 150 07:40 27.04.2020
4065 Clouds 25 1018 78 10000 2.6 150 07:19 27.04.2020
4066 Clouds 26 1017 75 0 0.45 139 06:40 27.04.2020
4067 Clouds 26 1018 65 10000 4.6 100 06:21 27.04.2020
4068 Clouds 26 1018 65 10000 4.6 100 05:48 27.04.2020
4069 Clouds 25 1019 69 10000 6.2 50 04:41 27.04.2020
4070 Clouds 25 1020 78 10000 6.2 50 03:49 27.04.2020
4071 Rain 23 1020 78 10000 9.3 360 02:40 27.04.2020
4072 Rain 23 1019 83 10000 15.9 340 01:22 27.04.2020
4073 Clouds 28 1017 74 10000 3.6 190 00:45 27.04.2020
4074 Clouds 28 1017 74 10000 3.6 190 00:19 27.04.2020
4075 Clouds 29 1017 70 10000 5.1 190 23:55 26.04.2020
4076 Clouds 29 1017 70 10000 5.1 190 23:37 26.04.2020
4077 Clouds 29 1017 70 10000 5.1 190 23:18 26.04.2020
4078 Clouds 30 1017 62 10000 5.7 190 22:54 26.04.2020
4079 Clouds 30 1017 62 10000 5.7 190 22:36 26.04.2020
4080 Clouds 30 1017 62 10000 5.7 190 22:18 26.04.2020
4081 Clouds 30 1017 62 10000 7.7 170 21:54 26.04.2020
4082 Clouds 30 1017 62 10000 7.7 170 21:36 26.04.2020
4083 Clouds 30 1017 62 10000 7.7 170 21:18 26.04.2020
4084 Clouds 30 1017 62 10000 7.7 170 21:18 26.04.2020
4085 Clouds 29 1018 74 10000 6.7 190 20:39 26.04.2020
4086 Clouds 29 1018 74 10000 6.7 190 20:20 26.04.2020
4087 Clouds 29 1019 70 10000 6.2 200 19:58 26.04.2020
4088 Clouds 29 1019 70 10000 6.2 200 19:58 26.04.2020
4089 Clouds 29 1019 70 10000 6.2 200 19:38 26.04.2020
4090 Clouds 29 1020 70 10000 6.7 190 19:19 26.04.2020
4091 Clouds 29 1020 70 10000 6.7 190 18:44 26.04.2020
4092 Clouds 29 1020 70 10000 6.7 190 18:25 26.04.2020
4093 Clouds 29 1017 78 10000 1.5 190 17:56 26.04.2020
4094 Clouds 29 1017 78 10000 1.5 190 17:56 26.04.2020
4095 Clouds 29 1017 78 10000 1.5 190 17:38 26.04.2020
4096 Clouds 28 1017 78 10000 1.5 190 17:18 26.04.2020
4097 Clouds 28 1019 83 10000 4.6 200 16:40 26.04.2020
4098 Clouds 27 1019 83 10000 4.6 200 16:21 26.04.2020
4099 Clouds 27 1018 83 10000 4.1 190 15:58 26.04.2020
4100 Clouds 27 1018 83 10000 4.1 190 15:38 26.04.2020
4101 Clouds 27 1018 83 10000 4.1 190 15:20 26.04.2020
4102 Clouds 27 1019 83 10000 2.6 240 14:55 26.04.2020
4103 Clouds 27 1019 83 10000 2.6 240 14:36 26.04.2020
4104 Clouds 27 1019 83 10000 2.6 240 14:18 26.04.2020
4105 Clouds 27 1018 88 10000 3.6 230 13:43 26.04.2020
4106 Clouds 27 1018 88 10000 3.6 230 13:23 26.04.2020
4107 Clouds 27 1018 83 10000 3.6 190 12:58 26.04.2020
4108 Clouds 27 1018 83 10000 3.6 190 12:40 26.04.2020
4109 Clouds 27 1018 83 10000 3.6 190 12:21 26.04.2020
4110 Clouds 27 1017 83 10000 3.1 180 11:57 26.04.2020
4111 Clouds 27 1017 83 10000 3.1 180 11:39 26.04.2020
4112 Clouds 27 1017 83 10000 3.1 180 11:21 26.04.2020
4113 Clouds 26 1016 88 10000 3.1 180 10:55 26.04.2020
4114 Clouds 26 1016 88 10000 3.1 180 10:37 26.04.2020
4115 Clouds 26 1016 88 10000 3.1 180 10:18 26.04.2020
4116 Clouds 27 1016 83 10000 4.1 170 09:39 26.04.2020
4117 Clouds 27 1016 83 10000 4.1 170 09:21 26.04.2020
4118 Clouds 27 1016 88 10000 3.6 150 08:43 26.04.2020
4119 Clouds 27 1016 88 10000 3.6 150 08:23 26.04.2020
4120 Clouds 27 1018 88 10000 2.6 150 07:58 26.04.2020
4121 Clouds 27 1018 88 10000 2.6 150 07:40 26.04.2020
4122 Clouds 27 1018 88 10000 2.6 150 07:18 26.04.2020
4123 Clouds 27 1018 83 10000 3.1 140 06:39 26.04.2020
4124 Clouds 28 1018 83 10000 2.6 130 05:55 26.04.2020
4125 Clouds 28 1018 83 10000 2.6 130 05:36 26.04.2020
4126 Clouds 28 1017 83 10000 2.6 140 04:44 26.04.2020
4127 Clouds 28 1017 83 10000 3.1 170 03:50 26.04.2020
4128 Thunderstorm 28 1016 83 10000 3.1 180 02:44 26.04.2020
4129 Thunderstorm 28 1016 83 10000 3.1 180 02:21 26.04.2020
4130 Rain 29 1016 79 10000 3.6 170 01:38 26.04.2020
4131 Rain 29 1016 79 10000 3.6 170 01:19 26.04.2020
4132 Rain 29 1016 79 10000 3.6 170 00:38 26.04.2020
4133 Rain 30 1016 79 10000 3.6 170 00:18 26.04.2020
4134 Rain 29 1016 79 10000 4.1 180 23:38 25.04.2020
4135 Rain 29 1016 79 10000 4.1 180 23:20 25.04.2020
4136 Clouds 31 1016 70 10000 4.1 170 22:54 25.04.2020
4137 Clouds 31 1016 70 10000 4.1 170 22:36 25.04.2020
4138 Clouds 31 1016 70 10000 4.1 170 22:18 25.04.2020
4139 Rain 31 1017 70 10000 4.6 180 21:39 25.04.2020
4140 Rain 31 1017 70 10000 4.6 180 21:20 25.04.2020
4141 Clouds 30 1017 70 10000 4.6 180 20:56 25.04.2020
4142 Clouds 30 1017 70 10000 4.6 180 20:37 25.04.2020
4143 Clouds 30 1017 70 10000 4.6 180 20:19 25.04.2020
4144 Clouds 29 1018 66 10000 3.6 120 19:41 25.04.2020
4145 Clouds 29 1018 66 10000 3.6 120 19:23 25.04.2020
4146 Clouds 28 1018 74 10000 5.7 140 18:58 25.04.2020
4147 Clouds 29 1018 74 10000 5.7 140 18:39 25.04.2020
4148 Clouds 28 1018 74 10000 5.7 140 18:20 25.04.2020
4149 Clouds 25 1018 83 10000 3.6 150 17:56 25.04.2020
4150 Clouds 25 1018 83 10000 3.6 150 17:37 25.04.2020
4151 Rain 23 1018 94 7000 5.7 110 17:19 25.04.2020
4152 Clouds 22 1018 94 7000 5.7 110 16:48 25.04.2020
4153 Clouds 22 1018 94 7000 5.7 110 16:29 25.04.2020
4154 Rain 24 1018 88 3200 5.1 90 15:59 25.04.2020
4155 Rain 24 1018 100 400 8.7 350 15:39 25.04.2020
4156 Thunderstorm 24 1018 100 400 8.7 350 15:19 25.04.2020
4157 Clouds 26 1017 88 1200 3.6 10 14:58 25.04.2020
4158 Thunderstorm 26 1016 88 10000 4.1 90 14:38 25.04.2020
4159 Thunderstorm 26 1016 88 10000 4.1 90 14:19 25.04.2020
4160 Clouds 26 1016 88 10000 2.6 80 13:43 25.04.2020
4161 Clouds 26 1016 88 10000 2.6 80 13:19 25.04.2020
4162 Clouds 26 1015 94 10000 2.1 160 12:58 25.04.2020
4163 Clouds 26 1015 94 10000 2.1 160 12:39 25.04.2020
4164 Clouds 26 1015 94 10000 2.1 160 12:20 25.04.2020
4165 Clouds 26 1015 94 10000 2.1 260 11:55 25.04.2020
4166 Clouds 26 1015 94 10000 2.1 260 11:37 25.04.2020
4167 Clouds 26 1015 94 10000 2.1 260 11:19 25.04.2020
4168 Clouds 26 1015 94 10000 1.5 280 10:42 25.04.2020
4169 Clouds 26 1015 94 10000 1.5 280 10:22 25.04.2020
4170 Rain 26 1015 94 10000 1 330 09:47 25.04.2020
4171 Rain 26 1015 94 10000 1 330 09:27 25.04.2020
4172 Clouds 27 1015 94 10000 2.1 210 08:57 25.04.2020
4173 Clouds 27 1015 94 10000 2.1 210 08:38 25.04.2020
4174 Clouds 27 1015 94 10000 2.1 210 08:20 25.04.2020
4175 Clouds 27 1015 94 10000 2.1 210 08:20 25.04.2020
4176 Clouds 26 1015 94 10000 2.6 170 07:46 25.04.2020
4177 Clouds 26 1015 94 10000 2.6 170 07:24 25.04.2020
4178 Rain 26 1016 88 10000 1.5 210 06:45 25.04.2020
4179 Rain 26 1016 88 10000 1.5 210 06:18 25.04.2020
4180 Thunderstorm 27 1016 83 10000 2.6 200 05:31 25.04.2020
4181 Clouds 27 1015 83 10000 2.6 180 04:42 25.04.2020
4182 Rain 28 1014 74 10000 4.1 180 02:59 25.04.2020
4183 Rain 28 1014 74 10000 4.1 180 02:20 25.04.2020
4184 Clouds 28 1013 78 10000 5.7 180 01:51 25.04.2020
4185 Clouds 28 1013 78 10000 5.7 180 01:27 25.04.2020
4186 Clouds 29 1013 74 10000 7.2 180 00:50 25.04.2020
4187 Clouds 29 1013 74 10000 7.2 180 00:31 25.04.2020
4188 Clouds 30 1013 70 10000 8.7 190 23:43 24.04.2020
4189 Clouds 30 1013 70 10000 8.7 190 23:22 24.04.2020
4190 Clouds 29 1014 74 10000 8.7 190 22:56 24.04.2020
4191 Clouds 29 1014 74 10000 8.7 190 22:37 24.04.2020
4192 Clouds 30 1014 74 10000 8.7 190 22:19 24.04.2020
4193 Clouds 30 1015 70 10000 9.3 190 21:54 24.04.2020
4194 Clouds 30 1015 70 10000 9.3 190 21:36 24.04.2020
4195 Clouds 30 1015 70 10000 9.3 190 21:18 24.04.2020
4196 Clouds 31 1015 66 10000 9.8 200 20:44 24.04.2020
4197 Clouds 31 1015 66 10000 9.8 200 20:19 24.04.2020
4198 Clouds 31 1015 66 10000 9.8 200 20:19 24.04.2020
4199 Clouds 30 1015 70 10000 10.8 180 19:58 24.04.2020
4200 Clouds 30 1015 70 10000 10.8 180 19:39 24.04.2020
4201 Clouds 30 1015 70 10000 10.8 180 19:20 24.04.2020
4202 Rain 30 1016 70 10000 8.7 190 18:43 24.04.2020
4203 Rain 30 1016 70 10000 8.7 190 18:25 24.04.2020
4204 Rain 29 1016 70 10000 9.8 180 17:54 24.04.2020
4205 Rain 29 1016 70 10000 9.8 180 17:36 24.04.2020
4206 Rain 29 1016 70 10000 9.8 180 17:18 24.04.2020
4207 Rain 29 1016 70 10000 8.2 180 16:55 24.04.2020
4208 Rain 29 1016 70 10000 8.2 180 16:37 24.04.2020
4209 Rain 29 1016 70 10000 8.2 180 16:19 24.04.2020
4210 Rain 29 1016 70 10000 8.2 180 16:19 24.04.2020
4211 Clouds 28 1016 69 10000 8.2 180 15:40 24.04.2020
4212 Clouds 29 1016 69 10000 8.2 180 15:20 24.04.2020
4213 Clouds 28 1015 74 10000 7.7 180 14:41 24.04.2020
4214 Clouds 27 1015 74 10000 6.7 180 14:22 24.04.2020
4215 Clouds 27 1015 74 10000 6.7 180 13:58 24.04.2020
4216 Clouds 27 1015 74 10000 6.7 180 13:39 24.04.2020
4217 Clouds 27 1015 74 10000 6.7 180 13:20 24.04.2020
4218 Clouds 27 1015 78 10000 7.2 170 12:45 24.04.2020
4219 Clouds 27 1015 78 10000 7.2 170 12:25 24.04.2020
4220 Clouds 27 1015 78 10000 7.2 170 11:59 24.04.2020
4221 Clouds 27 1015 78 10000 7.2 170 11:39 24.04.2020
4222 Clouds 27 1015 78 10000 7.2 170 11:20 24.04.2020
4223 Clouds 27 1015 78 10000 7.2 170 10:56 24.04.2020
4224 Clouds 26 1014 82 0 9.41 154 10:37 24.04.2020
4225 Clouds 26 1014 82 0 9.41 154 10:19 24.04.2020
4226 Clouds 26 1014 82 0 9.41 154 09:45 24.04.2020
4227 Clouds 26 1016 83 10000 7.2 160 09:24 24.04.2020
4228 Clouds 26 1016 83 10000 7.2 160 08:58 24.04.2020
4229 Clouds 26 1016 83 10000 7.2 160 08:37 24.04.2020
4230 Clouds 26 1016 83 10000 7.2 160 08:18 24.04.2020
4231 Clouds 26 1016 83 10000 7.2 160 08:18 24.04.2020
4232 Clouds 26 1016 83 10000 7.2 150 07:45 24.04.2020
4233 Clouds 26 1016 83 10000 7.2 150 07:26 24.04.2020
4234 Clouds 26 1016 83 10000 7.2 150 06:51 24.04.2020
4235 Clouds 26 1017 83 10000 7.2 150 06:32 24.04.2020
4236 Clouds 26 1017 83 10000 7.2 150 05:48 24.04.2020
4237 Clouds 26 1017 83 10000 6.2 140 04:30 24.04.2020
4238 Clouds 26 1016 78 10000 6.2 140 03:19 24.04.2020
4239 Clouds 26 1016 78 10000 5.1 140 02:41 24.04.2020
4240 Clouds 26 1016 78 10000 5.1 140 02:20 24.04.2020
4241 Clouds 27 1016 69 10000 6.2 140 01:23 24.04.2020
4242 Clouds 28 1016 65 10000 5.7 140 00:38 24.04.2020
4243 Clouds 28 1016 65 10000 5.7 140 00:18 24.04.2020
4244 Clouds 28 1015 68 0 1.34 245 23:42 23.04.2020
4245 Clouds 29 1015 66 0 0.89 101 23:23 23.04.2020
4246 Clouds 29 1015 66 0 2.24 118 22:55 23.04.2020
4247 Clouds 29 1017 54 10000 7.7 150 22:36 23.04.2020
4248 Clouds 29 1017 54 10000 7.7 150 22:18 23.04.2020
4249 Clouds 29 1017 54 10000 7.7 150 21:55 23.04.2020
4250 Clouds 29 1017 54 10000 7.7 150 21:37 23.04.2020
4251 Clouds 29 1017 54 10000 7.7 150 21:19 23.04.2020
4252 Clouds 29 1018 58 10000 7.7 150 20:41 23.04.2020
4253 Clouds 29 1018 58 10000 7.7 150 20:22 23.04.2020
4254 Clouds 29 1018 58 10000 7.7 150 20:22 23.04.2020
4255 Clouds 29 1018 54 10000 8.7 160 19:58 23.04.2020
4256 Clouds 29 1018 54 10000 8.7 160 19:39 23.04.2020
4257 Clouds 29 1018 54 10000 8.7 160 19:21 23.04.2020
4258 Clouds 28 1018 58 10000 8.2 150 18:56 23.04.2020
4259 Clouds 28 1018 58 10000 8.2 150 18:36 23.04.2020
4260 Clouds 28 1018 58 10000 8.2 150 18:18 23.04.2020
4261 Clouds 28 1018 54 10000 7.7 140 17:55 23.04.2020
4262 Clouds 28 1018 54 10000 7.7 140 17:36 23.04.2020
4263 Clouds 28 1018 54 10000 7.7 140 17:36 23.04.2020
4264 Clouds 28 1018 54 10000 7.7 140 17:18 23.04.2020
4265 Clouds 28 1018 54 10000 7.7 130 16:42 23.04.2020
4266 Clouds 28 1018 54 10000 7.7 130 16:19 23.04.2020
4267 Clouds 27 1018 61 10000 5.7 130 15:42 23.04.2020
4268 Clouds 27 1018 61 10000 5.7 130 15:23 23.04.2020
4269 Clouds 26 1018 69 10000 3.1 120 14:57 23.04.2020
4270 Clouds 26 1018 69 10000 3.1 120 14:38 23.04.2020
4271 Clouds 26 1018 69 10000 3.1 120 14:19 23.04.2020
4272 Clouds 24 1017 83 10000 3.6 110 13:55 23.04.2020
4273 Clouds 24 1017 83 10000 3.6 110 13:37 23.04.2020
4274 Clouds 22 1017 83 10000 3.6 110 13:18 23.04.2020
4275 Clouds 23 1017 78 10000 3.1 120 12:42 23.04.2020
4276 Clouds 23 1017 78 10000 3.1 120 12:24 23.04.2020
4277 Clouds 23 1017 73 10000 3.6 110 11:56 23.04.2020
4278 Clouds 23 1017 73 10000 3.6 110 11:38 23.04.2020
4279 Clouds 23 1017 73 10000 3.6 110 11:38 23.04.2020
4280 Clouds 23 1017 73 10000 3.6 110 11:18 23.04.2020
4281 Clouds 24 1017 64 10000 4.1 120 10:41 23.04.2020
4282 Clouds 24 1017 64 10000 4.1 120 10:21 23.04.2020
4283 Clouds 25 1017 64 10000 4.1 120 09:41 23.04.2020
4284 Clouds 25 1017 64 10000 4.1 120 09:20 23.04.2020
4285 Clouds 25 1018 64 10000 4.1 120 08:59 23.04.2020
4286 Clouds 25 1018 64 10000 4.1 120 08:59 23.04.2020
4287 Clouds 25 1018 64 10000 4.1 120 08:40 23.04.2020
4288 Clouds 25 1018 64 10000 4.1 120 08:21 23.04.2020
4289 Clouds 25 1018 61 10000 5.1 110 07:42 23.04.2020
4290 Clouds 25 1018 61 10000 5.1 110 07:23 23.04.2020
4291 Clouds 25 1018 61 10000 5.1 100 06:48 23.04.2020
4292 Clouds 25 1018 61 10000 5.1 100 06:22 23.04.2020
4293 Clouds 25 1018 61 10000 4.1 100 05:23 23.04.2020
4294 Clouds 26 1018 54 10000 3.6 100 04:51 23.04.2020
4295 Clouds 27 1017 54 10000 3.6 90 02:24 23.04.2020
4296 Clouds 27 1017 54 10000 5.1 70 01:41 23.04.2020
4297 Clouds 27 1016 54 10000 5.1 70 01:18 23.04.2020
4298 Clouds 27 1016 54 10000 5.1 70 00:36 23.04.2020
4299 Clouds 28 1016 54 10000 5.1 50 00:18 23.04.2020
4300 Clouds 28 1016 54 10000 5.1 50 23:42 22.04.2020
4301 Clouds 28 1016 54 10000 5.1 50 23:22 22.04.2020
4302 Clouds 28 1016 48 10000 6.2 60 22:54 22.04.2020
4303 Clouds 29 1016 48 10000 6.2 60 22:36 22.04.2020
4304 Clouds 29 1016 48 10000 6.2 60 22:18 22.04.2020
4305 Clouds 29 1017 45 10000 5.1 50 21:54 22.04.2020
4306 Clouds 29 1017 45 10000 5.1 50 21:36 22.04.2020
4307 Clouds 29 1017 45 10000 5.1 50 21:18 22.04.2020
4308 Clouds 29 1017 42 10000 5.7 60 20:43 22.04.2020
4309 Clouds 29 1017 42 10000 5.7 60 20:19 22.04.2020
4310 Clouds 29 1017 42 10000 5.7 60 20:19 22.04.2020
4311 Clouds 29 1018 42 10000 5.1 50 19:57 22.04.2020
4312 Clouds 29 1018 42 10000 5.1 50 19:57 22.04.2020
4313 Clouds 29 1018 42 10000 5.1 50 19:38 22.04.2020
4314 Clouds 29 1018 42 10000 5.1 50 19:18 22.04.2020
4315 Clouds 29 1018 42 10000 5.1 50 18:58 22.04.2020
4316 Clouds 29 1018 42 10000 5.1 50 18:39 22.04.2020
4317 Clouds 29 1018 42 10000 5.1 50 18:20 22.04.2020
4318 Clouds 29 1018 48 10000 4.1 60 17:43 22.04.2020
4319 Clouds 29 1018 48 10000 4.1 60 17:25 22.04.2020
4320 Clouds 29 1018 51 10000 4.1 60 16:58 22.04.2020
4321 Clouds 29 1018 51 10000 4.1 60 16:39 22.04.2020
4322 Clouds 29 1018 51 10000 4.1 60 16:20 22.04.2020
4323 Clouds 28 1018 54 10000 4.1 70 15:41 22.04.2020
4324 Clouds 28 1018 54 10000 4.1 70 15:22 22.04.2020
4325 Clouds 27 1017 69 10000 2.1 80 14:58 22.04.2020
4326 Clouds 27 1017 69 10000 2.1 80 14:38 22.04.2020
4327 Clouds 27 1017 69 10000 2.1 80 14:19 22.04.2020
4328 Clouds 26 1016 73 10000 2.1 70 13:45 22.04.2020
4329 Clouds 26 1016 73 10000 2.1 70 13:21 22.04.2020
4330 Clouds 25 1015 73 10000 2.1 80 12:57 22.04.2020
4331 Clouds 25 1015 73 10000 2.1 80 12:39 22.04.2020
4332 Clouds 25 1015 73 10000 2.1 80 12:20 22.04.2020
4333 Thunderstorm 26 1015 65 10000 1.5 80 11:40 22.04.2020
4334 Thunderstorm 26 1015 65 10000 1.5 80 11:20 22.04.2020
4335 Thunderstorm 26 1015 69 10000 2.1 30 10:58 22.04.2020
4336 Thunderstorm 26 1015 69 10000 2.1 30 10:38 22.04.2020
4337 Thunderstorm 26 1015 69 10000 2.1 30 10:18 22.04.2020
4338 Clouds 26 1015 69 10000 1.5 50 09:39 22.04.2020
4339 Clouds 26 1015 69 10000 1.5 50 09:20 22.04.2020
4340 Clouds 26 1015 78 10000 2.1 40 08:55 22.04.2020
4341 Clouds 26 1015 78 10000 2.1 40 08:37 22.04.2020
4342 Clouds 26 1015 78 10000 2.1 40 08:18 22.04.2020
4343 Clouds 26 1015 88 10000 2.6 30 07:51 22.04.2020
4344 Clouds 26 1015 88 10000 2.6 30 07:23 22.04.2020
4345 Clouds 27 1016 83 10000 1.5 360 06:52 22.04.2020
4346 Clouds 27 1016 78 10000 3.1 340 05:47 22.04.2020
4347 Clouds 27 1016 78 10000 3.1 340 05:27 22.04.2020
4348 Clouds 27 1015 78 10000 1.5 310 03:55 22.04.2020
4349 Clouds 27 1014 78 10000 3.1 330 02:37 22.04.2020
4350 Clouds 27 1014 78 10000 5.1 340 01:42 22.04.2020
4351 Clouds 27 1014 78 10000 5.1 340 01:23 22.04.2020
4352 Clouds 28 1013 74 10000 4.6 330 00:45 22.04.2020
4353 Clouds 29 1013 74 10000 4.6 330 00:20 22.04.2020
4354 Rain 29 1013 74 10000 5.1 330 23:45 21.04.2020
4355 Rain 29 1013 74 10000 5.1 330 23:23 21.04.2020
4356 Clouds 30 1013 66 10000 6.2 320 22:59 21.04.2020
4357 Clouds 30 1013 66 10000 6.2 320 22:39 21.04.2020
4358 Clouds 30 1013 66 10000 6.2 320 22:20 21.04.2020
4359 Clouds 30 1014 70 10000 7.2 330 21:57 21.04.2020
4360 Clouds 30 1014 70 10000 7.2 330 21:39 21.04.2020
4361 Clouds 30 1014 70 10000 7.2 330 21:39 21.04.2020
4362 Clouds 30 1014 70 10000 7.2 330 21:21 21.04.2020
4363 Clouds 30 1014 70 10000 5.1 300 20:41 21.04.2020
4364 Clouds 30 1014 70 10000 5.1 300 20:23 21.04.2020
4365 Clouds 31 1014 62 10000 6.2 280 19:58 21.04.2020
4366 Clouds 31 1014 62 10000 6.2 280 19:38 21.04.2020
4367 Clouds 31 1014 62 10000 6.2 280 19:38 21.04.2020
4368 Clouds 31 1014 62 10000 6.2 280 19:18 21.04.2020
4369 Clouds 30 1015 66 10000 6.7 290 18:55 21.04.2020
4370 Clouds 30 1015 66 10000 6.7 290 18:36 21.04.2020
4371 Clouds 30 1015 66 10000 6.7 290 18:18 21.04.2020
4372 Clouds 30 1015 66 10000 6.7 280 17:39 21.04.2020
4373 Clouds 30 1015 66 10000 6.7 280 17:20 21.04.2020
4374 Clouds 30 1015 66 10000 6.2 270 16:56 21.04.2020
4375 Clouds 30 1015 66 10000 6.2 270 16:36 21.04.2020
4376 Clouds 30 1015 66 10000 6.2 270 16:18 21.04.2020
4377 Clouds 30 1015 66 10000 6.2 270 16:18 21.04.2020
4378 Clouds 30 1014 74 10000 5.1 260 15:55 21.04.2020
4379 Clouds 29 1014 74 10000 5.1 260 15:36 21.04.2020
4380 Clouds 29 1014 74 10000 5.1 260 15:18 21.04.2020
4381 Clouds 28 1014 83 10000 3.6 260 14:44 21.04.2020
4382 Clouds 28 1014 83 10000 3.6 260 14:23 21.04.2020
4383 Clouds 27 1013 88 10000 3.1 260 13:55 21.04.2020
4384 Clouds 27 1013 88 10000 3.1 260 13:37 21.04.2020
4385 Clouds 26 1013 88 10000 3.1 260 13:18 21.04.2020
4386 Clouds 26 1013 83 10000 1.5 300 12:38 21.04.2020
4387 Clouds 26 1013 83 10000 1.5 300 12:19 21.04.2020
4388 Thunderstorm 27 1012 88 10000 4.1 230 11:57 21.04.2020
4389 Thunderstorm 27 1012 88 10000 4.1 230 11:38 21.04.2020
4390 Thunderstorm 27 1012 88 10000 4.1 230 11:19 21.04.2020
4391 Thunderstorm 27 1012 88 10000 4.1 210 10:58 21.04.2020
4392 Thunderstorm 27 1012 88 10000 4.1 210 10:39 21.04.2020
4393 Thunderstorm 27 1012 88 10000 4.1 210 10:20 21.04.2020
4394 Clouds 27 1012 83 10000 4.1 210 09:38 21.04.2020
4395 Clouds 27 1012 83 10000 4.1 210 09:20 21.04.2020
4396 Clouds 27 1012 83 10000 4.1 210 09:20 21.04.2020
4397 Clouds 28 1013 78 10000 4.6 230 08:58 21.04.2020
4398 Clouds 28 1013 78 10000 4.6 230 08:40 21.04.2020
4399 Clouds 28 1013 78 10000 4.6 230 08:19 21.04.2020
4400 Rain 27 1014 83 10000 4.1 220 07:49 21.04.2020
4401 Rain 27 1014 83 10000 4.1 220 07:24 21.04.2020
4402 Rain 28 1014 78 10000 3.6 220 06:50 21.04.2020
4403 Clouds 28 1014 78 10000 3.6 220 06:22 21.04.2020
4404 Clouds 27 1014 74 10000 2.1 220 05:49 21.04.2020
4405 Clouds 27 1013 74 10000 2.1 240 04:21 21.04.2020
4406 Clouds 27 1013 74 10000 1.5 210 03:44 21.04.2020
4407 Clouds 29 1012 58 10000 2.6 250 01:46 21.04.2020
4408 Clouds 30 1012 58 10000 2.6 250 01:25 21.04.2020
4409 Clouds 31 1012 55 10000 4.6 250 00:37 21.04.2020
4410 Clouds 32 1012 55 10000 5.1 250 23:45 20.04.2020
4411 Clouds 32 1012 55 10000 5.1 250 23:25 20.04.2020
4412 Clouds 31 1012 58 10000 6.2 280 22:58 20.04.2020
4413 Clouds 31 1012 58 10000 6.2 280 22:39 20.04.2020
4414 Clouds 31 1012 58 10000 6.2 280 22:20 20.04.2020
4415 Clouds 31 1012 58 10000 6.2 280 22:20 20.04.2020
4416 Clouds 31 1013 58 10000 7.2 280 21:57 20.04.2020
4417 Clouds 31 1013 58 10000 7.2 280 21:39 20.04.2020
4418 Clouds 31 1013 58 10000 7.2 280 21:19 20.04.2020
4419 Clouds 33 1013 55 10000 7.7 260 20:58 20.04.2020
4420 Clouds 33 1013 55 10000 7.7 260 20:38 20.04.2020
4421 Clouds 33 1013 55 10000 7.7 260 20:18 20.04.2020
4422 Clouds 33 1013 55 10000 7.7 260 20:18 20.04.2020
4423 Clouds 33 1013 55 10000 7.7 260 20:18 20.04.2020
4424 Clouds 31 1014 62 10000 6.7 230 19:57 20.04.2020
4425 Clouds 31 1014 62 10000 6.7 230 19:38 20.04.2020
4426 Clouds 31 1014 62 10000 6.7 230 19:19 20.04.2020
4427 Clouds 31 1014 70 10000 6.2 220 18:42 20.04.2020
4428 Clouds 30 1014 70 10000 6.2 220 18:22 20.04.2020
4429 Clouds 30 1014 70 10000 7.2 210 17:55 20.04.2020
4430 Clouds 30 1014 70 10000 7.2 210 17:37 20.04.2020
4431 Clouds 30 1014 70 10000 7.2 210 17:19 20.04.2020
4432 Clouds 30 1014 74 10000 7.2 210 16:57 20.04.2020
4433 Clouds 29 1014 74 10000 7.2 210 16:38 20.04.2020
4434 Clouds 29 1014 74 10000 7.2 210 16:18 20.04.2020
4435 Clouds 28 1014 78 10000 5.1 190 15:42 20.04.2020
4436 Clouds 28 1014 78 10000 5.1 190 15:23 20.04.2020
4437 Clouds 27 1014 78 10000 5.1 190 14:55 20.04.2020
4438 Clouds 27 1014 78 10000 5.1 190 14:36 20.04.2020
4439 Clouds 27 1014 78 10000 5.1 190 14:18 20.04.2020
4440 Clouds 26 1013 83 10000 5.7 190 13:41 20.04.2020
4441 Clouds 26 1013 83 10000 5.7 190 13:22 20.04.2020
4442 Clouds 26 1013 78 10000 4.6 180 12:54 20.04.2020
4443 Clouds 26 1013 78 10000 4.6 180 12:36 20.04.2020
4444 Clouds 26 1013 78 10000 4.6 180 12:18 20.04.2020
4445 Clouds 26 1013 74 10000 5.1 190 11:40 20.04.2020
4446 Clouds 26 1013 74 10000 5.1 190 11:21 20.04.2020
4447 Clouds 26 1013 74 10000 6.2 190 10:56 20.04.2020
4448 Clouds 26 1013 74 10000 6.2 190 10:38 20.04.2020
4449 Clouds 26 1013 74 10000 6.2 190 10:19 20.04.2020
4450 Clouds 26 1013 78 10000 6.7 190 09:44 20.04.2020
4451 Clouds 26 1013 78 10000 6.7 190 09:26 20.04.2020
4452 Clouds 27 1014 69 10000 6.7 180 08:59 20.04.2020
4453 Clouds 27 1014 69 10000 6.7 180 08:41 20.04.2020
4454 Clouds 27 1014 69 10000 6.7 180 08:19 20.04.2020
4455 Clouds 27 1014 69 10000 6.7 180 08:19 20.04.2020
4456 Clear 26 1014 74 10000 5.1 170 07:52 20.04.2020
4457 Clear 26 1014 74 10000 5.1 170 07:28 20.04.2020
4458 Clear 26 1014 74 10000 4.1 170 06:54 20.04.2020
4459 Clear 26 1014 74 10000 4.1 170 06:35 20.04.2020
4460 Clear 26 1015 83 10000 3.1 170 05:33 20.04.2020
4461 Clear 26 1015 78 10000 3.6 180 03:36 20.04.2020
4462 Clouds 27 1014 78 10000 4.6 190 02:42 20.04.2020
4463 Clouds 27 1014 74 10000 6.2 180 01:32 20.04.2020
4464 Clouds 27 1014 74 10000 6.2 180 01:32 20.04.2020
4465 Clouds 28 1014 69 10000 6.7 180 00:58 20.04.2020
4466 Clouds 29 1014 69 10000 6.7 180 00:33 20.04.2020
4467 Clouds 29 1014 66 10000 8.2 180 23:55 19.04.2020
4468 Clouds 29 1014 66 10000 8.2 180 23:37 19.04.2020
4469 Clouds 29 1014 66 10000 8.2 180 23:18 19.04.2020
4470 Clouds 31 1015 58 10000 6.2 190 23:18 19.04.2020
4471 Clouds 31 1015 58 10000 6.2 190 22:39 19.04.2020
4472 Clouds 31 1015 58 10000 6.2 190 22:21 19.04.2020
4473 Clouds 30 1016 66 10000 6.2 190 21:55 19.04.2020
4474 Clouds 30 1016 66 10000 6.2 190 21:37 19.04.2020
4475 Clouds 30 1016 66 10000 6.2 190 21:18 19.04.2020
4476 Clouds 30 1017 66 10000 5.7 210 20:41 19.04.2020
4477 Clouds 30 1017 66 10000 5.7 210 20:21 19.04.2020
4478 Clouds 30 1017 62 10000 4.6 220 19:58 19.04.2020
4479 Clouds 30 1017 62 10000 4.6 220 19:40 19.04.2020
4480 Clouds 30 1017 62 10000 4.6 220 19:22 19.04.2020
4481 Rain 30 1018 66 10000 5.7 220 18:58 19.04.2020
4482 Rain 30 1018 66 10000 5.7 220 18:39 19.04.2020
4483 Rain 30 1018 66 10000 5.7 220 18:19 19.04.2020
4484 Rain 30 1018 66 10000 5.7 220 18:19 19.04.2020
4485 Clouds 29 1018 70 10000 3.1 210 17:56 19.04.2020
4486 Clouds 29 1018 70 10000 3.1 210 17:38 19.04.2020
4487 Clouds 29 1018 70 10000 3.1 210 17:20 19.04.2020
4488 Clouds 29 1018 70 10000 3.6 200 16:56 19.04.2020
4489 Clouds 29 1018 70 10000 3.6 200 16:37 19.04.2020
4490 Clouds 29 1018 70 10000 3.6 200 16:18 19.04.2020
4491 Clouds 28 1017 74 10000 2.1 230 15:42 19.04.2020
4492 Clouds 28 1017 74 10000 2.1 230 15:21 19.04.2020
4493 Clouds 26 1017 88 10000 2.1 230 14:54 19.04.2020
4494 Clouds 26 1017 88 10000 2.1 230 14:36 19.04.2020
4495 Clouds 26 1017 88 10000 2.1 230 14:18 19.04.2020
4496 Clouds 25 1017 94 10000 1 0 13:38 19.04.2020
4497 Clouds 24 1017 94 10000 1 0 13:19 19.04.2020
4498 Clouds 24 1016 94 10000 0.5 0 12:49 19.04.2020
4499 Clouds 24 1016 94 10000 0.5 0 12:49 19.04.2020
4500 Clouds 24 1016 94 10000 0.5 0 12:25 19.04.2020
4501 Clouds 25 1016 83 10000 1.5 210 11:55 19.04.2020
4502 Clear 25 1015 85 0 3.22 183 11:37 19.04.2020
4503 Clear 25 1015 85 0 3.22 183 11:18 19.04.2020
4504 Clear 25 1015 85 0 3.22 183 10:55 19.04.2020
4505 Clear 25 1015 85 0 3.22 183 10:55 19.04.2020
4506 Clouds 25 1017 88 10000 1 0 10:37 19.04.2020
4507 Clouds 25 1017 88 10000 1 0 10:18 19.04.2020
4508 Clouds 25 1017 88 10000 1 0 09:43 19.04.2020
4509 Clouds 25 1017 88 10000 1 0 09:25 19.04.2020
4510 Clouds 25 1017 94 10000 1 0 08:40 19.04.2020
4511 Clouds 25 1017 94 10000 1 0 08:21 19.04.2020
4512 Clouds 25 1018 88 10000 1.5 240 07:56 19.04.2020
4513 Clouds 25 1018 88 10000 1.5 240 07:38 19.04.2020
4514 Clouds 25 1018 88 10000 1.5 240 07:19 19.04.2020
4515 Clouds 26 1018 88 10000 1.5 220 06:26 19.04.2020
4516 Clouds 26 1018 83 10000 2.1 220 05:35 19.04.2020
4517 Clouds 27 1017 78 10000 1.5 190 03:55 19.04.2020
4518 Clouds 27 1017 74 10000 2.1 190 02:50 19.04.2020
4519 Clouds 27 1017 74 10000 2.1 190 02:18 19.04.2020
4520 Clouds 27 1017 74 10000 2.6 190 01:26 19.04.2020
4521 Clouds 28 1017 74 10000 3.1 190 00:41 19.04.2020
4522 Clouds 28 1017 74 10000 3.1 190 00:41 19.04.2020
4523 Clouds 28 1017 74 10000 3.1 190 00:20 19.04.2020
4524 Clouds 29 1016 66 10000 5.1 190 23:44 18.04.2020
4525 Clouds 30 1016 66 10000 5.1 190 23:20 18.04.2020
4526 Clouds 30 1017 62 10000 6.2 200 22:55 18.04.2020
4527 Clouds 30 1017 62 10000 6.2 200 22:37 18.04.2020
4528 Clouds 30 1017 62 10000 6.2 200 22:19 18.04.2020
4529 Clouds 30 1018 66 10000 5.7 200 21:43 18.04.2020
4530 Clouds 30 1018 66 10000 5.7 200 21:22 18.04.2020
4531 Clouds 31 1018 58 10000 6.7 190 20:59 18.04.2020
4532 Clouds 31 1018 58 10000 6.7 190 20:40 18.04.2020
4533 Clouds 31 1018 58 10000 6.7 190 20:21 18.04.2020
4534 Clouds 30 1018 62 10000 7.2 190 19:43 18.04.2020
4535 Clouds 30 1018 62 10000 7.2 190 19:25 18.04.2020
4536 Clouds 29 1019 70 10000 7.2 210 18:40 18.04.2020
4537 Clouds 29 1019 70 10000 7.2 210 18:20 18.04.2020
4538 Clouds 28 1019 74 10000 6.2 210 17:59 18.04.2020
4539 Clouds 28 1019 74 10000 6.2 210 17:40 18.04.2020
4540 Clouds 28 1019 69 10000 5.7 190 17:20 18.04.2020
4541 Clouds 28 1019 69 10000 5.7 190 16:43 18.04.2020
4542 Clouds 28 1019 69 10000 5.7 190 16:23 18.04.2020
4543 Clouds 28 1019 78 10000 5.7 170 15:58 18.04.2020
4544 Clouds 28 1019 78 10000 5.7 170 15:38 18.04.2020
4545 Clouds 28 1019 78 10000 5.7 170 15:38 18.04.2020
4546 Clouds 28 1019 83 10000 2.6 180 15:19 18.04.2020
4547 Clouds 27 1019 83 10000 2.6 180 14:44 18.04.2020
4548 Clouds 27 1019 83 10000 2.6 180 14:24 18.04.2020
4549 Clouds 25 1018 88 10000 2.6 170 13:44 18.04.2020
4550 Clouds 25 1018 88 10000 2.6 170 13:23 18.04.2020
4551 Clouds 24 1018 88 10000 2.6 180 12:55 18.04.2020
4552 Clouds 24 1018 88 10000 2.6 180 12:36 18.04.2020
4553 Clouds 24 1018 88 10000 2.6 180 12:18 18.04.2020
4554 Clouds 25 1018 88 10000 2.1 160 11:42 18.04.2020
4555 Clouds 25 1018 88 10000 2.1 160 11:22 18.04.2020
4556 Clouds 25 1018 88 10000 2.6 150 10:57 18.04.2020
4557 Clouds 25 1018 88 10000 2.6 150 10:37 18.04.2020
4558 Clouds 25 1018 88 10000 2.6 150 10:18 18.04.2020
4559 Clouds 25 1019 83 10000 2.6 140 09:41 18.04.2020
4560 Clouds 25 1019 83 10000 2.6 140 09:22 18.04.2020
4561 Clouds 25 1019 88 10000 2.6 150 08:43 18.04.2020
4562 Clouds 25 1019 88 10000 2.6 150 08:43 18.04.2020
4563 Clouds 25 1019 88 10000 2.6 150 08:24 18.04.2020
4564 Clouds 25 1020 78 10000 1.5 100 07:51 18.04.2020
4565 Clouds 25 1020 78 10000 1.5 100 07:32 18.04.2020
4566 Clouds 25 1020 78 10000 2.1 150 06:50 18.04.2020
4567 Clouds 25 1020 83 10000 3.6 140 05:50 18.04.2020
4568 Clouds 26 1020 78 10000 2.6 140 04:57 18.04.2020
4569 Clouds 26 1020 78 10000 2.6 140 04:39 18.04.2020
4570 Clouds 26 1020 78 10000 2.6 140 04:18 18.04.2020
4571 Clouds 27 1019 74 10000 2.6 140 02:44 18.04.2020
4572 Clouds 27 1019 74 10000 2.6 140 02:21 18.04.2020
4573 Clouds 27 1019 74 10000 2.6 140 02:21 18.04.2020
4574 Clouds 27 1019 74 10000 2.6 140 02:21 18.04.2020
4575 Clouds 27 1019 74 10000 4.6 150 01:48 18.04.2020
4576 Clouds 28 1019 74 10000 4.6 150 01:27 18.04.2020
4577 Clouds 28 1019 74 10000 4.1 180 00:38 18.04.2020
4578 Clouds 28 1019 74 10000 4.1 180 00:18 18.04.2020
4579 Clouds 29 1018 62 10000 4.6 170 23:41 17.04.2020
4580 Clouds 29 1018 62 10000 4.6 170 23:20 17.04.2020
4581 Clouds 29 1019 66 10000 3.1 160 22:59 17.04.2020
4582 Clouds 29 1019 66 10000 3.1 160 22:40 17.04.2020
4583 Clouds 29 1019 66 10000 3.1 160 22:20 17.04.2020
4584 Clouds 28 1019 69 10000 3.6 150 21:58 17.04.2020
4585 Clouds 28 1019 69 10000 3.6 150 21:39 17.04.2020
4586 Clouds 28 1019 69 10000 3.6 150 21:19 17.04.2020
4587 Rain 29 1020 70 10000 2.1 180 20:55 17.04.2020
4588 Rain 29 1020 70 10000 2.1 180 20:36 17.04.2020
4589 Rain 29 1020 70 10000 2.1 180 20:18 17.04.2020
4590 Clouds 29 1021 70 10000 2.1 300 19:46 17.04.2020
4591 Clouds 29 1021 70 10000 2.1 300 19:24 17.04.2020
4592 Rain 28 1021 74 10000 2.6 60 18:48 17.04.2020
4593 Rain 29 1021 74 10000 2.6 60 18:25 17.04.2020
4594 Rain 28 1020 80 0 6.19 119 17:59 17.04.2020
4595 Rain 28 1021 78 10000 4.6 90 17:37 17.04.2020
4596 Rain 27 1021 78 10000 4.6 90 17:19 17.04.2020
4597 Rain 27 1021 78 10000 4.6 90 17:19 17.04.2020
4598 Clouds 28 1021 74 10000 5.1 70 16:44 17.04.2020
4599 Clouds 28 1021 74 10000 5.1 70 16:23 17.04.2020
4600 Clouds 27 1020 83 10000 5.1 80 15:58 17.04.2020
4601 Clouds 27 1020 83 10000 5.1 80 15:37 17.04.2020
4602 Clouds 27 1020 83 10000 5.1 80 15:19 17.04.2020
4603 Clouds 26 1020 88 10000 4.6 80 14:40 17.04.2020
4604 Clouds 26 1020 88 10000 4.6 80 14:22 17.04.2020
4605 Rain 26 1019 88 10000 4.1 70 13:58 17.04.2020
4606 Rain 26 1019 88 10000 4.1 70 13:37 17.04.2020
4607 Rain 26 1019 88 10000 4.1 70 13:18 17.04.2020
4608 Clouds 25 1019 94 10000 2.6 80 12:46 17.04.2020
4609 Clouds 25 1019 94 10000 2.6 80 12:25 17.04.2020
4610 Clouds 26 1018 83 10000 4.1 70 11:42 17.04.2020
4611 Clouds 26 1018 83 10000 4.1 70 11:20 17.04.2020
4612 Clouds 26 1018 83 10000 3.6 60 10:57 17.04.2020
4613 Clouds 26 1018 83 10000 3.6 60 10:39 17.04.2020
4614 Clouds 26 1018 83 10000 3.6 60 10:19 17.04.2020
4615 Clouds 26 1019 88 10000 3.6 50 09:41 17.04.2020
4616 Clouds 26 1019 88 10000 3.6 50 09:22 17.04.2020
4617 Clouds 26 1018 83 0 3.55 66 08:59 17.04.2020
4618 Clouds 26 1018 83 0 3.55 66 08:40 17.04.2020
4619 Clouds 26 1019 83 10000 1.5 360 08:21 17.04.2020
4620 Clouds 26 1019 83 10000 1.5 360 07:44 17.04.2020
4621 Clouds 26 1019 83 10000 1.5 360 07:24 17.04.2020
4622 Clouds 26 1020 83 10000 0.5 0 06:50 17.04.2020
4623 Clouds 26 1020 83 10000 0.5 0 06:23 17.04.2020
4624 Clouds 26 1019 88 10000 1.22 108 05:27 17.04.2020
4625 Clouds 26 1019 83 10000 1.5 160 03:20 17.04.2020
4626 Clouds 27 1018 83 10000 3.6 210 02:33 17.04.2020
4627 Clouds 28 1018 74 10000 4.1 200 01:29 17.04.2020
4628 Clouds 29 1017 74 10000 3.6 190 00:52 17.04.2020
4629 Clouds 28 1017 74 10000 3.6 190 00:19 17.04.2020
4630 Clouds 29 1017 70 10000 4.1 180 23:44 16.04.2020
4631 Clouds 29 1017 70 10000 4.1 180 23:22 16.04.2020
4632 Clouds 31 1016 58 10000 4.1 190 22:57 16.04.2020
4633 Clouds 31 1016 58 10000 4.1 190 22:37 16.04.2020
4634 Clouds 31 1016 58 10000 4.1 190 22:19 16.04.2020
4635 Clouds 31 1017 58 10000 5.1 190 21:43 16.04.2020
4636 Clouds 31 1017 58 10000 5.1 190 21:20 16.04.2020
4637 Clouds 31 1017 55 10000 4.1 200 20:59 16.04.2020
4638 Clouds 31 1017 55 10000 4.1 200 20:39 16.04.2020
4639 Clouds 31 1017 55 10000 4.1 200 20:20 16.04.2020
4640 Clouds 31 1018 58 10000 4.1 220 19:55 16.04.2020
4641 Clouds 31 1018 58 10000 4.1 220 19:36 16.04.2020
4642 Clouds 29 1018 66 10000 5.1 210 19:18 16.04.2020
4643 Clouds 29 1018 66 10000 5.1 210 18:42 16.04.2020
4644 Clouds 29 1018 66 10000 5.1 210 18:23 16.04.2020
4645 Clouds 29 1018 70 10000 6.2 220 17:57 16.04.2020
4646 Clouds 29 1018 70 10000 6.2 220 17:39 16.04.2020
4647 Clouds 29 1018 70 10000 6.2 220 17:18 16.04.2020
4648 Clouds 29 1014 70 10000 5.1 200 16:42 16.04.2020
4649 Clouds 28 1018 78 10000 5.7 190 16:23 16.04.2020
4650 Clouds 28 1018 78 10000 5.7 190 15:45 16.04.2020
4651 Clouds 28 1018 78 10000 5.7 190 15:20 16.04.2020
4652 Clouds 27 1018 83 10000 4.1 190 14:58 16.04.2020
4653 Clouds 27 1018 83 10000 4.1 190 14:39 16.04.2020
4654 Clouds 26 1017 88 10000 3.1 200 14:20 16.04.2020
4655 Clouds 26 1017 88 10000 3.1 200 13:57 16.04.2020
4656 Clouds 26 1017 88 10000 3.1 200 13:37 16.04.2020
4657 Clouds 25 1017 88 10000 3.1 200 13:19 16.04.2020
4658 Clouds 25 1016 88 10000 3.1 200 12:56 16.04.2020
4659 Clouds 25 1016 88 10000 3.1 200 12:38 16.04.2020
4660 Clouds 25 1016 88 10000 3.1 200 12:19 16.04.2020
4661 Clear 26 1015 85 0 6.22 184 11:55 16.04.2020
4662 Clouds 25 1016 88 10000 3.6 180 11:36 16.04.2020
4663 Clouds 25 1016 88 10000 3.6 180 11:18 16.04.2020
4664 Clouds 25 1016 88 10000 3.6 180 11:18 16.04.2020
4665 Clouds 25 1016 88 10000 3.6 180 10:40 16.04.2020
4666 Clouds 25 1016 88 10000 3.6 180 10:19 16.04.2020
4667 Clouds 26 1016 83 10000 3.1 180 09:58 16.04.2020
4668 Clouds 26 1016 83 10000 3.1 180 09:38 16.04.2020
4669 Clouds 26 1016 83 10000 3.1 180 09:19 16.04.2020
4670 Clouds 26 1016 83 10000 3.1 180 09:19 16.04.2020
4671 Clouds 25 1017 88 10000 3.1 190 08:42 16.04.2020
4672 Clouds 26 1017 88 10000 3.1 190 08:23 16.04.2020
4673 Clouds 26 1017 88 10000 3.1 190 07:46 16.04.2020
4674 Clouds 26 1017 88 10000 3.1 190 07:27 16.04.2020
4675 Clouds 26 1017 88 10000 2.6 190 06:46 16.04.2020
4676 Clouds 26 1017 88 10000 2.6 190 06:26 16.04.2020
4677 Clouds 26 1017 83 10000 2.6 190 05:49 16.04.2020
4678 Clouds 26 1017 83 10000 2.6 190 04:29 16.04.2020
4679 Clouds 26 1016 83 10000 3.1 180 03:24 16.04.2020
4680 Clouds 27 1016 78 10000 4.1 180 02:49 16.04.2020
4681 Clouds 27 1016 78 10000 4.1 180 02:31 16.04.2020
4682 Clouds 28 1015 78 10000 6.2 180 01:19 16.04.2020
4683 Clouds 28 1014 74 10000 7.7 170 00:34 16.04.2020
4684 Clouds 29 1014 70 10000 7.7 180 23:59 15.04.2020
4685 Clouds 29 1014 70 10000 7.7 180 23:41 15.04.2020
4686 Clouds 29 1014 70 10000 7.7 180 23:22 15.04.2020
4687 Clouds 30 1014 66 10000 7.2 190 22:41 15.04.2020
4688 Clouds 30 1014 66 10000 7.2 190 22:22 15.04.2020
4689 Clouds 30 1015 62 10000 7.7 180 21:59 15.04.2020
4690 Clouds 30 1015 62 10000 7.7 180 21:41 15.04.2020
4691 Clouds 30 1015 62 10000 7.7 180 21:22 15.04.2020
4692 Clear 26 1016 80 0 6.32 155 20:58 15.04.2020
4693 Clear 26 1016 80 0 6.32 155 20:58 15.04.2020
4694 Clear 26 1016 80 0 6.32 155 20:40 15.04.2020
4695 Clouds 29 1016 66 10000 6.7 190 20:21 15.04.2020
4696 Clouds 29 1016 66 10000 6.7 190 20:21 15.04.2020
4697 Clouds 29 1016 66 10000 6.7 190 19:45 15.04.2020
4698 Clouds 29 1017 70 10000 7.2 190 19:21 15.04.2020
4699 Clouds 29 1017 70 10000 7.2 190 18:57 15.04.2020
4700 Clouds 29 1017 70 10000 7.2 190 18:38 15.04.2020
4701 Clouds 29 1018 70 10000 6.2 180 18:20 15.04.2020
4702 Clouds 29 1018 70 10000 6.2 180 17:40 15.04.2020
4703 Clouds 29 1018 70 10000 6.2 180 17:40 15.04.2020
4704 Clouds 29 1018 70 10000 6.2 180 17:22 15.04.2020
4705 Clouds 29 1018 70 10000 6.2 180 16:58 15.04.2020
4706 Clouds 29 1018 70 10000 6.2 180 16:40 15.04.2020
4707 Clouds 29 1018 70 10000 6.2 180 16:20 15.04.2020
4708 Clouds 28 1018 74 10000 5.7 190 15:59 15.04.2020
4709 Clouds 28 1018 74 10000 5.7 190 15:59 15.04.2020
4710 Clouds 28 1018 74 10000 5.7 190 15:40 15.04.2020
4711 Clouds 27 1018 83 10000 4.1 180 15:20 15.04.2020
4712 Clouds 27 1018 83 10000 4.1 180 14:59 15.04.2020
4713 Clouds 27 1018 83 10000 4.1 180 14:41 15.04.2020
4714 Clouds 26 1018 83 10000 4.1 180 14:23 15.04.2020
4715 Rain 26 1017 81 0 6.81 145 13:59 15.04.2020
4716 Rain 26 1016 82 0 6.81 145 13:40 15.04.2020
4717 Rain 25 1016 82 0 6.81 145 13:21 15.04.2020
4718 Rain 26 1017 81 0 6.81 145 12:57 15.04.2020
4719 Rain 26 1017 81 0 6.81 145 12:39 15.04.2020
4720 Rain 25 1016 83 0 7.46 140 12:21 15.04.2020
4721 Rain 25 1016 83 0 7.46 140 11:45 15.04.2020
4722 Rain 25 1016 83 0 7.46 140 11:25 15.04.2020
4723 Rain 25 1016 83 0 7.46 140 10:59 15.04.2020
4724 Rain 25 1016 83 0 7.46 140 10:37 15.04.2020
4725 Rain 25 1016 83 0 7.46 140 10:19 15.04.2020
4726 Rain 25 1017 81 0 7.46 140 09:55 15.04.2020
4727 Rain 25 1017 81 0 7.46 140 09:37 15.04.2020
4728 Clear 25 1017 81 0 7.95 131 09:19 15.04.2020
4729 Clear 25 1017 81 0 7.95 131 08:41 15.04.2020
4730 Clear 25 1017 81 0 7.95 131 08:21 15.04.2020
4731 Clear 25 1017 81 0 7.95 131 07:56 15.04.2020
4732 Clear 25 1017 81 0 7.95 131 07:36 15.04.2020
4733 Clear 26 1017 81 0 7.95 131 06:49 15.04.2020
4734 Clouds 25 1018 83 10000 5.1 150 06:20 15.04.2020
4735 Clear 26 1018 81 0 7.98 127 05:22 15.04.2020
4736 Clear 26 1018 80 0 7.98 127 04:45 15.04.2020
4737 Clear 26 1017 81 0 0.45 139 03:51 15.04.2020
4738 Clouds 26 1017 80 0 0.89 143 03:20 15.04.2020
4739 Clouds 26 1017 79 0 0.89 112 02:39 15.04.2020
4740 Clouds 27 1017 78 0 0.89 198 01:48 15.04.2020
4741 Clouds 27 1017 77 0 0.45 101 01:22 15.04.2020
4742 Clouds 28 1017 66 10000 6.7 170 00:37 15.04.2020
4743 Clouds 28 1017 66 10000 6.7 170 00:37 15.04.2020
4744 Clouds 29 1017 66 10000 6.7 170 00:19 15.04.2020
4745 Clouds 29 1017 66 10000 6.7 170 23:55 14.04.2020
4746 Clouds 29 1017 73 0 1.34 132 23:36 14.04.2020
4747 Clouds 29 1017 74 0 1.34 159 23:18 14.04.2020
4748 Clouds 26 1017 79 0 5.21 129 22:55 14.04.2020
4749 Clouds 26 1017 79 0 5.21 129 22:37 14.04.2020
4750 Clouds 29 1016 72 0 0.89 153 22:19 14.04.2020
4751 Clouds 29 1017 71 0 1.79 99 21:55 14.04.2020
4752 Clouds 30 1019 66 10000 6.2 160 21:37 14.04.2020
4753 Clouds 30 1019 66 10000 6.2 160 21:18 14.04.2020
4754 Clouds 30 1019 66 10000 6.2 160 20:41 14.04.2020
4755 Clouds 30 1019 66 10000 6.2 160 20:22 14.04.2020
4756 Clouds 30 1020 62 10000 7.2 160 19:58 14.04.2020
4757 Clouds 30 1020 62 10000 7.2 160 19:40 14.04.2020
4758 Clouds 30 1020 62 10000 7.2 160 19:20 14.04.2020
4759 Clouds 29 1020 66 10000 7.2 150 18:56 14.04.2020
4760 Clouds 29 1020 66 10000 7.2 150 18:37 14.04.2020
4761 Clouds 29 1020 66 10000 7.2 150 18:18 14.04.2020
4762 Clouds 29 1020 70 10000 7.2 150 17:55 14.04.2020
4763 Clouds 29 1020 70 10000 7.2 150 17:37 14.04.2020
4764 Clouds 29 1020 70 10000 7.2 150 17:18 14.04.2020
4765 Clouds 29 1020 70 10000 6.7 160 16:41 14.04.2020
4766 Clouds 29 1020 70 10000 6.7 160 16:23 14.04.2020
4767 Clouds 28 1019 77 0 6.37 139 15:58 14.04.2020
4768 Clouds 27 1020 83 10000 4.1 150 15:38 14.04.2020
4769 Clouds 27 1020 83 10000 4.1 150 15:19 14.04.2020
4770 Clouds 27 1020 83 10000 4.1 150 14:57 14.04.2020
4771 Clouds 26 1020 83 10000 4.1 150 14:39 14.04.2020
4772 Clouds 26 1020 83 10000 4.1 150 14:21 14.04.2020
4773 Clouds 25 1019 88 10000 3.6 150 13:44 14.04.2020
4774 Clouds 25 1019 88 10000 3.6 150 13:24 14.04.2020
4775 Clouds 25 1019 88 10000 3.1 140 12:57 14.04.2020
4776 Clouds 25 1019 88 10000 3.1 140 12:38 14.04.2020
4777 Clouds 25 1019 88 10000 3.1 140 12:19 14.04.2020
4778 Clouds 26 1019 83 10000 3.6 130 11:42 14.04.2020
4779 Clouds 26 1019 83 10000 3.6 130 11:24 14.04.2020
4780 Clouds 26 1018 86 0 6.35 128 10:56 14.04.2020
4781 Clouds 25 1019 88 10000 4.6 150 10:38 14.04.2020
4782 Clouds 25 1019 88 10000 4.6 150 10:20 14.04.2020
4783 Clouds 25 1019 88 10000 4.6 150 09:42 14.04.2020
4784 Clouds 25 1019 88 10000 4.6 150 09:23 14.04.2020
4785 Clouds 25 1020 88 10000 5.7 150 08:56 14.04.2020
4786 Clouds 25 1020 88 10000 5.7 150 08:37 14.04.2020
4787 Clouds 25 1020 88 10000 5.7 150 08:19 14.04.2020
4788 Clouds 26 1020 88 10000 6.2 150 07:51 14.04.2020
4789 Clouds 26 1020 88 10000 6.2 150 07:26 14.04.2020
4790 Clouds 26 1019 87 0 7.74 137 06:45 14.04.2020
4791 Clouds 26 1020 88 10000 5.7 150 05:47 14.04.2020
4792 Clouds 26 1020 88 10000 6.7 160 03:38 14.04.2020
4793 Clouds 26 1019 88 10000 7.7 150 02:34 14.04.2020
4794 Clouds 27 1019 83 10000 7.7 150 01:27 14.04.2020
4795 Clouds 28 1019 78 10000 6.7 160 00:51 14.04.2020
4796 Clouds 28 1019 78 10000 6.7 160 00:24 14.04.2020
4797 Clouds 29 1019 70 10000 7.2 170 23:59 13.04.2020
4798 Clouds 29 1019 70 10000 7.2 170 23:37 13.04.2020
4799 Clouds 29 1019 70 10000 7.2 170 23:19 13.04.2020
4800 Clouds 29 1019 74 10000 8.2 160 22:42 13.04.2020
4801 Clouds 29 1019 74 10000 8.2 160 22:23 13.04.2020
4802 Clouds 29 1020 74 10000 7.7 160 21:59 13.04.2020
4803 Clouds 29 1020 74 10000 7.7 160 21:40 13.04.2020
4804 Clouds 29 1020 74 10000 7.7 160 21:21 13.04.2020
4805 Clouds 29 1020 74 10000 8.7 170 20:58 13.04.2020
4806 Clouds 29 1020 74 10000 8.7 170 20:58 13.04.2020
4807 Clouds 29 1020 74 10000 8.7 170 20:39 13.04.2020
4808 Clouds 29 1020 74 10000 8.7 170 20:19 13.04.2020
4809 Clouds 29 1020 74 10000 8.7 170 20:19 13.04.2020
4810 Clouds 30 1021 70 10000 8.7 160 19:57 13.04.2020
4811 Clouds 30 1021 70 10000 8.7 160 19:37 13.04.2020
4812 Clouds 30 1021 70 10000 8.7 160 19:18 13.04.2020
4813 Clouds 29 1020 74 10000 9.8 160 18:55 13.04.2020
4814 Clouds 29 1020 74 10000 9.8 160 18:36 13.04.2020
4815 Clouds 29 1020 74 10000 9.8 160 18:18 13.04.2020
4816 Clouds 29 1020 74 10000 9.8 160 17:55 13.04.2020
4817 Clouds 29 1020 74 10000 9.8 160 17:36 13.04.2020
4818 Clouds 29 1020 74 10000 9.8 160 17:36 13.04.2020
4819 Clouds 29 1020 74 10000 9.8 160 17:18 13.04.2020
4820 Clouds 29 1020 74 10000 9.3 160 16:55 13.04.2020
4821 Clouds 29 1020 74 10000 9.3 160 16:55 13.04.2020
4822 Clouds 28 1020 74 10000 9.3 160 16:36 13.04.2020
4823 Clouds 28 1020 74 10000 9.3 160 16:18 13.04.2020
4824 Clouds 28 1020 78 10000 8.7 150 15:44 13.04.2020
4825 Clouds 27 1020 78 10000 8.7 150 15:26 13.04.2020
4826 Clouds 27 1020 78 10000 7.7 160 14:57 13.04.2020
4827 Clouds 27 1020 78 10000 7.7 160 14:39 13.04.2020
4828 Clouds 26 1020 78 10000 7.7 160 14:20 13.04.2020
4829 Clouds 26 1020 88 10000 7.2 150 13:55 13.04.2020
4830 Clouds 25 1020 88 10000 7.2 150 13:37 13.04.2020
4831 Clouds 25 1020 88 10000 7.2 150 13:37 13.04.2020
4832 Clouds 25 1020 88 10000 7.2 150 13:19 13.04.2020
4833 Clouds 26 1019 83 10000 7.2 150 12:57 13.04.2020
4834 Clouds 26 1019 83 10000 7.2 150 12:57 13.04.2020
4835 Clouds 26 1019 83 10000 7.2 150 12:38 13.04.2020
4836 Clouds 26 1019 83 10000 7.2 150 12:19 13.04.2020
4837 Clouds 26 1019 83 10000 7.2 150 11:44 13.04.2020
4838 Clouds 26 1019 83 10000 7.2 150 11:19 13.04.2020
4839 Clouds 25 1018 88 10000 7.7 140 10:56 13.04.2020
4840 Clouds 25 1018 88 10000 7.7 140 10:38 13.04.2020
4841 Clouds 25 1018 88 10000 7.7 140 10:20 13.04.2020
4842 Clouds 25 1019 83 10000 7.7 150 09:55 13.04.2020
4843 Clouds 25 1019 83 10000 8.2 140 09:36 13.04.2020
4844 Clouds 25 1019 83 10000 8.2 140 09:18 13.04.2020
4845 Clouds 25 1019 83 10000 8.2 140 08:43 13.04.2020
4846 Clouds 25 1019 83 10000 8.2 140 08:25 13.04.2020
4847 Clouds 26 1020 83 10000 7.7 140 07:42 13.04.2020
4848 Clouds 26 1020 83 10000 7.7 140 07:24 13.04.2020
4849 Rain 26 1019 82 0 10.03 124 06:47 13.04.2020
4850 Clouds 26 1019 82 0 10.11 118 06:26 13.04.2020
4851 Clouds 26 1020 78 10000 8.2 130 05:38 13.04.2020
4852 Clouds 26 1020 78 10000 8.2 130 05:18 13.04.2020
4853 Clouds 26 1020 78 10000 8.2 130 04:24 13.04.2020
4854 Clouds 26 1019 78 10000 7.7 130 03:49 13.04.2020
4855 Clouds 26 1019 78 10000 6.2 120 03:00 13.04.2020
4856 Clouds 26 1019 78 10000 6.2 120 02:38 13.04.2020
4857 Clouds 26 1019 78 10000 7.2 130 01:44 13.04.2020
4858 Clouds 27 1019 78 10000 7.2 130 01:25 13.04.2020
4859 Clouds 27 1019 74 10000 7.2 130 00:43 13.04.2020
4860 Clouds 27 1019 74 10000 7.2 130 00:22 13.04.2020
4861 Clouds 28 1019 69 10000 7.7 120 23:49 12.04.2020
4862 Clouds 28 1019 69 10000 7.7 120 23:23 12.04.2020
4863 Clouds 28 1019 66 10000 8.2 140 22:59 12.04.2020
4864 Clouds 28 1019 66 10000 8.2 140 22:38 12.04.2020
4865 Clouds 28 1019 66 10000 8.2 140 22:19 12.04.2020
4866 Clouds 28 1019 66 10000 8.2 140 22:19 12.04.2020
4867 Clouds 28 1019 69 10000 9.3 140 21:41 12.04.2020
4868 Clouds 28 1019 69 10000 9.3 140 21:22 12.04.2020
4869 Clouds 28 1020 74 10000 8.2 140 20:59 12.04.2020
4870 Clouds 28 1020 74 10000 8.2 140 20:40 12.04.2020
4871 Clouds 28 1020 74 10000 8.2 140 20:22 12.04.2020
4872 Clouds 28 1020 74 10000 8.7 140 19:56 12.04.2020
4873 Clouds 28 1020 74 10000 8.7 140 19:37 12.04.2020
4874 Clouds 28 1020 74 10000 8.7 140 19:37 12.04.2020
4875 Clouds 28 1021 69 10000 8.2 130 19:18 12.04.2020
4876 Clouds 28 1021 69 10000 8.2 130 19:18 12.04.2020
4877 Clouds 28 1021 69 10000 8.2 130 18:40 12.04.2020
4878 Clouds 25 1021 83 0 8.95 108 18:22 12.04.2020
4879 Clouds 28 1020 77 0 3.13 136 17:57 12.04.2020
4880 Clouds 27 1021 74 10000 6.2 130 17:38 12.04.2020
4881 Clouds 27 1021 74 10000 6.2 130 17:19 12.04.2020
4882 Clouds 27 1021 74 10000 6.2 130 16:56 12.04.2020
4883 Clouds 27 1021 74 10000 6.2 130 16:37 12.04.2020
4884 Clouds 27 1021 74 10000 6.2 130 16:19 12.04.2020
4885 Clouds 27 1020 78 10000 6.2 130 15:42 12.04.2020
4886 Clouds 27 1020 78 10000 6.2 130 15:22 12.04.2020
4887 Clouds 26 1019 78 10000 4.6 130 14:41 12.04.2020
4888 Clouds 26 1019 78 10000 4.6 130 14:22 12.04.2020
4889 Rain 25 1019 88 10000 3.6 120 13:58 12.04.2020
4890 Rain 25 1019 88 10000 3.6 120 13:40 12.04.2020
4891 Rain 25 1019 88 10000 3.6 120 13:21 12.04.2020
4892 Rain 25 1018 83 10000 5.1 120 12:47 12.04.2020
4893 Rain 25 1018 83 10000 5.1 120 12:22 12.04.2020
4894 Rain 25 1018 88 10000 4.6 140 11:59 12.04.2020
4895 Rain 25 1018 88 10000 4.6 140 11:39 12.04.2020
4896 Rain 25 1018 88 10000 4.6 140 11:20 12.04.2020
4897 Clouds 25 1017 83 10000 5.1 140 10:56 12.04.2020
4898 Clouds 25 1017 83 10000 5.1 140 10:38 12.04.2020
4899 Clouds 25 1017 83 10000 5.1 140 10:20 12.04.2020
4900 Clouds 25 1017 83 10000 6.2 140 09:58 12.04.2020
4901 Clouds 25 1017 83 10000 6.2 140 09:37 12.04.2020
4902 Clouds 25 1017 83 10000 6.2 140 09:19 12.04.2020
4903 Clouds 25 1018 83 10000 4.6 120 08:50 12.04.2020
4904 Clouds 25 1018 83 10000 4.6 120 08:50 12.04.2020
4905 Clouds 25 1018 83 10000 4.6 120 08:30 12.04.2020
4906 Clouds 25 1018 83 10000 5.1 120 07:47 12.04.2020
4907 Clouds 25 1018 83 10000 5.1 120 07:19 12.04.2020
4908 Clouds 25 1019 83 10000 5.1 110 06:54 12.04.2020
4909 Clouds 25 1019 83 10000 5.1 110 06:26 12.04.2020
4910 Clouds 25 1019 83 10000 5.1 100 05:42 12.04.2020
4911 Clouds 25 1018 83 10000 5.1 110 04:32 12.04.2020
4912 Clouds 25 1018 83 10000 5.1 100 03:29 12.04.2020
4913 Clouds 26 1017 74 10000 5.1 110 02:48 12.04.2020
4914 Clouds 26 1017 74 10000 5.1 110 02:27 12.04.2020
4915 Clouds 26 1017 78 10000 6.2 110 01:22 12.04.2020
4916 Clouds 26 1017 78 10000 6.2 110 01:22 12.04.2020
4917 Clouds 27 1016 69 10000 6.2 120 00:43 12.04.2020
4918 Clouds 27 1016 69 10000 6.2 120 00:21 12.04.2020
4919 Clouds 27 1016 69 10000 6.2 120 00:21 12.04.2020
4920 Clouds 27 1016 69 10000 6.2 110 23:47 11.04.2020
4921 Clouds 27 1016 69 10000 6.2 110 23:47 11.04.2020
4922 Clouds 27 1016 69 10000 6.2 110 23:26 11.04.2020
4923 Clouds 27 1016 65 10000 6.2 110 22:58 11.04.2020
4924 Clouds 27 1016 65 10000 6.2 110 22:37 11.04.2020
4925 Clouds 27 1016 65 10000 6.2 110 22:18 11.04.2020
4926 Clouds 28 1016 69 10000 6.2 90 21:54 11.04.2020
4927 Clouds 27 1016 69 10000 6.2 90 21:36 11.04.2020
4928 Clouds 27 1016 69 10000 6.2 90 21:18 11.04.2020
4929 Clouds 27 1017 74 10000 5.1 110 20:55 11.04.2020
4930 Clouds 27 1017 74 10000 5.1 110 20:36 11.04.2020
4931 Clouds 27 1017 74 10000 5.1 110 20:18 11.04.2020
4932 Clouds 27 1017 74 10000 5.1 90 19:54 11.04.2020
4933 Clouds 27 1017 74 10000 5.1 90 19:54 11.04.2020
4934 Clouds 27 1017 74 10000 5.1 90 19:36 11.04.2020
4935 Clouds 27 1017 74 10000 5.1 90 19:18 11.04.2020
4936 Clouds 27 1017 74 10000 5.1 90 18:55 11.04.2020
4937 Clouds 27 1017 74 10000 5.1 90 18:36 11.04.2020
4938 Clouds 27 1017 74 10000 5.1 90 18:18 11.04.2020
4939 Clouds 26 1017 78 10000 5.1 80 17:56 11.04.2020
4940 Clouds 26 1017 78 10000 5.1 80 17:36 11.04.2020
4941 Clouds 26 1017 78 10000 5.1 80 17:18 11.04.2020
4942 Clouds 26 1017 78 10000 3.6 100 16:42 11.04.2020
4943 Clouds 26 1017 78 10000 3.6 100 16:21 11.04.2020
4944 Clouds 26 1017 83 10000 3.1 90 15:41 11.04.2020
4945 Clouds 25 1017 83 10000 3.1 90 15:20 11.04.2020
4946 Clouds 25 1016 88 10000 2.6 90 14:57 11.04.2020
4947 Clouds 25 1016 88 10000 2.6 90 14:57 11.04.2020
4948 Clouds 25 1016 88 10000 2.6 90 14:39 11.04.2020
4949 Clouds 25 1016 88 10000 2.6 90 14:20 11.04.2020
4950 Clouds 25 1016 88 10000 2.6 90 14:20 11.04.2020
4951 Clouds 23 1015 88 10000 0.5 0 13:41 11.04.2020
4952 Clouds 23 1015 88 10000 0.5 0 13:23 11.04.2020
4953 Clouds 21 1014 94 10000 0.5 0 12:57 11.04.2020
4954 Clouds 21 1014 94 10000 0.5 0 12:37 11.04.2020
4955 Clouds 21 1014 94 10000 0.5 0 12:18 11.04.2020
4956 Clouds 21 1013 94 10000 2.84 71 11:41 11.04.2020
4957 Clouds 21 1013 94 10000 2.84 71 11:20 11.04.2020
4958 Clouds 21 1013 94 10000 2.84 71 10:56 11.04.2020
4959 Clouds 21 1013 94 10000 2.84 71 10:37 11.04.2020
4960 Clouds 21 1013 94 10000 2.84 71 10:18 11.04.2020
4961 Clear 25 1013 85 0 2.84 71 09:55 11.04.2020
4962 Clouds 22 1013 94 10000 1.5 20 09:37 11.04.2020
4963 Clouds 22 1013 94 10000 1.5 20 09:18 11.04.2020
4964 Clouds 22 1013 94 10000 1.5 20 08:42 11.04.2020
4965 Clouds 22 1013 94 10000 1.5 20 08:23 11.04.2020
4966 Clouds 23 1014 78 10000 2.1 50 07:43 11.04.2020
4967 Clouds 23 1014 78 10000 2.1 50 07:24 11.04.2020
4968 Clear 23 1013 82 0 2.68 53 06:37 11.04.2020
4969 Clear 24 1014 82 0 3.13 27 05:58 11.04.2020
4970 Clear 26 1013 78 10000 0.5 0 04:26 11.04.2020
4971 Clouds 26 1012 83 10000 2.1 240 02:53 11.04.2020
4972 Clear 27 1012 78 10000 3.6 340 01:27 11.04.2020
4973 Clear 28 1011 69 10000 5.7 330 00:57 11.04.2020
4974 Clear 28 1011 69 10000 5.7 330 00:38 11.04.2020
4975 Clouds 28 1011 69 10000 5.7 330 00:18 11.04.2020
4976 Clouds 29 1011 66 10000 6.2 330 23:42 10.04.2020
4977 Clouds 29 1011 66 10000 6.2 330 23:19 10.04.2020
4978 Clouds 29 1012 70 10000 5.7 330 22:58 10.04.2020
4979 Clouds 29 1012 70 10000 5.7 330 22:37 10.04.2020
4980 Clouds 29 1012 70 10000 5.7 330 22:37 10.04.2020
4981 Clouds 29 1012 70 10000 5.7 330 22:19 10.04.2020
4982 Clouds 29 1012 70 10000 5.7 330 21:42 10.04.2020
4983 Clouds 29 1012 70 10000 6.2 320 21:21 10.04.2020
4984 Clouds 29 1012 70 10000 6.2 320 20:58 10.04.2020
4985 Clouds 29 1012 70 10000 6.2 320 20:39 10.04.2020
4986 Clouds 29 1012 70 10000 6.2 320 20:20 10.04.2020
4987 Clouds 29 1013 66 10000 5.1 310 19:55 10.04.2020
4988 Clouds 30 1013 66 10000 5.1 310 19:37 10.04.2020
4989 Clouds 30 1013 66 10000 5.1 310 19:19 10.04.2020
4990 Clouds 29 1013 66 10000 4.1 310 18:55 10.04.2020
4991 Clouds 29 1013 66 10000 4.1 310 18:37 10.04.2020
4992 Clouds 29 1013 66 10000 4.1 310 18:18 10.04.2020
4993 Clouds 28 1013 69 10000 5.7 290 17:56 10.04.2020
4994 Clouds 28 1013 69 10000 5.7 290 17:38 10.04.2020
4995 Clouds 28 1013 69 10000 5.7 290 17:18 10.04.2020
4996 Clouds 29 1013 74 10000 5.1 290 16:42 10.04.2020
4997 Clouds 29 1013 74 10000 5.1 290 16:23 10.04.2020
4998 Clouds 28 1012 83 10000 5.1 260 15:58 10.04.2020
4999 Clouds 27 1012 83 10000 5.1 260 15:39 10.04.2020
5000 Clouds 27 1012 83 10000 5.1 260 15:21 10.04.2020
5001 Clouds 26 1012 88 10000 3.1 270 14:58 10.04.2020
5002 Clouds 26 1012 88 10000 3.1 270 14:39 10.04.2020
5003 Clouds 26 1012 88 10000 3.1 270 14:20 10.04.2020
5004 Clouds 25 1012 88 10000 3.1 240 13:45 10.04.2020
5005 Clouds 25 1012 88 10000 3.1 240 13:23 10.04.2020
5006 Clouds 25 1011 88 10000 2.6 230 12:56 10.04.2020
5007 Clouds 25 1011 88 10000 2.6 230 12:37 10.04.2020
5008 Clouds 25 1011 88 10000 2.6 230 12:19 10.04.2020
5009 Clouds 24 1011 94 10000 2.6 230 11:42 10.04.2020
5010 Clouds 24 1011 94 10000 2.6 230 11:23 10.04.2020
5011 Clouds 25 1011 88 10000 2.6 220 10:56 10.04.2020
5012 Clouds 25 1011 88 10000 2.6 220 10:37 10.04.2020
5013 Clouds 25 1011 88 10000 2.6 220 10:19 10.04.2020
5014 Clouds 25 1011 88 10000 2.6 230 09:43 10.04.2020
5015 Clear 25 1011 88 10000 2.6 230 09:20 10.04.2020
5016 Clear 25 1011 88 10000 2.6 230 09:20 10.04.2020
5017 Clear 25 1011 88 10000 2.6 230 08:47 10.04.2020
5018 Clear 25 1011 88 10000 2.6 230 08:27 10.04.2020
5019 Clear 25 1012 88 10000 2.6 240 07:49 10.04.2020
5020 Clear 25 1012 88 10000 2.6 240 07:30 10.04.2020
5021 Clear 25 1012 88 10000 1.5 260 06:59 10.04.2020
5022 Clear 25 1012 88 10000 1.5 260 06:30 10.04.2020
5023 Clear 25 1012 88 10000 1.5 260 06:30 10.04.2020
5024 Clear 25 1012 88 10000 1.5 260 06:30 10.04.2020
5025 Clear 25 1012 88 10000 2.1 250 05:56 10.04.2020
5026 Clear 25 1012 88 10000 2.1 250 05:19 10.04.2020
5027 Clear 25 1012 83 10000 2.1 270 03:55 10.04.2020
5028 Clear 25 1012 83 10000 2.1 270 03:32 10.04.2020
5029 Clear 25 1012 83 10000 2.1 270 03:32 10.04.2020
5030 Clear 25 1012 83 10000 2.1 270 03:32 10.04.2020
5031 Clear 26 1012 88 10000 2.1 310 02:50 10.04.2020
5032 Clear 26 1012 88 10000 2.1 310 02:31 10.04.2020
5033 Clouds 28 1011 66 10000 3.6 300 01:30 10.04.2020
5034 Clouds 28 1011 66 10000 3.6 300 00:55 10.04.2020
5035 Clouds 30 1011 62 10000 5.1 290 00:37 10.04.2020
5036 Clouds 30 1011 62 10000 5.1 290 00:18 10.04.2020
5037 Clouds 30 1011 62 10000 5.1 290 23:41 09.04.2020
5038 Clouds 30 1011 62 10000 5.1 290 23:20 09.04.2020
5039 Clouds 30 1012 62 10000 6.2 300 22:42 09.04.2020
5040 Clouds 30 1012 62 10000 6.2 300 22:24 09.04.2020
5041 Clouds 30 1012 62 10000 5.7 300 21:59 09.04.2020
5042 Clouds 30 1012 62 10000 5.7 300 21:37 09.04.2020
5043 Clouds 30 1012 62 10000 5.7 300 21:19 09.04.2020
5044 Clouds 30 1012 62 10000 5.7 300 21:19 09.04.2020
5045 Clouds 30 1013 62 10000 6.2 290 20:44 09.04.2020
5046 Clouds 30 1013 62 10000 6.2 290 20:21 09.04.2020
5047 Clouds 29 1014 62 10000 6.2 280 19:58 09.04.2020
5048 Clouds 29 1014 62 10000 6.2 280 19:37 09.04.2020
5049 Clouds 29 1014 62 10000 6.2 280 19:18 09.04.2020
5050 Clouds 29 1014 62 10000 6.2 280 19:18 09.04.2020
5051 Clouds 29 1014 66 10000 6.2 280 18:41 09.04.2020
5052 Clouds 29 1014 66 10000 6.2 280 18:20 09.04.2020
5053 Clouds 29 1015 70 10000 5.1 280 17:41 09.04.2020
5054 Clouds 29 1015 70 10000 5.1 280 17:23 09.04.2020
5055 Clouds 29 1014 69 10000 5.1 260 16:56 09.04.2020
5056 Clouds 28 1014 69 10000 5.1 260 16:38 09.04.2020
5057 Clouds 28 1014 69 10000 5.1 260 16:38 09.04.2020
5058 Clouds 28 1014 69 10000 5.1 260 16:18 09.04.2020
5059 Clouds 27 1014 78 10000 4.6 260 15:55 09.04.2020
5060 Clouds 27 1014 78 10000 4.6 260 15:36 09.04.2020
5061 Clouds 27 1014 78 10000 4.6 260 15:18 09.04.2020
5062 Clear 26 1013 88 10000 3.6 240 14:40 09.04.2020
5063 Clear 25 1013 88 10000 3.6 240 14:21 09.04.2020
5064 Clear 25 1013 88 10000 3.6 240 14:21 09.04.2020
5065 Clouds 24 1013 88 10000 2.6 250 13:44 09.04.2020
5066 Clouds 24 1013 88 10000 2.6 250 13:26 09.04.2020
5067 Clouds 24 1012 88 10000 3.1 240 12:59 09.04.2020
5068 Clouds 24 1012 88 10000 3.1 240 12:59 09.04.2020
5069 Clouds 24 1012 88 10000 3.1 240 12:41 09.04.2020
5070 Clouds 24 1012 88 10000 3.1 240 12:21 09.04.2020
5071 Clouds 24 1013 88 10000 2.6 240 11:57 09.04.2020
5072 Clouds 24 1013 88 10000 2.6 240 11:38 09.04.2020
5073 Clouds 24 1013 88 10000 2.6 240 11:19 09.04.2020
5074 Clear 25 1011 81 0 7.57 231 10:55 09.04.2020
5075 Clouds 24 1014 88 10000 2.6 260 10:37 09.04.2020
5076 Clouds 24 1014 88 10000 2.6 260 10:18 09.04.2020
5077 Clouds 24 1014 88 10000 2.6 260 09:40 09.04.2020
5078 Clouds 24 1014 88 10000 2.6 260 09:21 09.04.2020
5079 Clouds 24 1014 94 10000 2.6 240 08:57 09.04.2020
5080 Clouds 25 1014 94 10000 2.6 240 08:39 09.04.2020
5081 Clouds 25 1014 94 10000 2.6 240 08:21 09.04.2020
5082 Clouds 25 1015 88 10000 3.1 200 07:40 09.04.2020
5083 Clouds 24 1015 88 10000 3.1 200 07:21 09.04.2020
5084 Clouds 24 1015 88 10000 3.1 200 06:42 09.04.2020
5085 Clouds 24 1016 88 10000 2.1 210 05:49 09.04.2020
5086 Clouds 25 1016 88 10000 2.1 210 05:25 09.04.2020
5087 Clouds 25 1014 83 10000 1.5 190 02:36 09.04.2020
5088 Clouds 26 1014 74 10000 3.1 220 01:46 09.04.2020
5089 Clouds 26 1014 74 10000 3.1 220 01:27 09.04.2020
5090 Clouds 28 1014 65 10000 2.1 200 00:54 09.04.2020
5091 Clouds 28 1014 65 10000 2.1 200 00:36 09.04.2020
5092 Clouds 28 1014 65 10000 2.1 200 00:18 09.04.2020
5093 Clouds 28 1014 65 10000 2.1 200 00:18 09.04.2020
5094 Clouds 27 1014 74 10000 3.1 170 23:41 08.04.2020
5095 Clouds 27 1014 74 10000 3.1 170 23:41 08.04.2020
5096 Clouds 27 1014 74 10000 3.1 170 23:22 08.04.2020
5097 Clouds 28 1015 65 10000 1.5 0 22:44 08.04.2020
5098 Clouds 28 1015 65 10000 1.5 0 22:25 08.04.2020
5099 Clouds 27 1016 74 10000 2.1 40 21:57 08.04.2020
5100 Clouds 27 1016 74 10000 2.1 40 21:39 08.04.2020
5101 Clouds 27 1016 74 10000 2.1 40 21:21 08.04.2020
5102 Clouds 28 1016 69 10000 2.1 40 21:00 08.04.2020
5103 Clouds 28 1016 69 10000 2.1 40 20:40 08.04.2020
5104 Clouds 27 1017 69 10000 2.1 340 20:21 08.04.2020
5105 Clouds 27 1017 69 10000 2.1 340 19:59 08.04.2020
5106 Clouds 27 1017 69 10000 2.1 340 19:38 08.04.2020
5107 Clouds 27 1017 69 10000 2.1 340 19:20 08.04.2020
5108 Clouds 28 1017 62 10000 2.6 240 18:45 08.04.2020
5109 Clouds 28 1017 62 10000 2.6 240 18:26 08.04.2020
5110 Clouds 28 1017 65 10000 3.1 230 17:56 08.04.2020
5111 Clouds 28 1017 65 10000 3.1 230 17:38 08.04.2020
5112 Clouds 28 1017 65 10000 3.1 230 17:19 08.04.2020
5113 Clouds 27 1017 69 10000 4.1 200 16:43 08.04.2020
5114 Clouds 27 1017 69 10000 4.1 200 16:23 08.04.2020
5115 Clouds 26 1016 74 10000 3.6 220 15:58 08.04.2020
5116 Clouds 26 1016 78 10000 1 0 15:38 08.04.2020
5117 Clouds 26 1016 78 10000 1 0 15:20 08.04.2020
5118 Clouds 26 1016 78 10000 1 0 14:45 08.04.2020
5119 Clouds 25 1016 78 10000 1 0 14:25 08.04.2020
5120 Clouds 24 1015 83 10000 1.5 200 13:56 08.04.2020
5121 Clouds 24 1015 83 10000 1.5 200 13:37 08.04.2020
5122 Clouds 23 1015 83 10000 1.5 200 13:19 08.04.2020
5123 Clouds 23 1015 83 10000 1.5 200 12:42 08.04.2020
5124 Clouds 23 1015 83 10000 1.5 200 12:18 08.04.2020
5125 Clouds 23 1015 88 10000 2.1 140 11:58 08.04.2020
5126 Clouds 23 1015 88 10000 2.1 140 11:39 08.04.2020
5127 Clouds 23 1015 88 10000 2.1 140 11:21 08.04.2020
5128 Clouds 23 1015 88 10000 2.1 140 11:21 08.04.2020
5129 Clouds 23 1015 88 10000 3.1 140 10:55 08.04.2020
5130 Clouds 23 1015 88 10000 3.1 140 10:37 08.04.2020
5131 Clouds 23 1015 88 10000 3.1 140 10:18 08.04.2020
5132 Clouds 23 1016 83 10000 2.1 150 09:42 08.04.2020
5133 Clouds 23 1016 83 10000 2.1 150 09:21 08.04.2020
5134 Clouds 23 1017 88 10000 3.1 120 08:59 08.04.2020
5135 Clouds 23 1017 88 10000 3.1 120 08:41 08.04.2020
5136 Clouds 23 1017 88 10000 3.1 120 08:21 08.04.2020
5137 Clouds 23 1018 88 10000 1.5 90 07:43 08.04.2020
5138 Clouds 23 1018 88 10000 1.5 90 07:22 08.04.2020
5139 Clouds 23 1018 88 10000 2.6 100 06:43 08.04.2020
5140 Clouds 24 1019 83 10000 2.1 90 05:49 08.04.2020
5141 Clouds 24 1018 78 10000 2.1 100 03:22 08.04.2020
5142 Clouds 24 1017 73 10000 3.1 140 02:38 08.04.2020
5143 Clouds 24 1017 73 10000 3.1 140 02:18 08.04.2020
5144 Clouds 25 1017 69 10000 4.6 130 01:30 08.04.2020
5145 Clouds 26 1017 69 10000 4.1 130 00:52 08.04.2020
5146 Clouds 26 1017 69 10000 4.1 130 00:33 08.04.2020
5147 Clouds 26 1017 65 10000 3.6 110 23:58 07.04.2020
5148 Clouds 26 1017 65 10000 3.6 110 23:38 07.04.2020
5149 Clouds 27 1017 65 10000 3.6 110 23:19 07.04.2020
5150 Clouds 27 1017 65 10000 3.6 110 23:19 07.04.2020
5151 Clouds 26 1018 69 10000 4.1 110 22:56 07.04.2020
5152 Clouds 26 1018 69 10000 4.1 110 22:38 07.04.2020
5153 Clouds 26 1018 69 10000 4.1 110 22:18 07.04.2020
5154 Clouds 26 1018 74 10000 4.6 130 21:43 07.04.2020
5155 Clouds 26 1018 74 10000 4.6 130 21:23 07.04.2020
5156 Clouds 27 1019 69 10000 4.6 120 20:59 07.04.2020
5157 Clouds 27 1019 69 10000 4.6 120 20:41 07.04.2020
5158 Clouds 27 1019 69 10000 4.6 120 20:21 07.04.2020
5159 Rain 24 1020 83 10000 4.1 150 19:58 07.04.2020
5160 Rain 25 1020 83 10000 4.1 150 19:38 07.04.2020
5161 Clouds 24 1020 83 10000 5.1 130 19:20 07.04.2020
5162 Clouds 26 1020 83 10000 5.1 130 18:59 07.04.2020
5163 Clouds 25 1020 83 10000 5.1 130 18:40 07.04.2020
5164 Clouds 25 1020 83 10000 5.1 130 18:40 07.04.2020
5165 Clouds 24 1020 83 10000 5.1 130 18:21 07.04.2020
5166 Clouds 27 1020 69 10000 5.1 120 17:47 07.04.2020
5167 Clouds 27 1020 69 10000 5.1 120 17:24 07.04.2020
5168 Clouds 25 1020 78 10000 3.6 120 16:58 07.04.2020
5169 Clouds 26 1020 78 10000 3.6 120 16:40 07.04.2020
5170 Clouds 26 1020 78 10000 4.1 120 16:22 07.04.2020
5171 Clouds 25 1020 78 10000 4.1 120 15:43 07.04.2020
5172 Clouds 25 1019 83 10000 2.6 90 15:24 07.04.2020
5173 Clouds 24 1019 83 10000 2.6 90 14:43 07.04.2020
5174 Clouds 24 1019 83 10000 2.6 90 14:23 07.04.2020
5175 Clouds 23 1018 83 10000 2.1 90 13:58 07.04.2020
5176 Clouds 23 1018 83 10000 2.1 90 13:39 07.04.2020
5177 Clouds 23 1018 83 10000 2.1 90 13:19 07.04.2020
5178 Clouds 23 1018 83 10000 2.1 100 12:56 07.04.2020
5179 Clouds 23 1018 83 10000 2.1 100 12:37 07.04.2020
5180 Clouds 23 1018 83 10000 2.1 100 12:18 07.04.2020
5181 Rain 23 1017 83 10000 3.6 110 11:45 07.04.2020
5182 Rain 23 1017 83 10000 3.6 110 11:27 07.04.2020
5183 Clouds 23 1017 83 10000 2.1 120 10:59 07.04.2020
5184 Clouds 23 1017 83 10000 2.1 120 10:39 07.04.2020
5185 Clouds 23 1017 83 10000 2.1 120 10:19 07.04.2020
5186 Clouds 23 1018 83 10000 3.6 100 09:46 07.04.2020
5187 Clouds 23 1018 83 10000 3.6 100 09:20 07.04.2020
5188 Clouds 23 1018 83 10000 3.6 110 08:59 07.04.2020
5189 Clouds 23 1018 83 10000 3.6 110 08:39 07.04.2020
5190 Clouds 23 1018 83 10000 3.6 110 08:19 07.04.2020
5191 Clouds 23 1018 83 10000 4.6 120 07:44 07.04.2020
5192 Clouds 23 1018 83 10000 4.6 120 07:26 07.04.2020
5193 Clouds 23 1019 83 10000 4.6 100 06:51 07.04.2020
5194 Clouds 23 1019 83 10000 4.6 100 06:25 07.04.2020
5195 Rain 24 1019 78 10000 4.1 100 05:46 07.04.2020
5196 Rain 24 1019 78 10000 4.1 100 05:22 07.04.2020
5197 Clouds 23 1018 83 10000 5.1 110 03:32 07.04.2020
5198 Clouds 23 1017 83 10000 4.1 110 02:59 07.04.2020
5199 Clouds 24 1017 78 10000 5.1 100 01:58 07.04.2020
5200 Clouds 24 1017 78 10000 5.1 100 01:32 07.04.2020
5201 Clouds 24 1017 78 10000 5.1 100 00:29 07.04.2020
5202 Clouds 24 1017 78 10000 5.1 100 23:57 06.04.2020
5203 Clouds 24 1017 78 10000 5.1 100 23:38 06.04.2020
5204 Clouds 24 1017 78 10000 5.1 100 23:20 06.04.2020
5205 Clouds 24 1017 78 10000 5.1 140 22:41 06.04.2020
5206 Clouds 25 1017 78 10000 5.1 140 22:22 06.04.2020
5207 Clouds 24 1017 88 10000 3.1 160 21:58 06.04.2020
5208 Clouds 24 1017 88 10000 3.1 160 21:40 06.04.2020
5209 Clouds 23 1017 88 10000 3.1 160 21:19 06.04.2020
5210 Clouds 23 1018 94 10000 2.6 140 20:56 06.04.2020
5211 Clouds 23 1018 94 10000 2.6 140 20:38 06.04.2020
5212 Clouds 23 1018 94 10000 2.6 140 20:19 06.04.2020
5213 Rain 23 1018 94 4000 1.5 80 19:42 06.04.2020
5214 Rain 23 1018 94 4000 1.5 80 19:23 06.04.2020
5215 Rain 24 1019 94 6000 2.1 30 18:59 06.04.2020
5216 Rain 24 1019 94 6000 2.1 30 18:41 06.04.2020
5217 Rain 24 1019 94 6000 2.1 30 18:23 06.04.2020
5218 Rain 24 1018 94 7000 2.1 80 17:55 06.04.2020
5219 Rain 24 1018 94 7000 2.1 80 17:36 06.04.2020
5220 Rain 24 1018 94 7000 2.1 80 17:36 06.04.2020
5221 Rain 24 1018 94 7000 2.1 80 17:18 06.04.2020
5222 Rain 23 1018 94 7000 3.1 170 16:44 06.04.2020
5223 Rain 23 1018 94 7000 3.1 170 16:26 06.04.2020
5224 Clouds 24 1017 73 10000 3.1 130 14:45 06.04.2020
5225 Clouds 24 1017 73 10000 3.1 130 14:45 06.04.2020
5226 Clouds 24 1017 73 10000 3.1 130 14:45 06.04.2020
5227 Clouds 24 1017 73 10000 3.1 130 14:45 06.04.2020
5228 Clouds 24 1017 73 10000 3.1 130 14:45 06.04.2020
5229 Clouds 24 1016 73 10000 2.6 140 13:43 06.04.2020
5230 Clouds 24 1016 73 10000 2.6 140 13:20 06.04.2020
5231 Clouds 24 1016 73 10000 2.6 140 13:20 06.04.2020
5232 Clouds 24 1016 69 10000 4.6 150 12:26 06.04.2020
5233 Clouds 24 1016 69 10000 4.6 150 12:26 06.04.2020
5234 Clouds 24 1016 69 10000 4.6 150 12:26 06.04.2020
5235 Clouds 24 1016 69 10000 4.6 150 12:26 06.04.2020
5236 Clouds 24 1016 69 10000 2.1 90 11:55 06.04.2020
5237 Clouds 24 1016 69 10000 2.1 90 11:33 06.04.2020
5238 Clouds 24 1016 69 10000 2.1 90 11:33 06.04.2020
5239 Clouds 24 1016 69 10000 2.1 90 11:33 06.04.2020
5240 Clouds 23 1016 69 10000 2.1 160 10:52 06.04.2020
5241 Clouds 23 1016 69 10000 2.1 160 10:52 06.04.2020
5242 Clouds 23 1016 69 10000 2.1 160 10:52 06.04.2020
5243 Clouds 23 1016 69 10000 2.1 160 10:52 06.04.2020
5244 Clouds 23 1016 69 10000 2.1 160 10:52 06.04.2020
5245 Clouds 23 1016 69 10000 2.1 160 10:22 06.04.2020
5246 Clouds 23 1016 69 10000 2.1 160 10:22 06.04.2020
5247 Clouds 24 1016 64 10000 3.1 150 09:51 06.04.2020
5248 Clouds 24 1016 64 10000 3.1 150 09:51 06.04.2020
5249 Clouds 24 1016 64 10000 3.1 150 09:23 06.04.2020
5250 Clouds 23 1015 72 0 0.89 124 08:55 06.04.2020
5251 Clouds 23 1015 72 0 0.89 124 08:33 06.04.2020
5252 Clouds 24 1017 64 10000 4.1 140 07:54 06.04.2020
5253 Clouds 24 1017 64 10000 4.1 130 06:57 06.04.2020
5254 Clouds 24 1017 64 10000 4.1 130 06:25 06.04.2020
5255 Clouds 24 1017 60 10000 3.6 130 04:32 06.04.2020
5256 Clouds 24 1016 60 10000 3.6 140 03:18 06.04.2020
5257 Clouds 24 1016 60 10000 4.6 140 02:44 06.04.2020
5258 Clouds 24 1016 64 10000 5.1 130 01:47 06.04.2020
5259 Clouds 24 1016 61 10000 5.1 150 00:46 06.04.2020
5260 Clouds 24 1016 61 10000 5.1 150 00:46 06.04.2020
5261 Clouds 24 1016 61 10000 5.1 150 00:24 06.04.2020
5262 Clouds 25 1015 57 10000 5.7 140 23:46 05.04.2020
5263 Clouds 25 1015 57 10000 5.7 140 23:27 05.04.2020
5264 Clouds 25 1015 57 10000 5.7 140 23:26 05.04.2020
5265 Clouds 25 1015 57 10000 5.7 140 23:26 05.04.2020
5266 Clouds 25 1015 57 10000 5.7 140 23:26 05.04.2020
5267 Clouds 26 1016 54 10000 4.6 50 22:56 05.04.2020
5268 Clouds 26 1016 54 10000 4.6 50 22:38 05.04.2020
5269 Clouds 26 1016 54 10000 4.6 50 22:38 05.04.2020
5270 Clouds 26 1016 54 10000 4.6 50 22:38 05.04.2020
5271 Clouds 26 1016 54 10000 4.6 50 22:38 05.04.2020
5272 Clouds 27 1016 54 10000 4.6 50 22:18 05.04.2020
5273 Clouds 27 1016 57 10000 3.6 30 21:47 05.04.2020
5274 Clouds 27 1016 57 10000 3.6 30 21:26 05.04.2020
5275 Clouds 27 1016 57 10000 3.6 30 21:03 05.04.2020
5276 Clouds 27 1016 57 10000 3.6 30 21:03 05.04.2020
5277 Clouds 27 1016 57 10000 3.6 30 21:03 05.04.2020
5278 Clouds 27 1016 57 10000 3.6 30 21:03 05.04.2020
5279 Clouds 27 1016 57 10000 3.6 30 21:03 05.04.2020
5280 Clouds 27 1017 57 10000 3.1 30 20:20 05.04.2020
5281 Clouds 27 1017 57 10000 3.1 30 20:20 05.04.2020
5282 Clouds 27 1017 57 10000 3.1 30 20:20 05.04.2020
5283 Clouds 28 1017 51 10000 2.6 110 19:38 05.04.2020
5284 Clouds 28 1017 51 10000 2.6 110 19:20 05.04.2020
5285 Clouds 27 1017 51 10000 3.6 100 18:44 05.04.2020
5286 Clouds 27 1017 51 10000 3.6 100 18:44 05.04.2020
5287 Clouds 27 1017 51 10000 3.6 100 18:44 05.04.2020
5288 Clouds 27 1017 51 10000 3.6 100 18:44 05.04.2020
5289 Clouds 27 1017 51 10000 3.6 100 18:44 05.04.2020
5290 Clouds 27 1017 54 10000 3.1 110 17:57 05.04.2020
5291 Clouds 27 1017 54 10000 3.1 110 17:38 05.04.2020
5292 Clouds 27 1017 54 10000 3.1 110 17:19 05.04.2020
5293 Clouds 27 1017 54 10000 3.1 110 17:19 05.04.2020
5294 Clouds 27 1017 54 10000 3.1 110 17:19 05.04.2020
5295 Clouds 27 1017 54 10000 3.1 110 17:19 05.04.2020
5296 Clouds 27 1017 54 10000 3.1 110 17:17 05.04.2020
5297 Clouds 26 1017 57 10000 3.1 120 16:20 05.04.2020
5298 Clouds 25 1016 65 10000 2.1 100 15:52 05.04.2020
5299 Clouds 25 1016 65 10000 2.1 100 15:33 05.04.2020
5300 Clouds 24 1016 83 10000 2.6 121 14:50 05.04.2020
5301 Clouds 24 1016 83 10000 1.94 134 14:26 05.04.2020
5302 Clouds 21 1015 88 10000 1 0 13:43 05.04.2020
5303 Clouds 19 1014 88 10000 1 0 12:49 05.04.2020
5304 Clouds 19 1014 88 10000 1 0 12:49 05.04.2020
5305 Clouds 18 1014 88 10000 0.5 0 11:41 05.04.2020
5306 Clouds 18 1014 88 10000 0.5 0 11:21 05.04.2020
5307 Clouds 24 1013 58 0 2.77 140 10:49 05.04.2020
5308 Clouds 18 1014 82 10000 1 0 10:24 05.04.2020
5309 Clouds 18 1014 82 10000 1 0 09:57 05.04.2020
5310 Clouds 18 1014 82 10000 1 0 09:31 05.04.2020
5311 Clouds 18 1014 82 10000 1 0 09:02 05.04.2020
5312 Clouds 18 1014 82 10000 1 0 09:02 05.04.2020
5313 Clouds 18 1014 82 10000 1 0 09:02 05.04.2020
5314 Clouds 19 1016 82 10000 0.5 0 07:31 05.04.2020
5315 Clouds 22 1015 72 0 3.05 73 04:36 05.04.2020
5316 Clouds 23 1016 64 10000 1.5 70 03:30 05.04.2020
5317 Clouds 23 1015 60 10000 2.1 70 02:49 05.04.2020
5318 Clouds 23 1015 60 10000 2.6 40 01:46 05.04.2020
5319 Clouds 23 1015 60 10000 2.6 40 01:25 05.04.2020
5320 Clouds 24 1014 57 10000 3.1 30 00:43 05.04.2020
5321 Clouds 24 1014 57 10000 3.1 30 00:21 05.04.2020
5322 Clouds 25 1014 57 10000 3.6 20 23:43 04.04.2020
5323 Clouds 25 1014 57 10000 3.6 20 23:23 04.04.2020
5324 Clouds 25 1015 57 10000 4.6 40 22:57 04.04.2020
5325 Clouds 25 1015 57 10000 4.6 40 22:39 04.04.2020
5326 Clouds 25 1015 57 10000 4.6 40 22:21 04.04.2020
5327 Clouds 25 1015 61 10000 4.1 20 21:58 04.04.2020
5328 Clouds 25 1015 61 10000 4.1 20 21:39 04.04.2020
5329 Clouds 25 1015 61 10000 4.1 20 21:19 04.04.2020
5330 Clouds 25 1015 57 10000 3.1 60 20:56 04.04.2020
5331 Clouds 25 1015 57 10000 3.1 60 20:37 04.04.2020
5332 Clouds 25 1015 57 10000 3.1 60 20:19 04.04.2020
5333 Clear 25 1014 67 0 2.24 46 19:55 04.04.2020
5334 Clear 26 1014 66 0 1.34 18 19:36 04.04.2020
5335 Clouds 25 1017 57 10000 3.1 20 19:18 04.04.2020
5336 Clouds 25 1017 57 10000 3.1 20 18:54 04.04.2020
5337 Clouds 25 1017 57 10000 3.1 20 18:36 04.04.2020
5338 Clear 25 1015 65 0 2.24 46 18:18 04.04.2020
5339 Clear 25 1016 65 0 1.34 20 17:39 04.04.2020
5340 Clouds 25 1016 57 10000 1.5 50 17:19 04.04.2020
5341 Clouds 25 1016 57 10000 1.5 50 16:46 04.04.2020
5342 Clouds 25 1016 57 10000 1.5 50 16:27 04.04.2020
5343 Clouds 24 1016 64 10000 1 0 15:59 04.04.2020
5344 Clouds 24 1016 64 10000 1 0 15:39 04.04.2020
5345 Clouds 24 1016 64 10000 1 0 15:20 04.04.2020
5346 Clouds 23 1015 73 10000 0.5 0 14:56 04.04.2020
5347 Clouds 22 1015 73 10000 0.5 0 14:37 04.04.2020
5348 Clear 19 1014 87 10000 2.05 356 14:18 04.04.2020
5349 Clear 18 1014 87 10000 2.05 356 13:42 04.04.2020
5350 Clear 15 1014 87 10000 2.05 356 13:22 04.04.2020
5351 Clear 15 1014 87 10000 2.05 356 13:22 04.04.2020
5352 Clear 15 1014 87 10000 2.05 356 12:58 04.04.2020
5353 Clear 15 1014 87 10000 2.05 356 12:40 04.04.2020
5354 Clear 15 1014 87 10000 2.05 356 12:21 04.04.2020
5355 Clear 16 1014 82 10000 2.36 335 11:42 04.04.2020
5356 Clear 15 1014 87 10000 1 0 11:23 04.04.2020
5357 Clear 15 1014 87 10000 1 0 10:59 04.04.2020
5358 Clear 15 1014 87 10000 1 0 10:41 04.04.2020
5359 Clear 15 1014 87 10000 1 0 10:23 04.04.2020
5360 Clear 16 1015 82 10000 1 0 09:57 04.04.2020
5361 Clear 16 1015 82 10000 1 0 09:39 04.04.2020
5362 Clear 16 1015 82 10000 1 0 09:20 04.04.2020
5363 Clear 16 1015 82 10000 1 0 08:44 04.04.2020
5364 Clear 16 1015 82 10000 1 0 08:23 04.04.2020
5365 Clear 17 1015 77 10000 0.5 0 07:59 04.04.2020
5366 Clear 17 1015 77 10000 0.5 0 07:39 04.04.2020
5367 Clear 17 1015 77 10000 0.5 0 07:21 04.04.2020
5368 Clear 17 1016 77 10000 1 0 06:38 04.04.2020
5369 Clear 20 1016 72 10000 1.5 40 05:52 04.04.2020
5370 Clear 20 1016 72 10000 1.5 40 05:52 04.04.2020
5371 Clear 20 1016 72 10000 1.5 40 05:33 04.04.2020
5372 Clear 22 1016 60 10000 1 0 04:34 04.04.2020
5373 Clear 22 1016 56 10000 1.5 20 03:57 04.04.2020
5374 Clear 22 1016 56 10000 1.5 20 03:36 04.04.2020
5375 Clear 23 1015 53 10000 1 360 02:46 04.04.2020
5376 Clear 23 1015 53 10000 1 360 02:25 04.04.2020
5377 Clouds 23 1015 53 10000 1.5 20 01:31 04.04.2020
5378 Clouds 23 1015 50 10000 3.1 20 00:59 04.04.2020
5379 Clouds 24 1015 50 10000 3.1 20 00:35 04.04.2020
5380 Clouds 24 1014 50 10000 4.1 360 23:59 03.04.2020
5381 Clouds 24 1014 50 10000 4.1 360 23:38 03.04.2020
5382 Clouds 24 1014 50 10000 4.1 360 23:19 03.04.2020
5383 Clouds 24 1015 50 10000 4.1 10 22:41 03.04.2020
5384 Clouds 24 1015 50 10000 4.1 10 22:19 03.04.2020
5385 Clouds 24 1015 50 10000 4.6 20 21:57 03.04.2020
5386 Clouds 24 1015 50 10000 4.6 20 21:38 03.04.2020
5387 Clouds 24 1015 50 10000 4.6 20 21:20 03.04.2020
5388 Clouds 24 1016 53 10000 3.6 20 20:55 03.04.2020
5389 Clouds 24 1016 53 10000 3.6 20 20:36 03.04.2020
5390 Clouds 24 1016 53 10000 3.6 20 20:18 03.04.2020
5391 Clouds 25 1017 50 10000 3.1 10 19:55 03.04.2020
5392 Clouds 24 1017 50 10000 3.1 10 19:36 03.04.2020
5393 Clouds 25 1017 50 10000 3.1 10 19:18 03.04.2020
5394 Clouds 25 1017 50 10000 4.1 10 18:57 03.04.2020
5395 Clouds 25 1017 50 10000 4.1 10 18:39 03.04.2020
5396 Clouds 25 1017 50 10000 4.1 10 18:39 03.04.2020
5397 Clouds 25 1017 50 10000 4.1 10 18:21 03.04.2020
5398 Clouds 24 1017 53 10000 3.1 360 17:41 03.04.2020
5399 Clouds 24 1017 53 10000 3.1 360 17:19 03.04.2020
5400 Clouds 24 1017 53 10000 3.1 50 16:55 03.04.2020
5401 Clouds 24 1017 53 10000 3.1 50 16:36 03.04.2020
5402 Clouds 24 1017 53 10000 3.1 50 16:18 03.04.2020
5403 Clouds 23 1016 53 10000 2.1 70 15:41 03.04.2020
5404 Clouds 23 1016 53 10000 2.1 70 15:22 03.04.2020
5405 Clouds 21 1016 88 10000 4.2 9 14:58 03.04.2020
5406 Clear 23 1015 63 0 1.34 53 14:40 03.04.2020
5407 Clouds 20 1015 87 10000 4.13 16 14:21 03.04.2020
5408 Clouds 20 1015 87 10000 4.13 16 13:46 03.04.2020
5409 Clouds 16 1015 87 10000 4.13 16 13:27 03.04.2020
5410 Clouds 22 1015 56 10000 1.5 40 12:57 03.04.2020
5411 Clouds 22 1015 56 10000 1.5 40 12:39 03.04.2020
5412 Clouds 22 1015 56 10000 1.5 40 12:18 03.04.2020
5413 Clouds 22 1015 56 10000 1.5 40 11:55 03.04.2020
5414 Clouds 22 1015 56 10000 1.5 40 11:55 03.04.2020
5415 Clouds 21 1015 56 10000 1.5 40 11:37 03.04.2020
5416 Clouds 21 1015 56 10000 1.5 40 11:18 03.04.2020
5417 Clear 21 1013 74 0 3.81 15 10:56 03.04.2020
5418 Clear 21 1013 74 0 3.81 15 10:37 03.04.2020
5419 Clear 21 1013 74 0 3.81 15 10:37 03.04.2020
5420 Clear 21 1013 74 0 3.81 15 10:18 03.04.2020
5421 Clear 21 1013 74 0 3.81 15 10:18 03.04.2020
5422 Clear 21 1013 72 0 3.81 15 09:54 03.04.2020
5423 Clear 21 1013 73 0 0.89 78 09:36 03.04.2020
5424 Clear 21 1013 73 0 0.89 78 09:36 03.04.2020
5425 Clear 21 1013 72 0 0.45 100 09:18 03.04.2020
5426 Clear 22 1013 71 0 0.89 53 08:41 03.04.2020
5427 Clear 22 1013 67 0 4.54 35 08:22 03.04.2020
5428 Clear 21 1014 68 0 4.55 35 07:50 03.04.2020
5429 Clear 22 1014 68 0 4.54 35 07:32 03.04.2020
5430 Clear 22 1014 67 0 0.89 44 06:55 03.04.2020
5431 Clear 22 1014 68 0 1.34 46 06:25 03.04.2020
5432 Clear 22 1015 69 0 0.89 82 05:42 03.04.2020
5433 Clouds 22 1015 56 10000 1.5 40 03:47 03.04.2020
5434 Clouds 22 1015 56 10000 1.5 40 03:29 03.04.2020
5435 Clouds 22 1015 56 0 3.1 30 02:29 03.04.2020
5436 Clear 23 1014 53 10000 3.1 30 01:23 03.04.2020
5437 Clouds 24 1014 50 10000 3.6 40 00:41 03.04.2020
5438 Clouds 24 1014 50 10000 3.6 40 00:20 03.04.2020
5439 Clouds 24 1014 50 10000 4.6 30 23:42 02.04.2020
5440 Clouds 24 1014 50 10000 4.6 30 23:23 02.04.2020
5441 Clouds 24 1014 50 10000 4.6 30 22:59 02.04.2020
5442 Clouds 24 1014 50 10000 4.6 30 22:41 02.04.2020
5443 Clouds 24 1014 50 10000 4.6 30 22:20 02.04.2020
5444 Clouds 25 1015 47 10000 4.1 10 21:54 02.04.2020
5445 Clouds 25 1015 47 10000 4.1 10 21:36 02.04.2020
5446 Clouds 25 1015 47 10000 4.1 10 21:18 02.04.2020
5447 Clouds 25 1015 50 10000 3.6 40 20:42 02.04.2020
5448 Clouds 25 1015 50 10000 4.1 40 20:22 02.04.2020
5449 Clouds 25 1015 50 10000 4.1 40 19:45 02.04.2020
5450 Clouds 25 1015 50 10000 4.1 40 19:21 02.04.2020
5451 Clouds 25 1016 47 10000 3.6 30 19:00 02.04.2020
5452 Clouds 25 1016 47 10000 3.6 30 18:41 02.04.2020
5453 Clouds 24 1016 53 10000 4.6 50 18:20 02.04.2020
5454 Clouds 24 1016 53 10000 4.6 50 17:57 02.04.2020
5455 Clouds 24 1016 53 10000 4.6 50 17:39 02.04.2020
5456 Clouds 24 1016 53 10000 4.6 50 17:20 02.04.2020
5457 Clouds 24 1015 50 10000 4.1 40 16:55 02.04.2020
5458 Clouds 24 1015 50 10000 4.1 40 16:37 02.04.2020
5459 Clouds 24 1015 50 10000 4.1 40 16:19 02.04.2020
5460 Clouds 23 1015 53 10000 4.1 50 15:44 02.04.2020
5461 Clouds 23 1014 64 10000 4.1 50 15:21 02.04.2020
5462 Clouds 22 1014 64 10000 4.1 50 14:59 02.04.2020
5463 Clouds 22 1014 64 10000 4.1 50 14:40 02.04.2020
5464 Clouds 22 1014 64 10000 4.1 50 14:20 02.04.2020
5465 Clouds 22 1014 64 10000 2.6 50 13:57 02.04.2020
5466 Clouds 22 1014 64 10000 2.6 50 13:38 02.04.2020
5467 Clouds 22 1014 64 10000 2.6 50 13:38 02.04.2020
5468 Clouds 21 1014 64 10000 2.6 50 13:20 02.04.2020
5469 Clouds 22 1013 60 10000 3.6 40 12:55 02.04.2020
5470 Clouds 22 1013 60 10000 3.6 40 12:55 02.04.2020
5471 Clouds 22 1013 60 10000 3.6 40 12:36 02.04.2020
5472 Clouds 22 1013 60 10000 3.6 40 12:18 02.04.2020
5473 Clouds 22 1013 60 10000 4.6 50 11:55 02.04.2020
5474 Clouds 22 1013 60 10000 4.6 50 11:55 02.04.2020
5475 Clouds 22 1013 60 10000 4.6 50 11:36 02.04.2020
5476 Clouds 22 1013 60 10000 4.6 50 11:18 02.04.2020
5477 Clouds 22 1013 64 10000 3.6 40 10:54 02.04.2020
5478 Clouds 22 1013 64 10000 3.6 40 10:36 02.04.2020
5479 Clouds 22 1013 64 10000 3.6 40 10:36 02.04.2020
5480 Clouds 22 1013 64 10000 3.6 40 10:18 02.04.2020
5481 Clouds 22 1013 64 10000 4.1 30 09:42 02.04.2020
5482 Clouds 22 1013 64 10000 4.1 30 09:24 02.04.2020
5483 Clouds 23 1013 60 10000 4.6 30 08:58 02.04.2020
5484 Clouds 23 1013 60 10000 4.6 30 08:39 02.04.2020
5485 Clouds 23 1013 60 10000 4.6 30 08:19 02.04.2020
5486 Clouds 23 1013 60 10000 4.6 40 07:42 02.04.2020
5487 Clouds 23 1013 60 10000 4.6 40 07:19 02.04.2020
5488 Clouds 23 1013 64 10000 4.1 20 06:46 02.04.2020
5489 Clouds 23 1013 64 10000 4.1 20 06:20 02.04.2020
5490 Clouds 23 1012 69 10000 4.1 20 05:41 02.04.2020
5491 Clouds 24 1011 69 10000 5.1 350 02:59 02.04.2020
5492 Clouds 25 1010 73 10000 5.7 360 01:30 02.04.2020
5493 Clouds 26 1009 69 10000 5.7 330 00:42 02.04.2020
5494 Clouds 26 1009 69 10000 5.7 330 00:24 02.04.2020
5495 Clouds 27 1009 69 10000 6.2 320 23:41 01.04.2020
5496 Clouds 27 1009 69 10000 6.2 320 23:20 01.04.2020
5497 Clouds 27 1009 69 10000 6.2 330 22:58 01.04.2020
5498 Clouds 27 1009 69 10000 6.2 330 22:39 01.04.2020
5499 Clouds 26 1009 69 10000 7.2 310 22:20 01.04.2020
5500 Clouds 27 1009 69 10000 7.2 310 21:42 01.04.2020
5501 Clouds 27 1009 83 10000 5.1 300 21:19 01.04.2020
5502 Clouds 27 1009 83 10000 5.1 300 20:57 01.04.2020
5503 Clouds 27 1009 83 10000 5.1 300 20:39 01.04.2020
5504 Clouds 27 1010 83 10000 4.1 300 20:20 01.04.2020
5505 Clouds 27 1010 83 10000 4.1 300 19:58 01.04.2020
5506 Clouds 26 1010 83 10000 4.1 300 19:40 01.04.2020
5507 Clouds 27 1010 83 10000 4.1 300 19:19 01.04.2020
5508 Rain 25 1011 83 10000 5.7 280 18:42 01.04.2020
5509 Rain 24 1011 83 10000 5.7 280 18:24 01.04.2020
5510 Clouds 23 1009 82 0 1.34 293 17:57 01.04.2020
5511 Clouds 24 1009 81 0 3.13 269 17:38 01.04.2020
5512 Clouds 28 1009 74 10000 6.7 260 17:19 01.04.2020
5513 Clouds 28 1009 74 10000 6.7 260 16:58 01.04.2020
5514 Clouds 28 1009 74 10000 6.7 260 16:39 01.04.2020
5515 Clouds 27 1009 74 10000 6.7 260 16:21 01.04.2020
5516 Clouds 27 1009 78 10000 7.2 250 15:57 01.04.2020
5517 Clouds 27 1009 78 10000 7.2 250 15:37 01.04.2020
5518 Clouds 26 1009 83 10000 4.1 250 15:18 01.04.2020
5519 Clouds 26 1009 83 10000 4.1 250 14:41 01.04.2020
5520 Clouds 26 1009 80 0 8.33 257 14:23 01.04.2020
5521 Clouds 25 1008 81 0 8.33 257 13:59 01.04.2020
5522 Clouds 24 1008 81 0 8.33 257 13:40 01.04.2020
5523 Clouds 26 1009 75 0 8.33 257 13:20 01.04.2020
5524 Clouds 26 1009 75 0 8.33 257 13:20 01.04.2020
5525 Clouds 26 1009 75 0 8.33 257 12:59 01.04.2020
5526 Clouds 26 1009 75 0 8.33 257 12:40 01.04.2020
5527 Clouds 24 1009 83 10000 4.1 240 12:22 01.04.2020
5528 Clouds 24 1009 83 10000 4.1 240 11:57 01.04.2020
5529 Clouds 24 1009 83 10000 4.1 240 11:37 01.04.2020
5530 Clouds 24 1009 83 10000 4.1 240 11:37 01.04.2020
5531 Clouds 24 1008 81 0 8.91 234 11:19 01.04.2020
5532 Clouds 24 1008 81 0 8.91 234 10:39 01.04.2020
5533 Clouds 24 1008 81 0 8.91 234 10:21 01.04.2020
5534 Clouds 24 1008 81 0 8.91 234 09:59 01.04.2020
5535 Clouds 24 1008 81 0 8.91 234 09:40 01.04.2020
5536 Clouds 24 1008 81 0 8.91 234 09:40 01.04.2020
5537 Clouds 24 1008 81 0 8.89 240 09:20 01.04.2020
5538 Clouds 24 1008 81 0 7.74 217 08:44 01.04.2020
5539 Clouds 24 1008 81 0 7.74 217 08:44 01.04.2020
5540 Clouds 24 1008 81 0 7.74 217 08:20 01.04.2020
5541 Clouds 24 1009 81 0 7.74 217 07:58 01.04.2020
5542 Clouds 24 1009 81 0 7.74 217 07:40 01.04.2020
5543 Clouds 24 1009 81 0 7.74 217 07:19 01.04.2020
5544 Clouds 23 1009 82 0 0.45 242 06:41 01.04.2020
5545 Clouds 23 1009 82 0 3.69 243 06:20 01.04.2020
5546 Clouds 23 1012 78 10000 1.5 250 05:24 01.04.2020
5547 Clouds 24 1011 73 10000 2.1 280 03:39 01.04.2020
5548 Clouds 25 1012 69 10000 2.6 270 02:59 01.04.2020
5549 Clear 25 1010 80 0 0.45 240 02:31 01.04.2020
5550 Clouds 26 1012 74 10000 5.7 210 01:46 01.04.2020
5551 Clouds 26 1012 74 10000 5.7 210 01:24 01.04.2020
5552 Clear 27 1010 76 0 1.34 266 00:47 01.04.2020
5553 Clouds 28 1011 65 10000 5.7 190 00:21 01.04.2020
5554 Clouds 28 1011 65 10000 5.7 190 23:54 31.03.2020
5555 Clouds 28 1011 65 10000 5.7 190 23:36 31.03.2020
5556 Clouds 28 1011 65 10000 5.7 190 23:18 31.03.2020
5557 Clouds 28 1012 61 10000 5.7 200 22:40 31.03.2020
5558 Clouds 28 1012 61 10000 5.7 200 22:20 31.03.2020
5559 Clouds 28 1012 61 10000 4.6 190 21:57 31.03.2020
5560 Clouds 28 1012 61 10000 4.6 190 21:39 31.03.2020
5561 Clouds 28 1012 61 10000 4.6 190 21:20 31.03.2020
5562 Clouds 25 1013 71 0 4.61 173 20:56 31.03.2020
5563 Clouds 25 1013 71 0 4.61 173 20:37 31.03.2020
5564 Clouds 28 1014 61 10000 4.6 210 20:18 31.03.2020
5565 Clouds 28 1014 61 10000 4.6 210 19:43 31.03.2020
5566 Clouds 28 1014 61 10000 4.6 210 19:25 31.03.2020
5567 Clouds 28 1015 58 10000 4.6 210 18:59 31.03.2020
5568 Clouds 28 1015 58 10000 4.6 210 18:41 31.03.2020
5569 Clouds 28 1015 58 10000 4.6 210 18:19 31.03.2020
5570 Clouds 27 1016 65 10000 4.6 220 17:55 31.03.2020
5571 Clouds 27 1016 65 10000 4.6 220 17:37 31.03.2020
5572 Clouds 27 1016 65 10000 4.6 220 17:37 31.03.2020
5573 Clouds 27 1016 65 10000 4.6 220 17:37 31.03.2020
5574 Clouds 26 1016 65 10000 4.6 220 17:19 31.03.2020
5575 Clouds 27 1016 69 10000 4.1 220 16:41 31.03.2020
5576 Clouds 26 1016 69 10000 4.1 220 16:20 31.03.2020
5577 Clouds 26 1016 83 10000 2.1 230 15:58 31.03.2020
5578 Clouds 26 1016 83 10000 2.1 230 15:58 31.03.2020
5579 Clouds 25 1016 83 10000 2.1 230 15:40 31.03.2020
5580 Clouds 24 1016 94 10000 1.5 220 15:22 31.03.2020
5581 Clouds 24 1016 94 10000 1.5 220 14:58 31.03.2020
5582 Clouds 24 1016 94 10000 1.5 220 14:39 31.03.2020
5583 Clouds 23 1016 94 10000 1.5 220 14:21 31.03.2020
5584 Clouds 22 1016 88 10000 0.5 0 13:43 31.03.2020
5585 Clouds 22 1016 88 10000 0.5 0 13:20 31.03.2020
5586 Clouds 21 1015 88 10000 4.37 179 12:57 31.03.2020
5587 Clouds 21 1015 88 10000 4.37 179 12:39 31.03.2020
5588 Clouds 21 1015 88 10000 4.28 153 12:19 31.03.2020
5589 Clouds 21 1015 94 10000 1 0 11:40 31.03.2020
5590 Clouds 21 1015 94 10000 1 0 11:20 31.03.2020
5591 Clouds 22 1015 88 10000 0.5 0 10:58 31.03.2020
5592 Clouds 22 1015 88 10000 0.5 0 10:58 31.03.2020
5593 Clouds 22 1015 88 10000 0.5 0 10:40 31.03.2020
5594 Clouds 22 1015 88 10000 0.5 0 10:21 31.03.2020
5595 Clouds 22 1015 88 10000 2.6 170 09:57 31.03.2020
5596 Clouds 22 1015 88 10000 2.6 170 09:39 31.03.2020
5597 Clouds 22 1015 88 10000 2.6 170 09:21 31.03.2020
5598 Clouds 22 1016 94 10000 1 0 08:57 31.03.2020
5599 Clouds 22 1016 94 10000 1 0 08:38 31.03.2020
5600 Clouds 22 1016 94 10000 1 0 08:38 31.03.2020
5601 Clouds 22 1016 94 10000 1 0 08:19 31.03.2020
5602 Clouds 22 1017 88 10000 2.6 140 07:55 31.03.2020
5603 Clouds 22 1017 88 10000 2.6 140 07:55 31.03.2020
5604 Clouds 22 1017 88 10000 2.6 140 07:37 31.03.2020
5605 Clouds 22 1017 88 10000 2.6 140 07:18 31.03.2020
5606 Clear 22 1017 88 10000 1 150 06:42 31.03.2020
5607 -273 0 0 0 0 0 05:57 31.03.2020
5608 Clear 23 1018 88 10000 4.34 110 05:38 31.03.2020
5609 Clear 24 1018 73 10000 2.6 110 03:27 31.03.2020
5610 Clouds 25 1018 69 10000 3.6 110 01:48 31.03.2020
5611 Clouds 25 1018 69 10000 3.6 110 01:27 31.03.2020
5612 Clear 26 1017 75 0 0.45 55 00:44 31.03.2020
5613 Clear 26 1017 73 0 1.34 67 00:23 31.03.2020
5614 Clouds 26 1017 73 0 0.89 68 23:41 30.03.2020
5615 Clouds 26 1019 69 10000 5.1 30 23:20 30.03.2020
5616 Clouds 26 1019 69 10000 5.1 30 22:58 30.03.2020
5617 Clouds 26 1019 69 10000 5.1 30 22:58 30.03.2020
5618 Clouds 26 1019 69 10000 5.1 30 22:39 30.03.2020
5619 Clouds 26 1019 69 10000 5.1 30 22:19 30.03.2020
5620 Clouds 26 1019 69 10000 4.1 360 21:57 30.03.2020
5621 Clouds 26 1019 69 10000 4.1 360 21:38 30.03.2020
5622 Clouds 27 1019 69 10000 4.1 360 21:20 30.03.2020
5623 Clouds 27 1020 61 10000 2.6 300 20:58 30.03.2020
5624 Clouds 28 1020 61 10000 2.6 300 20:39 30.03.2020
5625 Clouds 28 1020 61 10000 2.6 300 20:20 30.03.2020
5626 Clouds 28 1021 58 10000 3.1 200 19:56 30.03.2020
5627 Clouds 29 1021 58 10000 3.1 200 19:37 30.03.2020
5628 Clouds 29 1021 58 10000 3.1 200 19:19 30.03.2020
5629 Clouds 28 1021 61 10000 2.6 180 18:42 30.03.2020
5630 Clouds 28 1021 61 10000 2.6 180 18:42 30.03.2020
5631 Clouds 28 1021 61 10000 2.6 180 18:24 30.03.2020
5632 Clouds 27 1022 74 10000 2.6 60 17:58 30.03.2020
5633 Clouds 26 1022 74 10000 2.6 60 17:39 30.03.2020
5634 Clouds 27 1022 61 10000 3.1 100 17:19 30.03.2020
5635 Clouds 27 1022 61 10000 3.1 100 16:57 30.03.2020
5636 Clouds 27 1022 61 10000 3.1 100 16:39 30.03.2020
5637 Clouds 27 1022 69 10000 2.6 100 16:20 30.03.2020
5638 Clouds 27 1022 69 10000 2.6 100 16:20 30.03.2020
5639 Clouds 27 1022 69 10000 2.6 100 15:55 30.03.2020
5640 Clouds 26 1022 69 10000 2.6 100 15:37 30.03.2020
5641 Clouds 25 1022 88 10000 1 70 15:19 30.03.2020
5642 Clouds 25 1022 88 10000 1 70 14:55 30.03.2020
5643 Clouds 25 1022 88 10000 1 70 14:37 30.03.2020
5644 Clouds 24 1021 88 10000 1 0 14:18 30.03.2020
5645 Clouds 23 1021 88 10000 1 0 13:54 30.03.2020
5646 Clouds 22 1021 88 10000 1 0 13:36 30.03.2020
5647 Clouds 21 1021 88 10000 1 0 13:18 30.03.2020
5648 Clouds 22 1020 88 10000 1.5 130 12:41 30.03.2020
5649 Clouds 22 1020 88 10000 1.5 130 12:20 30.03.2020
5650 Clouds 23 1020 83 10000 2.1 120 11:57 30.03.2020
5651 Clouds 23 1020 83 10000 2.1 120 11:39 30.03.2020
5652 Clouds 23 1020 83 10000 2.1 120 11:20 30.03.2020
5653 Clouds 23 1019 81 0 5.55 129 10:41 30.03.2020
5654 Clouds 23 1019 81 0 5.55 129 10:22 30.03.2020
5655 Clouds 23 1019 81 0 5.55 129 09:57 30.03.2020
5656 Clouds 23 1019 81 0 5.55 129 09:57 30.03.2020
5657 Clouds 23 1019 81 0 5.55 129 09:38 30.03.2020
5658 Clouds 24 1021 83 10000 4.1 110 09:19 30.03.2020
5659 Clouds 24 1021 83 10000 4.1 110 08:42 30.03.2020
5660 Clouds 24 1021 83 10000 4.1 110 08:22 30.03.2020
5661 Clouds 24 1021 83 10000 4.1 110 07:50 30.03.2020
5662 Clouds 24 1021 83 10000 4.1 110 07:31 30.03.2020
5663 Clouds 24 1022 78 10000 3.6 120 06:57 30.03.2020
5664 Clouds 24 1022 78 10000 3.6 120 06:32 30.03.2020
5665 Clouds 24 1022 78 10000 3.6 120 05:54 30.03.2020
5666 Clouds 25 1022 78 10000 3.6 120 05:22 30.03.2020
5667 Clouds 24 1022 83 10000 3.6 120 04:23 30.03.2020
5668 Clouds 24 1021 83 10000 3.6 120 03:44 30.03.2020
5669 Clouds 25 1021 73 10000 4.1 110 02:39 30.03.2020
5670 Clear 25 1020 78 0 0.89 115 01:44 30.03.2020
5671 Clouds 26 1020 65 10000 5.1 130 00:49 30.03.2020
5672 Clouds 27 1020 65 10000 5.1 130 00:22 30.03.2020
5673 Clear 27 1020 58 10000 4.1 140 23:42 29.03.2020
5674 Clouds 28 1021 54 10000 5.1 120 23:23 29.03.2020
5675 Clouds 28 1021 54 10000 5.1 120 22:57 29.03.2020
5676 Clouds 28 1021 54 10000 5.1 120 22:38 29.03.2020
5677 Clouds 28 1021 54 10000 5.1 120 22:19 29.03.2020
5678 Clouds 28 1021 54 10000 5.7 140 21:55 29.03.2020
5679 Clouds 28 1021 54 10000 5.7 140 21:36 29.03.2020
5680 Clouds 28 1022 54 10000 4.6 140 21:18 29.03.2020
5681 Clouds 28 1022 54 10000 4.6 140 20:54 29.03.2020
5682 Clouds 28 1022 54 10000 4.6 140 20:36 29.03.2020
5683 Clouds 28 1022 54 10000 4.6 140 20:18 29.03.2020
5684 Clouds 28 1022 54 10000 4.6 140 19:41 29.03.2020
5685 Clouds 28 1023 54 10000 5.1 130 19:23 29.03.2020
5686 Clouds 28 1023 65 10000 5.1 140 18:57 29.03.2020
5687 Clouds 28 1023 65 10000 5.1 140 18:39 29.03.2020
5688 Clouds 28 1023 65 10000 5.1 140 18:20 29.03.2020
5689 Clouds 28 1023 65 10000 5.7 130 17:56 29.03.2020
5690 Clouds 28 1023 65 10000 5.7 130 17:38 29.03.2020
5691 Clouds 28 1023 65 10000 5.7 130 17:20 29.03.2020
5692 Clouds 27 1022 72 0 2.24 122 16:57 29.03.2020
5693 Clouds 27 1022 73 0 1.79 122 16:38 29.03.2020
5694 Clouds 27 1022 75 0 0.89 172 16:19 29.03.2020
5695 Clouds 26 1022 73 10000 4.1 120 15:43 29.03.2020
5696 Clouds 26 1022 73 10000 4.1 120 15:25 29.03.2020
5697 Clouds 25 1021 83 10000 2.1 110 14:59 29.03.2020
5698 Clouds 25 1021 83 10000 2.1 110 14:40 29.03.2020
5699 Clouds 25 1021 83 10000 2.1 110 14:40 29.03.2020
5700 Clouds 25 1021 83 10000 2.1 110 14:20 29.03.2020
5701 Clouds 24 1020 83 10000 3.6 120 13:58 29.03.2020
5702 Clouds 24 1020 83 10000 3.6 120 13:40 29.03.2020
5703 Clouds 23 1020 83 10000 3.6 120 13:20 29.03.2020
5704 Clouds 23 1020 83 10000 3.6 120 12:57 29.03.2020
5705 Clouds 23 1020 83 10000 3.6 129 12:37 29.03.2020
5706 Clouds 23 1020 83 10000 3.6 129 12:19 29.03.2020
5707 Clouds 23 1020 83 10000 3.6 129 12:19 29.03.2020
5708 Clouds 23 1019 88 10000 2.6 120 11:55 29.03.2020
5709 Clouds 23 1019 88 10000 2.6 120 11:37 29.03.2020
5710 Clouds 23 1019 88 10000 3.1 120 11:18 29.03.2020
5711 Clouds 23 1019 88 10000 3.1 120 10:38 29.03.2020
5712 Clouds 23 1019 88 10000 3.1 120 10:19 29.03.2020
5713 Clouds 24 1019 83 10000 3.1 110 09:41 29.03.2020
5714 Clouds 24 1019 83 10000 3.1 110 09:22 29.03.2020
5715 Clouds 24 1018 81 0 6.73 111 08:56 29.03.2020
5716 Clouds 23 1018 81 0 6.73 111 08:38 29.03.2020
5717 Clouds 24 1020 83 10000 4.1 120 08:19 29.03.2020
5718 Clouds 24 1020 83 10000 4.1 120 07:42 29.03.2020
5719 Clouds 24 1020 83 10000 4.1 120 07:21 29.03.2020
5720 Clouds 24 1020 78 10000 3.6 120 05:50 29.03.2020
5721 Clouds 24 1020 78 10000 4.1 140 04:29 29.03.2020
5722 Clear 24 1019 80 0 1.79 90 03:31 29.03.2020
5723 Clouds 25 1019 73 10000 2.6 120 01:51 29.03.2020
5724 Clouds 25 1018 69 10000 5.7 120 01:23 29.03.2020
5725 Clouds 25 1018 69 10000 5.7 120 00:58 29.03.2020
5726 Clouds 25 1018 69 10000 5.7 120 00:33 29.03.2020
5727 Clouds 26 1018 65 10000 5.7 130 23:56 28.03.2020
5728 Clouds 26 1018 65 10000 5.7 130 23:38 28.03.2020
5729 Clouds 27 1018 65 10000 5.7 130 23:18 28.03.2020
5730 Clouds 27 1018 61 10000 6.2 120 22:39 28.03.2020
5731 Clouds 27 1019 58 10000 6.2 120 22:21 28.03.2020
5732 Clouds 27 1019 58 10000 6.2 120 21:55 28.03.2020
5733 Clouds 27 1019 58 10000 6.2 120 21:37 28.03.2020
5734 Clouds 27 1019 58 10000 6.2 120 21:18 28.03.2020
5735 Clouds 27 1019 58 10000 7.2 140 20:42 28.03.2020
5736 Clouds 27 1019 58 10000 7.2 140 20:23 28.03.2020
5737 Clouds 27 1020 61 10000 6.7 140 19:57 28.03.2020
5738 Clouds 27 1020 61 10000 6.7 140 19:39 28.03.2020
5739 Clouds 27 1020 61 10000 6.7 140 19:20 28.03.2020
5740 Clouds 27 1020 61 10000 6.7 140 19:20 28.03.2020
5741 Clouds 27 1020 61 10000 6.2 140 18:58 28.03.2020
5742 Clouds 27 1020 61 10000 6.2 140 18:38 28.03.2020
5743 Clouds 27 1020 61 10000 6.2 140 18:19 28.03.2020
5744 Clouds 27 1020 61 10000 6.2 140 18:19 28.03.2020
5745 Clouds 26 1021 61 10000 6.2 120 17:39 28.03.2020
5746 Clouds 26 1021 61 10000 6.2 120 17:20 28.03.2020
5747 Clouds 26 1020 61 10000 7.2 120 16:43 28.03.2020
5748 Clouds 26 1020 61 10000 7.2 120 16:20 28.03.2020
5749 Clouds 25 1020 65 10000 6.2 100 15:58 28.03.2020
5750 Clouds 25 1020 65 10000 6.2 100 15:39 28.03.2020
5751 Clouds 25 1020 65 10000 6.2 100 15:19 28.03.2020
5752 Clouds 25 1020 65 10000 5.7 110 14:43 28.03.2020
5753 Clouds 25 1020 65 10000 5.7 110 14:23 28.03.2020
5754 Clouds 24 1019 73 10000 3.1 100 13:59 28.03.2020
5755 Clouds 24 1019 73 10000 3.1 100 13:38 28.03.2020
5756 Clouds 24 1019 73 10000 3.1 100 13:19 28.03.2020
5757 Clouds 23 1018 73 10000 1.5 100 12:39 28.03.2020
5758 Clouds 22 1018 73 10000 1.5 100 12:21 28.03.2020
5759 Clouds 22 1017 73 10000 2.6 100 11:42 28.03.2020
5760 Clouds 22 1017 73 10000 2.6 100 11:21 28.03.2020
5761 Clouds 23 1017 69 10000 3.6 110 10:55 28.03.2020
5762 Clouds 23 1017 69 10000 3.6 110 10:36 28.03.2020
5763 Clouds 23 1017 69 10000 3.6 110 10:18 28.03.2020
5764 Clouds 22 1017 73 10000 2.1 100 09:40 28.03.2020
5765 Clouds 22 1017 73 10000 2.1 100 09:22 28.03.2020
5766 Clouds 22 1018 73 10000 2.1 90 08:45 28.03.2020
5767 Clouds 23 1018 73 10000 2.1 90 08:25 28.03.2020
5768 Clouds 23 1018 73 10000 2.1 70 07:58 28.03.2020
5769 Clouds 23 1018 73 10000 2.1 70 07:40 28.03.2020
5770 Clouds 22 1019 68 10000 1.5 80 06:53 28.03.2020
5771 Clouds 22 1019 68 10000 1.5 80 06:26 28.03.2020
5772 Clouds 23 1019 64 10000 3.1 110 05:30 28.03.2020
5773 Clouds 23 1019 64 10000 3.1 110 05:30 28.03.2020
5774 Clouds 23 1019 64 10000 3.6 100 04:58 28.03.2020
5775 Clouds 23 1019 64 10000 3.6 100 04:39 28.03.2020
5776 Clouds 23 1018 64 10000 4.1 90 02:51 28.03.2020
5777 Clouds 24 1018 60 10000 4.6 90 01:47 28.03.2020
5778 Clouds 24 1018 60 10000 4.1 100 01:23 28.03.2020
5779 Clouds 24 1018 60 10000 4.1 100 00:49 28.03.2020
5780 Clouds 24 1018 60 10000 4.1 100 00:24 28.03.2020
5781 Clouds 24 1017 57 10000 4.6 80 23:44 27.03.2020
5782 Clouds 25 1017 57 10000 4.6 80 23:25 27.03.2020
5783 Clouds 25 1017 57 10000 5.7 40 22:57 27.03.2020
5784 Clouds 25 1017 57 10000 5.7 40 22:39 27.03.2020
5785 Clouds 25 1017 57 10000 5.7 40 22:20 27.03.2020
5786 Clouds 25 1017 61 10000 5.1 50 21:57 27.03.2020
5787 Clouds 25 1017 61 10000 5.1 50 21:38 27.03.2020
5788 Clouds 25 1017 61 10000 5.1 50 21:20 27.03.2020
5789 Clouds 25 1018 61 10000 5.1 50 20:55 27.03.2020
5790 Clouds 25 1018 61 10000 5.1 50 20:37 27.03.2020
5791 Clouds 26 1018 51 10000 4.6 70 20:18 27.03.2020
5792 Clouds 26 1018 51 10000 4.6 70 19:42 27.03.2020
5793 Clouds 26 1018 51 10000 4.6 70 19:22 27.03.2020
5794 Clouds 25 1018 61 10000 4.6 70 18:56 27.03.2020
5795 Clouds 25 1018 61 10000 4.6 70 18:38 27.03.2020
5796 Clouds 26 1018 61 10000 4.6 70 18:19 27.03.2020
5797 Clouds 26 1018 61 10000 4.6 70 18:19 27.03.2020
5798 Clouds 26 1018 61 10000 4.6 70 17:40 27.03.2020
5799 Clouds 26 1018 61 10000 4.6 70 17:20 27.03.2020
5800 Clouds 25 1018 65 10000 4.1 80 16:54 27.03.2020
5801 Clouds 25 1018 65 10000 4.1 80 16:36 27.03.2020
5802 Clouds 25 1018 65 10000 4.1 80 16:36 27.03.2020
5803 Clouds 25 1018 65 10000 4.1 80 16:18 27.03.2020
5804 Clouds 25 1018 69 10000 4.6 70 15:41 27.03.2020
5805 Clouds 25 1018 69 10000 4.6 70 15:23 27.03.2020
5806 Clouds 24 1018 73 10000 4.1 90 14:46 27.03.2020
5807 Clouds 24 1017 78 10000 2.6 90 14:25 27.03.2020
5808 Clouds 24 1017 78 10000 2.6 90 13:56 27.03.2020
5809 Clouds 23 1017 78 10000 2.6 90 13:37 27.03.2020
5810 Clouds 23 1017 78 10000 2.6 90 13:18 27.03.2020
5811 Clouds 23 1016 83 10000 2.6 90 12:49 27.03.2020
5812 Clouds 22 1016 83 10000 2.6 90 12:21 27.03.2020
5813 Clouds 23 1016 78 10000 2.6 90 11:59 27.03.2020
5814 Clouds 23 1016 78 10000 2.6 90 11:59 27.03.2020
5815 Clouds 23 1016 78 10000 2.6 90 11:59 27.03.2020
5816 Clouds 23 1016 78 10000 2.6 90 11:59 27.03.2020
5817 Clouds 23 1016 78 10000 2.6 90 11:40 27.03.2020
5818 Clouds 23 1016 78 10000 2.6 90 11:22 27.03.2020
5819 Clouds 23 1016 83 10000 2.6 90 10:54 27.03.2020
5820 Clouds 23 1016 83 10000 2.6 90 10:36 27.03.2020
5821 Clouds 23 1016 83 10000 2.6 90 10:36 27.03.2020
5822 Clouds 23 1016 83 10000 2.6 90 10:18 27.03.2020
5823 Clear 23 1015 85 0 5.89 56 09:54 27.03.2020
5824 Clear 23 1015 80 0 5.89 56 09:36 27.03.2020
5825 Clear 23 1015 80 0 5.89 56 09:18 27.03.2020
5826 Clear 23 1015 80 0 5.89 56 08:54 27.03.2020
5827 Clear 23 1015 80 0 5.89 56 08:36 27.03.2020
5828 Clear 23 1015 80 0 4.61 21 08:18 27.03.2020
5829 Clear 23 1015 80 0 4.61 21 07:41 27.03.2020
5830 Clear 23 1015 80 0 4.61 21 07:21 27.03.2020
5831 Clear 23 1016 80 0 4.61 21 06:41 27.03.2020
5832 Clear 24 1016 80 0 4.61 21 05:57 27.03.2020
5833 Clouds 24 1017 83 10000 1.5 50 03:34 27.03.2020
5834 Clouds 25 1015 78 10000 2.1 40 01:56 27.03.2020
5835 Clouds 25 1015 78 10000 2.1 40 01:19 27.03.2020
5836 Clouds 25 1015 78 10000 4.6 40 00:41 27.03.2020
5837 Clouds 25 1015 78 10000 4.6 40 00:19 27.03.2020
5838 Clouds 26 1015 74 10000 3.6 20 23:37 26.03.2020
5839 Clouds 26 1015 74 10000 3.6 20 23:18 26.03.2020
5840 Clouds 27 1015 69 10000 4.6 10 22:56 26.03.2020
5841 Clouds 27 1015 69 10000 4.6 10 22:36 26.03.2020
5842 Clouds 27 1015 69 10000 4.6 10 22:18 26.03.2020
5843 Clouds 27 1016 69 10000 5.1 20 21:40 26.03.2020
5844 Clouds 27 1016 69 10000 5.1 20 21:21 26.03.2020
5845 Clouds 27 1016 69 10000 5.1 10 20:59 26.03.2020
5846 Clouds 27 1016 69 10000 5.1 10 20:39 26.03.2020
5847 Clouds 27 1016 69 10000 5.1 10 20:21 26.03.2020
5848 Clouds 27 1017 74 10000 5.7 20 19:58 26.03.2020
5849 Clouds 27 1017 74 10000 5.7 20 19:39 26.03.2020
5850 Clouds 27 1017 74 10000 5.7 20 19:20 26.03.2020
5851 Clouds 27 1017 74 10000 5.7 20 19:20 26.03.2020
5852 Clouds 27 1017 69 10000 5.1 20 18:58 26.03.2020
5853 Clouds 27 1017 69 10000 5.1 20 18:39 26.03.2020
5854 Clouds 27 1017 69 10000 5.1 20 18:21 26.03.2020
5855 Clouds 28 1017 65 10000 4.1 350 17:44 26.03.2020
5856 Clouds 28 1017 65 10000 4.1 350 17:19 26.03.2020
5857 Clouds 27 1017 74 10000 5.1 340 16:47 26.03.2020
5858 Clouds 27 1017 74 10000 4.6 320 16:28 26.03.2020
5859 Clouds 27 1017 74 10000 4.6 320 15:59 26.03.2020
5860 Clouds 27 1017 74 10000 4.6 320 15:41 26.03.2020
5861 Rain 27 1016 77 0 4.17 295 15:22 26.03.2020
5862 Rain 26 1016 78 0 4.17 295 14:58 26.03.2020
5863 Rain 26 1016 79 0 4.17 295 14:39 26.03.2020
5864 Clear 24 1016 94 10000 2.6 250 14:19 26.03.2020
5865 Clear 23 1016 94 10000 2.6 250 13:44 26.03.2020
5866 Clear 23 1016 94 10000 2.6 250 13:24 26.03.2020
5867 Clouds 23 1015 88 10000 2.1 290 12:57 26.03.2020
5868 Clouds 23 1015 88 10000 2.1 290 12:38 26.03.2020
5869 Clouds 23 1015 88 10000 2.1 290 12:19 26.03.2020
5870 Clouds 22 1015 94 10000 1.5 280 11:45 26.03.2020
5871 Clouds 22 1015 94 10000 1.5 280 11:22 26.03.2020
5872 Clouds 22 1015 94 10000 1.5 280 10:56 26.03.2020
5873 Clouds 22 1015 94 10000 1.5 280 10:37 26.03.2020
5874 Clouds 22 1015 94 10000 1.5 280 10:37 26.03.2020
5875 Clouds 22 1015 94 10000 1.5 280 10:19 26.03.2020
5876 Clouds 23 1015 94 10000 2.1 260 09:43 26.03.2020
5877 Clouds 23 1015 94 10000 2.1 260 09:19 26.03.2020
5878 Clouds 22 1015 94 10000 2.1 240 08:54 26.03.2020
5879 Clouds 22 1015 94 10000 2.1 240 08:36 26.03.2020
5880 Clouds 22 1015 94 10000 2.1 240 08:18 26.03.2020
5881 Clouds 23 1015 88 10000 2.1 260 07:41 26.03.2020
5882 Clouds 23 1015 88 10000 2.1 260 07:20 26.03.2020
5883 Clouds 23 1016 88 10000 2.1 250 06:47 26.03.2020
5884 Clouds 23 1016 94 10000 1.5 250 05:52 26.03.2020
5885 Clouds 24 1016 88 10000 1 0 03:58 26.03.2020
5886 Clouds 24 1016 88 10000 1 0 03:35 26.03.2020
5887 Clouds 25 1016 78 10000 3.1 200 02:53 26.03.2020
5888 Clouds 25 1015 78 10000 4.1 200 01:44 26.03.2020
5889 Clouds 25 1015 78 10000 4.6 200 00:43 26.03.2020
5890 Clouds 26 1015 69 10000 4.6 190 23:45 25.03.2020
5891 Clouds 27 1015 69 10000 4.6 190 23:27 25.03.2020
5892 Clouds 27 1015 65 10000 5.1 190 22:57 25.03.2020
5893 Clouds 27 1015 65 10000 5.1 190 22:38 25.03.2020
5894 Clouds 27 1015 65 10000 5.1 190 22:19 25.03.2020
5895 Clouds 27 1015 65 10000 6.2 190 21:54 25.03.2020
5896 Clouds 27 1015 65 10000 6.2 190 21:36 25.03.2020
5897 Clouds 27 1015 65 10000 6.2 190 21:18 25.03.2020
5898 Clouds 28 1016 61 10000 5.7 200 20:39 25.03.2020
5899 Clouds 28 1016 61 10000 5.7 200 20:19 25.03.2020
5900 Clouds 28 1017 61 10000 4.6 200 19:56 25.03.2020
5901 Clouds 28 1017 61 10000 4.6 200 19:38 25.03.2020
5902 Clouds 28 1018 61 10000 5.1 190 19:19 25.03.2020
5903 Clouds 28 1018 61 10000 5.1 190 18:43 25.03.2020
5904 Clouds 28 1018 61 10000 5.1 190 18:25 25.03.2020
5905 Clouds 27 1018 65 10000 5.1 210 17:59 25.03.2020
5906 Clouds 27 1018 65 10000 5.1 210 17:41 25.03.2020
5907 Clouds 27 1018 65 10000 5.1 210 17:22 25.03.2020
5908 Clouds 25 1018 73 10000 5.1 220 16:58 25.03.2020
5909 Clouds 25 1018 73 10000 5.1 220 16:58 25.03.2020
5910 Clouds 26 1018 73 10000 5.1 220 16:39 25.03.2020
5911 Clouds 26 1018 69 0 5.1 210 16:20 25.03.2020
5912 Clouds 25 1018 69 0 5.1 210 15:43 25.03.2020
5913 Clouds 25 1018 73 10000 4.6 180 15:21 25.03.2020
5914 Clouds 25 1018 73 10000 4.6 180 14:57 25.03.2020
5915 Clouds 25 1018 73 10000 4.6 180 14:57 25.03.2020
5916 Clouds 26 1018 73 10000 4.6 180 14:39 25.03.2020
5917 Clouds 26 1018 73 10000 4.6 180 14:39 25.03.2020
5918 Clouds 26 1018 73 10000 4.6 180 14:39 25.03.2020
5919 Clouds 25 1017 83 0 2.6 190 14:19 25.03.2020
5920 Rain 25 1017 75 0 1.34 229 13:44 25.03.2020
5921 Clouds 24 1017 88 10000 2.6 190 13:24 25.03.2020
5922 Clouds 23 1017 88 10000 2.6 190 12:39 25.03.2020
5923 Clouds 23 1017 88 10000 2.6 190 12:39 25.03.2020
5924 Clouds 22 1017 88 10000 2.6 190 12:20 25.03.2020
5925 Clouds 22 1017 88 10000 2.6 190 11:57 25.03.2020
5926 Clouds 22 1017 88 10000 2.6 190 11:39 25.03.2020
5927 Clouds 22 1017 88 10000 2.6 190 11:20 25.03.2020
5928 Clouds 22 1017 88 10000 2.6 190 11:20 25.03.2020
5929 Clouds 23 1017 83 10000 3.1 180 10:57 25.03.2020
5930 Clouds 23 1017 83 10000 3.1 180 10:39 25.03.2020
5931 Clouds 23 1017 83 10000 3.1 180 10:18 25.03.2020
5932 Clouds 23 1017 83 10000 3.1 180 09:43 25.03.2020
5933 Clear 23 1016 80 0 5.89 164 09:25 25.03.2020
5934 Clear 23 1016 80 0 0.45 240 08:58 25.03.2020
5935 Clear 23 1016 80 0 0.45 240 08:58 25.03.2020
5936 Clear 23 1016 80 0 5.89 164 08:39 25.03.2020
5937 Clouds 23 1019 83 10000 3.1 140 08:19 25.03.2020
5938 Clouds 23 1019 83 10000 3.1 140 07:41 25.03.2020
5939 Clouds 23 1019 83 10000 3.1 140 07:23 25.03.2020
5940 -273 0 0 0 0 0 06:50 25.03.2020
5941 Clouds 23 1019 83 10000 2.1 160 06:28 25.03.2020
5942 Clouds 23 1020 78 10000 2.1 150 05:58 25.03.2020
5943 Clouds 23 1020 78 10000 2.1 150 05:37 25.03.2020
5944 Clouds 23 1020 78 10000 2.1 160 04:41 25.03.2020
5945 Clouds 23 1020 78 10000 2.6 150 03:52 25.03.2020
5946 Clouds 23 1020 78 10000 2.6 150 03:29 25.03.2020
5947 Clouds 24 1019 65 10000 4.1 160 01:25 25.03.2020
5948 Clouds 24 1019 65 10000 4.1 160 00:49 25.03.2020
5949 Clouds 25 1019 65 10000 4.1 160 00:25 25.03.2020
5950 Clouds 26 1019 61 10000 4.6 150 23:50 24.03.2020
5951 Clouds 26 1019 61 10000 4.6 150 23:28 24.03.2020
5952 Clouds 27 1019 58 10000 5.1 160 22:57 24.03.2020
5953 Clouds 27 1019 58 10000 5.1 160 22:38 24.03.2020
5954 Clouds 28 1019 51 10000 4.1 170 22:19 24.03.2020
5955 Clouds 28 1019 51 10000 4.1 170 21:56 24.03.2020
5956 Clouds 28 1019 51 10000 4.1 170 21:38 24.03.2020
5957 Clouds 28 1019 51 10000 4.1 170 21:18 24.03.2020
5958 Clouds 28 1020 51 10000 3.6 170 20:56 24.03.2020
5959 Clouds 28 1020 51 10000 3.6 170 20:38 24.03.2020
5960 Clouds 28 1020 51 10000 3.6 170 20:20 24.03.2020
5961 Clouds 28 1021 54 10000 4.1 170 19:44 24.03.2020
5962 Clouds 28 1021 54 10000 4.1 170 19:19 24.03.2020
5963 Clouds 27 1022 57 10000 3.6 170 18:56 24.03.2020
5964 Clouds 27 1022 57 10000 3.6 170 18:37 24.03.2020
5965 Clouds 27 1022 57 10000 3.6 170 18:18 24.03.2020
5966 Clouds 28 1022 51 10000 3.1 150 17:42 24.03.2020
5967 Clouds 28 1022 51 10000 3.1 150 17:23 24.03.2020
5968 Clouds 27 1022 61 10000 3.6 170 16:58 24.03.2020
5969 Clouds 27 1022 61 10000 3.6 170 16:40 24.03.2020
5970 Clouds 27 1022 61 10000 3.6 170 16:22 24.03.2020
5971 Clouds 27 1022 61 10000 4.1 150 15:58 24.03.2020
5972 Clouds 27 1022 61 10000 4.1 150 15:38 24.03.2020
5973 Clouds 26 1022 69 10000 4.6 160 15:20 24.03.2020
5974 Clouds 25 1022 69 10000 4.6 160 14:43 24.03.2020
5975 Clouds 24 1022 88 10000 1.5 140 14:20 24.03.2020
5976 Clouds 24 1022 88 10000 1.5 140 13:44 24.03.2020
5977 Clouds 23 1021 88 10000 1 0 13:24 24.03.2020
5978 Clouds 22 1021 88 10000 1 0 12:58 24.03.2020
5979 Clouds 22 1021 88 10000 1 0 12:38 24.03.2020
5980 Clouds 22 1021 88 10000 1 0 12:38 24.03.2020
5981 Clouds 21 1021 88 10000 1 0 12:20 24.03.2020
5982 Rain 23 1021 74 0 4.94 137 11:40 24.03.2020
5983 Clouds 22 1021 88 10000 3.1 130 11:20 24.03.2020
5984 Clouds 22 1021 88 10000 3.1 130 10:43 24.03.2020
5985 Clouds 22 1021 88 10000 3.1 130 10:20 24.03.2020
5986 Clouds 22 1021 88 10000 3.1 130 10:20 24.03.2020
5987 Clouds 23 1021 83 10000 2.6 120 09:59 24.03.2020
5988 Clouds 23 1021 83 10000 2.6 120 09:41 24.03.2020
5989 Clouds 23 1021 83 10000 2.6 120 09:41 24.03.2020
5990 Clouds 23 1021 83 10000 2.6 120 09:22 24.03.2020
5991 Clouds 23 1022 83 10000 3.1 110 08:39 24.03.2020
5992 Clouds 23 1022 83 10000 3.1 110 08:21 24.03.2020
5993 Clouds 23 1022 83 10000 3.1 110 08:21 24.03.2020
5994 Clouds 23 1022 83 10000 3.6 120 07:50 24.03.2020
5995 Clouds 23 1022 83 10000 3.6 120 07:25 24.03.2020
5996 Clear 23 1021 80 0 1.34 112 06:58 24.03.2020
5997 Clear 23 1021 80 0 0.89 134 06:32 24.03.2020
5998 Clouds 24 1023 78 10000 4.1 120 05:27 24.03.2020
5999 Clouds 24 1023 78 10000 3.6 110 04:31 24.03.2020
6000 Clouds 24 1023 78 10000 3.6 100 03:18 24.03.2020
6001 Clear 24 1022 79 0 0.89 125 01:49 24.03.2020
6002 Clouds 25 1022 61 10000 4.6 130 00:49 24.03.2020
6003 Clouds 25 1022 61 10000 4.6 130 00:26 24.03.2020
6004 Clouds 26 1022 51 10000 5.7 140 23:46 23.03.2020
6005 Clouds 26 1022 57 10000 5.7 140 23:26 23.03.2020
6006 Clouds 26 1022 57 10000 5.7 140 22:56 23.03.2020
6007 Clouds 26 1022 57 10000 5.7 140 22:37 23.03.2020
6008 Clouds 27 1022 54 10000 6.2 150 22:19 23.03.2020
6009 Clouds 27 1022 54 10000 6.2 150 21:44 23.03.2020
6010 Clouds 27 1022 54 10000 6.2 150 21:21 23.03.2020
6011 Clouds 27 1023 48 10000 5.1 130 20:58 23.03.2020
6012 Clouds 27 1023 48 10000 5.1 130 20:40 23.03.2020
6013 Clouds 27 1023 48 10000 5.1 130 20:22 23.03.2020
6014 Clouds 27 1024 57 10000 5.1 130 19:46 23.03.2020
6015 Clouds 28 1024 51 10000 5.7 130 19:28 23.03.2020
6016 Clouds 27 1024 51 10000 5.7 130 18:59 23.03.2020
6017 Clouds 27 1024 51 10000 5.7 130 18:41 23.03.2020
6018 Clouds 28 1024 51 10000 5.7 130 18:22 23.03.2020
6019 Clouds 27 1025 61 10000 5.7 130 17:56 23.03.2020
6020 Clouds 27 1025 61 10000 5.7 130 17:37 23.03.2020
6021 Clouds 27 1025 61 10000 5.7 130 17:18 23.03.2020
6022 Clouds 26 1025 65 10000 5.7 120 16:43 23.03.2020
6023 Clouds 26 1025 65 10000 5.7 120 16:24 23.03.2020
6024 Clouds 26 1025 65 10000 5.1 120 15:42 23.03.2020
6025 Clouds 26 1025 65 10000 5.1 120 15:42 23.03.2020
6026 Clouds 26 1025 65 10000 5.1 120 15:20 23.03.2020
6027 Clouds 26 1024 69 10000 5.7 120 14:55 23.03.2020
6028 Clouds 25 1024 69 10000 5.7 120 14:36 23.03.2020
6029 Clouds 25 1023 78 10000 2.1 130 14:18 23.03.2020
6030 Clouds 24 1023 78 10000 2.1 130 13:40 23.03.2020
6031 Clouds 24 1023 78 10000 2.1 130 13:40 23.03.2020
6032 Clouds 24 1023 78 10000 2.1 130 13:21 23.03.2020
6033 Clouds 23 1023 78 10000 3.1 110 12:46 23.03.2020
6034 Clouds 23 1023 78 10000 3.1 110 12:26 23.03.2020
6035 Clouds 22 1023 78 10000 2.1 120 11:59 23.03.2020
6036 Clouds 22 1023 78 10000 2.1 120 11:40 23.03.2020
6037 Clouds 22 1023 78 10000 2.1 120 11:20 23.03.2020
6038 Clouds 22 1022 83 10000 4.1 120 10:58 23.03.2020
6039 Clouds 22 1022 83 10000 4.1 120 10:58 23.03.2020
6040 Clouds 22 1022 83 10000 4.1 120 10:39 23.03.2020
6041 Clouds 22 1022 83 10000 4.1 120 10:21 23.03.2020
6042 Clouds 23 1023 73 10000 4.1 120 09:46 23.03.2020
6043 Clouds 23 1023 73 10000 4.1 120 09:21 23.03.2020
6044 Clouds 23 1023 73 10000 4.1 120 08:57 23.03.2020
6045 Clouds 23 1023 73 10000 4.1 120 08:36 23.03.2020
6046 Clouds 23 1023 73 10000 4.1 120 08:18 23.03.2020
6047 Clouds 23 1024 73 10000 3.6 110 07:45 23.03.2020
6048 Clouds 23 1024 73 10000 3.6 110 07:27 23.03.2020
6049 Clouds 23 1024 73 10000 4.6 110 06:52 23.03.2020
6050 Clouds 23 1024 73 10000 4.6 110 05:54 23.03.2020
6051 Clouds 23 1024 78 10000 4.1 120 05:29 23.03.2020
6052 Clouds 23 1024 73 10000 2.1 70 03:29 23.03.2020
6053 Clouds 24 1024 73 10000 2.1 80 02:29 23.03.2020
6054 Rain 23 1022 77 0 0.45 120 01:34 23.03.2020
6055 Clouds 24 1023 69 10000 4.6 100 00:40 23.03.2020
6056 Clouds 25 1022 61 10000 5.1 100 23:48 22.03.2020
6057 Clouds 25 1022 61 10000 5.1 110 23:26 22.03.2020
6058 Clouds 25 1022 61 10000 5.1 110 22:45 22.03.2020
6059 Clouds 26 1022 57 10000 4.6 90 22:26 22.03.2020
6060 Clouds 26 1022 57 10000 4.6 90 21:56 22.03.2020
6061 Clouds 26 1022 57 10000 4.6 90 21:37 22.03.2020
6062 Clouds 26 1022 57 10000 4.6 90 21:19 22.03.2020
6063 Clouds 27 1023 54 10000 5.1 100 20:46 22.03.2020
6064 Clouds 27 1023 54 10000 5.1 100 20:25 22.03.2020
6065 Clouds 27 1023 51 10000 5.1 120 19:58 22.03.2020
6066 Clouds 27 1023 51 10000 5.1 120 19:40 22.03.2020
6067 Clouds 27 1023 51 10000 5.1 120 19:21 22.03.2020
6068 Clouds 27 1023 51 10000 5.1 120 19:20 22.03.2020
6069 Clouds 27 1024 51 10000 5.1 120 18:59 22.03.2020
6070 Clouds 27 1024 51 10000 5.1 120 18:41 22.03.2020
6071 Clouds 27 1024 51 10000 5.1 120 18:41 22.03.2020
6072 Clouds 27 1024 51 10000 5.1 120 18:22 22.03.2020
6073 Clouds 27 1024 51 10000 5.1 130 17:59 22.03.2020
6074 Clouds 27 1024 51 10000 5.1 130 17:39 22.03.2020
6075 Clouds 27 1024 51 10000 5.1 130 17:20 22.03.2020
6076 Clouds 26 1024 57 10000 5.1 130 16:58 22.03.2020
6077 Clouds 26 1024 57 10000 5.1 130 16:58 22.03.2020
6078 Clouds 26 1024 57 10000 5.1 130 16:39 22.03.2020
6079 Clouds 26 1024 57 10000 5.1 130 16:39 22.03.2020
6080 Clouds 26 1024 65 10000 7.2 110 16:21 22.03.2020
6081 Clouds 26 1024 65 10000 7.2 110 15:44 22.03.2020
6082 Clouds 25 1024 65 10000 7.2 110 15:26 22.03.2020
6083 Clouds 25 1023 73 10000 5.1 120 14:46 22.03.2020
6084 Clouds 24 1023 73 10000 5.1 120 14:19 22.03.2020
6085 Clouds 24 1023 83 10000 3.6 120 13:45 22.03.2020
6086 Clouds 23 1023 83 10000 3.6 120 13:21 22.03.2020
6087 Clouds 23 1022 83 10000 2.6 80 12:59 22.03.2020
6088 Clouds 22 1022 83 10000 2.6 80 12:41 22.03.2020
6089 Clouds 22 1022 83 10000 2.6 80 12:19 22.03.2020
6090 Clear 23 1022 79 0 7.69 104 11:44 22.03.2020
6091 Clouds 22 1021 83 10000 3.1 130 11:25 22.03.2020
6092 Clouds 22 1021 83 10000 3.1 130 10:58 22.03.2020
6093 Clouds 22 1021 83 10000 3.1 130 10:40 22.03.2020
6094 Rain 21 1021 79 0 7.9 98 10:22 22.03.2020
6095 Rain 21 1021 79 0 7.9 98 09:47 22.03.2020
6096 Rain 21 1021 79 0 7.9 98 09:28 22.03.2020
6097 Rain 21 1021 79 0 7.9 98 08:51 22.03.2020
6098 Rain 22 1021 79 0 7.9 98 08:33 22.03.2020
6099 Rain 22 1021 79 0 7.9 98 08:33 22.03.2020
6100 Clear 22 1021 79 0 7.14 100 07:56 22.03.2020
6101 Clear 22 1022 80 0 7.14 100 07:38 22.03.2020
6102 Clouds 23 1024 83 10000 2.6 90 06:48 22.03.2020
6103 Clouds 23 1024 78 10000 2.6 90 05:52 22.03.2020
6104 Clouds 23 1024 78 10000 3.6 90 04:39 22.03.2020
6105 Clouds 24 1023 69 10000 3.6 90 01:47 22.03.2020
6106 Clouds 24 1023 65 10000 5.1 90 00:50 22.03.2020
6107 Clouds 24 1023 65 10000 5.1 90 00:31 22.03.2020
6108 Clouds 25 1023 61 10000 5.1 80 23:46 21.03.2020
6109 Clouds 25 1023 61 10000 5.1 80 23:22 21.03.2020
6110 Clouds 25 1023 61 10000 6.2 70 22:58 21.03.2020
6111 Clouds 26 1023 61 10000 6.2 70 22:38 21.03.2020
6112 Clouds 25 1023 61 10000 6.2 70 22:19 21.03.2020
6113 Clouds 25 1023 65 10000 6.7 50 21:57 21.03.2020
6114 Clouds 26 1023 65 10000 6.7 50 21:38 21.03.2020
6115 Clouds 26 1023 65 10000 6.7 50 21:19 21.03.2020
6116 Clouds 26 1024 61 10000 6.2 50 20:42 21.03.2020
6117 Clouds 26 1024 61 10000 6.2 50 20:22 21.03.2020
6118 Clouds 27 1024 51 10000 4.6 120 19:55 21.03.2020
6119 Clouds 27 1024 51 10000 4.6 120 19:36 21.03.2020
6120 Clouds 27 1024 51 10000 4.6 120 19:18 21.03.2020
6121 Clouds 27 1024 51 10000 4.6 120 19:18 21.03.2020
6122 Clouds 27 1025 48 10000 5.1 120 18:41 21.03.2020
6123 Clouds 27 1025 48 10000 5.1 120 18:20 21.03.2020
6124 Clouds 26 1025 57 10000 5.1 100 17:58 21.03.2020
6125 Clouds 26 1025 57 10000 5.1 100 17:39 21.03.2020
6126 Clouds 26 1025 57 10000 5.1 100 17:21 21.03.2020
6127 Clouds 26 1025 61 10000 5.1 100 16:42 21.03.2020
6128 Clouds 26 1025 61 10000 5.1 100 16:23 21.03.2020
6129 Clouds 25 1025 65 10000 3.1 120 15:58 21.03.2020
6130 Clouds 25 1025 65 10000 3.1 120 15:39 21.03.2020
6131 Clouds 25 1025 65 10000 3.1 120 15:21 21.03.2020
6132 Clouds 25 1024 73 0 2.24 70 14:55 21.03.2020
6133 Clouds 25 1024 73 0 1.34 21 14:37 21.03.2020
6134 Clouds 23 1024 78 10000 2.1 90 14:18 21.03.2020
6135 Clouds 23 1024 78 10000 2.1 90 13:57 21.03.2020
6136 Clouds 23 1024 78 10000 2.1 90 13:38 21.03.2020
6137 Clouds 23 1024 78 10000 2.1 90 13:19 21.03.2020
6138 Clouds 20 1024 88 10000 1.5 90 12:41 21.03.2020
6139 Clouds 20 1024 88 10000 1.5 90 12:20 21.03.2020
6140 Clouds 20 1023 88 10000 1.5 90 11:59 21.03.2020
6141 Clouds 20 1023 88 10000 1.5 90 11:39 21.03.2020
6142 Clouds 20 1023 88 10000 1.5 90 11:20 21.03.2020
6143 Clouds 21 1023 83 10000 2.6 100 10:58 21.03.2020
6144 Clouds 21 1023 83 10000 2.6 100 10:39 21.03.2020
6145 Clouds 21 1023 83 10000 2.6 100 10:21 21.03.2020
6146 Clouds 22 1024 88 10000 2.6 100 09:59 21.03.2020
6147 Clouds 22 1024 88 10000 2.6 100 09:39 21.03.2020
6148 Clouds 22 1024 88 10000 2.6 100 09:39 21.03.2020
6149 Clouds 22 1024 88 10000 2.6 100 09:20 21.03.2020
6150 Clouds 22 1024 88 10000 3.1 110 08:55 21.03.2020
6151 Clouds 22 1024 88 10000 3.1 110 08:37 21.03.2020
6152 Clouds 22 1024 88 10000 3.1 110 08:18 21.03.2020
6153 Clouds 22 1025 83 10000 3.1 110 07:37 21.03.2020
6154 Clouds 22 1025 83 10000 3.1 110 07:18 21.03.2020
6155 Clouds 22 1025 78 10000 3.1 120 06:42 21.03.2020
6156 Clouds 23 1025 78 10000 3.1 120 06:23 21.03.2020
6157 Clouds 23 1026 78 10000 3.6 100 05:39 21.03.2020
6158 Clouds 23 1026 73 10000 4.1 100 03:39 21.03.2020
6159 Clouds 24 1025 73 10000 4.6 110 02:36 21.03.2020
6160 Clouds 24 1025 73 10000 4.6 110 01:43 21.03.2020
6161 Clouds 24 1025 73 10000 4.6 110 01:23 21.03.2020
6162 Clouds 24 1024 69 10000 6.2 100 00:39 21.03.2020
6163 Clouds 24 1024 69 10000 6.2 100 00:20 21.03.2020
6164 Clouds 24 1023 77 0 2.68 103 23:41 20.03.2020
6165 Rain 25 1024 69 10000 6.7 120 23:20 20.03.2020
6166 Rain 25 1024 69 10000 6.7 120 22:44 20.03.2020
6167 Rain 26 1024 69 10000 6.7 120 22:24 20.03.2020
6168 Rain 26 1024 69 10000 7.2 120 21:58 20.03.2020
6169 Rain 26 1024 69 10000 7.2 120 21:39 20.03.2020
6170 Rain 26 1024 69 10000 7.2 120 21:20 20.03.2020
6171 Clouds 27 1024 54 10000 7.2 120 20:58 20.03.2020
6172 Clouds 27 1024 54 10000 7.2 120 20:40 20.03.2020
6173 Clouds 27 1024 54 10000 7.2 120 20:19 20.03.2020
6174 Clouds 26 1025 65 10000 6.2 110 19:46 20.03.2020
6175 Clouds 27 1026 61 10000 6.2 120 19:20 20.03.2020
6176 Clouds 27 1026 61 10000 6.2 120 18:57 20.03.2020
6177 Clouds 27 1026 61 10000 6.2 120 18:37 20.03.2020
6178 Clouds 26 1027 61 10000 6.7 120 18:19 20.03.2020
6179 Rain 26 1026 72 0 3.13 99 17:41 20.03.2020
6180 Clouds 26 1027 65 10000 7.2 110 17:22 20.03.2020
6181 Clouds 26 1027 65 10000 7.2 110 16:59 20.03.2020
6182 Clouds 26 1027 65 10000 7.2 110 16:41 20.03.2020
6183 Clouds 26 1027 65 10000 7.2 110 16:20 20.03.2020
6184 Clouds 25 1026 75 0 2.24 74 15:44 20.03.2020
6185 Clouds 25 1026 65 10000 6.7 120 15:23 20.03.2020
6186 Clouds 25 1026 65 10000 6.7 120 14:58 20.03.2020
6187 Clouds 25 1026 65 10000 6.7 120 14:58 20.03.2020
6188 Clouds 25 1026 65 10000 6.7 120 14:40 20.03.2020
6189 Clouds 24 1026 73 10000 4.6 120 14:20 20.03.2020
6190 Clear 24 1025 75 0 1.79 38 13:48 20.03.2020
6191 Clouds 24 1025 69 10000 5.7 120 13:21 20.03.2020
6192 Clouds 23 1025 69 10000 5.7 120 12:57 20.03.2020
6193 Clouds 23 1025 69 10000 5.7 120 12:37 20.03.2020
6194 Clouds 23 1025 69 10000 5.7 120 12:18 20.03.2020
6195 Clear 23 1025 75 0 9.23 97 11:39 20.03.2020
6196 Clouds 23 1025 73 10000 4.6 100 11:20 20.03.2020
6197 Clouds 23 1025 73 10000 4.6 100 10:54 20.03.2020
6198 Clouds 23 1025 73 10000 4.6 100 10:36 20.03.2020
6199 Clear 23 1024 77 0 2.24 76 10:18 20.03.2020
6200 Clear 23 1024 77 0 2.24 76 09:43 20.03.2020
6201 Clear 23 1024 77 0 2.24 76 09:20 20.03.2020
6202 Clear 23 1024 77 0 1.79 94 08:43 20.03.2020
6203 Clouds 23 1026 73 10000 4.6 110 08:22 20.03.2020
6204 Clouds 23 1026 73 10000 4.6 110 07:57 20.03.2020
6205 Clouds 23 1026 73 10000 4.6 110 07:38 20.03.2020
6206 Clear 23 1025 79 0 1.34 124 07:19 20.03.2020
6207 Clear 23 1025 78 0 2.24 70 06:42 20.03.2020
6208 Clear 23 1026 79 0 1.79 57 04:57 20.03.2020
6209 Clouds 23 1026 78 10000 4.6 110 04:26 20.03.2020
6210 Clouds 24 1025 73 10000 5.7 110 02:27 20.03.2020
6211 Clouds 24 1025 73 10000 5.7 110 01:47 20.03.2020
6212 Clouds 24 1024 73 10000 7.2 100 00:33 20.03.2020
6213 Clouds 25 1024 65 10000 7.7 110 23:51 19.03.2020
6214 Clouds 25 1024 65 10000 7.7 110 23:30 19.03.2020
6215 Clouds 25 1024 65 10000 7.2 110 22:58 19.03.2020
6216 Clouds 26 1024 65 10000 7.2 110 22:38 19.03.2020
6217 Clouds 25 1024 78 10000 6.2 120 22:20 19.03.2020
6218 Clouds 25 1024 78 10000 6.2 120 21:55 19.03.2020
6219 Clouds 25 1024 78 10000 6.2 120 21:37 19.03.2020
6220 Clouds 25 1024 78 10000 6.2 120 21:18 19.03.2020
6221 Clouds 26 1025 61 10000 6.7 110 20:42 19.03.2020
6222 Clouds 26 1025 61 10000 6.7 110 20:23 19.03.2020
6223 Clouds 26 1024 74 0 2.68 88 19:56 19.03.2020
6224 Clouds 26 1024 74 0 3.58 85 19:38 19.03.2020
6225 Clouds 26 1026 61 10000 6.7 100 19:19 19.03.2020
6226 Clouds 26 1026 61 10000 6.7 100 18:56 19.03.2020
6227 Clouds 26 1025 73 0 3.13 140 18:38 19.03.2020
6228 Clouds 25 1026 65 10000 6.2 90 18:19 19.03.2020
6229 Clouds 25 1026 65 10000 6.2 90 17:41 19.03.2020
6230 Clouds 25 1026 65 10000 6.2 90 17:19 19.03.2020
6231 Clear 25 1026 74 0 0.89 104 16:45 19.03.2020
6232 Clouds 25 1026 61 10000 7.2 120 16:24 19.03.2020
6233 Clouds 25 1026 61 10000 7.2 120 15:54 19.03.2020
6234 Clouds 25 1026 61 10000 7.2 120 15:36 19.03.2020
6235 Clouds 25 1026 60 10000 6.7 110 15:18 19.03.2020
6236 Clear 25 1025 71 0 2.68 138 14:42 19.03.2020
6237 Clouds 24 1025 69 10000 4.1 100 14:20 19.03.2020
6238 Clouds 23 1025 69 10000 4.1 100 13:41 19.03.2020
6239 Clouds 23 1025 69 10000 5.7 110 13:19 19.03.2020
6240 Clouds 23 1025 69 10000 5.7 110 12:56 19.03.2020
6241 Clouds 23 1025 69 10000 5.7 110 12:56 19.03.2020
6242 Clouds 23 1025 69 10000 5.7 110 12:38 19.03.2020
6243 Clouds 23 1025 69 10000 5.7 110 12:19 19.03.2020
6244 Clouds 23 1025 72 0 9.54 87 11:42 19.03.2020
6245 Clouds 23 1025 72 0 9.54 87 11:23 19.03.2020
6246 Clouds 23 1023 79 0 9.07 85 10:56 19.03.2020
6247 Clouds 23 1023 79 0 9.07 85 10:36 19.03.2020
6248 Clouds 23 1023 79 0 2.68 88 10:18 19.03.2020
6249 Clouds 23 1023 79 0 2.68 88 09:44 19.03.2020
6250 Clouds 23 1023 79 0 2.68 88 09:26 19.03.2020
6251 Clouds 23 1023 79 0 2.68 88 08:57 19.03.2020
6252 Clouds 23 1023 79 0 3.13 110 08:37 19.03.2020
6253 Clear 23 1023 79 0 2.24 68 08:18 19.03.2020
6254 Clear 23 1023 80 0 2.24 77 07:42 19.03.2020
6255 Clear 23 1023 80 0 2.24 95 07:22 19.03.2020
6256 Clear 22 1024 80 0 2.68 44 06:27 19.03.2020
6257 Clear 23 1024 79 0 1.34 73 05:25 19.03.2020
6258 Clouds 24 1025 73 10000 3.6 100 04:51 19.03.2020
6259 Clouds 24 1025 73 10000 3.6 100 04:22 19.03.2020
6260 Clouds 24 1025 78 10000 4.6 100 02:33 19.03.2020
6261 Clouds 24 1024 73 10000 5.1 100 00:53 19.03.2020
6262 Clouds 24 1024 69 10000 5.7 90 00:20 19.03.2020
6263 Clouds 24 1023 77 0 2.24 70 23:44 18.03.2020
6264 Clouds 25 1023 65 10000 6.2 110 23:26 18.03.2020
6265 Clouds 26 1023 74 0 2.68 77 22:43 18.03.2020
6266 Clouds 27 1024 54 10000 5.1 130 22:23 18.03.2020
6267 Clouds 26 1023 74 0 2.24 34 21:58 18.03.2020
6268 Clouds 26 1023 73 0 2.24 46 21:40 18.03.2020
6269 Clouds 27 1024 54 10000 6.7 140 21:20 18.03.2020
6270 Clouds 27 1024 54 10000 6.7 140 20:55 18.03.2020
6271 Clouds 27 1024 54 10000 6.7 140 20:37 18.03.2020
6272 Clouds 27 1024 54 10000 6.7 140 20:19 18.03.2020
6273 Clouds 27 1024 57 10000 5.1 100 19:41 18.03.2020
6274 Clouds 27 1024 57 10000 5.1 100 19:21 18.03.2020
6275 Clouds 27 1024 57 10000 5.1 100 19:21 18.03.2020
6276 Clouds 27 1025 57 10000 5.7 110 18:58 18.03.2020
6277 Clouds 27 1025 57 10000 5.7 110 18:58 18.03.2020
6278 Clouds 27 1025 57 10000 5.7 110 18:39 18.03.2020
6279 Clouds 26 1025 57 10000 5.7 110 18:19 18.03.2020
6280 Clouds 25 1025 69 10000 8.2 100 17:55 18.03.2020
6281 Clouds 25 1025 69 10000 8.2 100 17:37 18.03.2020
6282 Clouds 25 1025 69 10000 8.2 100 17:19 18.03.2020
6283 Clouds 25 1025 69 10000 5.1 100 16:42 18.03.2020
6284 Clouds 25 1025 69 10000 5.1 100 16:21 18.03.2020
6285 Clouds 25 1025 69 10000 4.6 90 15:57 18.03.2020
6286 Clouds 25 1025 69 10000 4.6 90 15:38 18.03.2020
6287 Clouds 25 1025 69 10000 4.6 90 15:20 18.03.2020
6288 Clouds 24 1024 73 10000 3.6 90 14:42 18.03.2020
6289 Clouds 24 1024 73 10000 3.6 90 14:21 18.03.2020
6290 Clouds 22 1023 83 10000 2.1 90 13:42 18.03.2020
6291 Clouds 22 1023 83 10000 2.1 90 13:19 18.03.2020
6292 Clouds 22 1023 83 10000 2.1 80 12:55 18.03.2020
6293 Clouds 21 1023 83 10000 2.1 80 12:37 18.03.2020
6294 Clouds 21 1023 83 10000 2.1 80 12:18 18.03.2020
6295 Clouds 22 1023 78 10000 2.1 80 11:38 18.03.2020
6296 Clouds 22 1023 78 10000 2.1 80 11:19 18.03.2020
6297 Clouds 21 1022 77 10000 2.1 80 10:56 18.03.2020
6298 Clouds 21 1022 77 10000 2.1 80 10:37 18.03.2020
6299 Clouds 22 1023 73 10000 2.6 90 10:18 18.03.2020
6300 Clouds 22 1023 73 10000 2.6 90 10:18 18.03.2020
6301 Clouds 22 1023 73 10000 2.6 90 10:18 18.03.2020
6302 Clouds 22 1023 73 10000 2.6 90 09:42 18.03.2020
6303 Clouds 22 1023 73 10000 2.6 90 09:23 18.03.2020
6304 Clouds 22 1023 78 10000 2.1 90 08:55 18.03.2020
6305 Clouds 22 1023 78 10000 2.1 90 08:55 18.03.2020
6306 Clouds 22 1023 78 10000 2.1 90 08:36 18.03.2020
6307 Clouds 22 1023 78 10000 2.1 90 08:18 18.03.2020
6308 Clouds 22 1023 73 10000 3.6 90 07:40 18.03.2020
6309 Clouds 22 1023 73 10000 3.6 90 07:22 18.03.2020
6310 Clouds 23 1024 73 10000 3.1 80 06:42 18.03.2020
6311 Clouds 23 1024 73 10000 3.1 80 05:47 18.03.2020
6312 Clouds 23 1024 73 10000 3.1 80 05:18 18.03.2020
6313 Clouds 23 1023 78 10000 4.1 70 03:21 18.03.2020
6314 Clouds 23 1023 78 10000 3.6 70 02:37 18.03.2020
6315 Clouds 23 1023 78 10000 3.6 70 02:37 18.03.2020
6316 Clouds 23 1023 78 10000 3.1 60 01:45 18.03.2020
6317 Clouds 23 1023 78 10000 3.1 60 01:20 18.03.2020
6318 Clouds 24 1022 73 10000 4.6 70 00:22 18.03.2020
6319 Clouds 24 1022 69 10000 5.1 50 23:43 17.03.2020
6320 Clouds 25 1022 69 10000 5.1 50 23:22 17.03.2020
6321 Clouds 25 1022 69 10000 5.7 50 22:47 17.03.2020
6322 Clouds 25 1022 69 10000 5.7 50 22:28 17.03.2020
6323 Clouds 25 1022 65 10000 5.1 40 21:57 17.03.2020
6324 Clouds 26 1022 65 10000 5.1 40 21:37 17.03.2020
6325 Clouds 25 1022 65 10000 5.1 50 21:19 17.03.2020
6326 Clouds 26 1022 65 10000 5.1 50 20:38 17.03.2020
6327 Clouds 26 1022 65 10000 5.1 50 20:20 17.03.2020
6328 Clouds 26 1023 65 10000 4.1 70 19:42 17.03.2020
6329 Clouds 26 1023 65 10000 4.1 70 19:22 17.03.2020
6330 Clouds 25 1024 69 10000 5.1 70 18:59 17.03.2020
6331 Clouds 26 1024 69 10000 5.1 70 18:40 17.03.2020
6332 Clouds 26 1024 69 10000 5.1 70 18:22 17.03.2020
6333 Clouds 25 1024 69 10000 5.1 60 17:59 17.03.2020
6334 Clouds 25 1024 69 10000 5.1 60 17:39 17.03.2020
6335 Clouds 25 1024 69 10000 5.1 60 17:19 17.03.2020
6336 Clouds 25 1024 65 10000 6.2 80 16:43 17.03.2020
6337 Clouds 25 1024 65 10000 6.2 80 16:19 17.03.2020
6338 Clouds 24 1024 73 10000 5.7 80 15:48 17.03.2020
6339 Clouds 24 1024 73 10000 5.7 80 15:23 17.03.2020
6340 Clouds 24 1023 78 10000 4.6 80 14:49 17.03.2020
6341 Clouds 24 1022 83 10000 4.1 70 14:30 17.03.2020
6342 Clouds 23 1022 83 10000 4.1 70 13:58 17.03.2020
6343 Clouds 23 1022 83 10000 4.1 70 13:40 17.03.2020
6344 Clouds 23 1022 83 10000 4.1 70 13:22 17.03.2020
6345 Clouds 23 1022 78 10000 2.6 80 12:47 17.03.2020
6346 Clouds 23 1022 78 10000 2.6 80 12:25 17.03.2020
6347 Clouds 23 1022 76 0 5.48 65 11:56 17.03.2020
6348 Clouds 23 1022 76 0 5.48 65 11:38 17.03.2020
6349 Clouds 22 1021 83 10000 2.1 80 11:20 17.03.2020
6350 Clouds 22 1021 83 10000 2.1 80 10:54 17.03.2020
6351 Clouds 22 1021 83 10000 2.1 80 10:36 17.03.2020
6352 Clouds 22 1021 83 10000 2.1 80 10:18 17.03.2020
6353 Clouds 22 1020 79 0 1.79 38 09:44 17.03.2020
6354 Clouds 22 1022 83 10000 1 0 09:20 17.03.2020
6355 Clouds 22 1022 83 10000 1 0 08:51 17.03.2020
6356 Clouds 22 1022 83 10000 2.1 100 08:24 17.03.2020
6357 Clouds 23 1020 79 0 1.79 35 07:58 17.03.2020
6358 Clouds 23 1021 79 0 2.24 63 07:39 17.03.2020
6359 Clouds 23 1023 78 10000 2.6 90 07:19 17.03.2020
6360 Clouds 23 1023 78 10000 2.6 90 06:40 17.03.2020
6361 Clouds 23 1023 78 10000 2.6 90 06:19 17.03.2020
6362 Clouds 23 1023 78 10000 2.6 90 06:19 17.03.2020
6363 Clouds 23 1023 78 10000 3.1 90 04:40 17.03.2020
6364 Clouds 23 1023 78 10000 3.1 90 03:19 17.03.2020
6365 Clear 23 1021 79 0 1.79 104 01:49 17.03.2020
6366 Clouds 23 1022 73 10000 4.1 60 01:28 17.03.2020
6367 Clouds 24 1022 73 10000 4.1 60 00:48 17.03.2020
6368 Clouds 23 1021 77 0 2.24 59 23:51 16.03.2020
6369 Clouds 24 1021 77 0 2.24 62 23:32 16.03.2020
6370 Clouds 24 1021 75 0 2.24 63 22:43 16.03.2020
6371 Clouds 24 1021 74 0 2.68 46 22:25 16.03.2020
6372 Clouds 25 1021 75 0 2.68 47 21:58 16.03.2020
6373 Clouds 25 1021 74 0 2.24 45 21:40 16.03.2020
6374 Clouds 25 1021 74 0 2.24 70 21:22 16.03.2020
6375 Clouds 25 1021 74 0 2.24 71 20:56 16.03.2020
6376 Clouds 25 1021 74 0 2.24 53 20:38 16.03.2020
6377 Clouds 25 1021 74 0 2.68 60 20:19 16.03.2020
6378 Clouds 25 1021 73 0 2.24 96 19:41 16.03.2020
6379 Clouds 26 1023 58 10000 5.1 70 19:21 16.03.2020
6380 Clouds 27 1023 58 10000 5.1 70 18:43 16.03.2020
6381 Clouds 27 1023 58 10000 5.1 70 18:22 16.03.2020
6382 Clouds 25 1024 65 10000 4.6 70 17:57 16.03.2020
6383 Clouds 26 1024 65 10000 4.6 70 17:37 16.03.2020
6384 Clouds 26 1024 65 10000 4.6 70 17:18 16.03.2020
6385 Clouds 25 1023 65 10000 5.7 80 16:45 16.03.2020
6386 Clouds 25 1023 65 10000 5.7 80 16:27 16.03.2020
6387 Clouds 24 1023 69 10000 5.1 80 15:46 16.03.2020
6388 Clouds 24 1023 69 10000 5.1 80 15:28 16.03.2020
6389 Clouds 24 1023 73 10000 5.1 70 14:49 16.03.2020
6390 Clouds 23 1022 83 10000 3.6 70 14:28 16.03.2020
6391 Clouds 23 1022 83 10000 3.6 70 13:59 16.03.2020
6392 Clouds 23 1022 83 10000 3.6 70 13:41 16.03.2020
6393 Clouds 22 1022 83 10000 3.6 70 13:22 16.03.2020
6394 Clouds 21 1022 83 10000 3.1 80 12:45 16.03.2020
6395 Clouds 21 1022 83 10000 3.1 80 12:24 16.03.2020
6396 Clouds 22 1021 83 10000 3.6 80 11:47 16.03.2020
6397 Clouds 22 1021 83 10000 3.6 80 11:28 16.03.2020
6398 Clouds 22 1021 83 10000 3.1 70 10:56 16.03.2020
6399 Clouds 22 1021 83 10000 3.1 70 10:37 16.03.2020
6400 Clouds 22 1021 83 10000 3.1 70 10:18 16.03.2020
6401 Clouds 22 1021 83 10000 3.1 70 09:42 16.03.2020
6402 Clouds 22 1021 83 10000 3.1 70 09:21 16.03.2020
6403 Clouds 22 1022 88 10000 2.1 80 08:52 16.03.2020
6404 Clouds 22 1022 88 10000 2.1 80 08:25 16.03.2020
6405 Clouds 22 1022 88 10000 2.1 80 08:25 16.03.2020
6406 Clouds 22 1023 83 10000 2.6 80 07:48 16.03.2020
6407 Clouds 22 1023 83 10000 2.6 80 07:25 16.03.2020
6408 Clouds 22 1023 78 10000 2.6 100 06:52 16.03.2020
6409 Clouds 22 1023 78 10000 2.6 100 06:24 16.03.2020
6410 Clouds 23 1024 78 10000 4.1 70 04:54 16.03.2020
6411 Clear 23 1023 76 0 2.68 49 02:41 16.03.2020
6412 Clouds 23 1022 76 0 1.79 78 00:52 16.03.2020
6413 Clouds 23 1022 76 0 0.89 59 00:32 16.03.2020
6414 Clouds 24 1021 73 0 1.34 104 23:46 15.03.2020
6415 Clouds 25 1021 57 10000 4.1 50 23:20 15.03.2020
6416 Clouds 25 1021 57 10000 4.1 50 22:42 15.03.2020
6417 Clouds 24 1021 70 0 1.34 38 22:22 15.03.2020
6418 Clouds 25 1021 72 0 1.34 68 21:55 15.03.2020
6419 Clouds 25 1021 71 0 2.24 64 21:37 15.03.2020
6420 Clouds 25 1022 61 10000 4.6 80 21:18 15.03.2020
6421 Clouds 25 1022 61 10000 4.6 80 20:42 15.03.2020
6422 Clouds 26 1023 61 10000 5.1 60 20:20 15.03.2020
6423 Clouds 26 1023 61 10000 5.1 60 19:56 15.03.2020
6424 Clouds 26 1023 61 10000 5.1 60 19:38 15.03.2020
6425 Clouds 26 1023 61 10000 5.1 60 19:19 15.03.2020
6426 Clouds 26 1024 61 10000 5.1 60 18:55 15.03.2020
6427 Clouds 26 1024 61 10000 5.1 60 18:36 15.03.2020
6428 Clouds 26 1024 61 10000 5.1 60 18:18 15.03.2020
6429 Clouds 26 1024 61 10000 5.7 70 17:40 15.03.2020
6430 Clouds 26 1024 61 10000 5.7 70 17:20 15.03.2020
6431 Clouds 25 1024 61 10000 5.1 90 16:56 15.03.2020
6432 Clouds 25 1024 61 10000 5.1 90 16:37 15.03.2020
6433 Clouds 25 1024 61 10000 5.1 90 16:18 15.03.2020
6434 Clouds 25 1024 61 10000 5.7 90 15:43 15.03.2020
6435 Clouds 24 1024 61 10000 5.7 90 15:25 15.03.2020
6436 Clouds 24 1023 69 10000 4.6 100 14:47 15.03.2020
6437 Clouds 24 1023 69 10000 4.6 100 14:28 15.03.2020
6438 Clouds 23 1023 83 10000 2.1 110 13:59 15.03.2020
6439 Clouds 23 1023 83 10000 2.1 110 13:40 15.03.2020
6440 Clouds 23 1023 83 10000 2.1 110 13:21 15.03.2020
6441 Clouds 22 1023 83 10000 2.1 100 12:58 15.03.2020
6442 Clouds 22 1023 83 10000 2.1 100 12:38 15.03.2020
6443 Clouds 22 1023 83 10000 2.1 100 12:20 15.03.2020
6444 Clouds 22 1022 83 10000 2.1 100 11:42 15.03.2020
6445 Clouds 22 1022 83 10000 2.1 100 11:22 15.03.2020
6446 Clouds 22 1022 83 10000 2.1 90 10:56 15.03.2020
6447 Clouds 22 1022 83 10000 2.1 90 10:38 15.03.2020
6448 Clouds 22 1022 83 10000 2.1 90 10:20 15.03.2020
6449 Clear 23 1022 78 0 6.62 69 09:41 15.03.2020
6450 Clear 23 1022 78 0 6.62 69 09:22 15.03.2020
6451 Clear 23 1022 78 0 6.62 69 08:45 15.03.2020
6452 Clouds 22 1023 88 10000 2.1 90 08:21 15.03.2020
6453 Clouds 22 1023 88 10000 2.1 90 07:51 15.03.2020
6454 Clear 23 1022 78 0 6.87 85 07:32 15.03.2020
6455 Clouds 23 1024 83 10000 2.6 100 06:53 15.03.2020
6456 Clouds 23 1024 83 10000 2.6 100 06:18 15.03.2020
6457 Clouds 23 1024 83 10000 3.1 90 05:19 15.03.2020
6458 Clouds 23 1024 83 10000 3.6 100 04:43 15.03.2020
6459 Clouds 23 1024 83 10000 3.6 100 04:24 15.03.2020
6460 Clouds 23 1024 83 10000 3.1 100 03:48 15.03.2020
6461 Clouds 23 1024 83 10000 3.6 90 02:38 15.03.2020
6462 Clouds 23 1023 83 10000 4.1 100 01:34 15.03.2020
6463 Clouds 24 1023 73 10000 4.6 100 00:46 15.03.2020
6464 Clouds 24 1023 73 10000 4.6 100 00:24 15.03.2020
6465 Clouds 25 1023 69 10000 5.1 80 23:55 14.03.2020
6466 Clouds 24 1022 78 0 1.34 112 23:36 14.03.2020
6467 Clouds 25 1022 65 10000 6.2 90 23:18 14.03.2020
6468 Clouds 26 1022 65 10000 6.2 90 22:41 14.03.2020
6469 Clouds 26 1022 65 10000 6.2 90 22:23 14.03.2020
6470 Clouds 25 1022 78 0 2.68 55 21:56 14.03.2020
6471 Clouds 25 1021 78 0 3.13 58 21:36 14.03.2020
6472 Clouds 25 1021 78 0 3.13 58 21:36 14.03.2020
6473 Clouds 25 1022 78 0 2.68 65 21:18 14.03.2020
6474 Clouds 25 1023 74 10000 4.6 90 20:58 14.03.2020
6475 Clouds 25 1023 74 10000 4.6 90 20:58 14.03.2020
6476 Clouds 26 1023 74 10000 4.6 90 20:39 14.03.2020
6477 Clouds 26 1023 74 10000 4.6 90 20:19 14.03.2020
6478 Clouds 26 1023 74 10000 5.1 80 19:42 14.03.2020
6479 Clouds 26 1024 69 10000 5.1 110 19:24 14.03.2020
6480 Clouds 26 1024 69 10000 5.1 110 18:41 14.03.2020
6481 Clouds 26 1024 69 10000 5.1 110 18:22 14.03.2020
6482 Clouds 26 1024 65 10000 4.6 110 17:55 14.03.2020
6483 Clouds 26 1023 77 0 2.24 56 17:37 14.03.2020
6484 Clouds 26 1024 74 10000 5.1 110 17:19 14.03.2020
6485 Clouds 26 1024 74 10000 5.1 110 16:40 14.03.2020
6486 Clouds 25 1024 73 10000 5.7 110 16:22 14.03.2020
6487 Clouds 25 1024 73 10000 5.7 110 15:52 14.03.2020
6488 Clouds 24 1023 83 10000 4.6 110 15:25 14.03.2020
6489 Clouds 24 1023 83 10000 4.6 110 14:46 14.03.2020
6490 Clouds 24 1023 88 10000 3.1 90 14:23 14.03.2020
6491 Clouds 23 1023 88 10000 3.1 90 13:57 14.03.2020
6492 Clouds 23 1023 88 10000 3.1 90 13:39 14.03.2020
6493 Clouds 23 1022 88 10000 3.6 90 13:20 14.03.2020
6494 Clouds 23 1022 88 10000 3.6 90 12:45 14.03.2020
6495 Clouds 23 1022 88 10000 3.6 90 12:26 14.03.2020
6496 Clouds 23 1022 83 10000 2.6 90 11:48 14.03.2020
6497 Clouds 23 1022 83 10000 2.6 90 11:48 14.03.2020
6498 Clouds 23 1022 83 10000 2.6 90 11:28 14.03.2020
6499 Clouds 23 1022 88 10000 4.6 100 10:59 14.03.2020
6500 Clouds 23 1021 83 0 7.57 84 10:41 14.03.2020
6501 Clouds 23 1021 83 0 7.57 84 10:23 14.03.2020
6502 Clouds 23 1021 74 0 7.57 84 09:44 14.03.2020
6503 Clouds 23 1022 83 10000 4.1 90 09:24 14.03.2020
6504 Clouds 23 1022 83 10000 4.1 90 08:48 14.03.2020
6505 Clouds 23 1023 83 10000 4.6 90 08:29 14.03.2020
6506 Clouds 23 1023 83 10000 4.6 90 07:55 14.03.2020
6507 Clouds 23 1023 83 10000 4.6 90 07:37 14.03.2020
6508 Clouds 23 1023 83 10000 4.6 90 07:18 14.03.2020
6509 Clear 23 1022 75 0 7.06 73 06:40 14.03.2020
6510 Clouds 23 1023 83 10000 4.1 80 05:19 14.03.2020
6511 Clouds 24 1022 78 10000 3.6 90 03:43 14.03.2020
6512 Clouds 24 1022 78 10000 3.6 90 03:23 14.03.2020
6513 Clouds 24 1021 83 10000 3.1 90 02:22 14.03.2020
6514 Clouds 24 1020 73 10000 4.6 90 00:44 14.03.2020
6515 Clouds 24 1020 73 10000 5.7 90 23:45 13.03.2020
6516 Clouds 25 1019 69 10000 6.2 70 23:27 13.03.2020
6517 Clouds 26 1019 69 10000 6.2 70 22:49 13.03.2020
6518 Clouds 26 1019 69 10000 6.2 70 22:26 13.03.2020
6519 Clouds 26 1019 69 10000 5.7 80 21:44 13.03.2020
6520 Clouds 26 1019 69 10000 5.7 80 21:21 13.03.2020
6521 Clouds 25 1020 69 10000 6.2 70 20:57 13.03.2020
6522 Clouds 26 1020 69 10000 6.2 70 20:38 13.03.2020
6523 Clouds 26 1020 69 10000 6.2 70 20:19 13.03.2020
6524 Clouds 26 1020 69 10000 6.7 70 19:45 13.03.2020
6525 Clouds 26 1020 69 10000 6.7 70 19:27 13.03.2020
6526 Clouds 25 1021 73 10000 6.2 80 18:47 13.03.2020
6527 Clouds 25 1021 73 10000 6.2 80 18:28 13.03.2020
6528 Clouds 25 1021 73 10000 6.2 80 17:57 13.03.2020
6529 Clear 25 1020 78 0 3.13 74 17:37 13.03.2020
6530 Clouds 25 1021 78 10000 5.7 70 17:18 13.03.2020
6531 Clouds 26 1021 78 10000 5.7 70 16:41 13.03.2020
6532 Clear 24 1020 78 0 4.02 72 16:23 13.03.2020
6533 Clear 24 1020 78 0 3.13 30 15:55 13.03.2020
6534 Clear 24 1020 77 0 1.34 60 15:37 13.03.2020
6535 Clouds 24 1020 78 10000 5.1 90 15:18 13.03.2020
6536 Clouds 24 1020 78 10000 5.1 90 14:41 13.03.2020
6537 Clouds 24 1020 83 0 3.6 80 14:22 13.03.2020
6538 Clouds 23 1019 76 0 6.75 61 13:55 13.03.2020
6539 Clouds 23 1019 76 0 6.75 61 13:55 13.03.2020
6540 Clouds 23 1019 75 0 6.75 61 13:37 13.03.2020
6541 Clouds 23 1019 83 10000 3.6 70 13:18 13.03.2020
6542 Clouds 23 1019 83 10000 3.6 70 12:39 13.03.2020
6543 Clouds 23 1019 83 10000 3.6 70 12:21 13.03.2020
6544 Clouds 23 1018 83 10000 4.1 80 11:57 13.03.2020
6545 Clouds 23 1018 83 10000 4.1 80 11:37 13.03.2020
6546 Clouds 23 1018 83 10000 4.1 80 11:19 13.03.2020
6547 Clouds 23 1018 83 10000 4.1 80 10:47 13.03.2020
6548 Clouds 23 1018 83 10000 4.1 80 10:26 13.03.2020
6549 Clouds 23 1018 83 10000 4.1 70 09:56 13.03.2020
6550 Clouds 23 1018 83 10000 4.1 70 09:38 13.03.2020
6551 Clouds 23 1018 83 10000 4.1 70 09:19 13.03.2020
6552 Clouds 23 1018 83 10000 4.1 70 09:19 13.03.2020
6553 Clouds 23 1018 83 10000 4.1 80 08:41 13.03.2020
6554 Clouds 23 1018 83 10000 4.1 80 08:22 13.03.2020
6555 Clouds 23 1019 83 10000 4.1 80 07:45 13.03.2020
6556 Clouds 23 1019 83 10000 4.1 80 07:27 13.03.2020
6557 Clouds 23 1019 78 10000 5.1 90 06:46 13.03.2020
6558 Clouds 23 1019 78 10000 5.1 90 06:23 13.03.2020
6559 Clouds 23 1019 78 10000 3.6 90 05:46 13.03.2020
6560 Clouds 23 1019 83 10000 3.6 90 04:57 13.03.2020
6561 Clouds 23 1019 83 10000 3.6 90 04:26 13.03.2020
6562 Clear 23 1017 77 0 7.22 74 02:58 13.03.2020
6563 Rain 23 1018 73 10000 4.1 80 01:39 13.03.2020
6564 Rain 23 1018 73 10000 4.1 80 01:18 13.03.2020
6565 Rain 23 1017 73 10000 4.1 80 00:42 13.03.2020
6566 Clouds 23 1017 73 10000 6.2 90 00:19 13.03.2020
6567 Clouds 23 1017 73 10000 6.2 90 00:19 13.03.2020
6568 Clouds 23 1017 73 10000 6.2 90 23:39 12.03.2020
6569 Clouds 24 1017 73 10000 6.2 90 23:19 12.03.2020
6570 Clouds 24 1016 65 10000 5.7 80 22:46 12.03.2020
6571 Clouds 24 1016 65 10000 5.7 80 22:27 12.03.2020
6572 Clouds 24 1017 65 10000 6.2 80 21:57 12.03.2020
6573 Clouds 25 1017 65 10000 6.2 80 21:39 12.03.2020
6574 Clouds 25 1017 61 10000 5.7 70 21:20 12.03.2020
6575 Clouds 25 1017 61 10000 5.7 70 20:42 12.03.2020
6576 Clouds 25 1018 57 10000 6.2 90 20:20 12.03.2020
6577 Clouds 25 1018 57 10000 6.2 90 19:42 12.03.2020
6578 Clouds 25 1018 57 10000 6.2 70 19:22 12.03.2020
6579 Clouds 25 1018 57 10000 6.2 70 18:59 12.03.2020
6580 Clouds 25 1018 57 10000 6.2 70 18:41 12.03.2020
6581 Clouds 25 1018 57 10000 6.2 70 18:22 12.03.2020
6582 Clouds 25 1019 61 10000 5.1 80 17:41 12.03.2020
6583 Clouds 25 1019 61 10000 5.1 80 17:22 12.03.2020
6584 Clouds 24 1019 69 10000 5.7 90 16:59 12.03.2020
6585 Clouds 24 1019 69 10000 5.7 90 16:41 12.03.2020
6586 Clouds 24 1019 69 10000 5.7 90 16:22 12.03.2020
6587 Clouds 24 1019 78 10000 5.7 70 15:49 12.03.2020
6588 Clouds 23 1019 78 10000 5.7 70 15:28 12.03.2020
6589 Clouds 23 1018 78 10000 4.1 80 14:55 12.03.2020
6590 Clouds 23 1018 78 10000 4.1 80 14:37 12.03.2020
6591 Clouds 22 1018 94 10000 2.1 80 14:18 12.03.2020
6592 Clouds 21 1018 94 10000 2.1 80 13:38 12.03.2020
6593 Clouds 21 1018 94 10000 2.1 80 13:20 12.03.2020
6594 Clouds 21 1017 83 10000 2.1 80 12:43 12.03.2020
6595 Clouds 21 1017 83 10000 2.1 80 12:24 12.03.2020
6596 Clouds 21 1017 83 0 2.1 90 11:59 12.03.2020
6597 Clouds 21 1017 83 0 2.1 90 11:59 12.03.2020
6598 Clouds 23 1017 80 0 6.6 71 11:39 12.03.2020
6599 Rain 21 1017 83 10000 2.1 80 11:21 12.03.2020
6600 Clouds 21 1017 83 10000 2.1 80 11:21 12.03.2020
6601 Rain 21 1017 83 10000 2.1 80 10:59 12.03.2020
6602 Rain 21 1017 83 10000 2.1 80 10:41 12.03.2020
6603 Rain 21 1017 83 10000 2.1 80 10:22 12.03.2020
6604 Clouds 21 1017 83 10000 2.1 100 09:48 12.03.2020
6605 Clouds 21 1017 83 10000 2.1 100 09:28 12.03.2020
6606 Clouds 21 1017 83 10000 2.1 100 09:28 12.03.2020
6607 Clouds 21 1017 83 10000 2.6 100 08:54 12.03.2020
6608 Clouds 21 1017 83 10000 2.6 100 08:36 12.03.2020
6609 Clouds 21 1017 83 10000 2.6 100 08:18 12.03.2020
6610 Clouds 22 1018 78 10000 2.6 80 07:45 12.03.2020
6611 Clouds 22 1018 78 10000 2.6 80 07:21 12.03.2020
6612 Rain 22 1020 78 10000 2.1 80 05:57 12.03.2020
6613 Rain 22 1020 78 10000 2.1 80 05:27 12.03.2020
6614 Clouds 22 1019 78 10000 3.6 100 02:43 12.03.2020
6615 Clouds 23 1019 73 10000 4.6 90 01:38 12.03.2020
6616 Clouds 23 1019 73 10000 4.6 90 01:20 12.03.2020
6617 Clouds 22 1019 69 10000 5.7 90 00:41 12.03.2020
6618 Clouds 22 1019 69 10000 5.7 90 00:41 12.03.2020
6619 Clouds 23 1019 64 10000 6.2 90 23:56 11.03.2020
6620 Clouds 23 1019 64 10000 6.2 90 23:26 11.03.2020
6621 Clouds 24 1019 61 10000 6.7 80 22:55 11.03.2020
6622 Clouds 24 1019 61 10000 6.7 80 22:37 11.03.2020
6623 Clouds 24 1019 61 10000 6.7 80 22:18 11.03.2020
6624 Clouds 24 1019 61 10000 5.7 90 21:41 11.03.2020
6625 Clouds 24 1020 65 10000 6.7 90 21:23 11.03.2020
6626 Clouds 24 1020 65 10000 6.7 90 21:23 11.03.2020
6627 Clouds 24 1020 65 10000 6.7 90 20:59 11.03.2020
6628 Clouds 25 1020 65 10000 6.7 90 20:40 11.03.2020
6629 Clouds 24 1020 65 10000 6.7 90 20:20 11.03.2020
6630 Clouds 24 1021 65 10000 7.2 90 19:58 11.03.2020
6631 Clouds 24 1021 65 10000 7.2 90 19:39 11.03.2020
6632 Clouds 24 1021 65 10000 7.2 90 19:21 11.03.2020
6633 Clouds 25 1021 61 10000 7.2 100 18:44 11.03.2020
6634 Clouds 25 1021 61 10000 7.2 100 18:25 11.03.2020
6635 Clouds 25 1022 61 10000 7.7 90 17:59 11.03.2020
6636 Rain 24 1021 76 0 2.24 80 17:39 11.03.2020
6637 Clouds 24 1022 61 10000 8.2 100 17:21 11.03.2020
6638 Clouds 24 1022 61 10000 8.2 100 16:47 11.03.2020
6639 Clouds 24 1022 61 10000 8.2 100 16:24 11.03.2020
6640 Clouds 24 1022 69 10000 6.7 90 15:59 11.03.2020
6641 Clouds 24 1022 69 10000 6.7 90 15:59 11.03.2020
6642 Clouds 24 1022 69 10000 6.7 90 15:41 11.03.2020
6643 Clouds 23 1021 73 10000 5.7 90 15:22 11.03.2020
6644 Clouds 23 1021 77 0 4.47 95 14:42 11.03.2020
6645 Clouds 22 1021 77 10000 3.1 90 14:23 11.03.2020
6646 Clouds 22 1021 77 10000 3.1 90 14:23 11.03.2020
6647 Clouds 22 1021 77 10000 3.1 90 13:56 11.03.2020
6648 Clouds 22 1021 77 10000 3.1 90 13:37 11.03.2020
6649 Clouds 22 1021 77 10000 3.1 90 13:19 11.03.2020
6650 Clouds 21 1021 83 10000 3.1 80 12:40 11.03.2020
6651 Clouds 21 1021 83 10000 3.1 80 12:20 11.03.2020
6652 Clouds 21 1021 83 10000 4.1 90 11:56 11.03.2020
6653 Clouds 21 1021 83 10000 4.1 90 11:37 11.03.2020
6654 Clouds 21 1021 83 10000 4.1 90 11:18 11.03.2020
6655 Clouds 21 1021 83 10000 3.6 80 10:42 11.03.2020
6656 Clouds 21 1021 83 10000 3.6 80 10:42 11.03.2020
6657 Clouds 21 1021 83 10000 3.6 80 10:18 11.03.2020
6658 Clouds 21 1021 83 10000 3.6 90 09:43 11.03.2020
6659 Clouds 21 1021 83 10000 3.6 90 09:25 11.03.2020
6660 Clouds 21 1022 83 10000 4.1 90 08:49 11.03.2020
6661 Clouds 21 1022 83 10000 4.1 90 08:49 11.03.2020
6662 Clouds 21 1022 83 10000 4.1 90 08:31 11.03.2020